<?xml version="1.0" encoding="UTF-8" standalone="no" ?>
<gpx xmlns="http://www.topografix.com/GPX/1/1" xmlns:xsi="http://www.w3.org/2001/XMLSchema-instance" xsi:schemaLocation="http://www.topografix.com/GPX/1/1 http://www.topografix.com/GPX/1/1/gpx.xsd" version="1.1" creator="VisuGPX - https://www.visugpx.com">
  <metadata>
    <name>Gazeran_boucle_24km</name>
    <desc><![CDATA[
Daniel Albani Philippe lenormand(Parcours)
Belle rando en passant par Epernon]]></desc>
  </metadata>
  <trk>
    <name><![CDATA[16/02/2021 08:59:23]]></name>
    <desc><![CDATA[Daniel Albani Philippe lenormand(Parcours)
Belle rando en passant par Epernon]]></desc>
    <trkseg>
      <trkpt lat="48.63152" lon="1.77254">
        <ele>269.20001220703</ele>
        <time>2021-02-16T07:59:23Z</time>
      </trkpt>
      <trkpt lat="48.63156" lon="1.77254">
        <ele>268.79998779297</ele>
        <time>2021-02-16T07:59:26Z</time>
      </trkpt>
      <trkpt lat="48.6318" lon="1.77256">
        <ele>267</ele>
        <time>2021-02-16T07:59:44Z</time>
      </trkpt>
      <trkpt lat="48.63207" lon="1.7726">
        <ele>265.79998779297</ele>
        <time>2021-02-16T08:00:03Z</time>
      </trkpt>
      <trkpt lat="48.63225" lon="1.77262">
        <ele>265</ele>
        <time>2021-02-16T08:00:18Z</time>
      </trkpt>
      <trkpt lat="48.63248" lon="1.77271">
        <ele>264</ele>
        <time>2021-02-16T08:00:32Z</time>
      </trkpt>
      <trkpt lat="48.63269" lon="1.77274">
        <ele>263</ele>
        <time>2021-02-16T08:00:47Z</time>
      </trkpt>
      <trkpt lat="48.63287" lon="1.7728">
        <ele>261.39999389648</ele>
        <time>2021-02-16T08:01:04Z</time>
      </trkpt>
      <trkpt lat="48.63306" lon="1.77279">
        <ele>260.20001220703</ele>
        <time>2021-02-16T08:01:18Z</time>
      </trkpt>
      <trkpt lat="48.63331" lon="1.77278">
        <ele>259.39999389648</ele>
        <time>2021-02-16T08:01:38Z</time>
      </trkpt>
      <trkpt lat="48.63355" lon="1.77283">
        <ele>257.39999389648</ele>
        <time>2021-02-16T08:01:59Z</time>
      </trkpt>
      <trkpt lat="48.63362" lon="1.77282">
        <ele>257.20001220703</ele>
        <time>2021-02-16T08:02:01Z</time>
      </trkpt>
      <trkpt lat="48.63366" lon="1.77282">
        <ele>257</ele>
        <time>2021-02-16T08:02:03Z</time>
      </trkpt>
      <trkpt lat="48.63382" lon="1.77281">
        <ele>255</ele>
        <time>2021-02-16T08:02:21Z</time>
      </trkpt>
      <trkpt lat="48.63394" lon="1.7727">
        <ele>254.80000305176</ele>
        <time>2021-02-16T08:02:29Z</time>
      </trkpt>
      <trkpt lat="48.634" lon="1.77247">
        <ele>255.80000305176</ele>
        <time>2021-02-16T08:02:45Z</time>
      </trkpt>
      <trkpt lat="48.63401" lon="1.77211">
        <ele>257.79998779297</ele>
        <time>2021-02-16T08:03:09Z</time>
      </trkpt>
      <trkpt lat="48.63401" lon="1.77186">
        <ele>259.20001220703</ele>
        <time>2021-02-16T08:03:26Z</time>
      </trkpt>
      <trkpt lat="48.63397" lon="1.77177">
        <ele>259.60000610352</ele>
        <time>2021-02-16T08:03:32Z</time>
      </trkpt>
      <trkpt lat="48.63392" lon="1.7717">
        <ele>260</ele>
        <time>2021-02-16T08:03:37Z</time>
      </trkpt>
      <trkpt lat="48.63391" lon="1.77168">
        <ele>260</ele>
        <time>2021-02-16T08:03:38Z</time>
      </trkpt>
      <trkpt lat="48.6339" lon="1.77166">
        <ele>260</ele>
        <time>2021-02-16T08:03:39Z</time>
      </trkpt>
      <trkpt lat="48.63391" lon="1.77164">
        <ele>260</ele>
        <time>2021-02-16T08:03:40Z</time>
      </trkpt>
      <trkpt lat="48.6339" lon="1.77162">
        <ele>260.20001220703</ele>
        <time>2021-02-16T08:03:41Z</time>
      </trkpt>
      <trkpt lat="48.6339" lon="1.77161">
        <ele>260.20001220703</ele>
        <time>2021-02-16T08:03:42Z</time>
      </trkpt>
      <trkpt lat="48.63389" lon="1.77155">
        <ele>260.60000610352</ele>
        <time>2021-02-16T08:03:46Z</time>
      </trkpt>
      <trkpt lat="48.63388" lon="1.77153">
        <ele>260.79998779297</ele>
        <time>2021-02-16T08:03:47Z</time>
      </trkpt>
      <trkpt lat="48.63388" lon="1.77147">
        <ele>261</ele>
        <time>2021-02-16T08:03:50Z</time>
      </trkpt>
      <trkpt lat="48.63376" lon="1.77122">
        <ele>262.60000610352</ele>
        <time>2021-02-16T08:04:07Z</time>
      </trkpt>
      <trkpt lat="48.63373" lon="1.77105">
        <ele>263.39999389648</ele>
        <time>2021-02-16T08:04:20Z</time>
      </trkpt>
      <trkpt lat="48.63371" lon="1.77076">
        <ele>263.39999389648</ele>
        <time>2021-02-16T08:04:38Z</time>
      </trkpt>
      <trkpt lat="48.63369" lon="1.77065">
        <ele>263.39999389648</ele>
        <time>2021-02-16T08:04:43Z</time>
      </trkpt>
      <trkpt lat="48.63366" lon="1.77039">
        <ele>263.20001220703</ele>
        <time>2021-02-16T08:04:59Z</time>
      </trkpt>
      <trkpt lat="48.63358" lon="1.77003">
        <ele>263</ele>
        <time>2021-02-16T08:05:19Z</time>
      </trkpt>
      <trkpt lat="48.63351" lon="1.76971">
        <ele>262.60000610352</ele>
        <time>2021-02-16T08:05:38Z</time>
      </trkpt>
      <trkpt lat="48.63349" lon="1.76963">
        <ele>262.60000610352</ele>
        <time>2021-02-16T08:05:42Z</time>
      </trkpt>
      <trkpt lat="48.63347" lon="1.7696">
        <ele>262.60000610352</ele>
        <time>2021-02-16T08:05:43Z</time>
      </trkpt>
      <trkpt lat="48.63344" lon="1.76957">
        <ele>262.60000610352</ele>
        <time>2021-02-16T08:05:44Z</time>
      </trkpt>
      <trkpt lat="48.63343" lon="1.76953">
        <ele>262.60000610352</ele>
        <time>2021-02-16T08:05:45Z</time>
      </trkpt>
      <trkpt lat="48.63342" lon="1.76949">
        <ele>262.60000610352</ele>
        <time>2021-02-16T08:05:46Z</time>
      </trkpt>
      <trkpt lat="48.63341" lon="1.76946">
        <ele>262.39999389648</ele>
        <time>2021-02-16T08:05:47Z</time>
      </trkpt>
      <trkpt lat="48.6333" lon="1.76921">
        <ele>262.20001220703</ele>
        <time>2021-02-16T08:06:00Z</time>
      </trkpt>
      <trkpt lat="48.63324" lon="1.76899">
        <ele>262.79998779297</ele>
        <time>2021-02-16T08:06:16Z</time>
      </trkpt>
      <trkpt lat="48.63312" lon="1.76872">
        <ele>263.60000610352</ele>
        <time>2021-02-16T08:06:35Z</time>
      </trkpt>
      <trkpt lat="48.63302" lon="1.76853">
        <ele>264</ele>
        <time>2021-02-16T08:06:48Z</time>
      </trkpt>
      <trkpt lat="48.63302" lon="1.76851">
        <ele>264</ele>
        <time>2021-02-16T08:06:49Z</time>
      </trkpt>
      <trkpt lat="48.63301" lon="1.76849">
        <ele>264</ele>
        <time>2021-02-16T08:06:50Z</time>
      </trkpt>
      <trkpt lat="48.63294" lon="1.76823">
        <ele>264.60000610352</ele>
        <time>2021-02-16T08:07:06Z</time>
      </trkpt>
      <trkpt lat="48.63284" lon="1.76798">
        <ele>265.20001220703</ele>
        <time>2021-02-16T08:07:22Z</time>
      </trkpt>
      <trkpt lat="48.63279" lon="1.76783">
        <ele>266</ele>
        <time>2021-02-16T08:07:36Z</time>
      </trkpt>
      <trkpt lat="48.63276" lon="1.76764">
        <ele>267.39999389648</ele>
        <time>2021-02-16T08:07:50Z</time>
      </trkpt>
      <trkpt lat="48.63269" lon="1.7674">
        <ele>268.60000610352</ele>
        <time>2021-02-16T08:08:07Z</time>
      </trkpt>
      <trkpt lat="48.63261" lon="1.76715">
        <ele>269.79998779297</ele>
        <time>2021-02-16T08:08:23Z</time>
      </trkpt>
      <trkpt lat="48.63247" lon="1.76686">
        <ele>271</ele>
        <time>2021-02-16T08:08:41Z</time>
      </trkpt>
      <trkpt lat="48.63234" lon="1.76658">
        <ele>271.39999389648</ele>
        <time>2021-02-16T08:09:00Z</time>
      </trkpt>
      <trkpt lat="48.63214" lon="1.76637">
        <ele>272.20001220703</ele>
        <time>2021-02-16T08:09:19Z</time>
      </trkpt>
      <trkpt lat="48.63196" lon="1.76643">
        <ele>272.60000610352</ele>
        <time>2021-02-16T08:09:32Z</time>
      </trkpt>
      <trkpt lat="48.63179" lon="1.76649">
        <ele>273.20001220703</ele>
        <time>2021-02-16T08:09:47Z</time>
      </trkpt>
      <trkpt lat="48.6316" lon="1.7666">
        <ele>273.60000610352</ele>
        <time>2021-02-16T08:10:03Z</time>
      </trkpt>
      <trkpt lat="48.63158" lon="1.7666">
        <ele>273.60000610352</ele>
        <time>2021-02-16T08:10:04Z</time>
      </trkpt>
      <trkpt lat="48.63157" lon="1.7666">
        <ele>273.60000610352</ele>
        <time>2021-02-16T08:10:05Z</time>
      </trkpt>
      <trkpt lat="48.6314" lon="1.7667">
        <ele>274</ele>
        <time>2021-02-16T08:10:19Z</time>
      </trkpt>
      <trkpt lat="48.6312" lon="1.76681">
        <ele>274.20001220703</ele>
        <time>2021-02-16T08:10:36Z</time>
      </trkpt>
      <trkpt lat="48.63099" lon="1.76689">
        <ele>274.60000610352</ele>
        <time>2021-02-16T08:10:56Z</time>
      </trkpt>
      <trkpt lat="48.63086" lon="1.76696">
        <ele>274.60000610352</ele>
        <time>2021-02-16T08:11:11Z</time>
      </trkpt>
      <trkpt lat="48.63068" lon="1.76706">
        <ele>275</ele>
        <time>2021-02-16T08:11:25Z</time>
      </trkpt>
      <trkpt lat="48.63048" lon="1.76712">
        <ele>275.39999389648</ele>
        <time>2021-02-16T08:11:42Z</time>
      </trkpt>
      <trkpt lat="48.63026" lon="1.76724">
        <ele>275.20001220703</ele>
        <time>2021-02-16T08:11:59Z</time>
      </trkpt>
      <trkpt lat="48.63005" lon="1.76729">
        <ele>275.39999389648</ele>
        <time>2021-02-16T08:12:16Z</time>
      </trkpt>
      <trkpt lat="48.62985" lon="1.76736">
        <ele>275.39999389648</ele>
        <time>2021-02-16T08:12:32Z</time>
      </trkpt>
      <trkpt lat="48.62966" lon="1.76745">
        <ele>275.39999389648</ele>
        <time>2021-02-16T08:12:47Z</time>
      </trkpt>
      <trkpt lat="48.62947" lon="1.76748">
        <ele>275.60000610352</ele>
        <time>2021-02-16T08:13:05Z</time>
      </trkpt>
      <trkpt lat="48.62944" lon="1.76751">
        <ele>275.39999389648</ele>
        <time>2021-02-16T08:13:08Z</time>
      </trkpt>
      <trkpt lat="48.62926" lon="1.76755">
        <ele>275.60000610352</ele>
        <time>2021-02-16T08:13:22Z</time>
      </trkpt>
      <trkpt lat="48.62909" lon="1.7675">
        <ele>274.79998779297</ele>
        <time>2021-02-16T08:13:42Z</time>
      </trkpt>
      <trkpt lat="48.62885" lon="1.76736">
        <ele>275</ele>
        <time>2021-02-16T08:14:04Z</time>
      </trkpt>
      <trkpt lat="48.62875" lon="1.76732">
        <ele>275</ele>
        <time>2021-02-16T08:14:12Z</time>
      </trkpt>
      <trkpt lat="48.62871" lon="1.76729">
        <ele>275</ele>
        <time>2021-02-16T08:14:15Z</time>
      </trkpt>
      <trkpt lat="48.62856" lon="1.76722">
        <ele>274.79998779297</ele>
        <time>2021-02-16T08:14:29Z</time>
      </trkpt>
      <trkpt lat="48.62833" lon="1.76713">
        <ele>274.79998779297</ele>
        <time>2021-02-16T08:14:49Z</time>
      </trkpt>
      <trkpt lat="48.6281" lon="1.76701">
        <ele>274.39999389648</ele>
        <time>2021-02-16T08:15:09Z</time>
      </trkpt>
      <trkpt lat="48.62792" lon="1.76692">
        <ele>273.79998779297</ele>
        <time>2021-02-16T08:15:24Z</time>
      </trkpt>
      <trkpt lat="48.62784" lon="1.76689">
        <ele>273.79998779297</ele>
        <time>2021-02-16T08:15:29Z</time>
      </trkpt>
      <trkpt lat="48.62765" lon="1.76678">
        <ele>272.60000610352</ele>
        <time>2021-02-16T08:15:47Z</time>
      </trkpt>
      <trkpt lat="48.6275" lon="1.76671">
        <ele>272</ele>
        <time>2021-02-16T08:15:57Z</time>
      </trkpt>
      <trkpt lat="48.62736" lon="1.7666">
        <ele>271.20001220703</ele>
        <time>2021-02-16T08:16:09Z</time>
      </trkpt>
      <trkpt lat="48.6273" lon="1.76634">
        <ele>270.60000610352</ele>
        <time>2021-02-16T08:16:25Z</time>
      </trkpt>
      <trkpt lat="48.62721" lon="1.76595">
        <ele>270.39999389648</ele>
        <time>2021-02-16T08:16:49Z</time>
      </trkpt>
      <trkpt lat="48.6271" lon="1.76557">
        <ele>270.39999389648</ele>
        <time>2021-02-16T08:17:11Z</time>
      </trkpt>
      <trkpt lat="48.62701" lon="1.76514">
        <ele>270.79998779297</ele>
        <time>2021-02-16T08:17:33Z</time>
      </trkpt>
      <trkpt lat="48.62694" lon="1.76483">
        <ele>271.20001220703</ele>
        <time>2021-02-16T08:17:51Z</time>
      </trkpt>
      <trkpt lat="48.62687" lon="1.76446">
        <ele>272.20001220703</ele>
        <time>2021-02-16T08:18:10Z</time>
      </trkpt>
      <trkpt lat="48.62682" lon="1.76422">
        <ele>272.39999389648</ele>
        <time>2021-02-16T08:18:28Z</time>
      </trkpt>
      <trkpt lat="48.62677" lon="1.76391">
        <ele>271.79998779297</ele>
        <time>2021-02-16T08:18:47Z</time>
      </trkpt>
      <trkpt lat="48.62664" lon="1.76367">
        <ele>271.79998779297</ele>
        <time>2021-02-16T08:19:01Z</time>
      </trkpt>
      <trkpt lat="48.62643" lon="1.76344">
        <ele>271.20001220703</ele>
        <time>2021-02-16T08:19:22Z</time>
      </trkpt>
      <trkpt lat="48.62621" lon="1.76323">
        <ele>270.39999389648</ele>
        <time>2021-02-16T08:19:43Z</time>
      </trkpt>
      <trkpt lat="48.62597" lon="1.76315">
        <ele>269.60000610352</ele>
        <time>2021-02-16T08:20:00Z</time>
      </trkpt>
      <trkpt lat="48.62578" lon="1.76313">
        <ele>269</ele>
        <time>2021-02-16T08:20:14Z</time>
      </trkpt>
      <trkpt lat="48.62564" lon="1.76311">
        <ele>268.60000610352</ele>
        <time>2021-02-16T08:20:30Z</time>
      </trkpt>
      <trkpt lat="48.62561" lon="1.7631">
        <ele>268.60000610352</ele>
        <time>2021-02-16T08:20:32Z</time>
      </trkpt>
      <trkpt lat="48.62548" lon="1.76295">
        <ele>268.60000610352</ele>
        <time>2021-02-16T08:20:47Z</time>
      </trkpt>
      <trkpt lat="48.62534" lon="1.76265">
        <ele>268</ele>
        <time>2021-02-16T08:21:07Z</time>
      </trkpt>
      <trkpt lat="48.62519" lon="1.76246">
        <ele>267.39999389648</ele>
        <time>2021-02-16T08:21:26Z</time>
      </trkpt>
      <trkpt lat="48.62504" lon="1.76216">
        <ele>267</ele>
        <time>2021-02-16T08:21:50Z</time>
      </trkpt>
      <trkpt lat="48.62502" lon="1.76196">
        <ele>266.60000610352</ele>
        <time>2021-02-16T08:22:01Z</time>
      </trkpt>
      <trkpt lat="48.62505" lon="1.76177">
        <ele>266.20001220703</ele>
        <time>2021-02-16T08:22:12Z</time>
      </trkpt>
      <trkpt lat="48.62507" lon="1.76167">
        <ele>265.79998779297</ele>
        <time>2021-02-16T08:22:18Z</time>
      </trkpt>
      <trkpt lat="48.62508" lon="1.76165">
        <ele>265.60000610352</ele>
        <time>2021-02-16T08:22:19Z</time>
      </trkpt>
      <trkpt lat="48.62508" lon="1.76162">
        <ele>265.60000610352</ele>
        <time>2021-02-16T08:22:20Z</time>
      </trkpt>
      <trkpt lat="48.62508" lon="1.76161">
        <ele>265.60000610352</ele>
        <time>2021-02-16T08:22:21Z</time>
      </trkpt>
      <trkpt lat="48.62509" lon="1.76158">
        <ele>265.39999389648</ele>
        <time>2021-02-16T08:22:22Z</time>
      </trkpt>
      <trkpt lat="48.6251" lon="1.76156">
        <ele>265.39999389648</ele>
        <time>2021-02-16T08:22:23Z</time>
      </trkpt>
      <trkpt lat="48.62516" lon="1.76131">
        <ele>264.39999389648</ele>
        <time>2021-02-16T08:22:37Z</time>
      </trkpt>
      <trkpt lat="48.62522" lon="1.76102">
        <ele>263.60000610352</ele>
        <time>2021-02-16T08:22:52Z</time>
      </trkpt>
      <trkpt lat="48.62526" lon="1.76092">
        <ele>263.39999389648</ele>
        <time>2021-02-16T08:22:58Z</time>
      </trkpt>
      <trkpt lat="48.62526" lon="1.7609">
        <ele>263.20001220703</ele>
        <time>2021-02-16T08:22:59Z</time>
      </trkpt>
      <trkpt lat="48.62526" lon="1.76088">
        <ele>263.20001220703</ele>
        <time>2021-02-16T08:23:00Z</time>
      </trkpt>
      <trkpt lat="48.62527" lon="1.76086">
        <ele>263</ele>
        <time>2021-02-16T08:23:01Z</time>
      </trkpt>
      <trkpt lat="48.62527" lon="1.76084">
        <ele>263</ele>
        <time>2021-02-16T08:23:02Z</time>
      </trkpt>
      <trkpt lat="48.62527" lon="1.76083">
        <ele>262.79998779297</ele>
        <time>2021-02-16T08:23:03Z</time>
      </trkpt>
      <trkpt lat="48.62528" lon="1.76081">
        <ele>262.60000610352</ele>
        <time>2021-02-16T08:23:04Z</time>
      </trkpt>
      <trkpt lat="48.62529" lon="1.76079">
        <ele>262.60000610352</ele>
        <time>2021-02-16T08:23:05Z</time>
      </trkpt>
      <trkpt lat="48.62529" lon="1.76078">
        <ele>262.39999389648</ele>
        <time>2021-02-16T08:23:06Z</time>
      </trkpt>
      <trkpt lat="48.6253" lon="1.76076">
        <ele>262.39999389648</ele>
        <time>2021-02-16T08:23:07Z</time>
      </trkpt>
      <trkpt lat="48.62531" lon="1.76074">
        <ele>262.39999389648</ele>
        <time>2021-02-16T08:23:08Z</time>
      </trkpt>
      <trkpt lat="48.62531" lon="1.76073">
        <ele>262.20001220703</ele>
        <time>2021-02-16T08:23:09Z</time>
      </trkpt>
      <trkpt lat="48.62537" lon="1.76045">
        <ele>261.20001220703</ele>
        <time>2021-02-16T08:23:25Z</time>
      </trkpt>
      <trkpt lat="48.62547" lon="1.76029">
        <ele>260.60000610352</ele>
        <time>2021-02-16T08:23:39Z</time>
      </trkpt>
      <trkpt lat="48.62553" lon="1.76027">
        <ele>261</ele>
        <time>2021-02-16T08:23:52Z</time>
      </trkpt>
      <trkpt lat="48.62564" lon="1.76035">
        <ele>261</ele>
        <time>2021-02-16T08:24:04Z</time>
      </trkpt>
      <trkpt lat="48.62598" lon="1.7602">
        <ele>260.79998779297</ele>
        <time>2021-02-16T08:24:20Z</time>
      </trkpt>
      <trkpt lat="48.62615" lon="1.75987">
        <ele>260.60000610352</ele>
        <time>2021-02-16T08:24:42Z</time>
      </trkpt>
      <trkpt lat="48.62627" lon="1.75956">
        <ele>260.79998779297</ele>
        <time>2021-02-16T08:25:01Z</time>
      </trkpt>
      <trkpt lat="48.62636" lon="1.75934">
        <ele>261.20001220703</ele>
        <time>2021-02-16T08:25:14Z</time>
      </trkpt>
      <trkpt lat="48.62638" lon="1.75932">
        <ele>261.20001220703</ele>
        <time>2021-02-16T08:25:15Z</time>
      </trkpt>
      <trkpt lat="48.62645" lon="1.75912">
        <ele>261.79998779297</ele>
        <time>2021-02-16T08:25:33Z</time>
      </trkpt>
      <trkpt lat="48.62647" lon="1.75908">
        <ele>262.20001220703</ele>
        <time>2021-02-16T08:25:43Z</time>
      </trkpt>
      <trkpt lat="48.62648" lon="1.7589">
        <ele>262.20001220703</ele>
        <time>2021-02-16T08:26:03Z</time>
      </trkpt>
      <trkpt lat="48.62661" lon="1.75873">
        <ele>263.79998779297</ele>
        <time>2021-02-16T08:26:19Z</time>
      </trkpt>
      <trkpt lat="48.62673" lon="1.75848">
        <ele>264.60000610352</ele>
        <time>2021-02-16T08:26:40Z</time>
      </trkpt>
      <trkpt lat="48.62683" lon="1.75822">
        <ele>265.39999389648</ele>
        <time>2021-02-16T08:26:59Z</time>
      </trkpt>
      <trkpt lat="48.62691" lon="1.75792">
        <ele>265.60000610352</ele>
        <time>2021-02-16T08:27:17Z</time>
      </trkpt>
      <trkpt lat="48.62696" lon="1.75756">
        <ele>265</ele>
        <time>2021-02-16T08:27:37Z</time>
      </trkpt>
      <trkpt lat="48.62698" lon="1.75731">
        <ele>264.60000610352</ele>
        <time>2021-02-16T08:27:53Z</time>
      </trkpt>
      <trkpt lat="48.62696" lon="1.75698">
        <ele>263.60000610352</ele>
        <time>2021-02-16T08:28:11Z</time>
      </trkpt>
      <trkpt lat="48.62697" lon="1.75671">
        <ele>261.79998779297</ele>
        <time>2021-02-16T08:28:30Z</time>
      </trkpt>
      <trkpt lat="48.62694" lon="1.75664">
        <ele>261.79998779297</ele>
        <time>2021-02-16T08:28:52Z</time>
      </trkpt>
      <trkpt lat="48.62689" lon="1.75665">
        <ele>261.60000610352</ele>
        <time>2021-02-16T08:29:17Z</time>
      </trkpt>
      <trkpt lat="48.62692" lon="1.75669">
        <ele>262.60000610352</ele>
        <time>2021-02-16T08:29:34Z</time>
      </trkpt>
      <trkpt lat="48.62693" lon="1.75672">
        <ele>262.20001220703</ele>
        <time>2021-02-16T08:29:47Z</time>
      </trkpt>
      <trkpt lat="48.62691" lon="1.75669">
        <ele>261.20001220703</ele>
        <time>2021-02-16T08:30:00Z</time>
      </trkpt>
      <trkpt lat="48.62684" lon="1.75664">
        <ele>261</ele>
        <time>2021-02-16T08:30:40Z</time>
      </trkpt>
      <trkpt lat="48.62685" lon="1.75666">
        <ele>261</ele>
        <time>2021-02-16T08:31:03Z</time>
      </trkpt>
      <trkpt lat="48.62685" lon="1.75669">
        <ele>260.79998779297</ele>
        <time>2021-02-16T08:31:11Z</time>
      </trkpt>
      <trkpt lat="48.62679" lon="1.75667">
        <ele>260.39999389648</ele>
        <time>2021-02-16T08:31:19Z</time>
      </trkpt>
      <trkpt lat="48.62677" lon="1.75664">
        <ele>264.20001220703</ele>
        <time>2021-02-16T08:31:23Z</time>
      </trkpt>
      <trkpt lat="48.62679" lon="1.7566">
        <ele>262.20001220703</ele>
        <time>2021-02-16T08:31:30Z</time>
      </trkpt>
      <trkpt lat="48.62681" lon="1.75658">
        <ele>261.60000610352</ele>
        <time>2021-02-16T08:31:32Z</time>
      </trkpt>
      <trkpt lat="48.62692" lon="1.75663">
        <ele>261</ele>
        <time>2021-02-16T08:31:54Z</time>
      </trkpt>
      <trkpt lat="48.62696" lon="1.75644">
        <ele>260.20001220703</ele>
        <time>2021-02-16T08:32:07Z</time>
      </trkpt>
      <trkpt lat="48.62693" lon="1.7563">
        <ele>259</ele>
        <time>2021-02-16T08:32:15Z</time>
      </trkpt>
      <trkpt lat="48.62693" lon="1.75625">
        <ele>258.60000610352</ele>
        <time>2021-02-16T08:32:19Z</time>
      </trkpt>
      <trkpt lat="48.62696" lon="1.75591">
        <ele>256.39999389648</ele>
        <time>2021-02-16T08:32:38Z</time>
      </trkpt>
      <trkpt lat="48.62698" lon="1.75583">
        <ele>255.80000305176</ele>
        <time>2021-02-16T08:32:44Z</time>
      </trkpt>
      <trkpt lat="48.62698" lon="1.75582">
        <ele>255.60000610352</ele>
        <time>2021-02-16T08:32:45Z</time>
      </trkpt>
      <trkpt lat="48.62692" lon="1.7555">
        <ele>254.60000610352</ele>
        <time>2021-02-16T08:32:58Z</time>
      </trkpt>
      <trkpt lat="48.62687" lon="1.7553">
        <ele>253.80000305176</ele>
        <time>2021-02-16T08:33:05Z</time>
      </trkpt>
      <trkpt lat="48.62687" lon="1.75528">
        <ele>253.80000305176</ele>
        <time>2021-02-16T08:33:06Z</time>
      </trkpt>
      <trkpt lat="48.62687" lon="1.75523">
        <ele>253.60000610352</ele>
        <time>2021-02-16T08:33:14Z</time>
      </trkpt>
      <trkpt lat="48.62692" lon="1.75508">
        <ele>253</ele>
        <time>2021-02-16T08:33:31Z</time>
      </trkpt>
      <trkpt lat="48.62694" lon="1.75495">
        <ele>252.19999694824</ele>
        <time>2021-02-16T08:33:42Z</time>
      </trkpt>
      <trkpt lat="48.62685" lon="1.75467">
        <ele>250.80000305176</ele>
        <time>2021-02-16T08:34:00Z</time>
      </trkpt>
      <trkpt lat="48.62678" lon="1.75447">
        <ele>250</ele>
        <time>2021-02-16T08:34:13Z</time>
      </trkpt>
      <trkpt lat="48.62677" lon="1.75444">
        <ele>250</ele>
        <time>2021-02-16T08:34:15Z</time>
      </trkpt>
      <trkpt lat="48.62669" lon="1.75433">
        <ele>249.60000610352</ele>
        <time>2021-02-16T08:34:50Z</time>
      </trkpt>
      <trkpt lat="48.62666" lon="1.75427">
        <ele>249.80000305176</ele>
        <time>2021-02-16T08:35:12Z</time>
      </trkpt>
      <trkpt lat="48.62661" lon="1.75412">
        <ele>249.19999694824</ele>
        <time>2021-02-16T08:35:34Z</time>
      </trkpt>
      <trkpt lat="48.62661" lon="1.75405">
        <ele>249.19999694824</ele>
        <time>2021-02-16T08:35:38Z</time>
      </trkpt>
      <trkpt lat="48.62656" lon="1.75388">
        <ele>248.60000610352</ele>
        <time>2021-02-16T08:35:48Z</time>
      </trkpt>
      <trkpt lat="48.62649" lon="1.7537">
        <ele>248.19999694824</ele>
        <time>2021-02-16T08:35:58Z</time>
      </trkpt>
      <trkpt lat="48.6264" lon="1.75352">
        <ele>247.39999389648</ele>
        <time>2021-02-16T08:36:09Z</time>
      </trkpt>
      <trkpt lat="48.62639" lon="1.75351">
        <ele>247.39999389648</ele>
        <time>2021-02-16T08:36:10Z</time>
      </trkpt>
      <trkpt lat="48.62634" lon="1.75335">
        <ele>246.19999694824</ele>
        <time>2021-02-16T08:36:17Z</time>
      </trkpt>
      <trkpt lat="48.62634" lon="1.75333">
        <ele>246.19999694824</ele>
        <time>2021-02-16T08:36:18Z</time>
      </trkpt>
      <trkpt lat="48.62633" lon="1.75331">
        <ele>246.39999389648</ele>
        <time>2021-02-16T08:36:19Z</time>
      </trkpt>
      <trkpt lat="48.62631" lon="1.75327">
        <ele>247</ele>
        <time>2021-02-16T08:36:20Z</time>
      </trkpt>
      <trkpt lat="48.62629" lon="1.75324">
        <ele>247.80000305176</ele>
        <time>2021-02-16T08:36:21Z</time>
      </trkpt>
      <trkpt lat="48.62627" lon="1.75318">
        <ele>248.19999694824</ele>
        <time>2021-02-16T08:36:24Z</time>
      </trkpt>
      <trkpt lat="48.62623" lon="1.75304">
        <ele>247.19999694824</ele>
        <time>2021-02-16T08:36:32Z</time>
      </trkpt>
      <trkpt lat="48.62622" lon="1.75302">
        <ele>247.19999694824</ele>
        <time>2021-02-16T08:36:33Z</time>
      </trkpt>
      <trkpt lat="48.62622" lon="1.75299">
        <ele>247</ele>
        <time>2021-02-16T08:36:35Z</time>
      </trkpt>
      <trkpt lat="48.62622" lon="1.7528">
        <ele>247</ele>
        <time>2021-02-16T08:36:46Z</time>
      </trkpt>
      <trkpt lat="48.62621" lon="1.75277">
        <ele>246.80000305176</ele>
        <time>2021-02-16T08:36:47Z</time>
      </trkpt>
      <trkpt lat="48.62621" lon="1.75275">
        <ele>246.80000305176</ele>
        <time>2021-02-16T08:36:48Z</time>
      </trkpt>
      <trkpt lat="48.62616" lon="1.75251">
        <ele>246.60000610352</ele>
        <time>2021-02-16T08:37:01Z</time>
      </trkpt>
      <trkpt lat="48.62614" lon="1.75244">
        <ele>246.80000305176</ele>
        <time>2021-02-16T08:37:04Z</time>
      </trkpt>
      <trkpt lat="48.62611" lon="1.75235">
        <ele>246.80000305176</ele>
        <time>2021-02-16T08:37:08Z</time>
      </trkpt>
      <trkpt lat="48.62609" lon="1.7523">
        <ele>246.80000305176</ele>
        <time>2021-02-16T08:37:11Z</time>
      </trkpt>
      <trkpt lat="48.62606" lon="1.75212">
        <ele>246.80000305176</ele>
        <time>2021-02-16T08:37:19Z</time>
      </trkpt>
      <trkpt lat="48.62605" lon="1.75209">
        <ele>246.80000305176</ele>
        <time>2021-02-16T08:37:20Z</time>
      </trkpt>
      <trkpt lat="48.62605" lon="1.75207">
        <ele>246.80000305176</ele>
        <time>2021-02-16T08:37:21Z</time>
      </trkpt>
      <trkpt lat="48.62605" lon="1.75206">
        <ele>246.80000305176</ele>
        <time>2021-02-16T08:37:22Z</time>
      </trkpt>
      <trkpt lat="48.62604" lon="1.75204">
        <ele>246.80000305176</ele>
        <time>2021-02-16T08:37:23Z</time>
      </trkpt>
      <trkpt lat="48.62605" lon="1.7517">
        <ele>246.19999694824</ele>
        <time>2021-02-16T08:37:39Z</time>
      </trkpt>
      <trkpt lat="48.62611" lon="1.75137">
        <ele>246.19999694824</ele>
        <time>2021-02-16T08:37:55Z</time>
      </trkpt>
      <trkpt lat="48.62612" lon="1.75135">
        <ele>246.19999694824</ele>
        <time>2021-02-16T08:37:56Z</time>
      </trkpt>
      <trkpt lat="48.62612" lon="1.75132">
        <ele>246.19999694824</ele>
        <time>2021-02-16T08:37:57Z</time>
      </trkpt>
      <trkpt lat="48.62612" lon="1.7513">
        <ele>246.19999694824</ele>
        <time>2021-02-16T08:37:58Z</time>
      </trkpt>
      <trkpt lat="48.62612" lon="1.75127">
        <ele>246.19999694824</ele>
        <time>2021-02-16T08:37:59Z</time>
      </trkpt>
      <trkpt lat="48.62616" lon="1.75098">
        <ele>246</ele>
        <time>2021-02-16T08:38:12Z</time>
      </trkpt>
      <trkpt lat="48.62619" lon="1.75085">
        <ele>245.80000305176</ele>
        <time>2021-02-16T08:38:19Z</time>
      </trkpt>
      <trkpt lat="48.62623" lon="1.75054">
        <ele>246</ele>
        <time>2021-02-16T08:38:33Z</time>
      </trkpt>
      <trkpt lat="48.62623" lon="1.75045">
        <ele>246</ele>
        <time>2021-02-16T08:38:37Z</time>
      </trkpt>
      <trkpt lat="48.62623" lon="1.75042">
        <ele>246.19999694824</ele>
        <time>2021-02-16T08:38:38Z</time>
      </trkpt>
      <trkpt lat="48.62622" lon="1.7504">
        <ele>246.19999694824</ele>
        <time>2021-02-16T08:38:39Z</time>
      </trkpt>
      <trkpt lat="48.62622" lon="1.75038">
        <ele>246.19999694824</ele>
        <time>2021-02-16T08:38:40Z</time>
      </trkpt>
      <trkpt lat="48.62617" lon="1.75014">
        <ele>246.19999694824</ele>
        <time>2021-02-16T08:38:55Z</time>
      </trkpt>
      <trkpt lat="48.62602" lon="1.74988">
        <ele>246.39999389648</ele>
        <time>2021-02-16T08:39:13Z</time>
      </trkpt>
      <trkpt lat="48.62588" lon="1.7497">
        <ele>246</ele>
        <time>2021-02-16T08:39:28Z</time>
      </trkpt>
      <trkpt lat="48.62585" lon="1.74966">
        <ele>246</ele>
        <time>2021-02-16T08:39:31Z</time>
      </trkpt>
      <trkpt lat="48.62576" lon="1.74955">
        <ele>245.60000610352</ele>
        <time>2021-02-16T08:39:39Z</time>
      </trkpt>
      <trkpt lat="48.62575" lon="1.74953">
        <ele>245.39999389648</ele>
        <time>2021-02-16T08:39:40Z</time>
      </trkpt>
      <trkpt lat="48.62569" lon="1.74946">
        <ele>245.19999694824</ele>
        <time>2021-02-16T08:39:45Z</time>
      </trkpt>
      <trkpt lat="48.62567" lon="1.74945">
        <ele>245.19999694824</ele>
        <time>2021-02-16T08:39:46Z</time>
      </trkpt>
      <trkpt lat="48.62556" lon="1.7493">
        <ele>245.39999389648</ele>
        <time>2021-02-16T08:39:56Z</time>
      </trkpt>
      <trkpt lat="48.62554" lon="1.74926">
        <ele>245.19999694824</ele>
        <time>2021-02-16T08:39:57Z</time>
      </trkpt>
      <trkpt lat="48.62542" lon="1.74903">
        <ele>244.60000610352</ele>
        <time>2021-02-16T08:40:11Z</time>
      </trkpt>
      <trkpt lat="48.62529" lon="1.74867">
        <ele>244.80000305176</ele>
        <time>2021-02-16T08:40:27Z</time>
      </trkpt>
      <trkpt lat="48.62528" lon="1.74865">
        <ele>244.80000305176</ele>
        <time>2021-02-16T08:40:28Z</time>
      </trkpt>
      <trkpt lat="48.62527" lon="1.74862">
        <ele>245</ele>
        <time>2021-02-16T08:40:29Z</time>
      </trkpt>
      <trkpt lat="48.62526" lon="1.74856">
        <ele>245</ele>
        <time>2021-02-16T08:40:32Z</time>
      </trkpt>
      <trkpt lat="48.62525" lon="1.74854">
        <ele>245</ele>
        <time>2021-02-16T08:40:33Z</time>
      </trkpt>
      <trkpt lat="48.62524" lon="1.74852">
        <ele>245.19999694824</ele>
        <time>2021-02-16T08:40:34Z</time>
      </trkpt>
      <trkpt lat="48.62524" lon="1.74837">
        <ele>244.80000305176</ele>
        <time>2021-02-16T08:40:44Z</time>
      </trkpt>
      <trkpt lat="48.62526" lon="1.74803">
        <ele>245</ele>
        <time>2021-02-16T08:41:00Z</time>
      </trkpt>
      <trkpt lat="48.62531" lon="1.74786">
        <ele>245.19999694824</ele>
        <time>2021-02-16T08:41:09Z</time>
      </trkpt>
      <trkpt lat="48.62529" lon="1.74746">
        <ele>245.19999694824</ele>
        <time>2021-02-16T08:41:26Z</time>
      </trkpt>
      <trkpt lat="48.62523" lon="1.7473">
        <ele>245</ele>
        <time>2021-02-16T08:41:36Z</time>
      </trkpt>
      <trkpt lat="48.62513" lon="1.74714">
        <ele>244.60000610352</ele>
        <time>2021-02-16T08:41:50Z</time>
      </trkpt>
      <trkpt lat="48.62503" lon="1.74696">
        <ele>244.80000305176</ele>
        <time>2021-02-16T08:42:05Z</time>
      </trkpt>
      <trkpt lat="48.62499" lon="1.74691">
        <ele>244.60000610352</ele>
        <time>2021-02-16T08:42:08Z</time>
      </trkpt>
      <trkpt lat="48.62498" lon="1.7469">
        <ele>244.60000610352</ele>
        <time>2021-02-16T08:42:09Z</time>
      </trkpt>
      <trkpt lat="48.62497" lon="1.74688">
        <ele>244.60000610352</ele>
        <time>2021-02-16T08:42:10Z</time>
      </trkpt>
      <trkpt lat="48.62481" lon="1.7466">
        <ele>245.39999389648</ele>
        <time>2021-02-16T08:42:25Z</time>
      </trkpt>
      <trkpt lat="48.62472" lon="1.74642">
        <ele>245</ele>
        <time>2021-02-16T08:42:37Z</time>
      </trkpt>
      <trkpt lat="48.6246" lon="1.74609">
        <ele>244.60000610352</ele>
        <time>2021-02-16T08:42:58Z</time>
      </trkpt>
      <trkpt lat="48.6245" lon="1.74582">
        <ele>244.80000305176</ele>
        <time>2021-02-16T08:43:15Z</time>
      </trkpt>
      <trkpt lat="48.62435" lon="1.74557">
        <ele>244.80000305176</ele>
        <time>2021-02-16T08:43:33Z</time>
      </trkpt>
      <trkpt lat="48.62432" lon="1.74543">
        <ele>245</ele>
        <time>2021-02-16T08:43:41Z</time>
      </trkpt>
      <trkpt lat="48.62425" lon="1.74528">
        <ele>244.80000305176</ele>
        <time>2021-02-16T08:43:53Z</time>
      </trkpt>
      <trkpt lat="48.62424" lon="1.74526">
        <ele>244.60000610352</ele>
        <time>2021-02-16T08:43:54Z</time>
      </trkpt>
      <trkpt lat="48.62415" lon="1.74514">
        <ele>245</ele>
        <time>2021-02-16T08:44:03Z</time>
      </trkpt>
      <trkpt lat="48.62414" lon="1.74513">
        <ele>245</ele>
        <time>2021-02-16T08:44:04Z</time>
      </trkpt>
      <trkpt lat="48.62413" lon="1.74511">
        <ele>245</ele>
        <time>2021-02-16T08:44:05Z</time>
      </trkpt>
      <trkpt lat="48.62408" lon="1.74499">
        <ele>245.19999694824</ele>
        <time>2021-02-16T08:44:11Z</time>
      </trkpt>
      <trkpt lat="48.62407" lon="1.74497">
        <ele>245.19999694824</ele>
        <time>2021-02-16T08:44:12Z</time>
      </trkpt>
      <trkpt lat="48.62399" lon="1.74476">
        <ele>245.19999694824</ele>
        <time>2021-02-16T08:44:23Z</time>
      </trkpt>
      <trkpt lat="48.62399" lon="1.74466">
        <ele>245</ele>
        <time>2021-02-16T08:44:28Z</time>
      </trkpt>
      <trkpt lat="48.62401" lon="1.74442">
        <ele>245</ele>
        <time>2021-02-16T08:44:42Z</time>
      </trkpt>
      <trkpt lat="48.62403" lon="1.7443">
        <ele>244.80000305176</ele>
        <time>2021-02-16T08:44:48Z</time>
      </trkpt>
      <trkpt lat="48.62403" lon="1.74428">
        <ele>244.80000305176</ele>
        <time>2021-02-16T08:44:49Z</time>
      </trkpt>
      <trkpt lat="48.62404" lon="1.74426">
        <ele>244.80000305176</ele>
        <time>2021-02-16T08:44:50Z</time>
      </trkpt>
      <trkpt lat="48.62403" lon="1.74424">
        <ele>244.80000305176</ele>
        <time>2021-02-16T08:44:51Z</time>
      </trkpt>
      <trkpt lat="48.62403" lon="1.74422">
        <ele>244.80000305176</ele>
        <time>2021-02-16T08:44:52Z</time>
      </trkpt>
      <trkpt lat="48.62403" lon="1.7442">
        <ele>244.80000305176</ele>
        <time>2021-02-16T08:44:53Z</time>
      </trkpt>
      <trkpt lat="48.62402" lon="1.74418">
        <ele>244.80000305176</ele>
        <time>2021-02-16T08:44:54Z</time>
      </trkpt>
      <trkpt lat="48.62402" lon="1.74416">
        <ele>244.60000610352</ele>
        <time>2021-02-16T08:44:55Z</time>
      </trkpt>
      <trkpt lat="48.62401" lon="1.74414">
        <ele>244.60000610352</ele>
        <time>2021-02-16T08:44:56Z</time>
      </trkpt>
      <trkpt lat="48.62394" lon="1.74394">
        <ele>244.39999389648</ele>
        <time>2021-02-16T08:45:08Z</time>
      </trkpt>
      <trkpt lat="48.62391" lon="1.74366">
        <ele>244.19999694824</ele>
        <time>2021-02-16T08:45:23Z</time>
      </trkpt>
      <trkpt lat="48.62388" lon="1.74356">
        <ele>244</ele>
        <time>2021-02-16T08:45:29Z</time>
      </trkpt>
      <trkpt lat="48.62387" lon="1.74355">
        <ele>244</ele>
        <time>2021-02-16T08:45:30Z</time>
      </trkpt>
      <trkpt lat="48.62386" lon="1.74353">
        <ele>244</ele>
        <time>2021-02-16T08:45:31Z</time>
      </trkpt>
      <trkpt lat="48.62381" lon="1.74334">
        <ele>243.80000305176</ele>
        <time>2021-02-16T08:45:42Z</time>
      </trkpt>
      <trkpt lat="48.62381" lon="1.74332">
        <ele>243.80000305176</ele>
        <time>2021-02-16T08:45:43Z</time>
      </trkpt>
      <trkpt lat="48.6237" lon="1.74303">
        <ele>243.39999389648</ele>
        <time>2021-02-16T08:46:00Z</time>
      </trkpt>
      <trkpt lat="48.62366" lon="1.74287">
        <ele>243.19999694824</ele>
        <time>2021-02-16T08:46:08Z</time>
      </trkpt>
      <trkpt lat="48.62366" lon="1.74285">
        <ele>243</ele>
        <time>2021-02-16T08:46:09Z</time>
      </trkpt>
      <trkpt lat="48.62365" lon="1.74284">
        <ele>243</ele>
        <time>2021-02-16T08:46:10Z</time>
      </trkpt>
      <trkpt lat="48.62365" lon="1.74282">
        <ele>243</ele>
        <time>2021-02-16T08:46:11Z</time>
      </trkpt>
      <trkpt lat="48.62364" lon="1.7428">
        <ele>243</ele>
        <time>2021-02-16T08:46:12Z</time>
      </trkpt>
      <trkpt lat="48.62364" lon="1.74278">
        <ele>243</ele>
        <time>2021-02-16T08:46:13Z</time>
      </trkpt>
      <trkpt lat="48.62363" lon="1.74276">
        <ele>243</ele>
        <time>2021-02-16T08:46:14Z</time>
      </trkpt>
      <trkpt lat="48.62362" lon="1.74274">
        <ele>243</ele>
        <time>2021-02-16T08:46:15Z</time>
      </trkpt>
      <trkpt lat="48.62362" lon="1.74272">
        <ele>243</ele>
        <time>2021-02-16T08:46:16Z</time>
      </trkpt>
      <trkpt lat="48.62362" lon="1.7427">
        <ele>243</ele>
        <time>2021-02-16T08:46:17Z</time>
      </trkpt>
      <trkpt lat="48.62359" lon="1.74254">
        <ele>242.80000305176</ele>
        <time>2021-02-16T08:46:26Z</time>
      </trkpt>
      <trkpt lat="48.62359" lon="1.74252">
        <ele>242.60000610352</ele>
        <time>2021-02-16T08:46:27Z</time>
      </trkpt>
      <trkpt lat="48.62359" lon="1.7425">
        <ele>242.60000610352</ele>
        <time>2021-02-16T08:46:28Z</time>
      </trkpt>
      <trkpt lat="48.62361" lon="1.74224">
        <ele>242.19999694824</ele>
        <time>2021-02-16T08:46:42Z</time>
      </trkpt>
      <trkpt lat="48.62361" lon="1.74218">
        <ele>242.19999694824</ele>
        <time>2021-02-16T08:46:45Z</time>
      </trkpt>
      <trkpt lat="48.62361" lon="1.74216">
        <ele>242.19999694824</ele>
        <time>2021-02-16T08:46:46Z</time>
      </trkpt>
      <trkpt lat="48.62362" lon="1.74215">
        <ele>242.39999389648</ele>
        <time>2021-02-16T08:46:47Z</time>
      </trkpt>
      <trkpt lat="48.62362" lon="1.74213">
        <ele>242.60000610352</ele>
        <time>2021-02-16T08:46:48Z</time>
      </trkpt>
      <trkpt lat="48.62362" lon="1.74211">
        <ele>242.60000610352</ele>
        <time>2021-02-16T08:46:49Z</time>
      </trkpt>
      <trkpt lat="48.62362" lon="1.74209">
        <ele>242.60000610352</ele>
        <time>2021-02-16T08:46:50Z</time>
      </trkpt>
      <trkpt lat="48.62361" lon="1.74185">
        <ele>243</ele>
        <time>2021-02-16T08:47:05Z</time>
      </trkpt>
      <trkpt lat="48.6236" lon="1.74172">
        <ele>243</ele>
        <time>2021-02-16T08:47:12Z</time>
      </trkpt>
      <trkpt lat="48.62355" lon="1.74158">
        <ele>242.80000305176</ele>
        <time>2021-02-16T08:47:20Z</time>
      </trkpt>
      <trkpt lat="48.62344" lon="1.74136">
        <ele>243.39999389648</ele>
        <time>2021-02-16T08:47:35Z</time>
      </trkpt>
      <trkpt lat="48.62341" lon="1.74133">
        <ele>243.39999389648</ele>
        <time>2021-02-16T08:47:38Z</time>
      </trkpt>
      <trkpt lat="48.6234" lon="1.74132">
        <ele>243.60000610352</ele>
        <time>2021-02-16T08:47:39Z</time>
      </trkpt>
      <trkpt lat="48.62339" lon="1.7413">
        <ele>243.60000610352</ele>
        <time>2021-02-16T08:47:40Z</time>
      </trkpt>
      <trkpt lat="48.62338" lon="1.74128">
        <ele>243.80000305176</ele>
        <time>2021-02-16T08:47:41Z</time>
      </trkpt>
      <trkpt lat="48.62338" lon="1.74127">
        <ele>244</ele>
        <time>2021-02-16T08:47:42Z</time>
      </trkpt>
      <trkpt lat="48.62335" lon="1.74124">
        <ele>244.19999694824</ele>
        <time>2021-02-16T08:47:45Z</time>
      </trkpt>
      <trkpt lat="48.62319" lon="1.74106">
        <ele>244.19999694824</ele>
        <time>2021-02-16T08:48:00Z</time>
      </trkpt>
      <trkpt lat="48.62302" lon="1.74096">
        <ele>244.39999389648</ele>
        <time>2021-02-16T08:48:14Z</time>
      </trkpt>
      <trkpt lat="48.62283" lon="1.74086">
        <ele>243.19999694824</ele>
        <time>2021-02-16T08:48:29Z</time>
      </trkpt>
      <trkpt lat="48.62277" lon="1.74083">
        <ele>242.80000305176</ele>
        <time>2021-02-16T08:48:34Z</time>
      </trkpt>
      <trkpt lat="48.62274" lon="1.74081">
        <ele>242.60000610352</ele>
        <time>2021-02-16T08:48:36Z</time>
      </trkpt>
      <trkpt lat="48.62255" lon="1.74072">
        <ele>242.19999694824</ele>
        <time>2021-02-16T08:48:53Z</time>
      </trkpt>
      <trkpt lat="48.62236" lon="1.74065">
        <ele>242.60000610352</ele>
        <time>2021-02-16T08:49:09Z</time>
      </trkpt>
      <trkpt lat="48.62217" lon="1.74058">
        <ele>242.39999389648</ele>
        <time>2021-02-16T08:49:25Z</time>
      </trkpt>
      <trkpt lat="48.62201" lon="1.74054">
        <ele>242.39999389648</ele>
        <time>2021-02-16T08:49:39Z</time>
      </trkpt>
      <trkpt lat="48.62186" lon="1.74046">
        <ele>242.19999694824</ele>
        <time>2021-02-16T08:49:53Z</time>
      </trkpt>
      <trkpt lat="48.62171" lon="1.7404">
        <ele>242.19999694824</ele>
        <time>2021-02-16T08:50:05Z</time>
      </trkpt>
      <trkpt lat="48.62165" lon="1.74037">
        <ele>242.19999694824</ele>
        <time>2021-02-16T08:50:09Z</time>
      </trkpt>
      <trkpt lat="48.62163" lon="1.74036">
        <ele>242.19999694824</ele>
        <time>2021-02-16T08:50:10Z</time>
      </trkpt>
      <trkpt lat="48.62143" lon="1.74026">
        <ele>242</ele>
        <time>2021-02-16T08:50:26Z</time>
      </trkpt>
      <trkpt lat="48.62125" lon="1.74019">
        <ele>242.39999389648</ele>
        <time>2021-02-16T08:50:41Z</time>
      </trkpt>
      <trkpt lat="48.62102" lon="1.73998">
        <ele>242.80000305176</ele>
        <time>2021-02-16T08:51:03Z</time>
      </trkpt>
      <trkpt lat="48.62093" lon="1.7398">
        <ele>243</ele>
        <time>2021-02-16T08:51:18Z</time>
      </trkpt>
      <trkpt lat="48.62089" lon="1.73976">
        <ele>243</ele>
        <time>2021-02-16T08:51:22Z</time>
      </trkpt>
      <trkpt lat="48.62086" lon="1.73973">
        <ele>243.19999694824</ele>
        <time>2021-02-16T08:51:25Z</time>
      </trkpt>
      <trkpt lat="48.62064" lon="1.73955">
        <ele>244.39999389648</ele>
        <time>2021-02-16T08:51:43Z</time>
      </trkpt>
      <trkpt lat="48.62049" lon="1.73934">
        <ele>243.60000610352</ele>
        <time>2021-02-16T08:52:01Z</time>
      </trkpt>
      <trkpt lat="48.62042" lon="1.73927">
        <ele>243.39999389648</ele>
        <time>2021-02-16T08:52:07Z</time>
      </trkpt>
      <trkpt lat="48.6204" lon="1.73927">
        <ele>243.39999389648</ele>
        <time>2021-02-16T08:52:08Z</time>
      </trkpt>
      <trkpt lat="48.62039" lon="1.73926">
        <ele>243.39999389648</ele>
        <time>2021-02-16T08:52:09Z</time>
      </trkpt>
      <trkpt lat="48.62036" lon="1.73924">
        <ele>243.39999389648</ele>
        <time>2021-02-16T08:52:11Z</time>
      </trkpt>
      <trkpt lat="48.6202" lon="1.73906">
        <ele>242.80000305176</ele>
        <time>2021-02-16T08:52:29Z</time>
      </trkpt>
      <trkpt lat="48.62001" lon="1.73897">
        <ele>242.39999389648</ele>
        <time>2021-02-16T08:52:44Z</time>
      </trkpt>
      <trkpt lat="48.61985" lon="1.73886">
        <ele>242.19999694824</ele>
        <time>2021-02-16T08:52:58Z</time>
      </trkpt>
      <trkpt lat="48.61965" lon="1.7388">
        <ele>242.19999694824</ele>
        <time>2021-02-16T08:53:15Z</time>
      </trkpt>
      <trkpt lat="48.61964" lon="1.7388">
        <ele>242.19999694824</ele>
        <time>2021-02-16T08:53:16Z</time>
      </trkpt>
      <trkpt lat="48.6196" lon="1.73879">
        <ele>242.19999694824</ele>
        <time>2021-02-16T08:53:20Z</time>
      </trkpt>
      <trkpt lat="48.61959" lon="1.73878">
        <ele>242.19999694824</ele>
        <time>2021-02-16T08:53:21Z</time>
      </trkpt>
      <trkpt lat="48.61958" lon="1.73877">
        <ele>242.19999694824</ele>
        <time>2021-02-16T08:53:22Z</time>
      </trkpt>
      <trkpt lat="48.61956" lon="1.73876">
        <ele>242.19999694824</ele>
        <time>2021-02-16T08:53:23Z</time>
      </trkpt>
      <trkpt lat="48.61955" lon="1.73874">
        <ele>242.19999694824</ele>
        <time>2021-02-16T08:53:24Z</time>
      </trkpt>
      <trkpt lat="48.61939" lon="1.73865">
        <ele>242.19999694824</ele>
        <time>2021-02-16T08:53:42Z</time>
      </trkpt>
      <trkpt lat="48.61929" lon="1.73857">
        <ele>242.39999389648</ele>
        <time>2021-02-16T08:53:58Z</time>
      </trkpt>
      <trkpt lat="48.61921" lon="1.73848">
        <ele>242.39999389648</ele>
        <time>2021-02-16T08:54:06Z</time>
      </trkpt>
      <trkpt lat="48.6192" lon="1.73846">
        <ele>242.39999389648</ele>
        <time>2021-02-16T08:54:07Z</time>
      </trkpt>
      <trkpt lat="48.6191" lon="1.73825">
        <ele>242.39999389648</ele>
        <time>2021-02-16T08:54:20Z</time>
      </trkpt>
      <trkpt lat="48.61901" lon="1.73809">
        <ele>242.19999694824</ele>
        <time>2021-02-16T08:54:31Z</time>
      </trkpt>
      <trkpt lat="48.61889" lon="1.73795">
        <ele>242.60000610352</ele>
        <time>2021-02-16T08:54:45Z</time>
      </trkpt>
      <trkpt lat="48.61874" lon="1.73778">
        <ele>242.60000610352</ele>
        <time>2021-02-16T08:55:06Z</time>
      </trkpt>
      <trkpt lat="48.61868" lon="1.73772">
        <ele>243</ele>
        <time>2021-02-16T08:55:12Z</time>
      </trkpt>
      <trkpt lat="48.61856" lon="1.73761">
        <ele>243.60000610352</ele>
        <time>2021-02-16T08:55:27Z</time>
      </trkpt>
      <trkpt lat="48.61855" lon="1.7376">
        <ele>243.60000610352</ele>
        <time>2021-02-16T08:55:28Z</time>
      </trkpt>
      <trkpt lat="48.61841" lon="1.73749">
        <ele>244.19999694824</ele>
        <time>2021-02-16T08:55:41Z</time>
      </trkpt>
      <trkpt lat="48.61822" lon="1.73733">
        <ele>244.39999389648</ele>
        <time>2021-02-16T08:56:02Z</time>
      </trkpt>
      <trkpt lat="48.61809" lon="1.73718">
        <ele>243.80000305176</ele>
        <time>2021-02-16T08:56:18Z</time>
      </trkpt>
      <trkpt lat="48.61806" lon="1.73713">
        <ele>243.60000610352</ele>
        <time>2021-02-16T08:56:22Z</time>
      </trkpt>
      <trkpt lat="48.61805" lon="1.73712">
        <ele>243.60000610352</ele>
        <time>2021-02-16T08:56:23Z</time>
      </trkpt>
      <trkpt lat="48.61791" lon="1.73689">
        <ele>243.19999694824</ele>
        <time>2021-02-16T08:56:43Z</time>
      </trkpt>
      <trkpt lat="48.61782" lon="1.7367">
        <ele>242.39999389648</ele>
        <time>2021-02-16T08:56:57Z</time>
      </trkpt>
      <trkpt lat="48.61773" lon="1.73653">
        <ele>242.39999389648</ele>
        <time>2021-02-16T08:57:08Z</time>
      </trkpt>
      <trkpt lat="48.61762" lon="1.73618">
        <ele>242.19999694824</ele>
        <time>2021-02-16T08:57:30Z</time>
      </trkpt>
      <trkpt lat="48.61762" lon="1.7359">
        <ele>242</ele>
        <time>2021-02-16T08:57:48Z</time>
      </trkpt>
      <trkpt lat="48.61758" lon="1.73566">
        <ele>242</ele>
        <time>2021-02-16T08:58:00Z</time>
      </trkpt>
      <trkpt lat="48.61744" lon="1.7355">
        <ele>242.19999694824</ele>
        <time>2021-02-16T08:58:16Z</time>
      </trkpt>
      <trkpt lat="48.61734" lon="1.73544">
        <ele>242.39999389648</ele>
        <time>2021-02-16T08:58:22Z</time>
      </trkpt>
      <trkpt lat="48.6172" lon="1.73535">
        <ele>242.80000305176</ele>
        <time>2021-02-16T08:58:35Z</time>
      </trkpt>
      <trkpt lat="48.61715" lon="1.73527">
        <ele>243.19999694824</ele>
        <time>2021-02-16T08:58:40Z</time>
      </trkpt>
      <trkpt lat="48.61715" lon="1.73525">
        <ele>243.19999694824</ele>
        <time>2021-02-16T08:58:41Z</time>
      </trkpt>
      <trkpt lat="48.61708" lon="1.73493">
        <ele>243.80000305176</ele>
        <time>2021-02-16T08:59:02Z</time>
      </trkpt>
      <trkpt lat="48.61702" lon="1.73472">
        <ele>245.19999694824</ele>
        <time>2021-02-16T08:59:18Z</time>
      </trkpt>
      <trkpt lat="48.617" lon="1.73457">
        <ele>245.60000610352</ele>
        <time>2021-02-16T08:59:33Z</time>
      </trkpt>
      <trkpt lat="48.61697" lon="1.73453">
        <ele>245.60000610352</ele>
        <time>2021-02-16T08:59:35Z</time>
      </trkpt>
      <trkpt lat="48.61697" lon="1.73452">
        <ele>245.60000610352</ele>
        <time>2021-02-16T08:59:36Z</time>
      </trkpt>
      <trkpt lat="48.61696" lon="1.7345">
        <ele>245.60000610352</ele>
        <time>2021-02-16T08:59:37Z</time>
      </trkpt>
      <trkpt lat="48.61684" lon="1.73425">
        <ele>246.80000305176</ele>
        <time>2021-02-16T08:59:56Z</time>
      </trkpt>
      <trkpt lat="48.61683" lon="1.73424">
        <ele>246.80000305176</ele>
        <time>2021-02-16T08:59:57Z</time>
      </trkpt>
      <trkpt lat="48.6168" lon="1.73415">
        <ele>247.19999694824</ele>
        <time>2021-02-16T09:00:05Z</time>
      </trkpt>
      <trkpt lat="48.61681" lon="1.73413">
        <ele>247.39999389648</ele>
        <time>2021-02-16T09:00:06Z</time>
      </trkpt>
      <trkpt lat="48.61682" lon="1.73411">
        <ele>247.39999389648</ele>
        <time>2021-02-16T09:00:07Z</time>
      </trkpt>
      <trkpt lat="48.61682" lon="1.73409">
        <ele>247.39999389648</ele>
        <time>2021-02-16T09:00:08Z</time>
      </trkpt>
      <trkpt lat="48.61682" lon="1.73406">
        <ele>247.39999389648</ele>
        <time>2021-02-16T09:00:09Z</time>
      </trkpt>
      <trkpt lat="48.61682" lon="1.73404">
        <ele>247.39999389648</ele>
        <time>2021-02-16T09:00:10Z</time>
      </trkpt>
      <trkpt lat="48.61675" lon="1.73376">
        <ele>248.19999694824</ele>
        <time>2021-02-16T09:00:24Z</time>
      </trkpt>
      <trkpt lat="48.61668" lon="1.73359">
        <ele>248.60000610352</ele>
        <time>2021-02-16T09:00:39Z</time>
      </trkpt>
      <trkpt lat="48.61659" lon="1.73344">
        <ele>249.39999389648</ele>
        <time>2021-02-16T09:00:51Z</time>
      </trkpt>
      <trkpt lat="48.61657" lon="1.73339">
        <ele>249.39999389648</ele>
        <time>2021-02-16T09:00:54Z</time>
      </trkpt>
      <trkpt lat="48.61657" lon="1.73338">
        <ele>249.60000610352</ele>
        <time>2021-02-16T09:00:55Z</time>
      </trkpt>
      <trkpt lat="48.61648" lon="1.7332">
        <ele>250.19999694824</ele>
        <time>2021-02-16T09:01:08Z</time>
      </trkpt>
      <trkpt lat="48.61641" lon="1.733">
        <ele>251.19999694824</ele>
        <time>2021-02-16T09:01:21Z</time>
      </trkpt>
      <trkpt lat="48.61634" lon="1.73282">
        <ele>252</ele>
        <time>2021-02-16T09:01:34Z</time>
      </trkpt>
      <trkpt lat="48.61625" lon="1.73258">
        <ele>252</ele>
        <time>2021-02-16T09:01:49Z</time>
      </trkpt>
      <trkpt lat="48.61622" lon="1.73243">
        <ele>251.60000610352</ele>
        <time>2021-02-16T09:02:01Z</time>
      </trkpt>
      <trkpt lat="48.6162" lon="1.73231">
        <ele>250.60000610352</ele>
        <time>2021-02-16T09:02:11Z</time>
      </trkpt>
      <trkpt lat="48.61613" lon="1.73215">
        <ele>250</ele>
        <time>2021-02-16T09:02:22Z</time>
      </trkpt>
      <trkpt lat="48.61611" lon="1.73198">
        <ele>249.39999389648</ele>
        <time>2021-02-16T09:02:34Z</time>
      </trkpt>
      <trkpt lat="48.61604" lon="1.73174">
        <ele>248.80000305176</ele>
        <time>2021-02-16T09:02:46Z</time>
      </trkpt>
      <trkpt lat="48.61598" lon="1.73146">
        <ele>247.60000610352</ele>
        <time>2021-02-16T09:03:01Z</time>
      </trkpt>
      <trkpt lat="48.61591" lon="1.7312">
        <ele>246.39999389648</ele>
        <time>2021-02-16T09:03:16Z</time>
      </trkpt>
      <trkpt lat="48.61583" lon="1.7309">
        <ele>245</ele>
        <time>2021-02-16T09:03:33Z</time>
      </trkpt>
      <trkpt lat="48.61578" lon="1.73071">
        <ele>244.19999694824</ele>
        <time>2021-02-16T09:03:43Z</time>
      </trkpt>
      <trkpt lat="48.61578" lon="1.73057">
        <ele>243.60000610352</ele>
        <time>2021-02-16T09:03:50Z</time>
      </trkpt>
      <trkpt lat="48.61574" lon="1.73044">
        <ele>243.19999694824</ele>
        <time>2021-02-16T09:03:57Z</time>
      </trkpt>
      <trkpt lat="48.61573" lon="1.73042">
        <ele>243.19999694824</ele>
        <time>2021-02-16T09:03:58Z</time>
      </trkpt>
      <trkpt lat="48.6157" lon="1.73021">
        <ele>242.60000610352</ele>
        <time>2021-02-16T09:04:08Z</time>
      </trkpt>
      <trkpt lat="48.61561" lon="1.72989">
        <ele>241.60000610352</ele>
        <time>2021-02-16T09:04:26Z</time>
      </trkpt>
      <trkpt lat="48.61557" lon="1.72962">
        <ele>241.19999694824</ele>
        <time>2021-02-16T09:04:41Z</time>
      </trkpt>
      <trkpt lat="48.61548" lon="1.72925">
        <ele>240.60000610352</ele>
        <time>2021-02-16T09:05:02Z</time>
      </trkpt>
      <trkpt lat="48.61548" lon="1.72923">
        <ele>240.60000610352</ele>
        <time>2021-02-16T09:05:03Z</time>
      </trkpt>
      <trkpt lat="48.61544" lon="1.72909">
        <ele>240.39999389648</ele>
        <time>2021-02-16T09:05:09Z</time>
      </trkpt>
      <trkpt lat="48.61544" lon="1.72896">
        <ele>240.39999389648</ele>
        <time>2021-02-16T09:05:15Z</time>
      </trkpt>
      <trkpt lat="48.61543" lon="1.72894">
        <ele>240.39999389648</ele>
        <time>2021-02-16T09:05:16Z</time>
      </trkpt>
      <trkpt lat="48.61543" lon="1.7289">
        <ele>240.39999389648</ele>
        <time>2021-02-16T09:05:18Z</time>
      </trkpt>
      <trkpt lat="48.61539" lon="1.72879">
        <ele>240.19999694824</ele>
        <time>2021-02-16T09:05:25Z</time>
      </trkpt>
      <trkpt lat="48.61536" lon="1.72863">
        <ele>240.39999389648</ele>
        <time>2021-02-16T09:05:34Z</time>
      </trkpt>
      <trkpt lat="48.61534" lon="1.72826">
        <ele>239.80000305176</ele>
        <time>2021-02-16T09:05:55Z</time>
      </trkpt>
      <trkpt lat="48.61531" lon="1.72816">
        <ele>239.80000305176</ele>
        <time>2021-02-16T09:06:02Z</time>
      </trkpt>
      <trkpt lat="48.61529" lon="1.72812">
        <ele>239.60000610352</ele>
        <time>2021-02-16T09:06:05Z</time>
      </trkpt>
      <trkpt lat="48.61516" lon="1.72789">
        <ele>239.80000305176</ele>
        <time>2021-02-16T09:06:21Z</time>
      </trkpt>
      <trkpt lat="48.61507" lon="1.72777">
        <ele>239.80000305176</ele>
        <time>2021-02-16T09:06:31Z</time>
      </trkpt>
      <trkpt lat="48.61505" lon="1.72773">
        <ele>239.80000305176</ele>
        <time>2021-02-16T09:06:33Z</time>
      </trkpt>
      <trkpt lat="48.61494" lon="1.7275">
        <ele>239.80000305176</ele>
        <time>2021-02-16T09:06:50Z</time>
      </trkpt>
      <trkpt lat="48.61485" lon="1.72711">
        <ele>239.80000305176</ele>
        <time>2021-02-16T09:07:12Z</time>
      </trkpt>
      <trkpt lat="48.61483" lon="1.72702">
        <ele>239.80000305176</ele>
        <time>2021-02-16T09:07:16Z</time>
      </trkpt>
      <trkpt lat="48.61478" lon="1.72687">
        <ele>240.19999694824</ele>
        <time>2021-02-16T09:07:26Z</time>
      </trkpt>
      <trkpt lat="48.61477" lon="1.72685">
        <ele>240.19999694824</ele>
        <time>2021-02-16T09:07:27Z</time>
      </trkpt>
      <trkpt lat="48.61476" lon="1.72684">
        <ele>240.39999389648</ele>
        <time>2021-02-16T09:07:28Z</time>
      </trkpt>
      <trkpt lat="48.61475" lon="1.72682">
        <ele>240.39999389648</ele>
        <time>2021-02-16T09:07:29Z</time>
      </trkpt>
      <trkpt lat="48.61472" lon="1.72661">
        <ele>240.60000610352</ele>
        <time>2021-02-16T09:07:41Z</time>
      </trkpt>
      <trkpt lat="48.61466" lon="1.72643">
        <ele>240.60000610352</ele>
        <time>2021-02-16T09:07:52Z</time>
      </trkpt>
      <trkpt lat="48.61456" lon="1.72624">
        <ele>241.39999389648</ele>
        <time>2021-02-16T09:08:06Z</time>
      </trkpt>
      <trkpt lat="48.61456" lon="1.72622">
        <ele>241.39999389648</ele>
        <time>2021-02-16T09:08:07Z</time>
      </trkpt>
      <trkpt lat="48.61453" lon="1.72594">
        <ele>241</ele>
        <time>2021-02-16T09:08:24Z</time>
      </trkpt>
      <trkpt lat="48.61452" lon="1.72592">
        <ele>241</ele>
        <time>2021-02-16T09:08:25Z</time>
      </trkpt>
      <trkpt lat="48.61452" lon="1.7259">
        <ele>241</ele>
        <time>2021-02-16T09:08:26Z</time>
      </trkpt>
      <trkpt lat="48.61452" lon="1.72588">
        <ele>241</ele>
        <time>2021-02-16T09:08:27Z</time>
      </trkpt>
      <trkpt lat="48.6145" lon="1.72565">
        <ele>240.60000610352</ele>
        <time>2021-02-16T09:08:42Z</time>
      </trkpt>
      <trkpt lat="48.61444" lon="1.72544">
        <ele>240.60000610352</ele>
        <time>2021-02-16T09:08:54Z</time>
      </trkpt>
      <trkpt lat="48.61442" lon="1.7254">
        <ele>240.60000610352</ele>
        <time>2021-02-16T09:08:57Z</time>
      </trkpt>
      <trkpt lat="48.61437" lon="1.72532">
        <ele>241.39999389648</ele>
        <time>2021-02-16T09:09:03Z</time>
      </trkpt>
      <trkpt lat="48.61433" lon="1.72512">
        <ele>241.39999389648</ele>
        <time>2021-02-16T09:09:16Z</time>
      </trkpt>
      <trkpt lat="48.61426" lon="1.72478">
        <ele>241.19999694824</ele>
        <time>2021-02-16T09:09:37Z</time>
      </trkpt>
      <trkpt lat="48.61418" lon="1.7244">
        <ele>241.19999694824</ele>
        <time>2021-02-16T09:09:59Z</time>
      </trkpt>
      <trkpt lat="48.61409" lon="1.72404">
        <ele>241</ele>
        <time>2021-02-16T09:10:20Z</time>
      </trkpt>
      <trkpt lat="48.61406" lon="1.72381">
        <ele>240.80000305176</ele>
        <time>2021-02-16T09:10:37Z</time>
      </trkpt>
      <trkpt lat="48.61402" lon="1.72368">
        <ele>240.80000305176</ele>
        <time>2021-02-16T09:10:57Z</time>
      </trkpt>
      <trkpt lat="48.61393" lon="1.72359">
        <ele>240.80000305176</ele>
        <time>2021-02-16T09:11:17Z</time>
      </trkpt>
      <trkpt lat="48.61384" lon="1.72344">
        <ele>240.80000305176</ele>
        <time>2021-02-16T09:11:33Z</time>
      </trkpt>
      <trkpt lat="48.61371" lon="1.72329">
        <ele>241.19999694824</ele>
        <time>2021-02-16T09:11:49Z</time>
      </trkpt>
      <trkpt lat="48.61363" lon="1.72311">
        <ele>242</ele>
        <time>2021-02-16T09:12:06Z</time>
      </trkpt>
      <trkpt lat="48.6135" lon="1.72294">
        <ele>242.39999389648</ele>
        <time>2021-02-16T09:12:18Z</time>
      </trkpt>
      <trkpt lat="48.61345" lon="1.72268">
        <ele>243</ele>
        <time>2021-02-16T09:12:37Z</time>
      </trkpt>
      <trkpt lat="48.61329" lon="1.72238">
        <ele>243.80000305176</ele>
        <time>2021-02-16T09:13:01Z</time>
      </trkpt>
      <trkpt lat="48.61316" lon="1.72216">
        <ele>243.80000305176</ele>
        <time>2021-02-16T09:13:19Z</time>
      </trkpt>
      <trkpt lat="48.61303" lon="1.72204">
        <ele>244</ele>
        <time>2021-02-16T09:13:40Z</time>
      </trkpt>
      <trkpt lat="48.61289" lon="1.72198">
        <ele>244.60000610352</ele>
        <time>2021-02-16T09:13:50Z</time>
      </trkpt>
      <trkpt lat="48.61286" lon="1.72197">
        <ele>244.80000305176</ele>
        <time>2021-02-16T09:13:52Z</time>
      </trkpt>
      <trkpt lat="48.61267" lon="1.72196">
        <ele>245.19999694824</ele>
        <time>2021-02-16T09:14:08Z</time>
      </trkpt>
      <trkpt lat="48.61266" lon="1.72196">
        <ele>245.39999389648</ele>
        <time>2021-02-16T09:14:09Z</time>
      </trkpt>
      <trkpt lat="48.61264" lon="1.72196">
        <ele>245.39999389648</ele>
        <time>2021-02-16T09:14:11Z</time>
      </trkpt>
      <trkpt lat="48.61256" lon="1.72195">
        <ele>246</ele>
        <time>2021-02-16T09:14:21Z</time>
      </trkpt>
      <trkpt lat="48.61235" lon="1.72198">
        <ele>247.19999694824</ele>
        <time>2021-02-16T09:14:41Z</time>
      </trkpt>
      <trkpt lat="48.61233" lon="1.72199">
        <ele>247.19999694824</ele>
        <time>2021-02-16T09:14:42Z</time>
      </trkpt>
      <trkpt lat="48.61229" lon="1.72199">
        <ele>247.60000610352</ele>
        <time>2021-02-16T09:14:45Z</time>
      </trkpt>
      <trkpt lat="48.61224" lon="1.72202">
        <ele>248</ele>
        <time>2021-02-16T09:14:49Z</time>
      </trkpt>
      <trkpt lat="48.61223" lon="1.72202">
        <ele>248</ele>
        <time>2021-02-16T09:14:50Z</time>
      </trkpt>
      <trkpt lat="48.61222" lon="1.72203">
        <ele>248.19999694824</ele>
        <time>2021-02-16T09:14:51Z</time>
      </trkpt>
      <trkpt lat="48.6122" lon="1.72203">
        <ele>248.19999694824</ele>
        <time>2021-02-16T09:14:52Z</time>
      </trkpt>
      <trkpt lat="48.61219" lon="1.72203">
        <ele>248.39999389648</ele>
        <time>2021-02-16T09:14:53Z</time>
      </trkpt>
      <trkpt lat="48.61194" lon="1.7221">
        <ele>249</ele>
        <time>2021-02-16T09:15:12Z</time>
      </trkpt>
      <trkpt lat="48.61191" lon="1.72214">
        <ele>249.19999694824</ele>
        <time>2021-02-16T09:15:15Z</time>
      </trkpt>
      <trkpt lat="48.61185" lon="1.72219">
        <ele>249.60000610352</ele>
        <time>2021-02-16T09:15:24Z</time>
      </trkpt>
      <trkpt lat="48.61177" lon="1.72223">
        <ele>250.19999694824</ele>
        <time>2021-02-16T09:15:33Z</time>
      </trkpt>
      <trkpt lat="48.61176" lon="1.72223">
        <ele>250.19999694824</ele>
        <time>2021-02-16T09:15:34Z</time>
      </trkpt>
      <trkpt lat="48.61164" lon="1.72226">
        <ele>251.19999694824</ele>
        <time>2021-02-16T09:15:48Z</time>
      </trkpt>
      <trkpt lat="48.61151" lon="1.72222">
        <ele>252.19999694824</ele>
        <time>2021-02-16T09:16:04Z</time>
      </trkpt>
      <trkpt lat="48.61134" lon="1.72216">
        <ele>253.80000305176</ele>
        <time>2021-02-16T09:16:22Z</time>
      </trkpt>
      <trkpt lat="48.6112" lon="1.72209">
        <ele>255.19999694824</ele>
        <time>2021-02-16T09:16:37Z</time>
      </trkpt>
      <trkpt lat="48.61115" lon="1.72205">
        <ele>255.39999389648</ele>
        <time>2021-02-16T09:16:42Z</time>
      </trkpt>
      <trkpt lat="48.61111" lon="1.72204">
        <ele>255.80000305176</ele>
        <time>2021-02-16T09:16:46Z</time>
      </trkpt>
      <trkpt lat="48.61103" lon="1.72203">
        <ele>256.79998779297</ele>
        <time>2021-02-16T09:16:54Z</time>
      </trkpt>
      <trkpt lat="48.61094" lon="1.72203">
        <ele>257.39999389648</ele>
        <time>2021-02-16T09:17:05Z</time>
      </trkpt>
      <trkpt lat="48.61079" lon="1.72203">
        <ele>258.79998779297</ele>
        <time>2021-02-16T09:17:18Z</time>
      </trkpt>
      <trkpt lat="48.61069" lon="1.72203">
        <ele>259.79998779297</ele>
        <time>2021-02-16T09:17:27Z</time>
      </trkpt>
      <trkpt lat="48.6106" lon="1.72203">
        <ele>260.39999389648</ele>
        <time>2021-02-16T09:17:36Z</time>
      </trkpt>
      <trkpt lat="48.61054" lon="1.72205">
        <ele>261.39999389648</ele>
        <time>2021-02-16T09:17:43Z</time>
      </trkpt>
      <trkpt lat="48.61052" lon="1.72206">
        <ele>261.60000610352</ele>
        <time>2021-02-16T09:17:45Z</time>
      </trkpt>
      <trkpt lat="48.61048" lon="1.72207">
        <ele>262.39999389648</ele>
        <time>2021-02-16T09:17:50Z</time>
      </trkpt>
      <trkpt lat="48.61038" lon="1.72209">
        <ele>263.20001220703</ele>
        <time>2021-02-16T09:18:01Z</time>
      </trkpt>
      <trkpt lat="48.61035" lon="1.72209">
        <ele>263.39999389648</ele>
        <time>2021-02-16T09:18:03Z</time>
      </trkpt>
      <trkpt lat="48.61033" lon="1.72208">
        <ele>263.39999389648</ele>
        <time>2021-02-16T09:18:04Z</time>
      </trkpt>
      <trkpt lat="48.61032" lon="1.72208">
        <ele>263.60000610352</ele>
        <time>2021-02-16T09:18:05Z</time>
      </trkpt>
      <trkpt lat="48.6103" lon="1.72208">
        <ele>263.60000610352</ele>
        <time>2021-02-16T09:18:06Z</time>
      </trkpt>
      <trkpt lat="48.61009" lon="1.72204">
        <ele>265.39999389648</ele>
        <time>2021-02-16T09:18:26Z</time>
      </trkpt>
      <trkpt lat="48.61" lon="1.72207">
        <ele>266.20001220703</ele>
        <time>2021-02-16T09:18:39Z</time>
      </trkpt>
      <trkpt lat="48.60994" lon="1.72206">
        <ele>266.60000610352</ele>
        <time>2021-02-16T09:18:47Z</time>
      </trkpt>
      <trkpt lat="48.60988" lon="1.72206">
        <ele>267</ele>
        <time>2021-02-16T09:18:52Z</time>
      </trkpt>
      <trkpt lat="48.60983" lon="1.72205">
        <ele>267.39999389648</ele>
        <time>2021-02-16T09:18:56Z</time>
      </trkpt>
      <trkpt lat="48.60982" lon="1.72205">
        <ele>267.39999389648</ele>
        <time>2021-02-16T09:18:57Z</time>
      </trkpt>
      <trkpt lat="48.6097" lon="1.72202">
        <ele>268.60000610352</ele>
        <time>2021-02-16T09:19:10Z</time>
      </trkpt>
      <trkpt lat="48.60961" lon="1.72183">
        <ele>269.60000610352</ele>
        <time>2021-02-16T09:19:26Z</time>
      </trkpt>
      <trkpt lat="48.60962" lon="1.72167">
        <ele>269.39999389648</ele>
        <time>2021-02-16T09:19:36Z</time>
      </trkpt>
      <trkpt lat="48.60963" lon="1.72166">
        <ele>269.20001220703</ele>
        <time>2021-02-16T09:19:37Z</time>
      </trkpt>
      <trkpt lat="48.60964" lon="1.72142">
        <ele>268.60000610352</ele>
        <time>2021-02-16T09:19:52Z</time>
      </trkpt>
      <trkpt lat="48.60964" lon="1.7214">
        <ele>268.60000610352</ele>
        <time>2021-02-16T09:19:53Z</time>
      </trkpt>
      <trkpt lat="48.60964" lon="1.72138">
        <ele>268.60000610352</ele>
        <time>2021-02-16T09:19:54Z</time>
      </trkpt>
      <trkpt lat="48.60968" lon="1.72108">
        <ele>268</ele>
        <time>2021-02-16T09:20:10Z</time>
      </trkpt>
      <trkpt lat="48.60969" lon="1.721">
        <ele>268</ele>
        <time>2021-02-16T09:20:14Z</time>
      </trkpt>
      <trkpt lat="48.60969" lon="1.72098">
        <ele>267.79998779297</ele>
        <time>2021-02-16T09:20:15Z</time>
      </trkpt>
      <trkpt lat="48.6097" lon="1.72096">
        <ele>267.79998779297</ele>
        <time>2021-02-16T09:20:16Z</time>
      </trkpt>
      <trkpt lat="48.6097" lon="1.72094">
        <ele>267.79998779297</ele>
        <time>2021-02-16T09:20:17Z</time>
      </trkpt>
      <trkpt lat="48.6097" lon="1.72092">
        <ele>267.60000610352</ele>
        <time>2021-02-16T09:20:18Z</time>
      </trkpt>
      <trkpt lat="48.60971" lon="1.72059">
        <ele>266.79998779297</ele>
        <time>2021-02-16T09:20:35Z</time>
      </trkpt>
      <trkpt lat="48.60971" lon="1.72053">
        <ele>266.60000610352</ele>
        <time>2021-02-16T09:20:38Z</time>
      </trkpt>
      <trkpt lat="48.60972" lon="1.72045">
        <ele>266.39999389648</ele>
        <time>2021-02-16T09:20:42Z</time>
      </trkpt>
      <trkpt lat="48.60972" lon="1.72043">
        <ele>266.39999389648</ele>
        <time>2021-02-16T09:20:43Z</time>
      </trkpt>
      <trkpt lat="48.60972" lon="1.72042">
        <ele>266.39999389648</ele>
        <time>2021-02-16T09:20:44Z</time>
      </trkpt>
      <trkpt lat="48.60972" lon="1.7204">
        <ele>266.39999389648</ele>
        <time>2021-02-16T09:20:45Z</time>
      </trkpt>
      <trkpt lat="48.60973" lon="1.72037">
        <ele>266.20001220703</ele>
        <time>2021-02-16T09:20:47Z</time>
      </trkpt>
      <trkpt lat="48.60973" lon="1.72035">
        <ele>266.20001220703</ele>
        <time>2021-02-16T09:20:48Z</time>
      </trkpt>
      <trkpt lat="48.60974" lon="1.72033">
        <ele>266</ele>
        <time>2021-02-16T09:20:49Z</time>
      </trkpt>
      <trkpt lat="48.60974" lon="1.72031">
        <ele>266</ele>
        <time>2021-02-16T09:20:50Z</time>
      </trkpt>
      <trkpt lat="48.60974" lon="1.72028">
        <ele>265.79998779297</ele>
        <time>2021-02-16T09:20:51Z</time>
      </trkpt>
      <trkpt lat="48.60974" lon="1.72026">
        <ele>265.79998779297</ele>
        <time>2021-02-16T09:20:52Z</time>
      </trkpt>
      <trkpt lat="48.60976" lon="1.72024">
        <ele>265.79998779297</ele>
        <time>2021-02-16T09:20:53Z</time>
      </trkpt>
      <trkpt lat="48.60976" lon="1.72022">
        <ele>265.79998779297</ele>
        <time>2021-02-16T09:20:54Z</time>
      </trkpt>
      <trkpt lat="48.60976" lon="1.7202">
        <ele>265.60000610352</ele>
        <time>2021-02-16T09:20:55Z</time>
      </trkpt>
      <trkpt lat="48.60976" lon="1.72018">
        <ele>265.60000610352</ele>
        <time>2021-02-16T09:20:56Z</time>
      </trkpt>
      <trkpt lat="48.60979" lon="1.71994">
        <ele>265</ele>
        <time>2021-02-16T09:21:09Z</time>
      </trkpt>
      <trkpt lat="48.60984" lon="1.71981">
        <ele>264.79998779297</ele>
        <time>2021-02-16T09:21:15Z</time>
      </trkpt>
      <trkpt lat="48.60984" lon="1.71979">
        <ele>264.79998779297</ele>
        <time>2021-02-16T09:21:16Z</time>
      </trkpt>
      <trkpt lat="48.60985" lon="1.71977">
        <ele>264.79998779297</ele>
        <time>2021-02-16T09:21:17Z</time>
      </trkpt>
      <trkpt lat="48.60985" lon="1.71975">
        <ele>264.79998779297</ele>
        <time>2021-02-16T09:21:18Z</time>
      </trkpt>
      <trkpt lat="48.60985" lon="1.71973">
        <ele>264.79998779297</ele>
        <time>2021-02-16T09:21:19Z</time>
      </trkpt>
      <trkpt lat="48.60986" lon="1.71971">
        <ele>264.79998779297</ele>
        <time>2021-02-16T09:21:20Z</time>
      </trkpt>
      <trkpt lat="48.60987" lon="1.71969">
        <ele>264.60000610352</ele>
        <time>2021-02-16T09:21:21Z</time>
      </trkpt>
      <trkpt lat="48.60987" lon="1.71968">
        <ele>264.60000610352</ele>
        <time>2021-02-16T09:21:22Z</time>
      </trkpt>
      <trkpt lat="48.60988" lon="1.71966">
        <ele>264.60000610352</ele>
        <time>2021-02-16T09:21:23Z</time>
      </trkpt>
      <trkpt lat="48.60989" lon="1.71963">
        <ele>264.60000610352</ele>
        <time>2021-02-16T09:21:24Z</time>
      </trkpt>
      <trkpt lat="48.60994" lon="1.71939">
        <ele>264</ele>
        <time>2021-02-16T09:21:36Z</time>
      </trkpt>
      <trkpt lat="48.60995" lon="1.71938">
        <ele>263.79998779297</ele>
        <time>2021-02-16T09:21:37Z</time>
      </trkpt>
      <trkpt lat="48.60996" lon="1.71936">
        <ele>263.79998779297</ele>
        <time>2021-02-16T09:21:38Z</time>
      </trkpt>
      <trkpt lat="48.60996" lon="1.71934">
        <ele>263.79998779297</ele>
        <time>2021-02-16T09:21:39Z</time>
      </trkpt>
      <trkpt lat="48.60996" lon="1.71932">
        <ele>263.60000610352</ele>
        <time>2021-02-16T09:21:40Z</time>
      </trkpt>
      <trkpt lat="48.60996" lon="1.7193">
        <ele>263.60000610352</ele>
        <time>2021-02-16T09:21:41Z</time>
      </trkpt>
      <trkpt lat="48.60997" lon="1.71929">
        <ele>263.60000610352</ele>
        <time>2021-02-16T09:21:42Z</time>
      </trkpt>
      <trkpt lat="48.60997" lon="1.71927">
        <ele>263.60000610352</ele>
        <time>2021-02-16T09:21:43Z</time>
      </trkpt>
      <trkpt lat="48.60998" lon="1.71925">
        <ele>263.60000610352</ele>
        <time>2021-02-16T09:21:44Z</time>
      </trkpt>
      <trkpt lat="48.61003" lon="1.71898">
        <ele>263</ele>
        <time>2021-02-16T09:21:58Z</time>
      </trkpt>
      <trkpt lat="48.61005" lon="1.71883">
        <ele>262.79998779297</ele>
        <time>2021-02-16T09:22:06Z</time>
      </trkpt>
      <trkpt lat="48.61005" lon="1.71881">
        <ele>262.79998779297</ele>
        <time>2021-02-16T09:22:07Z</time>
      </trkpt>
      <trkpt lat="48.61005" lon="1.71879">
        <ele>262.79998779297</ele>
        <time>2021-02-16T09:22:08Z</time>
      </trkpt>
      <trkpt lat="48.61009" lon="1.71843">
        <ele>262.39999389648</ele>
        <time>2021-02-16T09:22:24Z</time>
      </trkpt>
      <trkpt lat="48.6101" lon="1.71823">
        <ele>262.20001220703</ele>
        <time>2021-02-16T09:22:33Z</time>
      </trkpt>
      <trkpt lat="48.6101" lon="1.71821">
        <ele>262.20001220703</ele>
        <time>2021-02-16T09:22:34Z</time>
      </trkpt>
      <trkpt lat="48.61011" lon="1.71819">
        <ele>262.20001220703</ele>
        <time>2021-02-16T09:22:35Z</time>
      </trkpt>
      <trkpt lat="48.61011" lon="1.71817">
        <ele>262.20001220703</ele>
        <time>2021-02-16T09:22:36Z</time>
      </trkpt>
      <trkpt lat="48.61012" lon="1.71815">
        <ele>262.20001220703</ele>
        <time>2021-02-16T09:22:37Z</time>
      </trkpt>
      <trkpt lat="48.61015" lon="1.71785">
        <ele>262</ele>
        <time>2021-02-16T09:22:53Z</time>
      </trkpt>
      <trkpt lat="48.61016" lon="1.71778">
        <ele>262</ele>
        <time>2021-02-16T09:22:57Z</time>
      </trkpt>
      <trkpt lat="48.61017" lon="1.71772">
        <ele>262</ele>
        <time>2021-02-16T09:23:01Z</time>
      </trkpt>
      <trkpt lat="48.61022" lon="1.71736">
        <ele>262</ele>
        <time>2021-02-16T09:23:17Z</time>
      </trkpt>
      <trkpt lat="48.61022" lon="1.71734">
        <ele>262</ele>
        <time>2021-02-16T09:23:18Z</time>
      </trkpt>
      <trkpt lat="48.61024" lon="1.7173">
        <ele>262</ele>
        <time>2021-02-16T09:23:20Z</time>
      </trkpt>
      <trkpt lat="48.61028" lon="1.71691">
        <ele>260.79998779297</ele>
        <time>2021-02-16T09:23:37Z</time>
      </trkpt>
      <trkpt lat="48.61033" lon="1.71665">
        <ele>260.20001220703</ele>
        <time>2021-02-16T09:23:51Z</time>
      </trkpt>
      <trkpt lat="48.6104" lon="1.7164">
        <ele>259.79998779297</ele>
        <time>2021-02-16T09:24:04Z</time>
      </trkpt>
      <trkpt lat="48.61044" lon="1.71607">
        <ele>259</ele>
        <time>2021-02-16T09:24:20Z</time>
      </trkpt>
      <trkpt lat="48.61044" lon="1.71605">
        <ele>259</ele>
        <time>2021-02-16T09:24:21Z</time>
      </trkpt>
      <trkpt lat="48.61043" lon="1.71598">
        <ele>259</ele>
        <time>2021-02-16T09:24:25Z</time>
      </trkpt>
      <trkpt lat="48.61047" lon="1.71578">
        <ele>259</ele>
        <time>2021-02-16T09:24:37Z</time>
      </trkpt>
      <trkpt lat="48.61053" lon="1.71554">
        <ele>259.79998779297</ele>
        <time>2021-02-16T09:24:49Z</time>
      </trkpt>
      <trkpt lat="48.61052" lon="1.71524">
        <ele>260.20001220703</ele>
        <time>2021-02-16T09:25:02Z</time>
      </trkpt>
      <trkpt lat="48.6105" lon="1.7151">
        <ele>260.39999389648</ele>
        <time>2021-02-16T09:25:10Z</time>
      </trkpt>
      <trkpt lat="48.61051" lon="1.71507">
        <ele>260.39999389648</ele>
        <time>2021-02-16T09:25:11Z</time>
      </trkpt>
      <trkpt lat="48.61048" lon="1.7147">
        <ele>260.20001220703</ele>
        <time>2021-02-16T09:25:29Z</time>
      </trkpt>
      <trkpt lat="48.61047" lon="1.71462">
        <ele>260.20001220703</ele>
        <time>2021-02-16T09:25:33Z</time>
      </trkpt>
      <trkpt lat="48.61047" lon="1.7146">
        <ele>260.20001220703</ele>
        <time>2021-02-16T09:25:34Z</time>
      </trkpt>
      <trkpt lat="48.61047" lon="1.71458">
        <ele>260.20001220703</ele>
        <time>2021-02-16T09:25:35Z</time>
      </trkpt>
      <trkpt lat="48.61047" lon="1.71456">
        <ele>260.20001220703</ele>
        <time>2021-02-16T09:25:36Z</time>
      </trkpt>
      <trkpt lat="48.61047" lon="1.71453">
        <ele>260.20001220703</ele>
        <time>2021-02-16T09:25:37Z</time>
      </trkpt>
      <trkpt lat="48.61044" lon="1.71434">
        <ele>260.39999389648</ele>
        <time>2021-02-16T09:25:47Z</time>
      </trkpt>
      <trkpt lat="48.61044" lon="1.71433">
        <ele>260.39999389648</ele>
        <time>2021-02-16T09:25:48Z</time>
      </trkpt>
      <trkpt lat="48.61041" lon="1.71419">
        <ele>259.79998779297</ele>
        <time>2021-02-16T09:25:57Z</time>
      </trkpt>
      <trkpt lat="48.6104" lon="1.71417">
        <ele>259.79998779297</ele>
        <time>2021-02-16T09:25:58Z</time>
      </trkpt>
      <trkpt lat="48.6104" lon="1.71415">
        <ele>259.79998779297</ele>
        <time>2021-02-16T09:25:59Z</time>
      </trkpt>
      <trkpt lat="48.61039" lon="1.71411">
        <ele>259.60000610352</ele>
        <time>2021-02-16T09:26:02Z</time>
      </trkpt>
      <trkpt lat="48.61035" lon="1.71389">
        <ele>259</ele>
        <time>2021-02-16T09:26:16Z</time>
      </trkpt>
      <trkpt lat="48.61026" lon="1.71371">
        <ele>258.39999389648</ele>
        <time>2021-02-16T09:26:32Z</time>
      </trkpt>
      <trkpt lat="48.61018" lon="1.71371">
        <ele>258.39999389648</ele>
        <time>2021-02-16T09:26:43Z</time>
      </trkpt>
      <trkpt lat="48.61014" lon="1.71372">
        <ele>259</ele>
        <time>2021-02-16T09:26:58Z</time>
      </trkpt>
      <trkpt lat="48.61014" lon="1.71381">
        <ele>258</ele>
        <time>2021-02-16T09:27:23Z</time>
      </trkpt>
      <trkpt lat="48.61026" lon="1.71371">
        <ele>258.20001220703</ele>
        <time>2021-02-16T09:27:43Z</time>
      </trkpt>
      <trkpt lat="48.61037" lon="1.71362">
        <ele>258.79998779297</ele>
        <time>2021-02-16T09:27:58Z</time>
      </trkpt>
      <trkpt lat="48.61047" lon="1.71359">
        <ele>259.20001220703</ele>
        <time>2021-02-16T09:28:05Z</time>
      </trkpt>
      <trkpt lat="48.6106" lon="1.71355">
        <ele>259.39999389648</ele>
        <time>2021-02-16T09:28:18Z</time>
      </trkpt>
      <trkpt lat="48.61065" lon="1.71349">
        <ele>258.60000610352</ele>
        <time>2021-02-16T09:28:24Z</time>
      </trkpt>
      <trkpt lat="48.61066" lon="1.71349">
        <ele>258.39999389648</ele>
        <time>2021-02-16T09:28:25Z</time>
      </trkpt>
      <trkpt lat="48.61067" lon="1.71348">
        <ele>258.39999389648</ele>
        <time>2021-02-16T09:28:26Z</time>
      </trkpt>
      <trkpt lat="48.61067" lon="1.71336">
        <ele>257.20001220703</ele>
        <time>2021-02-16T09:28:39Z</time>
      </trkpt>
      <trkpt lat="48.61067" lon="1.71334">
        <ele>257</ele>
        <time>2021-02-16T09:28:40Z</time>
      </trkpt>
      <trkpt lat="48.61066" lon="1.71332">
        <ele>257</ele>
        <time>2021-02-16T09:28:41Z</time>
      </trkpt>
      <trkpt lat="48.6106" lon="1.71307">
        <ele>255.80000305176</ele>
        <time>2021-02-16T09:28:53Z</time>
      </trkpt>
      <trkpt lat="48.6106" lon="1.71305">
        <ele>255.80000305176</ele>
        <time>2021-02-16T09:28:54Z</time>
      </trkpt>
      <trkpt lat="48.61057" lon="1.71299">
        <ele>255.39999389648</ele>
        <time>2021-02-16T09:28:59Z</time>
      </trkpt>
      <trkpt lat="48.61054" lon="1.71282">
        <ele>254.80000305176</ele>
        <time>2021-02-16T09:29:13Z</time>
      </trkpt>
      <trkpt lat="48.61053" lon="1.71268">
        <ele>254.19999694824</ele>
        <time>2021-02-16T09:29:27Z</time>
      </trkpt>
      <trkpt lat="48.61036" lon="1.71258">
        <ele>253.19999694824</ele>
        <time>2021-02-16T09:29:45Z</time>
      </trkpt>
      <trkpt lat="48.61034" lon="1.71244">
        <ele>252.60000610352</ele>
        <time>2021-02-16T09:29:56Z</time>
      </trkpt>
      <trkpt lat="48.61035" lon="1.71232">
        <ele>252.39999389648</ele>
        <time>2021-02-16T09:30:03Z</time>
      </trkpt>
      <trkpt lat="48.61034" lon="1.7123">
        <ele>252.39999389648</ele>
        <time>2021-02-16T09:30:04Z</time>
      </trkpt>
      <trkpt lat="48.61029" lon="1.71212">
        <ele>251.80000305176</ele>
        <time>2021-02-16T09:30:15Z</time>
      </trkpt>
      <trkpt lat="48.61028" lon="1.71199">
        <ele>251.80000305176</ele>
        <time>2021-02-16T09:30:22Z</time>
      </trkpt>
      <trkpt lat="48.61028" lon="1.71197">
        <ele>251.80000305176</ele>
        <time>2021-02-16T09:30:23Z</time>
      </trkpt>
      <trkpt lat="48.61025" lon="1.71181">
        <ele>252.39999389648</ele>
        <time>2021-02-16T09:30:31Z</time>
      </trkpt>
      <trkpt lat="48.61019" lon="1.71159">
        <ele>251.80000305176</ele>
        <time>2021-02-16T09:30:45Z</time>
      </trkpt>
      <trkpt lat="48.61018" lon="1.71152">
        <ele>251.60000610352</ele>
        <time>2021-02-16T09:30:50Z</time>
      </trkpt>
      <trkpt lat="48.61018" lon="1.7115">
        <ele>251.60000610352</ele>
        <time>2021-02-16T09:30:51Z</time>
      </trkpt>
      <trkpt lat="48.61018" lon="1.71147">
        <ele>251.60000610352</ele>
        <time>2021-02-16T09:30:52Z</time>
      </trkpt>
      <trkpt lat="48.61017" lon="1.71145">
        <ele>251.60000610352</ele>
        <time>2021-02-16T09:30:53Z</time>
      </trkpt>
      <trkpt lat="48.61011" lon="1.71124">
        <ele>251.19999694824</ele>
        <time>2021-02-16T09:31:05Z</time>
      </trkpt>
      <trkpt lat="48.6101" lon="1.71115">
        <ele>251.60000610352</ele>
        <time>2021-02-16T09:31:10Z</time>
      </trkpt>
      <trkpt lat="48.61009" lon="1.7111">
        <ele>251.60000610352</ele>
        <time>2021-02-16T09:31:12Z</time>
      </trkpt>
      <trkpt lat="48.61004" lon="1.71079">
        <ele>251.39999389648</ele>
        <time>2021-02-16T09:31:29Z</time>
      </trkpt>
      <trkpt lat="48.61002" lon="1.71066">
        <ele>251.19999694824</ele>
        <time>2021-02-16T09:31:37Z</time>
      </trkpt>
      <trkpt lat="48.60999" lon="1.71053">
        <ele>251</ele>
        <time>2021-02-16T09:31:44Z</time>
      </trkpt>
      <trkpt lat="48.60998" lon="1.71051">
        <ele>251</ele>
        <time>2021-02-16T09:31:45Z</time>
      </trkpt>
      <trkpt lat="48.60997" lon="1.71049">
        <ele>251</ele>
        <time>2021-02-16T09:31:46Z</time>
      </trkpt>
      <trkpt lat="48.60997" lon="1.71047">
        <ele>250.80000305176</ele>
        <time>2021-02-16T09:31:47Z</time>
      </trkpt>
      <trkpt lat="48.60996" lon="1.71045">
        <ele>250.80000305176</ele>
        <time>2021-02-16T09:31:48Z</time>
      </trkpt>
      <trkpt lat="48.6099" lon="1.71011">
        <ele>251</ele>
        <time>2021-02-16T09:32:05Z</time>
      </trkpt>
      <trkpt lat="48.60987" lon="1.7099">
        <ele>250.60000610352</ele>
        <time>2021-02-16T09:32:20Z</time>
      </trkpt>
      <trkpt lat="48.60982" lon="1.70964">
        <ele>250.80000305176</ele>
        <time>2021-02-16T09:32:34Z</time>
      </trkpt>
      <trkpt lat="48.60981" lon="1.7096">
        <ele>250.60000610352</ele>
        <time>2021-02-16T09:32:36Z</time>
      </trkpt>
      <trkpt lat="48.6098" lon="1.70958">
        <ele>250.60000610352</ele>
        <time>2021-02-16T09:32:37Z</time>
      </trkpt>
      <trkpt lat="48.6098" lon="1.70956">
        <ele>250.60000610352</ele>
        <time>2021-02-16T09:32:38Z</time>
      </trkpt>
      <trkpt lat="48.60979" lon="1.70953">
        <ele>250.60000610352</ele>
        <time>2021-02-16T09:32:39Z</time>
      </trkpt>
      <trkpt lat="48.60979" lon="1.70952">
        <ele>250.60000610352</ele>
        <time>2021-02-16T09:32:40Z</time>
      </trkpt>
      <trkpt lat="48.60979" lon="1.70947">
        <ele>250.60000610352</ele>
        <time>2021-02-16T09:32:42Z</time>
      </trkpt>
      <trkpt lat="48.60978" lon="1.70944">
        <ele>250.60000610352</ele>
        <time>2021-02-16T09:32:45Z</time>
      </trkpt>
      <trkpt lat="48.60974" lon="1.70929">
        <ele>250.80000305176</ele>
        <time>2021-02-16T09:32:55Z</time>
      </trkpt>
      <trkpt lat="48.60973" lon="1.70922">
        <ele>250.80000305176</ele>
        <time>2021-02-16T09:32:59Z</time>
      </trkpt>
      <trkpt lat="48.60973" lon="1.70918">
        <ele>250.80000305176</ele>
        <time>2021-02-16T09:33:01Z</time>
      </trkpt>
      <trkpt lat="48.60972" lon="1.70916">
        <ele>250.80000305176</ele>
        <time>2021-02-16T09:33:02Z</time>
      </trkpt>
      <trkpt lat="48.60968" lon="1.70892">
        <ele>250.60000610352</ele>
        <time>2021-02-16T09:33:16Z</time>
      </trkpt>
      <trkpt lat="48.60967" lon="1.70886">
        <ele>250.60000610352</ele>
        <time>2021-02-16T09:33:20Z</time>
      </trkpt>
      <trkpt lat="48.60963" lon="1.70869">
        <ele>250</ele>
        <time>2021-02-16T09:33:30Z</time>
      </trkpt>
      <trkpt lat="48.60961" lon="1.70842">
        <ele>250.39999389648</ele>
        <time>2021-02-16T09:33:44Z</time>
      </trkpt>
      <trkpt lat="48.60959" lon="1.70823">
        <ele>250.19999694824</ele>
        <time>2021-02-16T09:33:56Z</time>
      </trkpt>
      <trkpt lat="48.60958" lon="1.70814">
        <ele>250</ele>
        <time>2021-02-16T09:34:02Z</time>
      </trkpt>
      <trkpt lat="48.60956" lon="1.70795">
        <ele>250</ele>
        <time>2021-02-16T09:34:13Z</time>
      </trkpt>
      <trkpt lat="48.60956" lon="1.70799">
        <ele>250.39999389648</ele>
        <time>2021-02-16T09:34:36Z</time>
      </trkpt>
      <trkpt lat="48.60961" lon="1.7083">
        <ele>250.39999389648</ele>
        <time>2021-02-16T09:34:53Z</time>
      </trkpt>
      <trkpt lat="48.60967" lon="1.70858">
        <ele>251.39999389648</ele>
        <time>2021-02-16T09:35:09Z</time>
      </trkpt>
      <trkpt lat="48.60971" lon="1.70886">
        <ele>251.19999694824</ele>
        <time>2021-02-16T09:35:21Z</time>
      </trkpt>
      <trkpt lat="48.6097" lon="1.7089">
        <ele>251</ele>
        <time>2021-02-16T09:35:23Z</time>
      </trkpt>
      <trkpt lat="48.60971" lon="1.70892">
        <ele>251</ele>
        <time>2021-02-16T09:35:24Z</time>
      </trkpt>
      <trkpt lat="48.60972" lon="1.70894">
        <ele>251</ele>
        <time>2021-02-16T09:35:25Z</time>
      </trkpt>
      <trkpt lat="48.60971" lon="1.70898">
        <ele>250.80000305176</ele>
        <time>2021-02-16T09:35:26Z</time>
      </trkpt>
      <trkpt lat="48.6097" lon="1.70901">
        <ele>250.80000305176</ele>
        <time>2021-02-16T09:35:27Z</time>
      </trkpt>
      <trkpt lat="48.60973" lon="1.70901">
        <ele>250.60000610352</ele>
        <time>2021-02-16T09:35:34Z</time>
      </trkpt>
      <trkpt lat="48.60974" lon="1.70899">
        <ele>250.60000610352</ele>
        <time>2021-02-16T09:35:35Z</time>
      </trkpt>
      <trkpt lat="48.60975" lon="1.70898">
        <ele>250.19999694824</ele>
        <time>2021-02-16T09:35:36Z</time>
      </trkpt>
      <trkpt lat="48.60976" lon="1.70895">
        <ele>249.80000305176</ele>
        <time>2021-02-16T09:35:38Z</time>
      </trkpt>
      <trkpt lat="48.60977" lon="1.70893">
        <ele>249.80000305176</ele>
        <time>2021-02-16T09:35:39Z</time>
      </trkpt>
      <trkpt lat="48.60978" lon="1.70889">
        <ele>249.80000305176</ele>
        <time>2021-02-16T09:35:41Z</time>
      </trkpt>
      <trkpt lat="48.60989" lon="1.70868">
        <ele>250.80000305176</ele>
        <time>2021-02-16T09:35:55Z</time>
      </trkpt>
      <trkpt lat="48.60998" lon="1.70848">
        <ele>251.19999694824</ele>
        <time>2021-02-16T09:36:06Z</time>
      </trkpt>
      <trkpt lat="48.60999" lon="1.70845">
        <ele>251.39999389648</ele>
        <time>2021-02-16T09:36:07Z</time>
      </trkpt>
      <trkpt lat="48.60999" lon="1.70844">
        <ele>251.39999389648</ele>
        <time>2021-02-16T09:36:08Z</time>
      </trkpt>
      <trkpt lat="48.61" lon="1.70842">
        <ele>251.39999389648</ele>
        <time>2021-02-16T09:36:09Z</time>
      </trkpt>
      <trkpt lat="48.61001" lon="1.70841">
        <ele>251.39999389648</ele>
        <time>2021-02-16T09:36:10Z</time>
      </trkpt>
      <trkpt lat="48.61001" lon="1.70839">
        <ele>251.39999389648</ele>
        <time>2021-02-16T09:36:11Z</time>
      </trkpt>
      <trkpt lat="48.61001" lon="1.70837">
        <ele>251.19999694824</ele>
        <time>2021-02-16T09:36:12Z</time>
      </trkpt>
      <trkpt lat="48.61002" lon="1.70835">
        <ele>251.19999694824</ele>
        <time>2021-02-16T09:36:13Z</time>
      </trkpt>
      <trkpt lat="48.61002" lon="1.70832">
        <ele>251.19999694824</ele>
        <time>2021-02-16T09:36:14Z</time>
      </trkpt>
      <trkpt lat="48.61002" lon="1.70829">
        <ele>251.19999694824</ele>
        <time>2021-02-16T09:36:15Z</time>
      </trkpt>
      <trkpt lat="48.6101" lon="1.70796">
        <ele>250.80000305176</ele>
        <time>2021-02-16T09:36:31Z</time>
      </trkpt>
      <trkpt lat="48.61019" lon="1.70769">
        <ele>249.80000305176</ele>
        <time>2021-02-16T09:36:47Z</time>
      </trkpt>
      <trkpt lat="48.6102" lon="1.70757">
        <ele>249.60000610352</ele>
        <time>2021-02-16T09:37:01Z</time>
      </trkpt>
      <trkpt lat="48.61015" lon="1.70758">
        <ele>249.60000610352</ele>
        <time>2021-02-16T09:37:17Z</time>
      </trkpt>
      <trkpt lat="48.61014" lon="1.70756">
        <ele>249.39999389648</ele>
        <time>2021-02-16T09:37:19Z</time>
      </trkpt>
      <trkpt lat="48.61013" lon="1.70756">
        <ele>249.39999389648</ele>
        <time>2021-02-16T09:37:20Z</time>
      </trkpt>
      <trkpt lat="48.61011" lon="1.70755">
        <ele>249.39999389648</ele>
        <time>2021-02-16T09:37:21Z</time>
      </trkpt>
      <trkpt lat="48.60997" lon="1.70743">
        <ele>251.39999389648</ele>
        <time>2021-02-16T09:37:35Z</time>
      </trkpt>
      <trkpt lat="48.60986" lon="1.70738">
        <ele>252.19999694824</ele>
        <time>2021-02-16T09:37:46Z</time>
      </trkpt>
      <trkpt lat="48.60983" lon="1.70736">
        <ele>252</ele>
        <time>2021-02-16T09:37:49Z</time>
      </trkpt>
      <trkpt lat="48.60969" lon="1.70735">
        <ele>254</ele>
        <time>2021-02-16T09:38:01Z</time>
      </trkpt>
      <trkpt lat="48.60967" lon="1.70734">
        <ele>254</ele>
        <time>2021-02-16T09:38:02Z</time>
      </trkpt>
      <trkpt lat="48.60953" lon="1.70734">
        <ele>256.20001220703</ele>
        <time>2021-02-16T09:38:17Z</time>
      </trkpt>
      <trkpt lat="48.60932" lon="1.70733">
        <ele>257.39999389648</ele>
        <time>2021-02-16T09:38:35Z</time>
      </trkpt>
      <trkpt lat="48.60919" lon="1.70732">
        <ele>256.79998779297</ele>
        <time>2021-02-16T09:38:55Z</time>
      </trkpt>
      <trkpt lat="48.60911" lon="1.70734">
        <ele>256.60000610352</ele>
        <time>2021-02-16T09:39:12Z</time>
      </trkpt>
      <trkpt lat="48.60898" lon="1.70738">
        <ele>258.39999389648</ele>
        <time>2021-02-16T09:39:27Z</time>
      </trkpt>
      <trkpt lat="48.6088" lon="1.7074">
        <ele>259.20001220703</ele>
        <time>2021-02-16T09:39:47Z</time>
      </trkpt>
      <trkpt lat="48.60869" lon="1.70743">
        <ele>260.20001220703</ele>
        <time>2021-02-16T09:39:55Z</time>
      </trkpt>
      <trkpt lat="48.60867" lon="1.70743">
        <ele>260.20001220703</ele>
        <time>2021-02-16T09:39:56Z</time>
      </trkpt>
      <trkpt lat="48.60864" lon="1.70744">
        <ele>260.39999389648</ele>
        <time>2021-02-16T09:39:59Z</time>
      </trkpt>
      <trkpt lat="48.60863" lon="1.70745">
        <ele>260.60000610352</ele>
        <time>2021-02-16T09:40:00Z</time>
      </trkpt>
      <trkpt lat="48.60862" lon="1.70745">
        <ele>260.79998779297</ele>
        <time>2021-02-16T09:40:01Z</time>
      </trkpt>
      <trkpt lat="48.60853" lon="1.70747">
        <ele>261.39999389648</ele>
        <time>2021-02-16T09:40:08Z</time>
      </trkpt>
      <trkpt lat="48.60852" lon="1.70747">
        <ele>261.60000610352</ele>
        <time>2021-02-16T09:40:09Z</time>
      </trkpt>
      <trkpt lat="48.60851" lon="1.70747">
        <ele>261.60000610352</ele>
        <time>2021-02-16T09:40:10Z</time>
      </trkpt>
      <trkpt lat="48.6085" lon="1.70747">
        <ele>261.60000610352</ele>
        <time>2021-02-16T09:40:11Z</time>
      </trkpt>
      <trkpt lat="48.60836" lon="1.70742">
        <ele>263.39999389648</ele>
        <time>2021-02-16T09:40:23Z</time>
      </trkpt>
      <trkpt lat="48.6083" lon="1.70736">
        <ele>264</ele>
        <time>2021-02-16T09:40:31Z</time>
      </trkpt>
      <trkpt lat="48.60812" lon="1.7071">
        <ele>265.39999389648</ele>
        <time>2021-02-16T09:40:49Z</time>
      </trkpt>
      <trkpt lat="48.60806" lon="1.70694">
        <ele>265.79998779297</ele>
        <time>2021-02-16T09:40:58Z</time>
      </trkpt>
      <trkpt lat="48.60798" lon="1.70674">
        <ele>267.60000610352</ele>
        <time>2021-02-16T09:41:11Z</time>
      </trkpt>
      <trkpt lat="48.6079" lon="1.70657">
        <ele>267.39999389648</ele>
        <time>2021-02-16T09:41:21Z</time>
      </trkpt>
      <trkpt lat="48.60775" lon="1.70631">
        <ele>268.60000610352</ele>
        <time>2021-02-16T09:41:37Z</time>
      </trkpt>
      <trkpt lat="48.60769" lon="1.70613">
        <ele>269.60000610352</ele>
        <time>2021-02-16T09:41:51Z</time>
      </trkpt>
      <trkpt lat="48.6077" lon="1.70591">
        <ele>270.39999389648</ele>
        <time>2021-02-16T09:42:06Z</time>
      </trkpt>
      <trkpt lat="48.6077" lon="1.70587">
        <ele>270.39999389648</ele>
        <time>2021-02-16T09:42:08Z</time>
      </trkpt>
      <trkpt lat="48.60773" lon="1.70554">
        <ele>271.20001220703</ele>
        <time>2021-02-16T09:42:28Z</time>
      </trkpt>
      <trkpt lat="48.60774" lon="1.70547">
        <ele>271</ele>
        <time>2021-02-16T09:42:36Z</time>
      </trkpt>
      <trkpt lat="48.60774" lon="1.70546">
        <ele>270.79998779297</ele>
        <time>2021-02-16T09:42:37Z</time>
      </trkpt>
      <trkpt lat="48.60774" lon="1.70544">
        <ele>270.79998779297</ele>
        <time>2021-02-16T09:42:38Z</time>
      </trkpt>
      <trkpt lat="48.60776" lon="1.70507">
        <ele>271.39999389648</ele>
        <time>2021-02-16T09:42:57Z</time>
      </trkpt>
      <trkpt lat="48.60783" lon="1.70474">
        <ele>271.39999389648</ele>
        <time>2021-02-16T09:43:15Z</time>
      </trkpt>
      <trkpt lat="48.60789" lon="1.70438">
        <ele>271.79998779297</ele>
        <time>2021-02-16T09:43:33Z</time>
      </trkpt>
      <trkpt lat="48.60794" lon="1.70408">
        <ele>271.79998779297</ele>
        <time>2021-02-16T09:43:50Z</time>
      </trkpt>
      <trkpt lat="48.60796" lon="1.70392">
        <ele>271.60000610352</ele>
        <time>2021-02-16T09:43:58Z</time>
      </trkpt>
      <trkpt lat="48.60797" lon="1.70391">
        <ele>271.60000610352</ele>
        <time>2021-02-16T09:43:59Z</time>
      </trkpt>
      <trkpt lat="48.60797" lon="1.70389">
        <ele>271.60000610352</ele>
        <time>2021-02-16T09:44:00Z</time>
      </trkpt>
      <trkpt lat="48.60797" lon="1.70387">
        <ele>271.60000610352</ele>
        <time>2021-02-16T09:44:01Z</time>
      </trkpt>
      <trkpt lat="48.60798" lon="1.70384">
        <ele>271.79998779297</ele>
        <time>2021-02-16T09:44:02Z</time>
      </trkpt>
      <trkpt lat="48.60798" lon="1.70383">
        <ele>271.79998779297</ele>
        <time>2021-02-16T09:44:03Z</time>
      </trkpt>
      <trkpt lat="48.60798" lon="1.70381">
        <ele>271.79998779297</ele>
        <time>2021-02-16T09:44:04Z</time>
      </trkpt>
      <trkpt lat="48.60801" lon="1.70353">
        <ele>272</ele>
        <time>2021-02-16T09:44:19Z</time>
      </trkpt>
      <trkpt lat="48.60807" lon="1.70324">
        <ele>272.20001220703</ele>
        <time>2021-02-16T09:44:35Z</time>
      </trkpt>
      <trkpt lat="48.60812" lon="1.70296">
        <ele>272.20001220703</ele>
        <time>2021-02-16T09:44:51Z</time>
      </trkpt>
      <trkpt lat="48.60819" lon="1.70263">
        <ele>273</ele>
        <time>2021-02-16T09:45:09Z</time>
      </trkpt>
      <trkpt lat="48.60824" lon="1.70236">
        <ele>273.60000610352</ele>
        <time>2021-02-16T09:45:24Z</time>
      </trkpt>
      <trkpt lat="48.60828" lon="1.702">
        <ele>274.39999389648</ele>
        <time>2021-02-16T09:45:43Z</time>
      </trkpt>
      <trkpt lat="48.60832" lon="1.70176">
        <ele>274.60000610352</ele>
        <time>2021-02-16T09:45:56Z</time>
      </trkpt>
      <trkpt lat="48.60843" lon="1.70148">
        <ele>275</ele>
        <time>2021-02-16T09:46:13Z</time>
      </trkpt>
      <trkpt lat="48.60845" lon="1.70139">
        <ele>275</ele>
        <time>2021-02-16T09:46:17Z</time>
      </trkpt>
      <trkpt lat="48.60851" lon="1.70119">
        <ele>275.39999389648</ele>
        <time>2021-02-16T09:46:29Z</time>
      </trkpt>
      <trkpt lat="48.60853" lon="1.70104">
        <ele>276</ele>
        <time>2021-02-16T09:46:39Z</time>
      </trkpt>
      <trkpt lat="48.60858" lon="1.70086">
        <ele>276</ele>
        <time>2021-02-16T09:46:50Z</time>
      </trkpt>
      <trkpt lat="48.60866" lon="1.70055">
        <ele>276</ele>
        <time>2021-02-16T09:47:09Z</time>
      </trkpt>
      <trkpt lat="48.60874" lon="1.70027">
        <ele>276.39999389648</ele>
        <time>2021-02-16T09:47:25Z</time>
      </trkpt>
      <trkpt lat="48.60875" lon="1.70022">
        <ele>276.39999389648</ele>
        <time>2021-02-16T09:47:28Z</time>
      </trkpt>
      <trkpt lat="48.60879" lon="1.70011">
        <ele>276.60000610352</ele>
        <time>2021-02-16T09:47:34Z</time>
      </trkpt>
      <trkpt lat="48.60879" lon="1.70009">
        <ele>276.60000610352</ele>
        <time>2021-02-16T09:47:35Z</time>
      </trkpt>
      <trkpt lat="48.60883" lon="1.69997">
        <ele>276.60000610352</ele>
        <time>2021-02-16T09:47:43Z</time>
      </trkpt>
      <trkpt lat="48.60891" lon="1.6997">
        <ele>277.20001220703</ele>
        <time>2021-02-16T09:47:59Z</time>
      </trkpt>
      <trkpt lat="48.60895" lon="1.69941">
        <ele>277.20001220703</ele>
        <time>2021-02-16T09:48:14Z</time>
      </trkpt>
      <trkpt lat="48.60899" lon="1.69927">
        <ele>277.39999389648</ele>
        <time>2021-02-16T09:48:22Z</time>
      </trkpt>
      <trkpt lat="48.60899" lon="1.69926">
        <ele>277.39999389648</ele>
        <time>2021-02-16T09:48:23Z</time>
      </trkpt>
      <trkpt lat="48.609" lon="1.69924">
        <ele>277.39999389648</ele>
        <time>2021-02-16T09:48:24Z</time>
      </trkpt>
      <trkpt lat="48.609" lon="1.69922">
        <ele>277.39999389648</ele>
        <time>2021-02-16T09:48:25Z</time>
      </trkpt>
      <trkpt lat="48.60901" lon="1.6992">
        <ele>277.39999389648</ele>
        <time>2021-02-16T09:48:26Z</time>
      </trkpt>
      <trkpt lat="48.60901" lon="1.69918">
        <ele>277.39999389648</ele>
        <time>2021-02-16T09:48:27Z</time>
      </trkpt>
      <trkpt lat="48.60906" lon="1.69902">
        <ele>277.39999389648</ele>
        <time>2021-02-16T09:48:35Z</time>
      </trkpt>
      <trkpt lat="48.60907" lon="1.69901">
        <ele>277.39999389648</ele>
        <time>2021-02-16T09:48:36Z</time>
      </trkpt>
      <trkpt lat="48.60908" lon="1.69896">
        <ele>277.60000610352</ele>
        <time>2021-02-16T09:48:39Z</time>
      </trkpt>
      <trkpt lat="48.60909" lon="1.69889">
        <ele>277.60000610352</ele>
        <time>2021-02-16T09:48:42Z</time>
      </trkpt>
      <trkpt lat="48.60909" lon="1.69888">
        <ele>277.60000610352</ele>
        <time>2021-02-16T09:48:43Z</time>
      </trkpt>
      <trkpt lat="48.60918" lon="1.69853">
        <ele>278</ele>
        <time>2021-02-16T09:49:03Z</time>
      </trkpt>
      <trkpt lat="48.60922" lon="1.69826">
        <ele>278.20001220703</ele>
        <time>2021-02-16T09:49:18Z</time>
      </trkpt>
      <trkpt lat="48.60926" lon="1.69803">
        <ele>277.79998779297</ele>
        <time>2021-02-16T09:49:30Z</time>
      </trkpt>
      <trkpt lat="48.60926" lon="1.69801">
        <ele>278</ele>
        <time>2021-02-16T09:49:31Z</time>
      </trkpt>
      <trkpt lat="48.60927" lon="1.69797">
        <ele>278</ele>
        <time>2021-02-16T09:49:33Z</time>
      </trkpt>
      <trkpt lat="48.60929" lon="1.69787">
        <ele>277.79998779297</ele>
        <time>2021-02-16T09:49:39Z</time>
      </trkpt>
      <trkpt lat="48.60929" lon="1.69785">
        <ele>277.79998779297</ele>
        <time>2021-02-16T09:49:40Z</time>
      </trkpt>
      <trkpt lat="48.60931" lon="1.69763">
        <ele>277.79998779297</ele>
        <time>2021-02-16T09:49:54Z</time>
      </trkpt>
      <trkpt lat="48.60938" lon="1.69737">
        <ele>278.20001220703</ele>
        <time>2021-02-16T09:50:10Z</time>
      </trkpt>
      <trkpt lat="48.60943" lon="1.6971">
        <ele>278.39999389648</ele>
        <time>2021-02-16T09:50:27Z</time>
      </trkpt>
      <trkpt lat="48.60943" lon="1.69706">
        <ele>278.39999389648</ele>
        <time>2021-02-16T09:50:29Z</time>
      </trkpt>
      <trkpt lat="48.60943" lon="1.69685">
        <ele>278.60000610352</ele>
        <time>2021-02-16T09:50:42Z</time>
      </trkpt>
      <trkpt lat="48.60943" lon="1.69666">
        <ele>278.79998779297</ele>
        <time>2021-02-16T09:50:53Z</time>
      </trkpt>
      <trkpt lat="48.60946" lon="1.69647">
        <ele>279</ele>
        <time>2021-02-16T09:51:07Z</time>
      </trkpt>
      <trkpt lat="48.60945" lon="1.69628">
        <ele>279</ele>
        <time>2021-02-16T09:51:19Z</time>
      </trkpt>
      <trkpt lat="48.60945" lon="1.69608">
        <ele>279.20001220703</ele>
        <time>2021-02-16T09:51:31Z</time>
      </trkpt>
      <trkpt lat="48.60948" lon="1.69589">
        <ele>279.20001220703</ele>
        <time>2021-02-16T09:51:45Z</time>
      </trkpt>
      <trkpt lat="48.60955" lon="1.69592">
        <ele>279</ele>
        <time>2021-02-16T09:51:58Z</time>
      </trkpt>
      <trkpt lat="48.60956" lon="1.69592">
        <ele>279</ele>
        <time>2021-02-16T09:52:04Z</time>
      </trkpt>
      <trkpt lat="48.60959" lon="1.69594">
        <ele>279</ele>
        <time>2021-02-16T09:52:24Z</time>
      </trkpt>
      <trkpt lat="48.60959" lon="1.69597">
        <ele>279</ele>
        <time>2021-02-16T09:52:47Z</time>
      </trkpt>
      <trkpt lat="48.60961" lon="1.69595">
        <ele>279</ele>
        <time>2021-02-16T09:53:19Z</time>
      </trkpt>
      <trkpt lat="48.60958" lon="1.6959">
        <ele>279</ele>
        <time>2021-02-16T09:53:46Z</time>
      </trkpt>
      <trkpt lat="48.60958" lon="1.69593">
        <ele>279</ele>
        <time>2021-02-16T09:54:38Z</time>
      </trkpt>
      <trkpt lat="48.60955" lon="1.69593">
        <ele>279</ele>
        <time>2021-02-16T09:54:54Z</time>
      </trkpt>
      <trkpt lat="48.60952" lon="1.69595">
        <ele>279.60000610352</ele>
        <time>2021-02-16T09:55:24Z</time>
      </trkpt>
      <trkpt lat="48.60954" lon="1.69596">
        <ele>279.79998779297</ele>
        <time>2021-02-16T09:55:50Z</time>
      </trkpt>
      <trkpt lat="48.60951" lon="1.69601">
        <ele>279.60000610352</ele>
        <time>2021-02-16T09:56:18Z</time>
      </trkpt>
      <trkpt lat="48.60952" lon="1.69598">
        <ele>279.60000610352</ele>
        <time>2021-02-16T09:56:51Z</time>
      </trkpt>
      <trkpt lat="48.60956" lon="1.69598">
        <ele>279.60000610352</ele>
        <time>2021-02-16T09:57:22Z</time>
      </trkpt>
      <trkpt lat="48.60958" lon="1.69598">
        <ele>279.60000610352</ele>
        <time>2021-02-16T09:57:58Z</time>
      </trkpt>
      <trkpt lat="48.60954" lon="1.69601">
        <ele>279.60000610352</ele>
        <time>2021-02-16T09:58:35Z</time>
      </trkpt>
      <trkpt lat="48.60954" lon="1.69603">
        <ele>279.60000610352</ele>
        <time>2021-02-16T09:59:09Z</time>
      </trkpt>
      <trkpt lat="48.60954" lon="1.69603">
        <ele>279.60000610352</ele>
        <time>2021-02-16T09:59:18Z</time>
      </trkpt>
      <trkpt lat="48.60956" lon="1.69601">
        <ele>279.60000610352</ele>
        <time>2021-02-16T09:59:50Z</time>
      </trkpt>
      <trkpt lat="48.60955" lon="1.69596">
        <ele>279.39999389648</ele>
        <time>2021-02-16T10:00:19Z</time>
      </trkpt>
      <trkpt lat="48.60958" lon="1.69597">
        <ele>280.20001220703</ele>
        <time>2021-02-16T10:00:42Z</time>
      </trkpt>
      <trkpt lat="48.6096" lon="1.69599">
        <ele>280</ele>
        <time>2021-02-16T10:01:08Z</time>
      </trkpt>
      <trkpt lat="48.60957" lon="1.69601">
        <ele>277</ele>
        <time>2021-02-16T10:01:24Z</time>
      </trkpt>
      <trkpt lat="48.60957" lon="1.69602">
        <ele>277.79998779297</ele>
        <time>2021-02-16T10:01:25Z</time>
      </trkpt>
      <trkpt lat="48.60957" lon="1.69603">
        <ele>281</ele>
        <time>2021-02-16T10:01:28Z</time>
      </trkpt>
      <trkpt lat="48.60958" lon="1.69604">
        <ele>281.79998779297</ele>
        <time>2021-02-16T10:01:30Z</time>
      </trkpt>
      <trkpt lat="48.60959" lon="1.69606">
        <ele>278.60000610352</ele>
        <time>2021-02-16T10:01:39Z</time>
      </trkpt>
      <trkpt lat="48.60961" lon="1.69606">
        <ele>279.20001220703</ele>
        <time>2021-02-16T10:01:47Z</time>
      </trkpt>
      <trkpt lat="48.60961" lon="1.69606">
        <ele>281.20001220703</ele>
        <time>2021-02-16T10:01:52Z</time>
      </trkpt>
      <trkpt lat="48.60961" lon="1.69604">
        <ele>280.60000610352</ele>
        <time>2021-02-16T10:02:01Z</time>
      </trkpt>
      <trkpt lat="48.60962" lon="1.69601">
        <ele>279.60000610352</ele>
        <time>2021-02-16T10:02:30Z</time>
      </trkpt>
      <trkpt lat="48.60958" lon="1.69593">
        <ele>280.60000610352</ele>
        <time>2021-02-16T10:02:41Z</time>
      </trkpt>
      <trkpt lat="48.60953" lon="1.6958">
        <ele>279.39999389648</ele>
        <time>2021-02-16T10:03:00Z</time>
      </trkpt>
      <trkpt lat="48.60951" lon="1.69568">
        <ele>279.39999389648</ele>
        <time>2021-02-16T10:03:08Z</time>
      </trkpt>
      <trkpt lat="48.60952" lon="1.69544">
        <ele>280.60000610352</ele>
        <time>2021-02-16T10:03:23Z</time>
      </trkpt>
      <trkpt lat="48.60954" lon="1.69527">
        <ele>280.39999389648</ele>
        <time>2021-02-16T10:03:32Z</time>
      </trkpt>
      <trkpt lat="48.60956" lon="1.69509">
        <ele>280.39999389648</ele>
        <time>2021-02-16T10:03:42Z</time>
      </trkpt>
      <trkpt lat="48.60958" lon="1.69494">
        <ele>280.39999389648</ele>
        <time>2021-02-16T10:03:51Z</time>
      </trkpt>
      <trkpt lat="48.60964" lon="1.69473">
        <ele>280.79998779297</ele>
        <time>2021-02-16T10:04:03Z</time>
      </trkpt>
      <trkpt lat="48.60969" lon="1.69457">
        <ele>280.60000610352</ele>
        <time>2021-02-16T10:04:12Z</time>
      </trkpt>
      <trkpt lat="48.60969" lon="1.69455">
        <ele>280.60000610352</ele>
        <time>2021-02-16T10:04:13Z</time>
      </trkpt>
      <trkpt lat="48.6097" lon="1.69453">
        <ele>280.60000610352</ele>
        <time>2021-02-16T10:04:14Z</time>
      </trkpt>
      <trkpt lat="48.60975" lon="1.69435">
        <ele>280.60000610352</ele>
        <time>2021-02-16T10:04:25Z</time>
      </trkpt>
      <trkpt lat="48.60976" lon="1.69433">
        <ele>280.60000610352</ele>
        <time>2021-02-16T10:04:26Z</time>
      </trkpt>
      <trkpt lat="48.60976" lon="1.69431">
        <ele>280.60000610352</ele>
        <time>2021-02-16T10:04:27Z</time>
      </trkpt>
      <trkpt lat="48.60975" lon="1.69429">
        <ele>280.60000610352</ele>
        <time>2021-02-16T10:04:28Z</time>
      </trkpt>
      <trkpt lat="48.60975" lon="1.69427">
        <ele>280.60000610352</ele>
        <time>2021-02-16T10:04:29Z</time>
      </trkpt>
      <trkpt lat="48.60976" lon="1.69425">
        <ele>280.60000610352</ele>
        <time>2021-02-16T10:04:30Z</time>
      </trkpt>
      <trkpt lat="48.60979" lon="1.69399">
        <ele>280.79998779297</ele>
        <time>2021-02-16T10:04:44Z</time>
      </trkpt>
      <trkpt lat="48.60983" lon="1.69384">
        <ele>281</ele>
        <time>2021-02-16T10:04:55Z</time>
      </trkpt>
      <trkpt lat="48.60985" lon="1.69372">
        <ele>280.79998779297</ele>
        <time>2021-02-16T10:05:02Z</time>
      </trkpt>
      <trkpt lat="48.60984" lon="1.69359">
        <ele>280.60000610352</ele>
        <time>2021-02-16T10:05:11Z</time>
      </trkpt>
      <trkpt lat="48.60984" lon="1.69357">
        <ele>280.60000610352</ele>
        <time>2021-02-16T10:05:12Z</time>
      </trkpt>
      <trkpt lat="48.60986" lon="1.6933">
        <ele>281</ele>
        <time>2021-02-16T10:05:26Z</time>
      </trkpt>
      <trkpt lat="48.60983" lon="1.69307">
        <ele>281.60000610352</ele>
        <time>2021-02-16T10:05:38Z</time>
      </trkpt>
      <trkpt lat="48.60984" lon="1.69282">
        <ele>281.60000610352</ele>
        <time>2021-02-16T10:05:51Z</time>
      </trkpt>
      <trkpt lat="48.60982" lon="1.6926">
        <ele>281.79998779297</ele>
        <time>2021-02-16T10:06:06Z</time>
      </trkpt>
      <trkpt lat="48.60982" lon="1.69238">
        <ele>281.60000610352</ele>
        <time>2021-02-16T10:06:19Z</time>
      </trkpt>
      <trkpt lat="48.60986" lon="1.6921">
        <ele>281.60000610352</ele>
        <time>2021-02-16T10:06:37Z</time>
      </trkpt>
      <trkpt lat="48.6099" lon="1.69185">
        <ele>282</ele>
        <time>2021-02-16T10:06:52Z</time>
      </trkpt>
      <trkpt lat="48.6099" lon="1.69171">
        <ele>282</ele>
        <time>2021-02-16T10:07:02Z</time>
      </trkpt>
      <trkpt lat="48.60994" lon="1.69148">
        <ele>281.79998779297</ele>
        <time>2021-02-16T10:07:18Z</time>
      </trkpt>
      <trkpt lat="48.61002" lon="1.69121">
        <ele>282.20001220703</ele>
        <time>2021-02-16T10:07:37Z</time>
      </trkpt>
      <trkpt lat="48.61014" lon="1.69108">
        <ele>281.79998779297</ele>
        <time>2021-02-16T10:07:54Z</time>
      </trkpt>
      <trkpt lat="48.61028" lon="1.69095">
        <ele>281.20001220703</ele>
        <time>2021-02-16T10:08:10Z</time>
      </trkpt>
      <trkpt lat="48.61049" lon="1.69078">
        <ele>279.60000610352</ele>
        <time>2021-02-16T10:08:30Z</time>
      </trkpt>
      <trkpt lat="48.61064" lon="1.69063">
        <ele>276.20001220703</ele>
        <time>2021-02-16T10:08:49Z</time>
      </trkpt>
      <trkpt lat="48.61077" lon="1.69049">
        <ele>273</ele>
        <time>2021-02-16T10:09:06Z</time>
      </trkpt>
      <trkpt lat="48.61086" lon="1.69025">
        <ele>269.79998779297</ele>
        <time>2021-02-16T10:09:22Z</time>
      </trkpt>
      <trkpt lat="48.61087" lon="1.69013">
        <ele>267.79998779297</ele>
        <time>2021-02-16T10:09:31Z</time>
      </trkpt>
      <trkpt lat="48.61087" lon="1.69003">
        <ele>264.39999389648</ele>
        <time>2021-02-16T10:09:46Z</time>
      </trkpt>
      <trkpt lat="48.61081" lon="1.68974">
        <ele>261.39999389648</ele>
        <time>2021-02-16T10:10:02Z</time>
      </trkpt>
      <trkpt lat="48.61074" lon="1.68951">
        <ele>259</ele>
        <time>2021-02-16T10:10:17Z</time>
      </trkpt>
      <trkpt lat="48.61069" lon="1.68922">
        <ele>256.39999389648</ele>
        <time>2021-02-16T10:10:31Z</time>
      </trkpt>
      <trkpt lat="48.61063" lon="1.68908">
        <ele>255.19999694824</ele>
        <time>2021-02-16T10:10:42Z</time>
      </trkpt>
      <trkpt lat="48.61058" lon="1.68899">
        <ele>254.60000610352</ele>
        <time>2021-02-16T10:10:48Z</time>
      </trkpt>
      <trkpt lat="48.61043" lon="1.68863">
        <ele>251.80000305176</ele>
        <time>2021-02-16T10:11:11Z</time>
      </trkpt>
      <trkpt lat="48.61033" lon="1.68842">
        <ele>250.60000610352</ele>
        <time>2021-02-16T10:11:24Z</time>
      </trkpt>
      <trkpt lat="48.61033" lon="1.6884">
        <ele>250.39999389648</ele>
        <time>2021-02-16T10:11:25Z</time>
      </trkpt>
      <trkpt lat="48.61032" lon="1.68838">
        <ele>250.19999694824</ele>
        <time>2021-02-16T10:11:26Z</time>
      </trkpt>
      <trkpt lat="48.61031" lon="1.68832">
        <ele>249.80000305176</ele>
        <time>2021-02-16T10:11:29Z</time>
      </trkpt>
      <trkpt lat="48.61015" lon="1.68801">
        <ele>248.39999389648</ele>
        <time>2021-02-16T10:11:47Z</time>
      </trkpt>
      <trkpt lat="48.61" lon="1.68775">
        <ele>247.19999694824</ele>
        <time>2021-02-16T10:12:03Z</time>
      </trkpt>
      <trkpt lat="48.60993" lon="1.68763">
        <ele>246.80000305176</ele>
        <time>2021-02-16T10:12:12Z</time>
      </trkpt>
      <trkpt lat="48.60991" lon="1.68758">
        <ele>246.39999389648</ele>
        <time>2021-02-16T10:12:15Z</time>
      </trkpt>
      <trkpt lat="48.60978" lon="1.68743">
        <ele>245</ele>
        <time>2021-02-16T10:12:27Z</time>
      </trkpt>
      <trkpt lat="48.60977" lon="1.68739">
        <ele>244.80000305176</ele>
        <time>2021-02-16T10:12:30Z</time>
      </trkpt>
      <trkpt lat="48.60966" lon="1.68728">
        <ele>244</ele>
        <time>2021-02-16T10:12:39Z</time>
      </trkpt>
      <trkpt lat="48.60952" lon="1.68723">
        <ele>243.60000610352</ele>
        <time>2021-02-16T10:12:47Z</time>
      </trkpt>
      <trkpt lat="48.60946" lon="1.68723">
        <ele>243.39999389648</ele>
        <time>2021-02-16T10:12:51Z</time>
      </trkpt>
      <trkpt lat="48.60944" lon="1.68722">
        <ele>243.19999694824</ele>
        <time>2021-02-16T10:12:52Z</time>
      </trkpt>
      <trkpt lat="48.60943" lon="1.68721">
        <ele>243.19999694824</ele>
        <time>2021-02-16T10:12:53Z</time>
      </trkpt>
      <trkpt lat="48.60941" lon="1.68721">
        <ele>243.19999694824</ele>
        <time>2021-02-16T10:12:54Z</time>
      </trkpt>
      <trkpt lat="48.60925" lon="1.68719">
        <ele>243</ele>
        <time>2021-02-16T10:13:08Z</time>
      </trkpt>
      <trkpt lat="48.60911" lon="1.68715">
        <ele>242.19999694824</ele>
        <time>2021-02-16T10:13:18Z</time>
      </trkpt>
      <trkpt lat="48.60909" lon="1.68716">
        <ele>242.19999694824</ele>
        <time>2021-02-16T10:13:20Z</time>
      </trkpt>
      <trkpt lat="48.60905" lon="1.68717">
        <ele>242.19999694824</ele>
        <time>2021-02-16T10:13:23Z</time>
      </trkpt>
      <trkpt lat="48.60904" lon="1.68717">
        <ele>242</ele>
        <time>2021-02-16T10:13:24Z</time>
      </trkpt>
      <trkpt lat="48.60903" lon="1.68718">
        <ele>242</ele>
        <time>2021-02-16T10:13:25Z</time>
      </trkpt>
      <trkpt lat="48.60893" lon="1.68717">
        <ele>241.39999389648</ele>
        <time>2021-02-16T10:13:34Z</time>
      </trkpt>
      <trkpt lat="48.60891" lon="1.68715">
        <ele>241.39999389648</ele>
        <time>2021-02-16T10:13:36Z</time>
      </trkpt>
      <trkpt lat="48.60881" lon="1.68708">
        <ele>241</ele>
        <time>2021-02-16T10:13:47Z</time>
      </trkpt>
      <trkpt lat="48.60878" lon="1.68708">
        <ele>240.80000305176</ele>
        <time>2021-02-16T10:13:49Z</time>
      </trkpt>
      <trkpt lat="48.60867" lon="1.68705">
        <ele>240.19999694824</ele>
        <time>2021-02-16T10:14:02Z</time>
      </trkpt>
      <trkpt lat="48.60863" lon="1.68695">
        <ele>239.39999389648</ele>
        <time>2021-02-16T10:14:08Z</time>
      </trkpt>
      <trkpt lat="48.60863" lon="1.68694">
        <ele>239.39999389648</ele>
        <time>2021-02-16T10:14:09Z</time>
      </trkpt>
      <trkpt lat="48.60861" lon="1.68682">
        <ele>238.80000305176</ele>
        <time>2021-02-16T10:14:15Z</time>
      </trkpt>
      <trkpt lat="48.60861" lon="1.68679">
        <ele>238.80000305176</ele>
        <time>2021-02-16T10:14:16Z</time>
      </trkpt>
      <trkpt lat="48.6086" lon="1.68675">
        <ele>238.60000610352</ele>
        <time>2021-02-16T10:14:17Z</time>
      </trkpt>
      <trkpt lat="48.6086" lon="1.68672">
        <ele>238.60000610352</ele>
        <time>2021-02-16T10:14:18Z</time>
      </trkpt>
      <trkpt lat="48.6086" lon="1.6867">
        <ele>238.60000610352</ele>
        <time>2021-02-16T10:14:19Z</time>
      </trkpt>
      <trkpt lat="48.6086" lon="1.68668">
        <ele>238.39999389648</ele>
        <time>2021-02-16T10:14:20Z</time>
      </trkpt>
      <trkpt lat="48.6086" lon="1.68666">
        <ele>238.39999389648</ele>
        <time>2021-02-16T10:14:21Z</time>
      </trkpt>
      <trkpt lat="48.6086" lon="1.68664">
        <ele>238.39999389648</ele>
        <time>2021-02-16T10:14:22Z</time>
      </trkpt>
      <trkpt lat="48.6086" lon="1.68662">
        <ele>238.39999389648</ele>
        <time>2021-02-16T10:14:23Z</time>
      </trkpt>
      <trkpt lat="48.6086" lon="1.6866">
        <ele>238.19999694824</ele>
        <time>2021-02-16T10:14:24Z</time>
      </trkpt>
      <trkpt lat="48.60862" lon="1.68647">
        <ele>237.60000610352</ele>
        <time>2021-02-16T10:14:30Z</time>
      </trkpt>
      <trkpt lat="48.60862" lon="1.68644">
        <ele>237.39999389648</ele>
        <time>2021-02-16T10:14:31Z</time>
      </trkpt>
      <trkpt lat="48.60862" lon="1.68642">
        <ele>237.39999389648</ele>
        <time>2021-02-16T10:14:32Z</time>
      </trkpt>
      <trkpt lat="48.60862" lon="1.6864">
        <ele>237.19999694824</ele>
        <time>2021-02-16T10:14:33Z</time>
      </trkpt>
      <trkpt lat="48.60863" lon="1.68638">
        <ele>237.19999694824</ele>
        <time>2021-02-16T10:14:34Z</time>
      </trkpt>
      <trkpt lat="48.60863" lon="1.68636">
        <ele>237.19999694824</ele>
        <time>2021-02-16T10:14:35Z</time>
      </trkpt>
      <trkpt lat="48.6087" lon="1.68613">
        <ele>236.19999694824</ele>
        <time>2021-02-16T10:14:49Z</time>
      </trkpt>
      <trkpt lat="48.60872" lon="1.68611">
        <ele>236.19999694824</ele>
        <time>2021-02-16T10:14:50Z</time>
      </trkpt>
      <trkpt lat="48.60873" lon="1.68609">
        <ele>236.19999694824</ele>
        <time>2021-02-16T10:14:51Z</time>
      </trkpt>
      <trkpt lat="48.60875" lon="1.68608">
        <ele>236.19999694824</ele>
        <time>2021-02-16T10:14:52Z</time>
      </trkpt>
      <trkpt lat="48.60887" lon="1.68599">
        <ele>236</ele>
        <time>2021-02-16T10:15:06Z</time>
      </trkpt>
      <trkpt lat="48.6089" lon="1.68599">
        <ele>235.80000305176</ele>
        <time>2021-02-16T10:15:08Z</time>
      </trkpt>
      <trkpt lat="48.60892" lon="1.68599">
        <ele>236</ele>
        <time>2021-02-16T10:15:09Z</time>
      </trkpt>
      <trkpt lat="48.60893" lon="1.68598">
        <ele>236</ele>
        <time>2021-02-16T10:15:10Z</time>
      </trkpt>
      <trkpt lat="48.60895" lon="1.68598">
        <ele>236</ele>
        <time>2021-02-16T10:15:11Z</time>
      </trkpt>
      <trkpt lat="48.60898" lon="1.68596">
        <ele>236</ele>
        <time>2021-02-16T10:15:14Z</time>
      </trkpt>
      <trkpt lat="48.60907" lon="1.68589">
        <ele>236</ele>
        <time>2021-02-16T10:15:22Z</time>
      </trkpt>
      <trkpt lat="48.60916" lon="1.68575">
        <ele>236.19999694824</ele>
        <time>2021-02-16T10:15:32Z</time>
      </trkpt>
      <trkpt lat="48.60917" lon="1.68569">
        <ele>236</ele>
        <time>2021-02-16T10:15:35Z</time>
      </trkpt>
      <trkpt lat="48.60924" lon="1.68555">
        <ele>236</ele>
        <time>2021-02-16T10:15:44Z</time>
      </trkpt>
      <trkpt lat="48.60928" lon="1.68553">
        <ele>236</ele>
        <time>2021-02-16T10:15:48Z</time>
      </trkpt>
      <trkpt lat="48.6093" lon="1.68552">
        <ele>236</ele>
        <time>2021-02-16T10:15:49Z</time>
      </trkpt>
      <trkpt lat="48.60938" lon="1.68515">
        <ele>236.19999694824</ele>
        <time>2021-02-16T10:16:08Z</time>
      </trkpt>
      <trkpt lat="48.60957" lon="1.68474">
        <ele>236.39999389648</ele>
        <time>2021-02-16T10:16:34Z</time>
      </trkpt>
      <trkpt lat="48.60965" lon="1.68447">
        <ele>236.60000610352</ele>
        <time>2021-02-16T10:16:51Z</time>
      </trkpt>
      <trkpt lat="48.60967" lon="1.68422">
        <ele>236.60000610352</ele>
        <time>2021-02-16T10:17:03Z</time>
      </trkpt>
      <trkpt lat="48.60968" lon="1.68419">
        <ele>236.60000610352</ele>
        <time>2021-02-16T10:17:04Z</time>
      </trkpt>
      <trkpt lat="48.60969" lon="1.68415">
        <ele>236.60000610352</ele>
        <time>2021-02-16T10:17:06Z</time>
      </trkpt>
      <trkpt lat="48.60969" lon="1.68413">
        <ele>236.60000610352</ele>
        <time>2021-02-16T10:17:07Z</time>
      </trkpt>
      <trkpt lat="48.60969" lon="1.68409">
        <ele>236.60000610352</ele>
        <time>2021-02-16T10:17:09Z</time>
      </trkpt>
      <trkpt lat="48.6097" lon="1.68407">
        <ele>236.60000610352</ele>
        <time>2021-02-16T10:17:10Z</time>
      </trkpt>
      <trkpt lat="48.6097" lon="1.68406">
        <ele>236.39999389648</ele>
        <time>2021-02-16T10:17:11Z</time>
      </trkpt>
      <trkpt lat="48.60972" lon="1.68393">
        <ele>236.60000610352</ele>
        <time>2021-02-16T10:17:18Z</time>
      </trkpt>
      <trkpt lat="48.60973" lon="1.6839">
        <ele>236.60000610352</ele>
        <time>2021-02-16T10:17:19Z</time>
      </trkpt>
      <trkpt lat="48.60974" lon="1.68388">
        <ele>236.60000610352</ele>
        <time>2021-02-16T10:17:20Z</time>
      </trkpt>
      <trkpt lat="48.60974" lon="1.68386">
        <ele>236.60000610352</ele>
        <time>2021-02-16T10:17:21Z</time>
      </trkpt>
      <trkpt lat="48.60975" lon="1.68384">
        <ele>236.60000610352</ele>
        <time>2021-02-16T10:17:22Z</time>
      </trkpt>
      <trkpt lat="48.60982" lon="1.6836">
        <ele>236.39999389648</ele>
        <time>2021-02-16T10:17:38Z</time>
      </trkpt>
      <trkpt lat="48.60983" lon="1.68347">
        <ele>236.19999694824</ele>
        <time>2021-02-16T10:17:46Z</time>
      </trkpt>
      <trkpt lat="48.60983" lon="1.68312">
        <ele>236.80000305176</ele>
        <time>2021-02-16T10:18:08Z</time>
      </trkpt>
      <trkpt lat="48.60984" lon="1.68293">
        <ele>236.80000305176</ele>
        <time>2021-02-16T10:18:18Z</time>
      </trkpt>
      <trkpt lat="48.60985" lon="1.68264">
        <ele>237.19999694824</ele>
        <time>2021-02-16T10:18:36Z</time>
      </trkpt>
      <trkpt lat="48.60984" lon="1.68233">
        <ele>237.39999389648</ele>
        <time>2021-02-16T10:18:51Z</time>
      </trkpt>
      <trkpt lat="48.60983" lon="1.68207">
        <ele>237.60000610352</ele>
        <time>2021-02-16T10:19:06Z</time>
      </trkpt>
      <trkpt lat="48.60982" lon="1.68205">
        <ele>237.60000610352</ele>
        <time>2021-02-16T10:19:07Z</time>
      </trkpt>
      <trkpt lat="48.60982" lon="1.68203">
        <ele>237.60000610352</ele>
        <time>2021-02-16T10:19:08Z</time>
      </trkpt>
      <trkpt lat="48.60981" lon="1.68201">
        <ele>237.80000305176</ele>
        <time>2021-02-16T10:19:09Z</time>
      </trkpt>
      <trkpt lat="48.60981" lon="1.68197">
        <ele>237.80000305176</ele>
        <time>2021-02-16T10:19:11Z</time>
      </trkpt>
      <trkpt lat="48.6098" lon="1.68196">
        <ele>238</ele>
        <time>2021-02-16T10:19:12Z</time>
      </trkpt>
      <trkpt lat="48.60979" lon="1.68192">
        <ele>238.19999694824</ele>
        <time>2021-02-16T10:19:14Z</time>
      </trkpt>
      <trkpt lat="48.60979" lon="1.6819">
        <ele>238.19999694824</ele>
        <time>2021-02-16T10:19:15Z</time>
      </trkpt>
      <trkpt lat="48.60977" lon="1.68174">
        <ele>238.19999694824</ele>
        <time>2021-02-16T10:19:24Z</time>
      </trkpt>
      <trkpt lat="48.60979" lon="1.68166">
        <ele>238.19999694824</ele>
        <time>2021-02-16T10:19:29Z</time>
      </trkpt>
      <trkpt lat="48.60974" lon="1.68149">
        <ele>238.80000305176</ele>
        <time>2021-02-16T10:19:43Z</time>
      </trkpt>
      <trkpt lat="48.60972" lon="1.68141">
        <ele>238.80000305176</ele>
        <time>2021-02-16T10:19:49Z</time>
      </trkpt>
      <trkpt lat="48.60971" lon="1.68138">
        <ele>238.60000610352</ele>
        <time>2021-02-16T10:19:50Z</time>
      </trkpt>
      <trkpt lat="48.60969" lon="1.68132">
        <ele>238.39999389648</ele>
        <time>2021-02-16T10:19:55Z</time>
      </trkpt>
      <trkpt lat="48.60968" lon="1.68131">
        <ele>238.39999389648</ele>
        <time>2021-02-16T10:19:56Z</time>
      </trkpt>
      <trkpt lat="48.60964" lon="1.68128">
        <ele>238.60000610352</ele>
        <time>2021-02-16T10:19:59Z</time>
      </trkpt>
      <trkpt lat="48.60957" lon="1.68121">
        <ele>238.39999389648</ele>
        <time>2021-02-16T10:20:05Z</time>
      </trkpt>
      <trkpt lat="48.60952" lon="1.68118">
        <ele>238.39999389648</ele>
        <time>2021-02-16T10:20:08Z</time>
      </trkpt>
      <trkpt lat="48.60943" lon="1.68114">
        <ele>238.19999694824</ele>
        <time>2021-02-16T10:20:15Z</time>
      </trkpt>
      <trkpt lat="48.60935" lon="1.68106">
        <ele>238.19999694824</ele>
        <time>2021-02-16T10:20:23Z</time>
      </trkpt>
      <trkpt lat="48.60934" lon="1.68105">
        <ele>238.19999694824</ele>
        <time>2021-02-16T10:20:24Z</time>
      </trkpt>
      <trkpt lat="48.60927" lon="1.68098">
        <ele>238.19999694824</ele>
        <time>2021-02-16T10:20:32Z</time>
      </trkpt>
      <trkpt lat="48.60925" lon="1.68096">
        <ele>238.19999694824</ele>
        <time>2021-02-16T10:20:34Z</time>
      </trkpt>
      <trkpt lat="48.60913" lon="1.68082">
        <ele>238.19999694824</ele>
        <time>2021-02-16T10:20:49Z</time>
      </trkpt>
      <trkpt lat="48.60913" lon="1.68075">
        <ele>238.39999389648</ele>
        <time>2021-02-16T10:21:14Z</time>
      </trkpt>
      <trkpt lat="48.60901" lon="1.68059">
        <ele>238.19999694824</ele>
        <time>2021-02-16T10:21:38Z</time>
      </trkpt>
      <trkpt lat="48.60898" lon="1.68044">
        <ele>238.60000610352</ele>
        <time>2021-02-16T10:22:06Z</time>
      </trkpt>
      <trkpt lat="48.60899" lon="1.68029">
        <ele>239.39999389648</ele>
        <time>2021-02-16T10:22:28Z</time>
      </trkpt>
      <trkpt lat="48.60902" lon="1.68011">
        <ele>240.60000610352</ele>
        <time>2021-02-16T10:22:40Z</time>
      </trkpt>
      <trkpt lat="48.60904" lon="1.67998">
        <ele>240.60000610352</ele>
        <time>2021-02-16T10:22:52Z</time>
      </trkpt>
      <trkpt lat="48.60897" lon="1.67977">
        <ele>240.60000610352</ele>
        <time>2021-02-16T10:23:11Z</time>
      </trkpt>
      <trkpt lat="48.60894" lon="1.6797">
        <ele>240.60000610352</ele>
        <time>2021-02-16T10:23:15Z</time>
      </trkpt>
      <trkpt lat="48.60893" lon="1.67943">
        <ele>240.39999389648</ele>
        <time>2021-02-16T10:23:30Z</time>
      </trkpt>
      <trkpt lat="48.60891" lon="1.67916">
        <ele>240.19999694824</ele>
        <time>2021-02-16T10:23:44Z</time>
      </trkpt>
      <trkpt lat="48.60899" lon="1.67903">
        <ele>241.19999694824</ele>
        <time>2021-02-16T10:23:58Z</time>
      </trkpt>
      <trkpt lat="48.609" lon="1.67903">
        <ele>241.39999389648</ele>
        <time>2021-02-16T10:23:59Z</time>
      </trkpt>
      <trkpt lat="48.6091" lon="1.67891">
        <ele>241.80000305176</ele>
        <time>2021-02-16T10:24:10Z</time>
      </trkpt>
      <trkpt lat="48.60926" lon="1.67887">
        <ele>244</ele>
        <time>2021-02-16T10:24:31Z</time>
      </trkpt>
      <trkpt lat="48.60929" lon="1.67885">
        <ele>244.39999389648</ele>
        <time>2021-02-16T10:24:34Z</time>
      </trkpt>
      <trkpt lat="48.60931" lon="1.67885">
        <ele>244.39999389648</ele>
        <time>2021-02-16T10:24:35Z</time>
      </trkpt>
      <trkpt lat="48.60932" lon="1.67885">
        <ele>244.60000610352</ele>
        <time>2021-02-16T10:24:36Z</time>
      </trkpt>
      <trkpt lat="48.60933" lon="1.67884">
        <ele>244.80000305176</ele>
        <time>2021-02-16T10:24:37Z</time>
      </trkpt>
      <trkpt lat="48.60937" lon="1.67884">
        <ele>245.60000610352</ele>
        <time>2021-02-16T10:24:41Z</time>
      </trkpt>
      <trkpt lat="48.60937" lon="1.67882">
        <ele>245.80000305176</ele>
        <time>2021-02-16T10:24:42Z</time>
      </trkpt>
      <trkpt lat="48.60936" lon="1.67868">
        <ele>247.39999389648</ele>
        <time>2021-02-16T10:24:56Z</time>
      </trkpt>
      <trkpt lat="48.6094" lon="1.67858">
        <ele>247.80000305176</ele>
        <time>2021-02-16T10:25:03Z</time>
      </trkpt>
      <trkpt lat="48.60934" lon="1.67835">
        <ele>248.39999389648</ele>
        <time>2021-02-16T10:25:14Z</time>
      </trkpt>
      <trkpt lat="48.60933" lon="1.67833">
        <ele>248.39999389648</ele>
        <time>2021-02-16T10:25:15Z</time>
      </trkpt>
      <trkpt lat="48.60933" lon="1.67827">
        <ele>248.39999389648</ele>
        <time>2021-02-16T10:25:17Z</time>
      </trkpt>
      <trkpt lat="48.60933" lon="1.67824">
        <ele>248.39999389648</ele>
        <time>2021-02-16T10:25:18Z</time>
      </trkpt>
      <trkpt lat="48.6093" lon="1.67817">
        <ele>248.80000305176</ele>
        <time>2021-02-16T10:25:23Z</time>
      </trkpt>
      <trkpt lat="48.60929" lon="1.6781">
        <ele>249</ele>
        <time>2021-02-16T10:25:27Z</time>
      </trkpt>
      <trkpt lat="48.6093" lon="1.67802">
        <ele>249.19999694824</ele>
        <time>2021-02-16T10:25:32Z</time>
      </trkpt>
      <trkpt lat="48.60936" lon="1.67788">
        <ele>249.19999694824</ele>
        <time>2021-02-16T10:25:42Z</time>
      </trkpt>
      <trkpt lat="48.60934" lon="1.67786">
        <ele>249.19999694824</ele>
        <time>2021-02-16T10:25:43Z</time>
      </trkpt>
      <trkpt lat="48.60928" lon="1.67782">
        <ele>249.39999389648</ele>
        <time>2021-02-16T10:25:47Z</time>
      </trkpt>
      <trkpt lat="48.60928" lon="1.67775">
        <ele>249.39999389648</ele>
        <time>2021-02-16T10:25:52Z</time>
      </trkpt>
      <trkpt lat="48.60931" lon="1.67761">
        <ele>249.19999694824</ele>
        <time>2021-02-16T10:26:02Z</time>
      </trkpt>
      <trkpt lat="48.60936" lon="1.67757">
        <ele>250.19999694824</ele>
        <time>2021-02-16T10:26:09Z</time>
      </trkpt>
      <trkpt lat="48.60941" lon="1.67751">
        <ele>253.19999694824</ele>
        <time>2021-02-16T10:26:19Z</time>
      </trkpt>
      <trkpt lat="48.60946" lon="1.6775">
        <ele>253.39999389648</ele>
        <time>2021-02-16T10:26:24Z</time>
      </trkpt>
      <trkpt lat="48.60948" lon="1.67751">
        <ele>253.60000610352</ele>
        <time>2021-02-16T10:26:25Z</time>
      </trkpt>
      <trkpt lat="48.6095" lon="1.6775">
        <ele>253.80000305176</ele>
        <time>2021-02-16T10:26:28Z</time>
      </trkpt>
      <trkpt lat="48.60962" lon="1.67748">
        <ele>255.19999694824</ele>
        <time>2021-02-16T10:26:38Z</time>
      </trkpt>
      <trkpt lat="48.60964" lon="1.67748">
        <ele>255.39999389648</ele>
        <time>2021-02-16T10:26:39Z</time>
      </trkpt>
      <trkpt lat="48.60966" lon="1.67746">
        <ele>255.80000305176</ele>
        <time>2021-02-16T10:26:42Z</time>
      </trkpt>
      <trkpt lat="48.60972" lon="1.67736">
        <ele>256.79998779297</ele>
        <time>2021-02-16T10:27:23Z</time>
      </trkpt>
      <trkpt lat="48.60979" lon="1.67733">
        <ele>256.79998779297</ele>
        <time>2021-02-16T10:27:56Z</time>
      </trkpt>
      <trkpt lat="48.6098" lon="1.67722">
        <ele>256.79998779297</ele>
        <time>2021-02-16T10:28:07Z</time>
      </trkpt>
      <trkpt lat="48.6098" lon="1.67717">
        <ele>256.79998779297</ele>
        <time>2021-02-16T10:28:12Z</time>
      </trkpt>
      <trkpt lat="48.6098" lon="1.67725">
        <ele>257</ele>
        <time>2021-02-16T10:28:27Z</time>
      </trkpt>
      <trkpt lat="48.60964" lon="1.6776">
        <ele>256.79998779297</ele>
        <time>2021-02-16T10:29:05Z</time>
      </trkpt>
      <trkpt lat="48.60967" lon="1.67759">
        <ele>257</ele>
        <time>2021-02-16T10:29:12Z</time>
      </trkpt>
      <trkpt lat="48.6097" lon="1.67764">
        <ele>256.79998779297</ele>
        <time>2021-02-16T10:30:23Z</time>
      </trkpt>
      <trkpt lat="48.60968" lon="1.6776">
        <ele>256.60000610352</ele>
        <time>2021-02-16T10:30:26Z</time>
      </trkpt>
      <trkpt lat="48.60966" lon="1.67753">
        <ele>256.60000610352</ele>
        <time>2021-02-16T10:30:44Z</time>
      </trkpt>
      <trkpt lat="48.60967" lon="1.67752">
        <ele>256.60000610352</ele>
        <time>2021-02-16T10:30:45Z</time>
      </trkpt>
      <trkpt lat="48.60969" lon="1.67746">
        <ele>255.80000305176</ele>
        <time>2021-02-16T10:31:01Z</time>
      </trkpt>
      <trkpt lat="48.60968" lon="1.67746">
        <ele>255.80000305176</ele>
        <time>2021-02-16T10:31:02Z</time>
      </trkpt>
      <trkpt lat="48.60963" lon="1.67749">
        <ele>254.60000610352</ele>
        <time>2021-02-16T10:31:13Z</time>
      </trkpt>
      <trkpt lat="48.60962" lon="1.67753">
        <ele>254</ele>
        <time>2021-02-16T10:31:19Z</time>
      </trkpt>
      <trkpt lat="48.60961" lon="1.67752">
        <ele>254</ele>
        <time>2021-02-16T10:31:20Z</time>
      </trkpt>
      <trkpt lat="48.60954" lon="1.6775">
        <ele>253.60000610352</ele>
        <time>2021-02-16T10:31:26Z</time>
      </trkpt>
      <trkpt lat="48.6095" lon="1.67746">
        <ele>253.19999694824</ele>
        <time>2021-02-16T10:31:29Z</time>
      </trkpt>
      <trkpt lat="48.60949" lon="1.67746">
        <ele>253</ele>
        <time>2021-02-16T10:31:30Z</time>
      </trkpt>
      <trkpt lat="48.60947" lon="1.67745">
        <ele>252.60000610352</ele>
        <time>2021-02-16T10:31:33Z</time>
      </trkpt>
      <trkpt lat="48.6094" lon="1.67757">
        <ele>249.60000610352</ele>
        <time>2021-02-16T10:31:54Z</time>
      </trkpt>
      <trkpt lat="48.6094" lon="1.6776">
        <ele>249.39999389648</ele>
        <time>2021-02-16T10:31:56Z</time>
      </trkpt>
      <trkpt lat="48.60937" lon="1.6777">
        <ele>249.39999389648</ele>
        <time>2021-02-16T10:32:32Z</time>
      </trkpt>
      <trkpt lat="48.60938" lon="1.67785">
        <ele>249.39999389648</ele>
        <time>2021-02-16T10:32:52Z</time>
      </trkpt>
      <trkpt lat="48.60936" lon="1.67797">
        <ele>249.19999694824</ele>
        <time>2021-02-16T10:33:04Z</time>
      </trkpt>
      <trkpt lat="48.60937" lon="1.67811">
        <ele>249.19999694824</ele>
        <time>2021-02-16T10:33:13Z</time>
      </trkpt>
      <trkpt lat="48.60943" lon="1.67838">
        <ele>248.80000305176</ele>
        <time>2021-02-16T10:33:29Z</time>
      </trkpt>
      <trkpt lat="48.60946" lon="1.67859">
        <ele>248.19999694824</ele>
        <time>2021-02-16T10:33:44Z</time>
      </trkpt>
      <trkpt lat="48.60948" lon="1.67873">
        <ele>248</ele>
        <time>2021-02-16T10:33:58Z</time>
      </trkpt>
      <trkpt lat="48.60938" lon="1.67886">
        <ele>245.60000610352</ele>
        <time>2021-02-16T10:34:19Z</time>
      </trkpt>
      <trkpt lat="48.60937" lon="1.67889">
        <ele>245</ele>
        <time>2021-02-16T10:34:23Z</time>
      </trkpt>
      <trkpt lat="48.60929" lon="1.67901">
        <ele>244.80000305176</ele>
        <time>2021-02-16T10:34:26Z</time>
      </trkpt>
      <trkpt lat="48.60906" lon="1.67901">
        <ele>243.19999694824</ele>
        <time>2021-02-16T10:34:42Z</time>
      </trkpt>
      <trkpt lat="48.60903" lon="1.67902">
        <ele>242.80000305176</ele>
        <time>2021-02-16T10:34:45Z</time>
      </trkpt>
      <trkpt lat="48.60898" lon="1.67904">
        <ele>242.60000610352</ele>
        <time>2021-02-16T10:34:49Z</time>
      </trkpt>
      <trkpt lat="48.60884" lon="1.67919">
        <ele>241.80000305176</ele>
        <time>2021-02-16T10:35:04Z</time>
      </trkpt>
      <trkpt lat="48.60883" lon="1.67935">
        <ele>241.60000610352</ele>
        <time>2021-02-16T10:35:11Z</time>
      </trkpt>
      <trkpt lat="48.60883" lon="1.67936">
        <ele>241.39999389648</ele>
        <time>2021-02-16T10:35:12Z</time>
      </trkpt>
      <trkpt lat="48.60884" lon="1.67946">
        <ele>241.39999389648</ele>
        <time>2021-02-16T10:35:17Z</time>
      </trkpt>
      <trkpt lat="48.6089" lon="1.67975">
        <ele>242.39999389648</ele>
        <time>2021-02-16T10:35:32Z</time>
      </trkpt>
      <trkpt lat="48.60899" lon="1.68">
        <ele>242.60000610352</ele>
        <time>2021-02-16T10:35:48Z</time>
      </trkpt>
      <trkpt lat="48.60892" lon="1.68026">
        <ele>242.80000305176</ele>
        <time>2021-02-16T10:36:04Z</time>
      </trkpt>
      <trkpt lat="48.60892" lon="1.68032">
        <ele>241.60000610352</ele>
        <time>2021-02-16T10:36:30Z</time>
      </trkpt>
      <trkpt lat="48.60888" lon="1.68031">
        <ele>241.60000610352</ele>
        <time>2021-02-16T10:37:05Z</time>
      </trkpt>
      <trkpt lat="48.60877" lon="1.68037">
        <ele>241.19999694824</ele>
        <time>2021-02-16T10:37:26Z</time>
      </trkpt>
      <trkpt lat="48.60858" lon="1.68017">
        <ele>240.60000610352</ele>
        <time>2021-02-16T10:37:51Z</time>
      </trkpt>
      <trkpt lat="48.60848" lon="1.68012">
        <ele>240.39999389648</ele>
        <time>2021-02-16T10:38:07Z</time>
      </trkpt>
      <trkpt lat="48.60839" lon="1.68013">
        <ele>240</ele>
        <time>2021-02-16T10:38:32Z</time>
      </trkpt>
      <trkpt lat="48.60824" lon="1.68021">
        <ele>240</ele>
        <time>2021-02-16T10:38:51Z</time>
      </trkpt>
      <trkpt lat="48.60811" lon="1.68031">
        <ele>239.80000305176</ele>
        <time>2021-02-16T10:39:06Z</time>
      </trkpt>
      <trkpt lat="48.608" lon="1.68043">
        <ele>240.19999694824</ele>
        <time>2021-02-16T10:39:19Z</time>
      </trkpt>
      <trkpt lat="48.60795" lon="1.68056">
        <ele>240.19999694824</ele>
        <time>2021-02-16T10:39:30Z</time>
      </trkpt>
      <trkpt lat="48.60789" lon="1.68063">
        <ele>240.60000610352</ele>
        <time>2021-02-16T10:39:39Z</time>
      </trkpt>
      <trkpt lat="48.60788" lon="1.68064">
        <ele>240.60000610352</ele>
        <time>2021-02-16T10:39:40Z</time>
      </trkpt>
      <trkpt lat="48.60784" lon="1.68083">
        <ele>240.80000305176</ele>
        <time>2021-02-16T10:39:55Z</time>
      </trkpt>
      <trkpt lat="48.60771" lon="1.6811">
        <ele>241.39999389648</ele>
        <time>2021-02-16T10:40:12Z</time>
      </trkpt>
      <trkpt lat="48.60759" lon="1.68129">
        <ele>242</ele>
        <time>2021-02-16T10:40:26Z</time>
      </trkpt>
      <trkpt lat="48.60755" lon="1.68133">
        <ele>242</ele>
        <time>2021-02-16T10:40:30Z</time>
      </trkpt>
      <trkpt lat="48.60753" lon="1.68134">
        <ele>241.80000305176</ele>
        <time>2021-02-16T10:40:31Z</time>
      </trkpt>
      <trkpt lat="48.60752" lon="1.68135">
        <ele>241.80000305176</ele>
        <time>2021-02-16T10:40:32Z</time>
      </trkpt>
      <trkpt lat="48.60755" lon="1.68146">
        <ele>241.39999389648</ele>
        <time>2021-02-16T10:40:38Z</time>
      </trkpt>
      <trkpt lat="48.60756" lon="1.68154">
        <ele>241.19999694824</ele>
        <time>2021-02-16T10:40:44Z</time>
      </trkpt>
      <trkpt lat="48.60762" lon="1.68178">
        <ele>241.39999389648</ele>
        <time>2021-02-16T10:41:00Z</time>
      </trkpt>
      <trkpt lat="48.60763" lon="1.68184">
        <ele>241.39999389648</ele>
        <time>2021-02-16T10:41:03Z</time>
      </trkpt>
      <trkpt lat="48.60762" lon="1.68208">
        <ele>241.19999694824</ele>
        <time>2021-02-16T10:41:15Z</time>
      </trkpt>
      <trkpt lat="48.60761" lon="1.68228">
        <ele>241</ele>
        <time>2021-02-16T10:41:23Z</time>
      </trkpt>
      <trkpt lat="48.60758" lon="1.68252">
        <ele>240.60000610352</ele>
        <time>2021-02-16T10:41:36Z</time>
      </trkpt>
      <trkpt lat="48.60757" lon="1.68262">
        <ele>240.80000305176</ele>
        <time>2021-02-16T10:41:40Z</time>
      </trkpt>
      <trkpt lat="48.60753" lon="1.68271">
        <ele>241</ele>
        <time>2021-02-16T10:41:45Z</time>
      </trkpt>
      <trkpt lat="48.60747" lon="1.68295">
        <ele>241.19999694824</ele>
        <time>2021-02-16T10:41:57Z</time>
      </trkpt>
      <trkpt lat="48.60747" lon="1.68299">
        <ele>241.19999694824</ele>
        <time>2021-02-16T10:41:58Z</time>
      </trkpt>
      <trkpt lat="48.60737" lon="1.68318">
        <ele>241.39999389648</ele>
        <time>2021-02-16T10:42:10Z</time>
      </trkpt>
      <trkpt lat="48.60733" lon="1.68341">
        <ele>241.39999389648</ele>
        <time>2021-02-16T10:42:24Z</time>
      </trkpt>
      <trkpt lat="48.60726" lon="1.6835">
        <ele>241.80000305176</ele>
        <time>2021-02-16T10:42:30Z</time>
      </trkpt>
      <trkpt lat="48.60726" lon="1.68351">
        <ele>241.80000305176</ele>
        <time>2021-02-16T10:42:31Z</time>
      </trkpt>
      <trkpt lat="48.60723" lon="1.68356">
        <ele>241.60000610352</ele>
        <time>2021-02-16T10:42:35Z</time>
      </trkpt>
      <trkpt lat="48.60721" lon="1.68359">
        <ele>241.60000610352</ele>
        <time>2021-02-16T10:42:37Z</time>
      </trkpt>
      <trkpt lat="48.60719" lon="1.68389">
        <ele>241.80000305176</ele>
        <time>2021-02-16T10:42:51Z</time>
      </trkpt>
      <trkpt lat="48.60717" lon="1.68397">
        <ele>242.19999694824</ele>
        <time>2021-02-16T10:42:57Z</time>
      </trkpt>
      <trkpt lat="48.60716" lon="1.68399">
        <ele>242.19999694824</ele>
        <time>2021-02-16T10:42:58Z</time>
      </trkpt>
      <trkpt lat="48.60708" lon="1.68425">
        <ele>242.39999389648</ele>
        <time>2021-02-16T10:43:15Z</time>
      </trkpt>
      <trkpt lat="48.60703" lon="1.68428">
        <ele>242.39999389648</ele>
        <time>2021-02-16T10:43:18Z</time>
      </trkpt>
      <trkpt lat="48.60699" lon="1.68432">
        <ele>242.39999389648</ele>
        <time>2021-02-16T10:43:23Z</time>
      </trkpt>
      <trkpt lat="48.60682" lon="1.68451">
        <ele>243</ele>
        <time>2021-02-16T10:43:39Z</time>
      </trkpt>
      <trkpt lat="48.60668" lon="1.68469">
        <ele>243.39999389648</ele>
        <time>2021-02-16T10:43:56Z</time>
      </trkpt>
      <trkpt lat="48.60658" lon="1.68484">
        <ele>244.19999694824</ele>
        <time>2021-02-16T10:44:07Z</time>
      </trkpt>
      <trkpt lat="48.60647" lon="1.68501">
        <ele>244.80000305176</ele>
        <time>2021-02-16T10:44:22Z</time>
      </trkpt>
      <trkpt lat="48.60645" lon="1.68505">
        <ele>245</ele>
        <time>2021-02-16T10:44:25Z</time>
      </trkpt>
      <trkpt lat="48.60644" lon="1.68507">
        <ele>245</ele>
        <time>2021-02-16T10:44:26Z</time>
      </trkpt>
      <trkpt lat="48.60641" lon="1.68514">
        <ele>245.19999694824</ele>
        <time>2021-02-16T10:44:30Z</time>
      </trkpt>
      <trkpt lat="48.60628" lon="1.68547">
        <ele>246</ele>
        <time>2021-02-16T10:44:47Z</time>
      </trkpt>
      <trkpt lat="48.60627" lon="1.68548">
        <ele>246.19999694824</ele>
        <time>2021-02-16T10:44:48Z</time>
      </trkpt>
      <trkpt lat="48.60627" lon="1.6855">
        <ele>246.19999694824</ele>
        <time>2021-02-16T10:44:49Z</time>
      </trkpt>
      <trkpt lat="48.60626" lon="1.68551">
        <ele>246.19999694824</ele>
        <time>2021-02-16T10:44:50Z</time>
      </trkpt>
      <trkpt lat="48.60626" lon="1.68579">
        <ele>246.80000305176</ele>
        <time>2021-02-16T10:45:07Z</time>
      </trkpt>
      <trkpt lat="48.60627" lon="1.68579">
        <ele>246.60000610352</ele>
        <time>2021-02-16T10:45:08Z</time>
      </trkpt>
      <trkpt lat="48.60628" lon="1.6858">
        <ele>246.39999389648</ele>
        <time>2021-02-16T10:45:09Z</time>
      </trkpt>
      <trkpt lat="48.60629" lon="1.6858">
        <ele>246.19999694824</ele>
        <time>2021-02-16T10:45:10Z</time>
      </trkpt>
      <trkpt lat="48.60649" lon="1.68594">
        <ele>244</ele>
        <time>2021-02-16T10:45:27Z</time>
      </trkpt>
      <trkpt lat="48.60666" lon="1.68607">
        <ele>242.19999694824</ele>
        <time>2021-02-16T10:45:44Z</time>
      </trkpt>
      <trkpt lat="48.60682" lon="1.68617">
        <ele>241.60000610352</ele>
        <time>2021-02-16T10:46:00Z</time>
      </trkpt>
      <trkpt lat="48.60703" lon="1.68627">
        <ele>241.19999694824</ele>
        <time>2021-02-16T10:46:19Z</time>
      </trkpt>
      <trkpt lat="48.60722" lon="1.68642">
        <ele>240.80000305176</ele>
        <time>2021-02-16T10:46:39Z</time>
      </trkpt>
      <trkpt lat="48.60725" lon="1.68645">
        <ele>240.60000610352</ele>
        <time>2021-02-16T10:46:42Z</time>
      </trkpt>
      <trkpt lat="48.60733" lon="1.68647">
        <ele>240.60000610352</ele>
        <time>2021-02-16T10:46:49Z</time>
      </trkpt>
      <trkpt lat="48.60752" lon="1.68646">
        <ele>240.39999389648</ele>
        <time>2021-02-16T10:47:05Z</time>
      </trkpt>
      <trkpt lat="48.60754" lon="1.68645">
        <ele>240.39999389648</ele>
        <time>2021-02-16T10:47:06Z</time>
      </trkpt>
      <trkpt lat="48.60772" lon="1.68648">
        <ele>240.60000610352</ele>
        <time>2021-02-16T10:47:23Z</time>
      </trkpt>
      <trkpt lat="48.6078" lon="1.68649">
        <ele>240.39999389648</ele>
        <time>2021-02-16T10:47:31Z</time>
      </trkpt>
      <trkpt lat="48.60782" lon="1.6865">
        <ele>240.39999389648</ele>
        <time>2021-02-16T10:47:33Z</time>
      </trkpt>
      <trkpt lat="48.60799" lon="1.68666">
        <ele>240.60000610352</ele>
        <time>2021-02-16T10:47:50Z</time>
      </trkpt>
      <trkpt lat="48.608" lon="1.68667">
        <ele>240.60000610352</ele>
        <time>2021-02-16T10:47:51Z</time>
      </trkpt>
      <trkpt lat="48.6081" lon="1.6867">
        <ele>240.60000610352</ele>
        <time>2021-02-16T10:47:59Z</time>
      </trkpt>
      <trkpt lat="48.60811" lon="1.68671">
        <ele>240.60000610352</ele>
        <time>2021-02-16T10:48:00Z</time>
      </trkpt>
      <trkpt lat="48.60812" lon="1.68672">
        <ele>240.60000610352</ele>
        <time>2021-02-16T10:48:01Z</time>
      </trkpt>
      <trkpt lat="48.60813" lon="1.68673">
        <ele>240.60000610352</ele>
        <time>2021-02-16T10:48:02Z</time>
      </trkpt>
      <trkpt lat="48.60815" lon="1.68674">
        <ele>240.60000610352</ele>
        <time>2021-02-16T10:48:03Z</time>
      </trkpt>
      <trkpt lat="48.60816" lon="1.68675">
        <ele>240.80000305176</ele>
        <time>2021-02-16T10:48:04Z</time>
      </trkpt>
      <trkpt lat="48.60817" lon="1.68675">
        <ele>240.80000305176</ele>
        <time>2021-02-16T10:48:05Z</time>
      </trkpt>
      <trkpt lat="48.60824" lon="1.68686">
        <ele>241.39999389648</ele>
        <time>2021-02-16T10:48:13Z</time>
      </trkpt>
      <trkpt lat="48.60837" lon="1.68706">
        <ele>242.60000610352</ele>
        <time>2021-02-16T10:48:29Z</time>
      </trkpt>
      <trkpt lat="48.60842" lon="1.6872">
        <ele>243.80000305176</ele>
        <time>2021-02-16T10:48:40Z</time>
      </trkpt>
      <trkpt lat="48.60841" lon="1.68722">
        <ele>243.80000305176</ele>
        <time>2021-02-16T10:48:41Z</time>
      </trkpt>
      <trkpt lat="48.60839" lon="1.68728">
        <ele>243.80000305176</ele>
        <time>2021-02-16T10:48:45Z</time>
      </trkpt>
      <trkpt lat="48.60836" lon="1.68732">
        <ele>243.80000305176</ele>
        <time>2021-02-16T10:48:48Z</time>
      </trkpt>
      <trkpt lat="48.60836" lon="1.68734">
        <ele>243.80000305176</ele>
        <time>2021-02-16T10:48:49Z</time>
      </trkpt>
      <trkpt lat="48.60835" lon="1.68736">
        <ele>243.80000305176</ele>
        <time>2021-02-16T10:48:50Z</time>
      </trkpt>
      <trkpt lat="48.60828" lon="1.68747">
        <ele>243.60000610352</ele>
        <time>2021-02-16T10:48:57Z</time>
      </trkpt>
      <trkpt lat="48.60827" lon="1.68749">
        <ele>243.60000610352</ele>
        <time>2021-02-16T10:48:58Z</time>
      </trkpt>
      <trkpt lat="48.60827" lon="1.68751">
        <ele>243.60000610352</ele>
        <time>2021-02-16T10:48:59Z</time>
      </trkpt>
      <trkpt lat="48.60819" lon="1.68767">
        <ele>243.39999389648</ele>
        <time>2021-02-16T10:49:12Z</time>
      </trkpt>
      <trkpt lat="48.60805" lon="1.68787">
        <ele>243.39999389648</ele>
        <time>2021-02-16T10:49:26Z</time>
      </trkpt>
      <trkpt lat="48.6079" lon="1.68807">
        <ele>243</ele>
        <time>2021-02-16T10:49:41Z</time>
      </trkpt>
      <trkpt lat="48.60785" lon="1.68817">
        <ele>243.19999694824</ele>
        <time>2021-02-16T10:49:48Z</time>
      </trkpt>
      <trkpt lat="48.60777" lon="1.6884">
        <ele>243.19999694824</ele>
        <time>2021-02-16T10:50:00Z</time>
      </trkpt>
      <trkpt lat="48.60777" lon="1.68842">
        <ele>243.19999694824</ele>
        <time>2021-02-16T10:50:01Z</time>
      </trkpt>
      <trkpt lat="48.60776" lon="1.68843">
        <ele>243.19999694824</ele>
        <time>2021-02-16T10:50:02Z</time>
      </trkpt>
      <trkpt lat="48.60775" lon="1.68844">
        <ele>243.19999694824</ele>
        <time>2021-02-16T10:50:03Z</time>
      </trkpt>
      <trkpt lat="48.60765" lon="1.68873">
        <ele>243.19999694824</ele>
        <time>2021-02-16T10:50:18Z</time>
      </trkpt>
      <trkpt lat="48.60755" lon="1.689">
        <ele>243.60000610352</ele>
        <time>2021-02-16T10:50:34Z</time>
      </trkpt>
      <trkpt lat="48.60746" lon="1.68927">
        <ele>244.39999389648</ele>
        <time>2021-02-16T10:50:51Z</time>
      </trkpt>
      <trkpt lat="48.60736" lon="1.6896">
        <ele>244.80000305176</ele>
        <time>2021-02-16T10:51:09Z</time>
      </trkpt>
      <trkpt lat="48.60734" lon="1.68964">
        <ele>245</ele>
        <time>2021-02-16T10:51:11Z</time>
      </trkpt>
      <trkpt lat="48.60734" lon="1.68966">
        <ele>245</ele>
        <time>2021-02-16T10:51:12Z</time>
      </trkpt>
      <trkpt lat="48.60733" lon="1.68968">
        <ele>245</ele>
        <time>2021-02-16T10:51:13Z</time>
      </trkpt>
      <trkpt lat="48.60732" lon="1.68971">
        <ele>245</ele>
        <time>2021-02-16T10:51:14Z</time>
      </trkpt>
      <trkpt lat="48.60731" lon="1.68972">
        <ele>245</ele>
        <time>2021-02-16T10:51:15Z</time>
      </trkpt>
      <trkpt lat="48.6073" lon="1.68974">
        <ele>244.80000305176</ele>
        <time>2021-02-16T10:51:16Z</time>
      </trkpt>
      <trkpt lat="48.6073" lon="1.68976">
        <ele>244.80000305176</ele>
        <time>2021-02-16T10:51:17Z</time>
      </trkpt>
      <trkpt lat="48.6073" lon="1.68978">
        <ele>244.80000305176</ele>
        <time>2021-02-16T10:51:18Z</time>
      </trkpt>
      <trkpt lat="48.60729" lon="1.6898">
        <ele>244.80000305176</ele>
        <time>2021-02-16T10:51:19Z</time>
      </trkpt>
      <trkpt lat="48.60728" lon="1.68982">
        <ele>244.80000305176</ele>
        <time>2021-02-16T10:51:20Z</time>
      </trkpt>
      <trkpt lat="48.60717" lon="1.69009">
        <ele>245.39999389648</ele>
        <time>2021-02-16T10:51:39Z</time>
      </trkpt>
      <trkpt lat="48.60709" lon="1.69031">
        <ele>245.19999694824</ele>
        <time>2021-02-16T10:51:55Z</time>
      </trkpt>
      <trkpt lat="48.60693" lon="1.69046">
        <ele>244.60000610352</ele>
        <time>2021-02-16T10:52:10Z</time>
      </trkpt>
      <trkpt lat="48.60693" lon="1.69051">
        <ele>244</ele>
        <time>2021-02-16T10:52:33Z</time>
      </trkpt>
      <trkpt lat="48.6069" lon="1.69057">
        <ele>244.80000305176</ele>
        <time>2021-02-16T10:52:45Z</time>
      </trkpt>
      <trkpt lat="48.60691" lon="1.69064">
        <ele>244.60000610352</ele>
        <time>2021-02-16T10:52:53Z</time>
      </trkpt>
      <trkpt lat="48.60691" lon="1.69066">
        <ele>244.60000610352</ele>
        <time>2021-02-16T10:52:54Z</time>
      </trkpt>
      <trkpt lat="48.60688" lon="1.69074">
        <ele>244.80000305176</ele>
        <time>2021-02-16T10:52:58Z</time>
      </trkpt>
      <trkpt lat="48.60688" lon="1.69076">
        <ele>244.80000305176</ele>
        <time>2021-02-16T10:52:59Z</time>
      </trkpt>
      <trkpt lat="48.60688" lon="1.69078">
        <ele>244.80000305176</ele>
        <time>2021-02-16T10:53:00Z</time>
      </trkpt>
      <trkpt lat="48.60687" lon="1.69079">
        <ele>244.80000305176</ele>
        <time>2021-02-16T10:53:01Z</time>
      </trkpt>
      <trkpt lat="48.60687" lon="1.69082">
        <ele>244.80000305176</ele>
        <time>2021-02-16T10:53:02Z</time>
      </trkpt>
      <trkpt lat="48.60681" lon="1.69102">
        <ele>245.39999389648</ele>
        <time>2021-02-16T10:53:14Z</time>
      </trkpt>
      <trkpt lat="48.60681" lon="1.69107">
        <ele>245.39999389648</ele>
        <time>2021-02-16T10:53:17Z</time>
      </trkpt>
      <trkpt lat="48.60681" lon="1.69109">
        <ele>245.39999389648</ele>
        <time>2021-02-16T10:53:18Z</time>
      </trkpt>
      <trkpt lat="48.60684" lon="1.69118">
        <ele>245.39999389648</ele>
        <time>2021-02-16T10:53:22Z</time>
      </trkpt>
      <trkpt lat="48.60685" lon="1.6912">
        <ele>245.60000610352</ele>
        <time>2021-02-16T10:53:23Z</time>
      </trkpt>
      <trkpt lat="48.60685" lon="1.69122">
        <ele>245.60000610352</ele>
        <time>2021-02-16T10:53:24Z</time>
      </trkpt>
      <trkpt lat="48.60686" lon="1.69125">
        <ele>245.60000610352</ele>
        <time>2021-02-16T10:53:25Z</time>
      </trkpt>
      <trkpt lat="48.60686" lon="1.69128">
        <ele>245.60000610352</ele>
        <time>2021-02-16T10:53:26Z</time>
      </trkpt>
      <trkpt lat="48.60687" lon="1.6913">
        <ele>245.60000610352</ele>
        <time>2021-02-16T10:53:27Z</time>
      </trkpt>
      <trkpt lat="48.60685" lon="1.69144">
        <ele>246.39999389648</ele>
        <time>2021-02-16T10:53:36Z</time>
      </trkpt>
      <trkpt lat="48.60682" lon="1.69151">
        <ele>246.60000610352</ele>
        <time>2021-02-16T10:53:39Z</time>
      </trkpt>
      <trkpt lat="48.60677" lon="1.69171">
        <ele>247</ele>
        <time>2021-02-16T10:53:50Z</time>
      </trkpt>
      <trkpt lat="48.60675" lon="1.69179">
        <ele>247.19999694824</ele>
        <time>2021-02-16T10:53:54Z</time>
      </trkpt>
      <trkpt lat="48.60673" lon="1.69181">
        <ele>247.39999389648</ele>
        <time>2021-02-16T10:53:55Z</time>
      </trkpt>
      <trkpt lat="48.60672" lon="1.69182">
        <ele>247.39999389648</ele>
        <time>2021-02-16T10:53:56Z</time>
      </trkpt>
      <trkpt lat="48.60672" lon="1.69184">
        <ele>247.39999389648</ele>
        <time>2021-02-16T10:53:57Z</time>
      </trkpt>
      <trkpt lat="48.60671" lon="1.69186">
        <ele>247.39999389648</ele>
        <time>2021-02-16T10:53:58Z</time>
      </trkpt>
      <trkpt lat="48.6067" lon="1.69187">
        <ele>247.39999389648</ele>
        <time>2021-02-16T10:53:59Z</time>
      </trkpt>
      <trkpt lat="48.60669" lon="1.69189">
        <ele>247.60000610352</ele>
        <time>2021-02-16T10:54:00Z</time>
      </trkpt>
      <trkpt lat="48.60666" lon="1.69208">
        <ele>248.39999389648</ele>
        <time>2021-02-16T10:54:12Z</time>
      </trkpt>
      <trkpt lat="48.60665" lon="1.69212">
        <ele>248.39999389648</ele>
        <time>2021-02-16T10:54:14Z</time>
      </trkpt>
      <trkpt lat="48.60664" lon="1.69213">
        <ele>248.39999389648</ele>
        <time>2021-02-16T10:54:15Z</time>
      </trkpt>
      <trkpt lat="48.60663" lon="1.69215">
        <ele>248.39999389648</ele>
        <time>2021-02-16T10:54:16Z</time>
      </trkpt>
      <trkpt lat="48.60655" lon="1.6924">
        <ele>249.19999694824</ele>
        <time>2021-02-16T10:54:31Z</time>
      </trkpt>
      <trkpt lat="48.60652" lon="1.69247">
        <ele>249.39999389648</ele>
        <time>2021-02-16T10:54:35Z</time>
      </trkpt>
      <trkpt lat="48.60651" lon="1.69249">
        <ele>249.39999389648</ele>
        <time>2021-02-16T10:54:36Z</time>
      </trkpt>
      <trkpt lat="48.60643" lon="1.69263">
        <ele>250</ele>
        <time>2021-02-16T10:54:46Z</time>
      </trkpt>
      <trkpt lat="48.60642" lon="1.69265">
        <ele>250.19999694824</ele>
        <time>2021-02-16T10:54:47Z</time>
      </trkpt>
      <trkpt lat="48.60636" lon="1.69284">
        <ele>251</ele>
        <time>2021-02-16T10:54:58Z</time>
      </trkpt>
      <trkpt lat="48.60633" lon="1.69303">
        <ele>251.60000610352</ele>
        <time>2021-02-16T10:55:09Z</time>
      </trkpt>
      <trkpt lat="48.60629" lon="1.69329">
        <ele>252.60000610352</ele>
        <time>2021-02-16T10:55:23Z</time>
      </trkpt>
      <trkpt lat="48.60625" lon="1.6935">
        <ele>254.19999694824</ele>
        <time>2021-02-16T10:55:35Z</time>
      </trkpt>
      <trkpt lat="48.60617" lon="1.69372">
        <ele>255.80000305176</ele>
        <time>2021-02-16T10:55:50Z</time>
      </trkpt>
      <trkpt lat="48.6061" lon="1.69388">
        <ele>256.60000610352</ele>
        <time>2021-02-16T10:55:59Z</time>
      </trkpt>
      <trkpt lat="48.6061" lon="1.69391">
        <ele>256.60000610352</ele>
        <time>2021-02-16T10:56:00Z</time>
      </trkpt>
      <trkpt lat="48.60604" lon="1.6941">
        <ele>257.20001220703</ele>
        <time>2021-02-16T10:56:11Z</time>
      </trkpt>
      <trkpt lat="48.60596" lon="1.69435">
        <ele>258</ele>
        <time>2021-02-16T10:56:28Z</time>
      </trkpt>
      <trkpt lat="48.60581" lon="1.69461">
        <ele>257</ele>
        <time>2021-02-16T10:56:47Z</time>
      </trkpt>
      <trkpt lat="48.60571" lon="1.69486">
        <ele>256</ele>
        <time>2021-02-16T10:57:02Z</time>
      </trkpt>
      <trkpt lat="48.6057" lon="1.69486">
        <ele>256</ele>
        <time>2021-02-16T10:57:03Z</time>
      </trkpt>
      <trkpt lat="48.60564" lon="1.69498">
        <ele>255.60000610352</ele>
        <time>2021-02-16T10:57:12Z</time>
      </trkpt>
      <trkpt lat="48.60553" lon="1.69522">
        <ele>254.60000610352</ele>
        <time>2021-02-16T10:57:26Z</time>
      </trkpt>
      <trkpt lat="48.60547" lon="1.6954">
        <ele>254.19999694824</ele>
        <time>2021-02-16T10:57:37Z</time>
      </trkpt>
      <trkpt lat="48.60542" lon="1.69549">
        <ele>253.60000610352</ele>
        <time>2021-02-16T10:57:43Z</time>
      </trkpt>
      <trkpt lat="48.60533" lon="1.69563">
        <ele>253.39999389648</ele>
        <time>2021-02-16T10:57:53Z</time>
      </trkpt>
      <trkpt lat="48.6052" lon="1.69593">
        <ele>254</ele>
        <time>2021-02-16T10:58:11Z</time>
      </trkpt>
      <trkpt lat="48.60511" lon="1.6961">
        <ele>253.60000610352</ele>
        <time>2021-02-16T10:58:25Z</time>
      </trkpt>
      <trkpt lat="48.605" lon="1.69636">
        <ele>253.19999694824</ele>
        <time>2021-02-16T10:58:41Z</time>
      </trkpt>
      <trkpt lat="48.6049" lon="1.69659">
        <ele>252.80000305176</ele>
        <time>2021-02-16T10:58:55Z</time>
      </trkpt>
      <trkpt lat="48.60488" lon="1.69665">
        <ele>252.60000610352</ele>
        <time>2021-02-16T10:59:20Z</time>
      </trkpt>
      <trkpt lat="48.60483" lon="1.69672">
        <ele>253</ele>
        <time>2021-02-16T10:59:27Z</time>
      </trkpt>
      <trkpt lat="48.60473" lon="1.69701">
        <ele>252.80000305176</ele>
        <time>2021-02-16T10:59:43Z</time>
      </trkpt>
      <trkpt lat="48.60473" lon="1.69702">
        <ele>252.80000305176</ele>
        <time>2021-02-16T10:59:44Z</time>
      </trkpt>
      <trkpt lat="48.60465" lon="1.69729">
        <ele>253.19999694824</ele>
        <time>2021-02-16T11:00:01Z</time>
      </trkpt>
      <trkpt lat="48.60464" lon="1.69732">
        <ele>253.39999389648</ele>
        <time>2021-02-16T11:00:03Z</time>
      </trkpt>
      <trkpt lat="48.60462" lon="1.69763">
        <ele>254.19999694824</ele>
        <time>2021-02-16T11:00:22Z</time>
      </trkpt>
      <trkpt lat="48.60454" lon="1.69795">
        <ele>253.80000305176</ele>
        <time>2021-02-16T11:00:40Z</time>
      </trkpt>
      <trkpt lat="48.60452" lon="1.69805">
        <ele>253.60000610352</ele>
        <time>2021-02-16T11:00:47Z</time>
      </trkpt>
      <trkpt lat="48.60445" lon="1.69825">
        <ele>253.39999389648</ele>
        <time>2021-02-16T11:00:59Z</time>
      </trkpt>
      <trkpt lat="48.60435" lon="1.69867">
        <ele>254.39999389648</ele>
        <time>2021-02-16T11:01:21Z</time>
      </trkpt>
      <trkpt lat="48.60427" lon="1.69896">
        <ele>254.60000610352</ele>
        <time>2021-02-16T11:01:38Z</time>
      </trkpt>
      <trkpt lat="48.60414" lon="1.6992">
        <ele>255.19999694824</ele>
        <time>2021-02-16T11:01:54Z</time>
      </trkpt>
      <trkpt lat="48.60411" lon="1.69926">
        <ele>255.39999389648</ele>
        <time>2021-02-16T11:01:57Z</time>
      </trkpt>
      <trkpt lat="48.60403" lon="1.69961">
        <ele>255.60000610352</ele>
        <time>2021-02-16T11:02:17Z</time>
      </trkpt>
      <trkpt lat="48.60401" lon="1.6997">
        <ele>256</ele>
        <time>2021-02-16T11:02:22Z</time>
      </trkpt>
      <trkpt lat="48.60393" lon="1.69998">
        <ele>256.79998779297</ele>
        <time>2021-02-16T11:02:38Z</time>
      </trkpt>
      <trkpt lat="48.60392" lon="1.70003">
        <ele>256.79998779297</ele>
        <time>2021-02-16T11:02:40Z</time>
      </trkpt>
      <trkpt lat="48.6039" lon="1.70005">
        <ele>256.79998779297</ele>
        <time>2021-02-16T11:02:41Z</time>
      </trkpt>
      <trkpt lat="48.60389" lon="1.70008">
        <ele>256.79998779297</ele>
        <time>2021-02-16T11:02:42Z</time>
      </trkpt>
      <trkpt lat="48.60381" lon="1.70028">
        <ele>257.20001220703</ele>
        <time>2021-02-16T11:02:56Z</time>
      </trkpt>
      <trkpt lat="48.60372" lon="1.70047">
        <ele>257.20001220703</ele>
        <time>2021-02-16T11:03:07Z</time>
      </trkpt>
      <trkpt lat="48.60361" lon="1.70067">
        <ele>257.20001220703</ele>
        <time>2021-02-16T11:03:24Z</time>
      </trkpt>
      <trkpt lat="48.60346" lon="1.70094">
        <ele>256.39999389648</ele>
        <time>2021-02-16T11:03:42Z</time>
      </trkpt>
      <trkpt lat="48.60341" lon="1.70106">
        <ele>257</ele>
        <time>2021-02-16T11:03:50Z</time>
      </trkpt>
      <trkpt lat="48.60329" lon="1.70127">
        <ele>257.60000610352</ele>
        <time>2021-02-16T11:04:03Z</time>
      </trkpt>
      <trkpt lat="48.60313" lon="1.70156">
        <ele>258.39999389648</ele>
        <time>2021-02-16T11:04:23Z</time>
      </trkpt>
      <trkpt lat="48.60305" lon="1.70177">
        <ele>260.39999389648</ele>
        <time>2021-02-16T11:04:36Z</time>
      </trkpt>
      <trkpt lat="48.60294" lon="1.70202">
        <ele>260</ele>
        <time>2021-02-16T11:04:54Z</time>
      </trkpt>
      <trkpt lat="48.60285" lon="1.70223">
        <ele>258.79998779297</ele>
        <time>2021-02-16T11:05:09Z</time>
      </trkpt>
      <trkpt lat="48.60267" lon="1.70251">
        <ele>257.39999389648</ele>
        <time>2021-02-16T11:05:29Z</time>
      </trkpt>
      <trkpt lat="48.60255" lon="1.70269">
        <ele>256.39999389648</ele>
        <time>2021-02-16T11:05:44Z</time>
      </trkpt>
      <trkpt lat="48.60237" lon="1.7029">
        <ele>256.39999389648</ele>
        <time>2021-02-16T11:06:01Z</time>
      </trkpt>
      <trkpt lat="48.60227" lon="1.70303">
        <ele>255</ele>
        <time>2021-02-16T11:06:15Z</time>
      </trkpt>
      <trkpt lat="48.60219" lon="1.703">
        <ele>252.39999389648</ele>
        <time>2021-02-16T11:06:40Z</time>
      </trkpt>
      <trkpt lat="48.60206" lon="1.70296">
        <ele>249.39999389648</ele>
        <time>2021-02-16T11:06:51Z</time>
      </trkpt>
      <trkpt lat="48.60186" lon="1.70285">
        <ele>246.80000305176</ele>
        <time>2021-02-16T11:07:07Z</time>
      </trkpt>
      <trkpt lat="48.6018" lon="1.70281">
        <ele>246.39999389648</ele>
        <time>2021-02-16T11:07:12Z</time>
      </trkpt>
      <trkpt lat="48.6016" lon="1.70286">
        <ele>245.60000610352</ele>
        <time>2021-02-16T11:07:28Z</time>
      </trkpt>
      <trkpt lat="48.60154" lon="1.70304">
        <ele>245.19999694824</ele>
        <time>2021-02-16T11:07:45Z</time>
      </trkpt>
      <trkpt lat="48.6015" lon="1.70325">
        <ele>245.80000305176</ele>
        <time>2021-02-16T11:08:02Z</time>
      </trkpt>
      <trkpt lat="48.60143" lon="1.70334">
        <ele>245.80000305176</ele>
        <time>2021-02-16T11:08:29Z</time>
      </trkpt>
      <trkpt lat="48.60144" lon="1.70326">
        <ele>246</ele>
        <time>2021-02-16T11:08:50Z</time>
      </trkpt>
      <trkpt lat="48.60141" lon="1.70317">
        <ele>246</ele>
        <time>2021-02-16T11:09:11Z</time>
      </trkpt>
      <trkpt lat="48.60139" lon="1.70303">
        <ele>246</ele>
        <time>2021-02-16T11:09:28Z</time>
      </trkpt>
      <trkpt lat="48.60129" lon="1.7028">
        <ele>245.39999389648</ele>
        <time>2021-02-16T11:09:48Z</time>
      </trkpt>
      <trkpt lat="48.60111" lon="1.70266">
        <ele>246.19999694824</ele>
        <time>2021-02-16T11:10:07Z</time>
      </trkpt>
      <trkpt lat="48.60105" lon="1.70255">
        <ele>246</ele>
        <time>2021-02-16T11:10:14Z</time>
      </trkpt>
      <trkpt lat="48.60096" lon="1.70243">
        <ele>246</ele>
        <time>2021-02-16T11:10:24Z</time>
      </trkpt>
      <trkpt lat="48.60095" lon="1.70242">
        <ele>246</ele>
        <time>2021-02-16T11:10:25Z</time>
      </trkpt>
      <trkpt lat="48.60077" lon="1.70229">
        <ele>247.19999694824</ele>
        <time>2021-02-16T11:10:41Z</time>
      </trkpt>
      <trkpt lat="48.60066" lon="1.70221">
        <ele>247</ele>
        <time>2021-02-16T11:10:52Z</time>
      </trkpt>
      <trkpt lat="48.60051" lon="1.70225">
        <ele>247.39999389648</ele>
        <time>2021-02-16T11:11:07Z</time>
      </trkpt>
      <trkpt lat="48.60049" lon="1.70225">
        <ele>247.39999389648</ele>
        <time>2021-02-16T11:11:08Z</time>
      </trkpt>
      <trkpt lat="48.60029" lon="1.70244">
        <ele>248.80000305176</ele>
        <time>2021-02-16T11:11:27Z</time>
      </trkpt>
      <trkpt lat="48.60012" lon="1.70259">
        <ele>250</ele>
        <time>2021-02-16T11:11:46Z</time>
      </trkpt>
      <trkpt lat="48.60017" lon="1.70266">
        <ele>250.19999694824</ele>
        <time>2021-02-16T11:11:59Z</time>
      </trkpt>
      <trkpt lat="48.6002" lon="1.70269">
        <ele>250.19999694824</ele>
        <time>2021-02-16T11:12:01Z</time>
      </trkpt>
      <trkpt lat="48.60021" lon="1.7027">
        <ele>250.19999694824</ele>
        <time>2021-02-16T11:12:02Z</time>
      </trkpt>
      <trkpt lat="48.60022" lon="1.70271">
        <ele>250.19999694824</ele>
        <time>2021-02-16T11:12:03Z</time>
      </trkpt>
      <trkpt lat="48.60024" lon="1.70272">
        <ele>250</ele>
        <time>2021-02-16T11:12:04Z</time>
      </trkpt>
      <trkpt lat="48.60025" lon="1.70272">
        <ele>250</ele>
        <time>2021-02-16T11:12:05Z</time>
      </trkpt>
      <trkpt lat="48.60026" lon="1.70273">
        <ele>250</ele>
        <time>2021-02-16T11:12:06Z</time>
      </trkpt>
      <trkpt lat="48.60042" lon="1.70295">
        <ele>248.19999694824</ele>
        <time>2021-02-16T11:12:22Z</time>
      </trkpt>
      <trkpt lat="48.60051" lon="1.70306">
        <ele>247.19999694824</ele>
        <time>2021-02-16T11:12:32Z</time>
      </trkpt>
      <trkpt lat="48.60053" lon="1.70307">
        <ele>247.19999694824</ele>
        <time>2021-02-16T11:12:33Z</time>
      </trkpt>
      <trkpt lat="48.60058" lon="1.70312">
        <ele>247.19999694824</ele>
        <time>2021-02-16T11:12:38Z</time>
      </trkpt>
      <trkpt lat="48.60053" lon="1.70327">
        <ele>246</ele>
        <time>2021-02-16T11:12:52Z</time>
      </trkpt>
      <trkpt lat="48.60045" lon="1.70343">
        <ele>246</ele>
        <time>2021-02-16T11:13:14Z</time>
      </trkpt>
      <trkpt lat="48.60044" lon="1.70344">
        <ele>246</ele>
        <time>2021-02-16T11:13:37Z</time>
      </trkpt>
      <trkpt lat="48.60038" lon="1.70354">
        <ele>245.80000305176</ele>
        <time>2021-02-16T11:14:06Z</time>
      </trkpt>
      <trkpt lat="48.60028" lon="1.70363">
        <ele>245.80000305176</ele>
        <time>2021-02-16T11:14:15Z</time>
      </trkpt>
      <trkpt lat="48.60027" lon="1.70364">
        <ele>245.80000305176</ele>
        <time>2021-02-16T11:14:16Z</time>
      </trkpt>
      <trkpt lat="48.60018" lon="1.7038">
        <ele>246</ele>
        <time>2021-02-16T11:14:30Z</time>
      </trkpt>
      <trkpt lat="48.60014" lon="1.70396">
        <ele>246</ele>
        <time>2021-02-16T11:14:41Z</time>
      </trkpt>
      <trkpt lat="48.6001" lon="1.70402">
        <ele>246</ele>
        <time>2021-02-16T11:14:46Z</time>
      </trkpt>
      <trkpt lat="48.6001" lon="1.70404">
        <ele>246</ele>
        <time>2021-02-16T11:14:47Z</time>
      </trkpt>
      <trkpt lat="48.60009" lon="1.70406">
        <ele>246</ele>
        <time>2021-02-16T11:14:48Z</time>
      </trkpt>
      <trkpt lat="48.59996" lon="1.70423">
        <ele>245.80000305176</ele>
        <time>2021-02-16T11:15:01Z</time>
      </trkpt>
      <trkpt lat="48.59989" lon="1.70441">
        <ele>245.39999389648</ele>
        <time>2021-02-16T11:15:17Z</time>
      </trkpt>
      <trkpt lat="48.59976" lon="1.70456">
        <ele>245.39999389648</ele>
        <time>2021-02-16T11:15:28Z</time>
      </trkpt>
      <trkpt lat="48.59963" lon="1.70475">
        <ele>245.60000610352</ele>
        <time>2021-02-16T11:15:46Z</time>
      </trkpt>
      <trkpt lat="48.59967" lon="1.70482">
        <ele>245.19999694824</ele>
        <time>2021-02-16T11:15:51Z</time>
      </trkpt>
      <trkpt lat="48.59968" lon="1.70483">
        <ele>245</ele>
        <time>2021-02-16T11:15:52Z</time>
      </trkpt>
      <trkpt lat="48.59969" lon="1.70484">
        <ele>245</ele>
        <time>2021-02-16T11:15:53Z</time>
      </trkpt>
      <trkpt lat="48.59978" lon="1.70497">
        <ele>245.19999694824</ele>
        <time>2021-02-16T11:16:03Z</time>
      </trkpt>
      <trkpt lat="48.59986" lon="1.70513">
        <ele>245.19999694824</ele>
        <time>2021-02-16T11:16:18Z</time>
      </trkpt>
      <trkpt lat="48.60009" lon="1.70539">
        <ele>245.39999389648</ele>
        <time>2021-02-16T11:16:39Z</time>
      </trkpt>
      <trkpt lat="48.60018" lon="1.70545">
        <ele>246</ele>
        <time>2021-02-16T11:16:47Z</time>
      </trkpt>
      <trkpt lat="48.60026" lon="1.70553">
        <ele>248.60000610352</ele>
        <time>2021-02-16T11:17:02Z</time>
      </trkpt>
      <trkpt lat="48.60033" lon="1.70558">
        <ele>251.80000305176</ele>
        <time>2021-02-16T11:17:16Z</time>
      </trkpt>
      <trkpt lat="48.60037" lon="1.7056">
        <ele>250.60000610352</ele>
        <time>2021-02-16T11:17:22Z</time>
      </trkpt>
      <trkpt lat="48.60043" lon="1.70563">
        <ele>254</ele>
        <time>2021-02-16T11:17:31Z</time>
      </trkpt>
      <trkpt lat="48.60042" lon="1.70563">
        <ele>254.80000305176</ele>
        <time>2021-02-16T11:17:33Z</time>
      </trkpt>
      <trkpt lat="48.60035" lon="1.70561">
        <ele>251.60000610352</ele>
        <time>2021-02-16T11:17:48Z</time>
      </trkpt>
      <trkpt lat="48.60034" lon="1.70562">
        <ele>251.60000610352</ele>
        <time>2021-02-16T11:17:49Z</time>
      </trkpt>
      <trkpt lat="48.60033" lon="1.70563">
        <ele>251.39999389648</ele>
        <time>2021-02-16T11:17:50Z</time>
      </trkpt>
      <trkpt lat="48.60027" lon="1.70577">
        <ele>251</ele>
        <time>2021-02-16T11:18:01Z</time>
      </trkpt>
      <trkpt lat="48.60021" lon="1.70595">
        <ele>250.39999389648</ele>
        <time>2021-02-16T11:18:14Z</time>
      </trkpt>
      <trkpt lat="48.6001" lon="1.70619">
        <ele>250.19999694824</ele>
        <time>2021-02-16T11:18:30Z</time>
      </trkpt>
      <trkpt lat="48.60003" lon="1.70632">
        <ele>249.60000610352</ele>
        <time>2021-02-16T11:18:41Z</time>
      </trkpt>
      <trkpt lat="48.59993" lon="1.70659">
        <ele>249.39999389648</ele>
        <time>2021-02-16T11:19:01Z</time>
      </trkpt>
      <trkpt lat="48.59986" lon="1.70677">
        <ele>248.80000305176</ele>
        <time>2021-02-16T11:19:14Z</time>
      </trkpt>
      <trkpt lat="48.59978" lon="1.70698">
        <ele>248</ele>
        <time>2021-02-16T11:19:30Z</time>
      </trkpt>
      <trkpt lat="48.59973" lon="1.70714">
        <ele>248</ele>
        <time>2021-02-16T11:19:45Z</time>
      </trkpt>
      <trkpt lat="48.59962" lon="1.70742">
        <ele>247.60000610352</ele>
        <time>2021-02-16T11:20:06Z</time>
      </trkpt>
      <trkpt lat="48.5996" lon="1.70768">
        <ele>247.80000305176</ele>
        <time>2021-02-16T11:20:23Z</time>
      </trkpt>
      <trkpt lat="48.59967" lon="1.708">
        <ele>248</ele>
        <time>2021-02-16T11:20:42Z</time>
      </trkpt>
      <trkpt lat="48.59968" lon="1.70824">
        <ele>248.60000610352</ele>
        <time>2021-02-16T11:20:57Z</time>
      </trkpt>
      <trkpt lat="48.59967" lon="1.70842">
        <ele>248.60000610352</ele>
        <time>2021-02-16T11:21:10Z</time>
      </trkpt>
      <trkpt lat="48.5997" lon="1.70861">
        <ele>248.19999694824</ele>
        <time>2021-02-16T11:21:31Z</time>
      </trkpt>
      <trkpt lat="48.59972" lon="1.70861">
        <ele>248</ele>
        <time>2021-02-16T11:21:33Z</time>
      </trkpt>
      <trkpt lat="48.59977" lon="1.70859">
        <ele>249</ele>
        <time>2021-02-16T11:21:48Z</time>
      </trkpt>
      <trkpt lat="48.59973" lon="1.70871">
        <ele>248</ele>
        <time>2021-02-16T11:22:24Z</time>
      </trkpt>
      <trkpt lat="48.59965" lon="1.70898">
        <ele>249.19999694824</ele>
        <time>2021-02-16T11:22:45Z</time>
      </trkpt>
      <trkpt lat="48.59962" lon="1.70914">
        <ele>249.19999694824</ele>
        <time>2021-02-16T11:22:58Z</time>
      </trkpt>
      <trkpt lat="48.59958" lon="1.70936">
        <ele>249.19999694824</ele>
        <time>2021-02-16T11:23:11Z</time>
      </trkpt>
      <trkpt lat="48.59951" lon="1.70968">
        <ele>249.39999389648</ele>
        <time>2021-02-16T11:23:31Z</time>
      </trkpt>
      <trkpt lat="48.5995" lon="1.70972">
        <ele>249.60000610352</ele>
        <time>2021-02-16T11:23:46Z</time>
      </trkpt>
      <trkpt lat="48.59944" lon="1.70974">
        <ele>249.39999389648</ele>
        <time>2021-02-16T11:24:05Z</time>
      </trkpt>
      <trkpt lat="48.59948" lon="1.70979">
        <ele>249.60000610352</ele>
        <time>2021-02-16T11:24:23Z</time>
      </trkpt>
      <trkpt lat="48.59951" lon="1.70986">
        <ele>249.60000610352</ele>
        <time>2021-02-16T11:24:56Z</time>
      </trkpt>
      <trkpt lat="48.59951" lon="1.70989">
        <ele>249.60000610352</ele>
        <time>2021-02-16T11:25:10Z</time>
      </trkpt>
      <trkpt lat="48.59951" lon="1.70986">
        <ele>249.60000610352</ele>
        <time>2021-02-16T11:25:37Z</time>
      </trkpt>
      <trkpt lat="48.59948" lon="1.7098">
        <ele>249.60000610352</ele>
        <time>2021-02-16T11:26:03Z</time>
      </trkpt>
      <trkpt lat="48.59948" lon="1.70983">
        <ele>249.60000610352</ele>
        <time>2021-02-16T11:26:33Z</time>
      </trkpt>
      <trkpt lat="48.5995" lon="1.70978">
        <ele>249.60000610352</ele>
        <time>2021-02-16T11:27:00Z</time>
      </trkpt>
      <trkpt lat="48.59951" lon="1.70983">
        <ele>249.60000610352</ele>
        <time>2021-02-16T11:27:32Z</time>
      </trkpt>
      <trkpt lat="48.59949" lon="1.70983">
        <ele>249.60000610352</ele>
        <time>2021-02-16T11:27:54Z</time>
      </trkpt>
      <trkpt lat="48.59945" lon="1.70976">
        <ele>249.60000610352</ele>
        <time>2021-02-16T11:28:09Z</time>
      </trkpt>
      <trkpt lat="48.59953" lon="1.70985">
        <ele>249.60000610352</ele>
        <time>2021-02-16T11:28:46Z</time>
      </trkpt>
      <trkpt lat="48.59953" lon="1.70981">
        <ele>249.60000610352</ele>
        <time>2021-02-16T11:29:25Z</time>
      </trkpt>
      <trkpt lat="48.59952" lon="1.70986">
        <ele>249.60000610352</ele>
        <time>2021-02-16T11:29:43Z</time>
      </trkpt>
      <trkpt lat="48.59942" lon="1.70985">
        <ele>249.60000610352</ele>
        <time>2021-02-16T11:30:01Z</time>
      </trkpt>
      <trkpt lat="48.59943" lon="1.70991">
        <ele>249.60000610352</ele>
        <time>2021-02-16T11:30:31Z</time>
      </trkpt>
      <trkpt lat="48.59945" lon="1.70995">
        <ele>249.60000610352</ele>
        <time>2021-02-16T11:31:03Z</time>
      </trkpt>
      <trkpt lat="48.5995" lon="1.70996">
        <ele>249.60000610352</ele>
        <time>2021-02-16T11:31:27Z</time>
      </trkpt>
      <trkpt lat="48.59953" lon="1.70996">
        <ele>249.60000610352</ele>
        <time>2021-02-16T11:31:46Z</time>
      </trkpt>
      <trkpt lat="48.59953" lon="1.70996">
        <ele>217</ele>
        <time>2021-02-16T11:31:47Z</time>
      </trkpt>
      <trkpt lat="48.59953" lon="1.70996">
        <ele>224</ele>
        <time>2021-02-16T11:31:48Z</time>
      </trkpt>
      <trkpt lat="48.59953" lon="1.70996">
        <ele>252.39999389648</ele>
        <time>2021-02-16T11:31:49Z</time>
      </trkpt>
      <trkpt lat="48.59953" lon="1.70996">
        <ele>252.39999389648</ele>
        <time>2021-02-16T11:31:50Z</time>
      </trkpt>
      <trkpt lat="48.59953" lon="1.70996">
        <ele>256.39999389648</ele>
        <time>2021-02-16T11:31:51Z</time>
      </trkpt>
      <trkpt lat="48.59953" lon="1.70995">
        <ele>256.60000610352</ele>
        <time>2021-02-16T11:31:52Z</time>
      </trkpt>
      <trkpt lat="48.59953" lon="1.70994">
        <ele>252.19999694824</ele>
        <time>2021-02-16T11:31:57Z</time>
      </trkpt>
      <trkpt lat="48.59953" lon="1.70993">
        <ele>249</ele>
        <time>2021-02-16T11:32:02Z</time>
      </trkpt>
      <trkpt lat="48.59953" lon="1.70993">
        <ele>246.39999389648</ele>
        <time>2021-02-16T11:32:08Z</time>
      </trkpt>
      <trkpt lat="48.59952" lon="1.70993">
        <ele>249.60000610352</ele>
        <time>2021-02-16T11:32:12Z</time>
      </trkpt>
      <trkpt lat="48.59952" lon="1.70992">
        <ele>251.19999694824</ele>
        <time>2021-02-16T11:32:15Z</time>
      </trkpt>
      <trkpt lat="48.59949" lon="1.70989">
        <ele>248.60000610352</ele>
        <time>2021-02-16T11:32:24Z</time>
      </trkpt>
      <trkpt lat="48.59948" lon="1.70986">
        <ele>251.39999389648</ele>
        <time>2021-02-16T11:32:30Z</time>
      </trkpt>
      <trkpt lat="48.59949" lon="1.70985">
        <ele>249.19999694824</ele>
        <time>2021-02-16T11:32:35Z</time>
      </trkpt>
      <trkpt lat="48.59949" lon="1.70983">
        <ele>248.39999389648</ele>
        <time>2021-02-16T11:33:06Z</time>
      </trkpt>
      <trkpt lat="48.59946" lon="1.70979">
        <ele>248.60000610352</ele>
        <time>2021-02-16T11:33:35Z</time>
      </trkpt>
      <trkpt lat="48.5995" lon="1.70977">
        <ele>250.60000610352</ele>
        <time>2021-02-16T11:33:53Z</time>
      </trkpt>
      <trkpt lat="48.59951" lon="1.7098">
        <ele>247</ele>
        <time>2021-02-16T11:34:08Z</time>
      </trkpt>
      <trkpt lat="48.59949" lon="1.70979">
        <ele>250.39999389648</ele>
        <time>2021-02-16T11:34:16Z</time>
      </trkpt>
      <trkpt lat="48.59949" lon="1.70978">
        <ele>246.60000610352</ele>
        <time>2021-02-16T11:34:24Z</time>
      </trkpt>
      <trkpt lat="48.59949" lon="1.70979">
        <ele>251</ele>
        <time>2021-02-16T11:34:29Z</time>
      </trkpt>
      <trkpt lat="48.59949" lon="1.7098">
        <ele>248.80000305176</ele>
        <time>2021-02-16T11:34:37Z</time>
      </trkpt>
      <trkpt lat="48.5995" lon="1.7098">
        <ele>248.19999694824</ele>
        <time>2021-02-16T11:35:09Z</time>
      </trkpt>
      <trkpt lat="48.59949" lon="1.70978">
        <ele>248.19999694824</ele>
        <time>2021-02-16T11:35:40Z</time>
      </trkpt>
      <trkpt lat="48.5995" lon="1.70979">
        <ele>248.60000610352</ele>
        <time>2021-02-16T11:36:12Z</time>
      </trkpt>
      <trkpt lat="48.59948" lon="1.70979">
        <ele>248.60000610352</ele>
        <time>2021-02-16T11:36:52Z</time>
      </trkpt>
      <trkpt lat="48.59952" lon="1.70978">
        <ele>248.60000610352</ele>
        <time>2021-02-16T11:37:24Z</time>
      </trkpt>
      <trkpt lat="48.59952" lon="1.70975">
        <ele>248.60000610352</ele>
        <time>2021-02-16T11:38:01Z</time>
      </trkpt>
      <trkpt lat="48.5995" lon="1.70977">
        <ele>248.60000610352</ele>
        <time>2021-02-16T11:38:28Z</time>
      </trkpt>
      <trkpt lat="48.59949" lon="1.70976">
        <ele>257.79998779297</ele>
        <time>2021-02-16T11:38:53Z</time>
      </trkpt>
      <trkpt lat="48.59949" lon="1.70977">
        <ele>255.80000305176</ele>
        <time>2021-02-16T11:38:54Z</time>
      </trkpt>
      <trkpt lat="48.59949" lon="1.70977">
        <ele>252.19999694824</ele>
        <time>2021-02-16T11:38:56Z</time>
      </trkpt>
      <trkpt lat="48.5995" lon="1.70977">
        <ele>249</ele>
        <time>2021-02-16T11:39:04Z</time>
      </trkpt>
      <trkpt lat="48.59945" lon="1.70972">
        <ele>248.80000305176</ele>
        <time>2021-02-16T11:39:37Z</time>
      </trkpt>
      <trkpt lat="48.59944" lon="1.70979">
        <ele>249</ele>
        <time>2021-02-16T11:40:02Z</time>
      </trkpt>
      <trkpt lat="48.59942" lon="1.70979">
        <ele>248.39999389648</ele>
        <time>2021-02-16T11:40:32Z</time>
      </trkpt>
      <trkpt lat="48.59943" lon="1.70986">
        <ele>248.39999389648</ele>
        <time>2021-02-16T11:40:57Z</time>
      </trkpt>
      <trkpt lat="48.59942" lon="1.70986">
        <ele>248.39999389648</ele>
        <time>2021-02-16T11:41:28Z</time>
      </trkpt>
      <trkpt lat="48.59937" lon="1.7098">
        <ele>248.39999389648</ele>
        <time>2021-02-16T11:42:00Z</time>
      </trkpt>
      <trkpt lat="48.5994" lon="1.70986">
        <ele>248.39999389648</ele>
        <time>2021-02-16T11:42:33Z</time>
      </trkpt>
      <trkpt lat="48.59946" lon="1.70996">
        <ele>248.39999389648</ele>
        <time>2021-02-16T11:43:06Z</time>
      </trkpt>
      <trkpt lat="48.59948" lon="1.70994">
        <ele>248.39999389648</ele>
        <time>2021-02-16T11:43:16Z</time>
      </trkpt>
      <trkpt lat="48.59949" lon="1.70982">
        <ele>244.60000610352</ele>
        <time>2021-02-16T11:43:40Z</time>
      </trkpt>
      <trkpt lat="48.59949" lon="1.70981">
        <ele>248.80000305176</ele>
        <time>2021-02-16T11:43:43Z</time>
      </trkpt>
      <trkpt lat="48.59949" lon="1.70981">
        <ele>252.39999389648</ele>
        <time>2021-02-16T11:43:44Z</time>
      </trkpt>
      <trkpt lat="48.59949" lon="1.70979">
        <ele>249.60000610352</ele>
        <time>2021-02-16T11:43:53Z</time>
      </trkpt>
      <trkpt lat="48.59952" lon="1.70978">
        <ele>249.19999694824</ele>
        <time>2021-02-16T11:44:20Z</time>
      </trkpt>
      <trkpt lat="48.5995" lon="1.70969">
        <ele>249</ele>
        <time>2021-02-16T11:44:49Z</time>
      </trkpt>
      <trkpt lat="48.59948" lon="1.70982">
        <ele>248.60000610352</ele>
        <time>2021-02-16T11:45:18Z</time>
      </trkpt>
      <trkpt lat="48.59949" lon="1.70994">
        <ele>248.39999389648</ele>
        <time>2021-02-16T11:45:51Z</time>
      </trkpt>
      <trkpt lat="48.59952" lon="1.70998">
        <ele>248.39999389648</ele>
        <time>2021-02-16T11:46:18Z</time>
      </trkpt>
      <trkpt lat="48.59948" lon="1.71">
        <ele>248.39999389648</ele>
        <time>2021-02-16T11:46:56Z</time>
      </trkpt>
      <trkpt lat="48.59948" lon="1.70997">
        <ele>248.39999389648</ele>
        <time>2021-02-16T11:47:28Z</time>
      </trkpt>
      <trkpt lat="48.59952" lon="1.70986">
        <ele>248.39999389648</ele>
        <time>2021-02-16T11:47:53Z</time>
      </trkpt>
      <trkpt lat="48.59948" lon="1.70997">
        <ele>248.39999389648</ele>
        <time>2021-02-16T11:48:27Z</time>
      </trkpt>
      <trkpt lat="48.59949" lon="1.70998">
        <ele>248.39999389648</ele>
        <time>2021-02-16T11:49:00Z</time>
      </trkpt>
      <trkpt lat="48.59948" lon="1.70998">
        <ele>248.39999389648</ele>
        <time>2021-02-16T11:49:28Z</time>
      </trkpt>
      <trkpt lat="48.59954" lon="1.70992">
        <ele>250.19999694824</ele>
        <time>2021-02-16T11:49:44Z</time>
      </trkpt>
      <trkpt lat="48.59956" lon="1.70992">
        <ele>249.80000305176</ele>
        <time>2021-02-16T11:50:06Z</time>
      </trkpt>
      <trkpt lat="48.59954" lon="1.70989">
        <ele>250.19999694824</ele>
        <time>2021-02-16T11:50:25Z</time>
      </trkpt>
      <trkpt lat="48.59947" lon="1.70988">
        <ele>250.39999389648</ele>
        <time>2021-02-16T11:50:56Z</time>
      </trkpt>
      <trkpt lat="48.59948" lon="1.70994">
        <ele>253.60000610352</ele>
        <time>2021-02-16T11:51:13Z</time>
      </trkpt>
      <trkpt lat="48.59949" lon="1.70997">
        <ele>250.39999389648</ele>
        <time>2021-02-16T11:51:22Z</time>
      </trkpt>
      <trkpt lat="48.59941" lon="1.70999">
        <ele>250.39999389648</ele>
        <time>2021-02-16T11:51:55Z</time>
      </trkpt>
      <trkpt lat="48.59948" lon="1.70999">
        <ele>250.39999389648</ele>
        <time>2021-02-16T11:52:28Z</time>
      </trkpt>
      <trkpt lat="48.59943" lon="1.70999">
        <ele>250.39999389648</ele>
        <time>2021-02-16T11:52:59Z</time>
      </trkpt>
      <trkpt lat="48.59943" lon="1.70995">
        <ele>250.39999389648</ele>
        <time>2021-02-16T11:53:32Z</time>
      </trkpt>
      <trkpt lat="48.59943" lon="1.71001">
        <ele>250.39999389648</ele>
        <time>2021-02-16T11:54:09Z</time>
      </trkpt>
      <trkpt lat="48.59944" lon="1.71006">
        <ele>250.39999389648</ele>
        <time>2021-02-16T11:54:41Z</time>
      </trkpt>
      <trkpt lat="48.59941" lon="1.71004">
        <ele>250.39999389648</ele>
        <time>2021-02-16T11:55:13Z</time>
      </trkpt>
      <trkpt lat="48.59949" lon="1.71002">
        <ele>250.39999389648</ele>
        <time>2021-02-16T11:55:35Z</time>
      </trkpt>
      <trkpt lat="48.59956" lon="1.71">
        <ele>250.39999389648</ele>
        <time>2021-02-16T11:56:00Z</time>
      </trkpt>
      <trkpt lat="48.59957" lon="1.70997">
        <ele>250.39999389648</ele>
        <time>2021-02-16T11:56:25Z</time>
      </trkpt>
      <trkpt lat="48.59958" lon="1.70989">
        <ele>250.39999389648</ele>
        <time>2021-02-16T11:56:56Z</time>
      </trkpt>
      <trkpt lat="48.59953" lon="1.70993">
        <ele>250.39999389648</ele>
        <time>2021-02-16T11:57:31Z</time>
      </trkpt>
      <trkpt lat="48.59952" lon="1.70997">
        <ele>250.39999389648</ele>
        <time>2021-02-16T11:57:38Z</time>
      </trkpt>
      <trkpt lat="48.5995" lon="1.71003">
        <ele>250.39999389648</ele>
        <time>2021-02-16T11:58:10Z</time>
      </trkpt>
      <trkpt lat="48.5995" lon="1.71">
        <ele>246</ele>
        <time>2021-02-16T11:58:28Z</time>
      </trkpt>
      <trkpt lat="48.59952" lon="1.71">
        <ele>249</ele>
        <time>2021-02-16T11:58:34Z</time>
      </trkpt>
      <trkpt lat="48.59952" lon="1.71001">
        <ele>252.19999694824</ele>
        <time>2021-02-16T11:58:36Z</time>
      </trkpt>
      <trkpt lat="48.59952" lon="1.71001">
        <ele>252.39999389648</ele>
        <time>2021-02-16T11:58:37Z</time>
      </trkpt>
      <trkpt lat="48.59952" lon="1.71001">
        <ele>253.80000305176</ele>
        <time>2021-02-16T11:58:41Z</time>
      </trkpt>
      <trkpt lat="48.59953" lon="1.70998">
        <ele>255.39999389648</ele>
        <time>2021-02-16T11:58:47Z</time>
      </trkpt>
      <trkpt lat="48.59953" lon="1.70997">
        <ele>251.80000305176</ele>
        <time>2021-02-16T11:58:53Z</time>
      </trkpt>
      <trkpt lat="48.59953" lon="1.70996">
        <ele>251</ele>
        <time>2021-02-16T11:58:55Z</time>
      </trkpt>
      <trkpt lat="48.59952" lon="1.70992">
        <ele>247.80000305176</ele>
        <time>2021-02-16T11:59:11Z</time>
      </trkpt>
      <trkpt lat="48.59952" lon="1.70992">
        <ele>250.80000305176</ele>
        <time>2021-02-16T11:59:13Z</time>
      </trkpt>
      <trkpt lat="48.59952" lon="1.70993">
        <ele>252.19999694824</ele>
        <time>2021-02-16T11:59:28Z</time>
      </trkpt>
      <trkpt lat="48.59951" lon="1.70984">
        <ele>250.60000610352</ele>
        <time>2021-02-16T12:00:09Z</time>
      </trkpt>
      <trkpt lat="48.59948" lon="1.70985">
        <ele>250.39999389648</ele>
        <time>2021-02-16T12:00:35Z</time>
      </trkpt>
      <trkpt lat="48.59948" lon="1.70992">
        <ele>249.60000610352</ele>
        <time>2021-02-16T12:01:18Z</time>
      </trkpt>
      <trkpt lat="48.59946" lon="1.70987">
        <ele>250.60000610352</ele>
        <time>2021-02-16T12:01:42Z</time>
      </trkpt>
      <trkpt lat="48.59933" lon="1.70991">
        <ele>250.19999694824</ele>
        <time>2021-02-16T12:01:57Z</time>
      </trkpt>
      <trkpt lat="48.59932" lon="1.71018">
        <ele>249.19999694824</ele>
        <time>2021-02-16T12:02:15Z</time>
      </trkpt>
      <trkpt lat="48.59928" lon="1.71025">
        <ele>249.19999694824</ele>
        <time>2021-02-16T12:02:21Z</time>
      </trkpt>
      <trkpt lat="48.59921" lon="1.71051">
        <ele>249</ele>
        <time>2021-02-16T12:02:38Z</time>
      </trkpt>
      <trkpt lat="48.59917" lon="1.71071">
        <ele>249.39999389648</ele>
        <time>2021-02-16T12:02:50Z</time>
      </trkpt>
      <trkpt lat="48.59909" lon="1.71095">
        <ele>249.80000305176</ele>
        <time>2021-02-16T12:03:04Z</time>
      </trkpt>
      <trkpt lat="48.59896" lon="1.71126">
        <ele>249.19999694824</ele>
        <time>2021-02-16T12:03:24Z</time>
      </trkpt>
      <trkpt lat="48.59891" lon="1.71149">
        <ele>249</ele>
        <time>2021-02-16T12:03:39Z</time>
      </trkpt>
      <trkpt lat="48.5988" lon="1.71172">
        <ele>249.19999694824</ele>
        <time>2021-02-16T12:03:53Z</time>
      </trkpt>
      <trkpt lat="48.59863" lon="1.71186">
        <ele>249.60000610352</ele>
        <time>2021-02-16T12:04:11Z</time>
      </trkpt>
      <trkpt lat="48.59855" lon="1.71189">
        <ele>250</ele>
        <time>2021-02-16T12:04:24Z</time>
      </trkpt>
      <trkpt lat="48.59854" lon="1.71189">
        <ele>249.19999694824</ele>
        <time>2021-02-16T12:04:50Z</time>
      </trkpt>
      <trkpt lat="48.5984" lon="1.71199">
        <ele>249.80000305176</ele>
        <time>2021-02-16T12:05:05Z</time>
      </trkpt>
      <trkpt lat="48.59835" lon="1.71204">
        <ele>249.39999389648</ele>
        <time>2021-02-16T12:05:10Z</time>
      </trkpt>
      <trkpt lat="48.59833" lon="1.71205">
        <ele>249.39999389648</ele>
        <time>2021-02-16T12:05:11Z</time>
      </trkpt>
      <trkpt lat="48.59814" lon="1.71218">
        <ele>249.19999694824</ele>
        <time>2021-02-16T12:05:28Z</time>
      </trkpt>
      <trkpt lat="48.59808" lon="1.7122">
        <ele>249.19999694824</ele>
        <time>2021-02-16T12:05:32Z</time>
      </trkpt>
      <trkpt lat="48.59807" lon="1.71221">
        <ele>249.19999694824</ele>
        <time>2021-02-16T12:05:33Z</time>
      </trkpt>
      <trkpt lat="48.59789" lon="1.71232">
        <ele>249.60000610352</ele>
        <time>2021-02-16T12:05:48Z</time>
      </trkpt>
      <trkpt lat="48.59775" lon="1.71239">
        <ele>249.80000305176</ele>
        <time>2021-02-16T12:06:00Z</time>
      </trkpt>
      <trkpt lat="48.5975" lon="1.71258">
        <ele>249.80000305176</ele>
        <time>2021-02-16T12:06:21Z</time>
      </trkpt>
      <trkpt lat="48.5974" lon="1.71271">
        <ele>249.60000610352</ele>
        <time>2021-02-16T12:06:30Z</time>
      </trkpt>
      <trkpt lat="48.5974" lon="1.71272">
        <ele>249.39999389648</ele>
        <time>2021-02-16T12:06:31Z</time>
      </trkpt>
      <trkpt lat="48.59739" lon="1.71274">
        <ele>249.39999389648</ele>
        <time>2021-02-16T12:06:32Z</time>
      </trkpt>
      <trkpt lat="48.59738" lon="1.71276">
        <ele>249.39999389648</ele>
        <time>2021-02-16T12:06:33Z</time>
      </trkpt>
      <trkpt lat="48.59725" lon="1.71302">
        <ele>249.39999389648</ele>
        <time>2021-02-16T12:06:48Z</time>
      </trkpt>
      <trkpt lat="48.59714" lon="1.71327">
        <ele>249.60000610352</ele>
        <time>2021-02-16T12:07:01Z</time>
      </trkpt>
      <trkpt lat="48.59712" lon="1.71335">
        <ele>249.60000610352</ele>
        <time>2021-02-16T12:07:05Z</time>
      </trkpt>
      <trkpt lat="48.59711" lon="1.71339">
        <ele>249.60000610352</ele>
        <time>2021-02-16T12:07:08Z</time>
      </trkpt>
      <trkpt lat="48.59709" lon="1.71341">
        <ele>249.60000610352</ele>
        <time>2021-02-16T12:07:09Z</time>
      </trkpt>
      <trkpt lat="48.59703" lon="1.71352">
        <ele>250.19999694824</ele>
        <time>2021-02-16T12:07:16Z</time>
      </trkpt>
      <trkpt lat="48.59702" lon="1.71354">
        <ele>250.19999694824</ele>
        <time>2021-02-16T12:07:17Z</time>
      </trkpt>
      <trkpt lat="48.59701" lon="1.71355">
        <ele>250.19999694824</ele>
        <time>2021-02-16T12:07:18Z</time>
      </trkpt>
      <trkpt lat="48.59692" lon="1.71387">
        <ele>250.39999389648</ele>
        <time>2021-02-16T12:07:37Z</time>
      </trkpt>
      <trkpt lat="48.59691" lon="1.71417">
        <ele>252</ele>
        <time>2021-02-16T12:07:53Z</time>
      </trkpt>
      <trkpt lat="48.59681" lon="1.71449">
        <ele>253</ele>
        <time>2021-02-16T12:08:09Z</time>
      </trkpt>
      <trkpt lat="48.59671" lon="1.71483">
        <ele>252.39999389648</ele>
        <time>2021-02-16T12:08:26Z</time>
      </trkpt>
      <trkpt lat="48.59658" lon="1.71514">
        <ele>254</ele>
        <time>2021-02-16T12:08:45Z</time>
      </trkpt>
      <trkpt lat="48.59649" lon="1.71545">
        <ele>254.39999389648</ele>
        <time>2021-02-16T12:09:01Z</time>
      </trkpt>
      <trkpt lat="48.59645" lon="1.71559">
        <ele>254.60000610352</ele>
        <time>2021-02-16T12:09:08Z</time>
      </trkpt>
      <trkpt lat="48.59645" lon="1.71561">
        <ele>254.80000305176</ele>
        <time>2021-02-16T12:09:09Z</time>
      </trkpt>
      <trkpt lat="48.59637" lon="1.71597">
        <ele>254.19999694824</ele>
        <time>2021-02-16T12:09:27Z</time>
      </trkpt>
      <trkpt lat="48.59633" lon="1.71605">
        <ele>254.39999389648</ele>
        <time>2021-02-16T12:09:32Z</time>
      </trkpt>
      <trkpt lat="48.59632" lon="1.71606">
        <ele>254.60000610352</ele>
        <time>2021-02-16T12:09:33Z</time>
      </trkpt>
      <trkpt lat="48.5963" lon="1.71607">
        <ele>254.60000610352</ele>
        <time>2021-02-16T12:09:34Z</time>
      </trkpt>
      <trkpt lat="48.5961" lon="1.71612">
        <ele>253.39999389648</ele>
        <time>2021-02-16T12:09:50Z</time>
      </trkpt>
      <trkpt lat="48.59589" lon="1.71617">
        <ele>252</ele>
        <time>2021-02-16T12:10:06Z</time>
      </trkpt>
      <trkpt lat="48.59565" lon="1.71621">
        <ele>252.60000610352</ele>
        <time>2021-02-16T12:10:22Z</time>
      </trkpt>
      <trkpt lat="48.5956" lon="1.71619">
        <ele>252.60000610352</ele>
        <time>2021-02-16T12:10:26Z</time>
      </trkpt>
      <trkpt lat="48.59558" lon="1.71619">
        <ele>252.60000610352</ele>
        <time>2021-02-16T12:10:27Z</time>
      </trkpt>
      <trkpt lat="48.59557" lon="1.71619">
        <ele>252.60000610352</ele>
        <time>2021-02-16T12:10:28Z</time>
      </trkpt>
      <trkpt lat="48.59555" lon="1.71619">
        <ele>252.80000305176</ele>
        <time>2021-02-16T12:10:29Z</time>
      </trkpt>
      <trkpt lat="48.59553" lon="1.71619">
        <ele>252.80000305176</ele>
        <time>2021-02-16T12:10:30Z</time>
      </trkpt>
      <trkpt lat="48.59552" lon="1.71619">
        <ele>252.80000305176</ele>
        <time>2021-02-16T12:10:31Z</time>
      </trkpt>
      <trkpt lat="48.59534" lon="1.71622">
        <ele>252.39999389648</ele>
        <time>2021-02-16T12:10:45Z</time>
      </trkpt>
      <trkpt lat="48.59531" lon="1.71623">
        <ele>252.60000610352</ele>
        <time>2021-02-16T12:10:48Z</time>
      </trkpt>
      <trkpt lat="48.5953" lon="1.71624">
        <ele>252.60000610352</ele>
        <time>2021-02-16T12:10:49Z</time>
      </trkpt>
      <trkpt lat="48.59511" lon="1.71638">
        <ele>253</ele>
        <time>2021-02-16T12:11:04Z</time>
      </trkpt>
      <trkpt lat="48.59495" lon="1.71644">
        <ele>252.80000305176</ele>
        <time>2021-02-16T12:11:20Z</time>
      </trkpt>
      <trkpt lat="48.59494" lon="1.71644">
        <ele>252.80000305176</ele>
        <time>2021-02-16T12:11:22Z</time>
      </trkpt>
      <trkpt lat="48.59493" lon="1.71645">
        <ele>253</ele>
        <time>2021-02-16T12:11:23Z</time>
      </trkpt>
      <trkpt lat="48.59487" lon="1.71668">
        <ele>253.80000305176</ele>
        <time>2021-02-16T12:11:40Z</time>
      </trkpt>
      <trkpt lat="48.59486" lon="1.71671">
        <ele>253.80000305176</ele>
        <time>2021-02-16T12:11:41Z</time>
      </trkpt>
      <trkpt lat="48.5948" lon="1.71702">
        <ele>254.80000305176</ele>
        <time>2021-02-16T12:11:59Z</time>
      </trkpt>
      <trkpt lat="48.59476" lon="1.71719">
        <ele>255.39999389648</ele>
        <time>2021-02-16T12:12:08Z</time>
      </trkpt>
      <trkpt lat="48.59476" lon="1.71721">
        <ele>255.60000610352</ele>
        <time>2021-02-16T12:12:09Z</time>
      </trkpt>
      <trkpt lat="48.59471" lon="1.71752">
        <ele>254.39999389648</ele>
        <time>2021-02-16T12:12:25Z</time>
      </trkpt>
      <trkpt lat="48.59471" lon="1.71754">
        <ele>254.39999389648</ele>
        <time>2021-02-16T12:12:26Z</time>
      </trkpt>
      <trkpt lat="48.5947" lon="1.71756">
        <ele>254.39999389648</ele>
        <time>2021-02-16T12:12:27Z</time>
      </trkpt>
      <trkpt lat="48.59468" lon="1.71774">
        <ele>254</ele>
        <time>2021-02-16T12:12:36Z</time>
      </trkpt>
      <trkpt lat="48.59467" lon="1.71776">
        <ele>253.80000305176</ele>
        <time>2021-02-16T12:12:37Z</time>
      </trkpt>
      <trkpt lat="48.59466" lon="1.71778">
        <ele>253.80000305176</ele>
        <time>2021-02-16T12:12:38Z</time>
      </trkpt>
      <trkpt lat="48.59464" lon="1.71798">
        <ele>253.60000610352</ele>
        <time>2021-02-16T12:12:49Z</time>
      </trkpt>
      <trkpt lat="48.59464" lon="1.71801">
        <ele>253.60000610352</ele>
        <time>2021-02-16T12:12:50Z</time>
      </trkpt>
      <trkpt lat="48.59464" lon="1.71806">
        <ele>253.39999389648</ele>
        <time>2021-02-16T12:12:53Z</time>
      </trkpt>
      <trkpt lat="48.59465" lon="1.71808">
        <ele>253.39999389648</ele>
        <time>2021-02-16T12:12:54Z</time>
      </trkpt>
      <trkpt lat="48.59465" lon="1.7181">
        <ele>253.39999389648</ele>
        <time>2021-02-16T12:12:55Z</time>
      </trkpt>
      <trkpt lat="48.59467" lon="1.71841">
        <ele>253.19999694824</ele>
        <time>2021-02-16T12:13:11Z</time>
      </trkpt>
      <trkpt lat="48.59468" lon="1.71848">
        <ele>253.19999694824</ele>
        <time>2021-02-16T12:13:14Z</time>
      </trkpt>
      <trkpt lat="48.59469" lon="1.71857">
        <ele>253.19999694824</ele>
        <time>2021-02-16T12:13:19Z</time>
      </trkpt>
      <trkpt lat="48.59469" lon="1.71859">
        <ele>253.19999694824</ele>
        <time>2021-02-16T12:13:20Z</time>
      </trkpt>
      <trkpt lat="48.5947" lon="1.71864">
        <ele>253.19999694824</ele>
        <time>2021-02-16T12:13:22Z</time>
      </trkpt>
      <trkpt lat="48.5947" lon="1.71896">
        <ele>253.39999389648</ele>
        <time>2021-02-16T12:13:38Z</time>
      </trkpt>
      <trkpt lat="48.5947" lon="1.71898">
        <ele>253.39999389648</ele>
        <time>2021-02-16T12:13:39Z</time>
      </trkpt>
      <trkpt lat="48.59474" lon="1.7193">
        <ele>253.39999389648</ele>
        <time>2021-02-16T12:13:56Z</time>
      </trkpt>
      <trkpt lat="48.59474" lon="1.71932">
        <ele>253.39999389648</ele>
        <time>2021-02-16T12:13:57Z</time>
      </trkpt>
      <trkpt lat="48.59475" lon="1.71936">
        <ele>253.60000610352</ele>
        <time>2021-02-16T12:14:00Z</time>
      </trkpt>
      <trkpt lat="48.59475" lon="1.71937">
        <ele>253.60000610352</ele>
        <time>2021-02-16T12:14:01Z</time>
      </trkpt>
      <trkpt lat="48.59475" lon="1.71939">
        <ele>253.60000610352</ele>
        <time>2021-02-16T12:14:02Z</time>
      </trkpt>
      <trkpt lat="48.59474" lon="1.71945">
        <ele>253.80000305176</ele>
        <time>2021-02-16T12:14:05Z</time>
      </trkpt>
      <trkpt lat="48.59474" lon="1.71946">
        <ele>253.80000305176</ele>
        <time>2021-02-16T12:14:06Z</time>
      </trkpt>
      <trkpt lat="48.59474" lon="1.71953">
        <ele>253.80000305176</ele>
        <time>2021-02-16T12:14:10Z</time>
      </trkpt>
      <trkpt lat="48.59474" lon="1.71955">
        <ele>253.80000305176</ele>
        <time>2021-02-16T12:14:11Z</time>
      </trkpt>
      <trkpt lat="48.59474" lon="1.71982">
        <ele>253.60000610352</ele>
        <time>2021-02-16T12:14:25Z</time>
      </trkpt>
      <trkpt lat="48.59474" lon="1.72009">
        <ele>253.39999389648</ele>
        <time>2021-02-16T12:14:40Z</time>
      </trkpt>
      <trkpt lat="48.59468" lon="1.72046">
        <ele>254</ele>
        <time>2021-02-16T12:15:00Z</time>
      </trkpt>
      <trkpt lat="48.59461" lon="1.72082">
        <ele>254.19999694824</ele>
        <time>2021-02-16T12:15:20Z</time>
      </trkpt>
      <trkpt lat="48.59456" lon="1.72109">
        <ele>254.39999389648</ele>
        <time>2021-02-16T12:15:35Z</time>
      </trkpt>
      <trkpt lat="48.59446" lon="1.72139">
        <ele>253.80000305176</ele>
        <time>2021-02-16T12:15:52Z</time>
      </trkpt>
      <trkpt lat="48.59439" lon="1.72165">
        <ele>253.39999389648</ele>
        <time>2021-02-16T12:16:09Z</time>
      </trkpt>
      <trkpt lat="48.59431" lon="1.72183">
        <ele>253.60000610352</ele>
        <time>2021-02-16T12:16:25Z</time>
      </trkpt>
      <trkpt lat="48.59421" lon="1.72205">
        <ele>253.60000610352</ele>
        <time>2021-02-16T12:16:39Z</time>
      </trkpt>
      <trkpt lat="48.59412" lon="1.72226">
        <ele>253.60000610352</ele>
        <time>2021-02-16T12:16:54Z</time>
      </trkpt>
      <trkpt lat="48.59398" lon="1.72257">
        <ele>253.39999389648</ele>
        <time>2021-02-16T12:17:17Z</time>
      </trkpt>
      <trkpt lat="48.59385" lon="1.72286">
        <ele>253.39999389648</ele>
        <time>2021-02-16T12:17:35Z</time>
      </trkpt>
      <trkpt lat="48.59382" lon="1.72308">
        <ele>253.19999694824</ele>
        <time>2021-02-16T12:17:50Z</time>
      </trkpt>
      <trkpt lat="48.59376" lon="1.72355">
        <ele>253.19999694824</ele>
        <time>2021-02-16T12:18:12Z</time>
      </trkpt>
      <trkpt lat="48.5937" lon="1.72397">
        <ele>253.19999694824</ele>
        <time>2021-02-16T12:18:34Z</time>
      </trkpt>
      <trkpt lat="48.59372" lon="1.72434">
        <ele>253.80000305176</ele>
        <time>2021-02-16T12:18:55Z</time>
      </trkpt>
      <trkpt lat="48.59371" lon="1.72451">
        <ele>253.80000305176</ele>
        <time>2021-02-16T12:19:02Z</time>
      </trkpt>
      <trkpt lat="48.59371" lon="1.72453">
        <ele>254</ele>
        <time>2021-02-16T12:19:03Z</time>
      </trkpt>
      <trkpt lat="48.59368" lon="1.72484">
        <ele>254</ele>
        <time>2021-02-16T12:19:16Z</time>
      </trkpt>
      <trkpt lat="48.59368" lon="1.72486">
        <ele>254</ele>
        <time>2021-02-16T12:19:17Z</time>
      </trkpt>
      <trkpt lat="48.59367" lon="1.72488">
        <ele>254</ele>
        <time>2021-02-16T12:19:18Z</time>
      </trkpt>
      <trkpt lat="48.59362" lon="1.72523">
        <ele>254</ele>
        <time>2021-02-16T12:19:35Z</time>
      </trkpt>
      <trkpt lat="48.59358" lon="1.72555">
        <ele>253.39999389648</ele>
        <time>2021-02-16T12:19:53Z</time>
      </trkpt>
      <trkpt lat="48.59352" lon="1.72578">
        <ele>253.60000610352</ele>
        <time>2021-02-16T12:20:06Z</time>
      </trkpt>
      <trkpt lat="48.59349" lon="1.72591">
        <ele>253.60000610352</ele>
        <time>2021-02-16T12:20:14Z</time>
      </trkpt>
      <trkpt lat="48.59341" lon="1.72612">
        <ele>253.39999389648</ele>
        <time>2021-02-16T12:20:29Z</time>
      </trkpt>
      <trkpt lat="48.59324" lon="1.72641">
        <ele>253.60000610352</ele>
        <time>2021-02-16T12:20:49Z</time>
      </trkpt>
      <trkpt lat="48.59318" lon="1.72661">
        <ele>253.80000305176</ele>
        <time>2021-02-16T12:21:04Z</time>
      </trkpt>
      <trkpt lat="48.59317" lon="1.72667">
        <ele>253.80000305176</ele>
        <time>2021-02-16T12:21:08Z</time>
      </trkpt>
      <trkpt lat="48.59303" lon="1.72689">
        <ele>253.80000305176</ele>
        <time>2021-02-16T12:21:22Z</time>
      </trkpt>
      <trkpt lat="48.59281" lon="1.72721">
        <ele>254</ele>
        <time>2021-02-16T12:21:44Z</time>
      </trkpt>
      <trkpt lat="48.59279" lon="1.72723">
        <ele>254</ele>
        <time>2021-02-16T12:21:45Z</time>
      </trkpt>
      <trkpt lat="48.59278" lon="1.72724">
        <ele>254</ele>
        <time>2021-02-16T12:21:46Z</time>
      </trkpt>
      <trkpt lat="48.59265" lon="1.72743">
        <ele>253.80000305176</ele>
        <time>2021-02-16T12:22:01Z</time>
      </trkpt>
      <trkpt lat="48.59255" lon="1.72769">
        <ele>253.80000305176</ele>
        <time>2021-02-16T12:22:18Z</time>
      </trkpt>
      <trkpt lat="48.59245" lon="1.72806">
        <ele>254</ele>
        <time>2021-02-16T12:22:36Z</time>
      </trkpt>
      <trkpt lat="48.59238" lon="1.72832">
        <ele>253.80000305176</ele>
        <time>2021-02-16T12:22:52Z</time>
      </trkpt>
      <trkpt lat="48.59236" lon="1.72845">
        <ele>254.19999694824</ele>
        <time>2021-02-16T12:22:59Z</time>
      </trkpt>
      <trkpt lat="48.59234" lon="1.72874">
        <ele>254.19999694824</ele>
        <time>2021-02-16T12:23:12Z</time>
      </trkpt>
      <trkpt lat="48.5923" lon="1.72892">
        <ele>254</ele>
        <time>2021-02-16T12:23:21Z</time>
      </trkpt>
      <trkpt lat="48.59223" lon="1.72924">
        <ele>254</ele>
        <time>2021-02-16T12:23:40Z</time>
      </trkpt>
      <trkpt lat="48.59219" lon="1.72934">
        <ele>254</ele>
        <time>2021-02-16T12:23:46Z</time>
      </trkpt>
      <trkpt lat="48.59219" lon="1.72936">
        <ele>254</ele>
        <time>2021-02-16T12:23:47Z</time>
      </trkpt>
      <trkpt lat="48.59218" lon="1.72938">
        <ele>254</ele>
        <time>2021-02-16T12:23:48Z</time>
      </trkpt>
      <trkpt lat="48.59209" lon="1.7297">
        <ele>253.60000610352</ele>
        <time>2021-02-16T12:24:04Z</time>
      </trkpt>
      <trkpt lat="48.59205" lon="1.72996">
        <ele>254</ele>
        <time>2021-02-16T12:24:17Z</time>
      </trkpt>
      <trkpt lat="48.59201" lon="1.73023">
        <ele>254.60000610352</ele>
        <time>2021-02-16T12:24:30Z</time>
      </trkpt>
      <trkpt lat="48.59199" lon="1.73057">
        <ele>254.39999389648</ele>
        <time>2021-02-16T12:24:48Z</time>
      </trkpt>
      <trkpt lat="48.59196" lon="1.73089">
        <ele>254.60000610352</ele>
        <time>2021-02-16T12:25:05Z</time>
      </trkpt>
      <trkpt lat="48.59195" lon="1.73098">
        <ele>254.60000610352</ele>
        <time>2021-02-16T12:25:10Z</time>
      </trkpt>
      <trkpt lat="48.59196" lon="1.73101">
        <ele>254.80000305176</ele>
        <time>2021-02-16T12:25:13Z</time>
      </trkpt>
      <trkpt lat="48.59197" lon="1.73102">
        <ele>254.80000305176</ele>
        <time>2021-02-16T12:25:14Z</time>
      </trkpt>
      <trkpt lat="48.59199" lon="1.73103">
        <ele>254.80000305176</ele>
        <time>2021-02-16T12:25:15Z</time>
      </trkpt>
      <trkpt lat="48.592" lon="1.73104">
        <ele>254.80000305176</ele>
        <time>2021-02-16T12:25:16Z</time>
      </trkpt>
      <trkpt lat="48.59201" lon="1.73105">
        <ele>254.80000305176</ele>
        <time>2021-02-16T12:25:17Z</time>
      </trkpt>
      <trkpt lat="48.59203" lon="1.73105">
        <ele>254.80000305176</ele>
        <time>2021-02-16T12:25:18Z</time>
      </trkpt>
      <trkpt lat="48.59203" lon="1.73117">
        <ele>254.80000305176</ele>
        <time>2021-02-16T12:25:28Z</time>
      </trkpt>
      <trkpt lat="48.59203" lon="1.73119">
        <ele>254.80000305176</ele>
        <time>2021-02-16T12:25:29Z</time>
      </trkpt>
      <trkpt lat="48.59204" lon="1.73121">
        <ele>254.60000610352</ele>
        <time>2021-02-16T12:25:30Z</time>
      </trkpt>
      <trkpt lat="48.59204" lon="1.73122">
        <ele>254.60000610352</ele>
        <time>2021-02-16T12:25:31Z</time>
      </trkpt>
      <trkpt lat="48.59204" lon="1.73124">
        <ele>254.39999389648</ele>
        <time>2021-02-16T12:25:32Z</time>
      </trkpt>
      <trkpt lat="48.59205" lon="1.73126">
        <ele>254.39999389648</ele>
        <time>2021-02-16T12:25:33Z</time>
      </trkpt>
      <trkpt lat="48.59205" lon="1.73127">
        <ele>254.39999389648</ele>
        <time>2021-02-16T12:25:34Z</time>
      </trkpt>
      <trkpt lat="48.59204" lon="1.73129">
        <ele>254.39999389648</ele>
        <time>2021-02-16T12:25:35Z</time>
      </trkpt>
      <trkpt lat="48.59203" lon="1.73137">
        <ele>254.19999694824</ele>
        <time>2021-02-16T12:25:54Z</time>
      </trkpt>
      <trkpt lat="48.59198" lon="1.7315">
        <ele>254.19999694824</ele>
        <time>2021-02-16T12:26:06Z</time>
      </trkpt>
      <trkpt lat="48.59195" lon="1.73166">
        <ele>254.19999694824</ele>
        <time>2021-02-16T12:26:19Z</time>
      </trkpt>
      <trkpt lat="48.59194" lon="1.73169">
        <ele>254.19999694824</ele>
        <time>2021-02-16T12:26:21Z</time>
      </trkpt>
      <trkpt lat="48.59187" lon="1.73185">
        <ele>254.19999694824</ele>
        <time>2021-02-16T12:26:33Z</time>
      </trkpt>
      <trkpt lat="48.59187" lon="1.73187">
        <ele>254.19999694824</ele>
        <time>2021-02-16T12:26:34Z</time>
      </trkpt>
      <trkpt lat="48.5918" lon="1.73216">
        <ele>254.19999694824</ele>
        <time>2021-02-16T12:26:53Z</time>
      </trkpt>
      <trkpt lat="48.59175" lon="1.73234">
        <ele>253.80000305176</ele>
        <time>2021-02-16T12:27:06Z</time>
      </trkpt>
      <trkpt lat="48.59174" lon="1.73236">
        <ele>253.80000305176</ele>
        <time>2021-02-16T12:27:07Z</time>
      </trkpt>
      <trkpt lat="48.59169" lon="1.73238">
        <ele>254</ele>
        <time>2021-02-16T12:27:21Z</time>
      </trkpt>
      <trkpt lat="48.59157" lon="1.73246">
        <ele>254.39999389648</ele>
        <time>2021-02-16T12:27:39Z</time>
      </trkpt>
      <trkpt lat="48.59142" lon="1.73263">
        <ele>254.60000610352</ele>
        <time>2021-02-16T12:27:59Z</time>
      </trkpt>
      <trkpt lat="48.59127" lon="1.7328">
        <ele>254.80000305176</ele>
        <time>2021-02-16T12:28:21Z</time>
      </trkpt>
      <trkpt lat="48.59125" lon="1.73284">
        <ele>255.19999694824</ele>
        <time>2021-02-16T12:28:25Z</time>
      </trkpt>
      <trkpt lat="48.59107" lon="1.73302">
        <ele>255.19999694824</ele>
        <time>2021-02-16T12:28:42Z</time>
      </trkpt>
      <trkpt lat="48.59101" lon="1.73319">
        <ele>255.60000610352</ele>
        <time>2021-02-16T12:28:59Z</time>
      </trkpt>
      <trkpt lat="48.59102" lon="1.73321">
        <ele>256</ele>
        <time>2021-02-16T12:29:01Z</time>
      </trkpt>
      <trkpt lat="48.59104" lon="1.73324">
        <ele>256.20001220703</ele>
        <time>2021-02-16T12:29:03Z</time>
      </trkpt>
      <trkpt lat="48.59109" lon="1.73334">
        <ele>256.60000610352</ele>
        <time>2021-02-16T12:29:10Z</time>
      </trkpt>
      <trkpt lat="48.59118" lon="1.73348">
        <ele>258</ele>
        <time>2021-02-16T12:29:23Z</time>
      </trkpt>
      <trkpt lat="48.59121" lon="1.7336">
        <ele>260</ele>
        <time>2021-02-16T12:29:33Z</time>
      </trkpt>
      <trkpt lat="48.59127" lon="1.73372">
        <ele>263.39999389648</ele>
        <time>2021-02-16T12:29:46Z</time>
      </trkpt>
      <trkpt lat="48.59136" lon="1.73377">
        <ele>266.60000610352</ele>
        <time>2021-02-16T12:30:03Z</time>
      </trkpt>
      <trkpt lat="48.59132" lon="1.73388">
        <ele>267.60000610352</ele>
        <time>2021-02-16T12:30:18Z</time>
      </trkpt>
      <trkpt lat="48.59135" lon="1.73392">
        <ele>270.79998779297</ele>
        <time>2021-02-16T12:30:28Z</time>
      </trkpt>
      <trkpt lat="48.59146" lon="1.73401">
        <ele>274</ele>
        <time>2021-02-16T12:30:41Z</time>
      </trkpt>
      <trkpt lat="48.59152" lon="1.73413">
        <ele>277</ele>
        <time>2021-02-16T12:30:52Z</time>
      </trkpt>
      <trkpt lat="48.59156" lon="1.73418">
        <ele>280</ele>
        <time>2021-02-16T12:31:02Z</time>
      </trkpt>
      <trkpt lat="48.59177" lon="1.73424">
        <ele>282.39999389648</ele>
        <time>2021-02-16T12:31:26Z</time>
      </trkpt>
      <trkpt lat="48.59199" lon="1.73427">
        <ele>285</ele>
        <time>2021-02-16T12:31:54Z</time>
      </trkpt>
      <trkpt lat="48.59215" lon="1.7342">
        <ele>286.79998779297</ele>
        <time>2021-02-16T12:32:14Z</time>
      </trkpt>
      <trkpt lat="48.59217" lon="1.73414">
        <ele>286.60000610352</ele>
        <time>2021-02-16T12:32:42Z</time>
      </trkpt>
      <trkpt lat="48.59211" lon="1.73432">
        <ele>286.79998779297</ele>
        <time>2021-02-16T12:33:05Z</time>
      </trkpt>
      <trkpt lat="48.59204" lon="1.73464">
        <ele>287</ele>
        <time>2021-02-16T12:33:25Z</time>
      </trkpt>
      <trkpt lat="48.59194" lon="1.73497">
        <ele>287</ele>
        <time>2021-02-16T12:33:47Z</time>
      </trkpt>
      <trkpt lat="48.59191" lon="1.73508">
        <ele>287</ele>
        <time>2021-02-16T12:34:08Z</time>
      </trkpt>
      <trkpt lat="48.59189" lon="1.73522">
        <ele>287</ele>
        <time>2021-02-16T12:34:25Z</time>
      </trkpt>
      <trkpt lat="48.59182" lon="1.73551">
        <ele>286.60000610352</ele>
        <time>2021-02-16T12:34:45Z</time>
      </trkpt>
      <trkpt lat="48.59181" lon="1.73554">
        <ele>286.60000610352</ele>
        <time>2021-02-16T12:34:47Z</time>
      </trkpt>
      <trkpt lat="48.59181" lon="1.73583">
        <ele>286.60000610352</ele>
        <time>2021-02-16T12:35:04Z</time>
      </trkpt>
      <trkpt lat="48.59182" lon="1.73586">
        <ele>286.60000610352</ele>
        <time>2021-02-16T12:35:07Z</time>
      </trkpt>
      <trkpt lat="48.59194" lon="1.73615">
        <ele>288</ele>
        <time>2021-02-16T12:35:25Z</time>
      </trkpt>
      <trkpt lat="48.59198" lon="1.7363">
        <ele>288.39999389648</ele>
        <time>2021-02-16T12:35:37Z</time>
      </trkpt>
      <trkpt lat="48.5921" lon="1.73665">
        <ele>289.60000610352</ele>
        <time>2021-02-16T12:35:59Z</time>
      </trkpt>
      <trkpt lat="48.59214" lon="1.73675">
        <ele>290</ele>
        <time>2021-02-16T12:36:05Z</time>
      </trkpt>
      <trkpt lat="48.59224" lon="1.73694">
        <ele>290.39999389648</ele>
        <time>2021-02-16T12:36:21Z</time>
      </trkpt>
      <trkpt lat="48.59213" lon="1.73719">
        <ele>290.79998779297</ele>
        <time>2021-02-16T12:36:38Z</time>
      </trkpt>
      <trkpt lat="48.59208" lon="1.73727">
        <ele>290.79998779297</ele>
        <time>2021-02-16T12:36:44Z</time>
      </trkpt>
      <trkpt lat="48.59193" lon="1.73749">
        <ele>290.79998779297</ele>
        <time>2021-02-16T12:36:59Z</time>
      </trkpt>
      <trkpt lat="48.59184" lon="1.73761">
        <ele>290.39999389648</ele>
        <time>2021-02-16T12:37:16Z</time>
      </trkpt>
      <trkpt lat="48.59187" lon="1.73758">
        <ele>290.20001220703</ele>
        <time>2021-02-16T12:37:30Z</time>
      </trkpt>
      <trkpt lat="48.59198" lon="1.73748">
        <ele>290.20001220703</ele>
        <time>2021-02-16T12:37:39Z</time>
      </trkpt>
      <trkpt lat="48.59217" lon="1.73722">
        <ele>290.79998779297</ele>
        <time>2021-02-16T12:37:55Z</time>
      </trkpt>
      <trkpt lat="48.59227" lon="1.73709">
        <ele>291</ele>
        <time>2021-02-16T12:38:10Z</time>
      </trkpt>
      <trkpt lat="48.59228" lon="1.7371">
        <ele>291</ele>
        <time>2021-02-16T12:38:11Z</time>
      </trkpt>
      <trkpt lat="48.5924" lon="1.73722">
        <ele>291.20001220703</ele>
        <time>2021-02-16T12:38:29Z</time>
      </trkpt>
      <trkpt lat="48.5925" lon="1.73739">
        <ele>291.20001220703</ele>
        <time>2021-02-16T12:38:44Z</time>
      </trkpt>
      <trkpt lat="48.59259" lon="1.73762">
        <ele>291.39999389648</ele>
        <time>2021-02-16T12:39:01Z</time>
      </trkpt>
      <trkpt lat="48.59271" lon="1.73782">
        <ele>291.79998779297</ele>
        <time>2021-02-16T12:39:19Z</time>
      </trkpt>
      <trkpt lat="48.5928" lon="1.73793">
        <ele>291.79998779297</ele>
        <time>2021-02-16T12:39:28Z</time>
      </trkpt>
      <trkpt lat="48.5928" lon="1.73795">
        <ele>292</ele>
        <time>2021-02-16T12:39:29Z</time>
      </trkpt>
      <trkpt lat="48.59281" lon="1.73796">
        <ele>292</ele>
        <time>2021-02-16T12:39:30Z</time>
      </trkpt>
      <trkpt lat="48.59282" lon="1.73799">
        <ele>292</ele>
        <time>2021-02-16T12:39:33Z</time>
      </trkpt>
      <trkpt lat="48.59283" lon="1.738">
        <ele>292</ele>
        <time>2021-02-16T12:39:34Z</time>
      </trkpt>
      <trkpt lat="48.59283" lon="1.73802">
        <ele>292</ele>
        <time>2021-02-16T12:39:35Z</time>
      </trkpt>
      <trkpt lat="48.59283" lon="1.73803">
        <ele>292</ele>
        <time>2021-02-16T12:39:36Z</time>
      </trkpt>
      <trkpt lat="48.59284" lon="1.73805">
        <ele>292</ele>
        <time>2021-02-16T12:39:37Z</time>
      </trkpt>
      <trkpt lat="48.59284" lon="1.73806">
        <ele>292</ele>
        <time>2021-02-16T12:39:38Z</time>
      </trkpt>
      <trkpt lat="48.59286" lon="1.7381">
        <ele>292</ele>
        <time>2021-02-16T12:39:41Z</time>
      </trkpt>
      <trkpt lat="48.59287" lon="1.73811">
        <ele>292.20001220703</ele>
        <time>2021-02-16T12:39:42Z</time>
      </trkpt>
      <trkpt lat="48.59287" lon="1.73812">
        <ele>292.20001220703</ele>
        <time>2021-02-16T12:39:43Z</time>
      </trkpt>
      <trkpt lat="48.59296" lon="1.73831">
        <ele>292.20001220703</ele>
        <time>2021-02-16T12:39:58Z</time>
      </trkpt>
      <trkpt lat="48.59303" lon="1.73846">
        <ele>291.60000610352</ele>
        <time>2021-02-16T12:40:10Z</time>
      </trkpt>
      <trkpt lat="48.5931" lon="1.73859">
        <ele>291.79998779297</ele>
        <time>2021-02-16T12:40:22Z</time>
      </trkpt>
      <trkpt lat="48.59311" lon="1.73862">
        <ele>292</ele>
        <time>2021-02-16T12:40:24Z</time>
      </trkpt>
      <trkpt lat="48.59312" lon="1.73867">
        <ele>292</ele>
        <time>2021-02-16T12:40:27Z</time>
      </trkpt>
      <trkpt lat="48.59312" lon="1.73869">
        <ele>292</ele>
        <time>2021-02-16T12:40:28Z</time>
      </trkpt>
      <trkpt lat="48.59312" lon="1.73871">
        <ele>292</ele>
        <time>2021-02-16T12:40:29Z</time>
      </trkpt>
      <trkpt lat="48.59313" lon="1.73872">
        <ele>292</ele>
        <time>2021-02-16T12:40:30Z</time>
      </trkpt>
      <trkpt lat="48.59318" lon="1.73891">
        <ele>292</ele>
        <time>2021-02-16T12:40:44Z</time>
      </trkpt>
      <trkpt lat="48.59321" lon="1.7391">
        <ele>292.20001220703</ele>
        <time>2021-02-16T12:40:56Z</time>
      </trkpt>
      <trkpt lat="48.59324" lon="1.73916">
        <ele>292</ele>
        <time>2021-02-16T12:41:00Z</time>
      </trkpt>
      <trkpt lat="48.59331" lon="1.73915">
        <ele>292</ele>
        <time>2021-02-16T12:41:06Z</time>
      </trkpt>
      <trkpt lat="48.59349" lon="1.73901">
        <ele>291.79998779297</ele>
        <time>2021-02-16T12:41:24Z</time>
      </trkpt>
      <trkpt lat="48.59365" lon="1.73889">
        <ele>292.20001220703</ele>
        <time>2021-02-16T12:41:40Z</time>
      </trkpt>
      <trkpt lat="48.59368" lon="1.73887">
        <ele>292.39999389648</ele>
        <time>2021-02-16T12:41:43Z</time>
      </trkpt>
      <trkpt lat="48.59378" lon="1.73879">
        <ele>292.39999389648</ele>
        <time>2021-02-16T12:41:55Z</time>
      </trkpt>
      <trkpt lat="48.59392" lon="1.73875">
        <ele>293</ele>
        <time>2021-02-16T12:42:10Z</time>
      </trkpt>
      <trkpt lat="48.59397" lon="1.73888">
        <ele>293.39999389648</ele>
        <time>2021-02-16T12:42:21Z</time>
      </trkpt>
      <trkpt lat="48.59398" lon="1.739">
        <ele>293.39999389648</ele>
        <time>2021-02-16T12:42:29Z</time>
      </trkpt>
      <trkpt lat="48.59398" lon="1.73904">
        <ele>293.39999389648</ele>
        <time>2021-02-16T12:42:31Z</time>
      </trkpt>
      <trkpt lat="48.59398" lon="1.73913">
        <ele>293.39999389648</ele>
        <time>2021-02-16T12:42:36Z</time>
      </trkpt>
      <trkpt lat="48.59397" lon="1.73919">
        <ele>293.39999389648</ele>
        <time>2021-02-16T12:42:39Z</time>
      </trkpt>
      <trkpt lat="48.59397" lon="1.73921">
        <ele>293.39999389648</ele>
        <time>2021-02-16T12:42:40Z</time>
      </trkpt>
      <trkpt lat="48.59397" lon="1.73923">
        <ele>293.39999389648</ele>
        <time>2021-02-16T12:42:41Z</time>
      </trkpt>
      <trkpt lat="48.59399" lon="1.73941">
        <ele>293.20001220703</ele>
        <time>2021-02-16T12:42:52Z</time>
      </trkpt>
      <trkpt lat="48.59401" lon="1.73959">
        <ele>293.20001220703</ele>
        <time>2021-02-16T12:43:03Z</time>
      </trkpt>
      <trkpt lat="48.59403" lon="1.73974">
        <ele>293.39999389648</ele>
        <time>2021-02-16T12:43:11Z</time>
      </trkpt>
      <trkpt lat="48.59403" lon="1.73979">
        <ele>293.20001220703</ele>
        <time>2021-02-16T12:43:13Z</time>
      </trkpt>
      <trkpt lat="48.59403" lon="1.7398">
        <ele>293.20001220703</ele>
        <time>2021-02-16T12:43:14Z</time>
      </trkpt>
      <trkpt lat="48.59404" lon="1.73982">
        <ele>293.20001220703</ele>
        <time>2021-02-16T12:43:15Z</time>
      </trkpt>
      <trkpt lat="48.59405" lon="1.73984">
        <ele>293</ele>
        <time>2021-02-16T12:43:17Z</time>
      </trkpt>
      <trkpt lat="48.59408" lon="1.74008">
        <ele>293</ele>
        <time>2021-02-16T12:43:32Z</time>
      </trkpt>
      <trkpt lat="48.59412" lon="1.74029">
        <ele>293</ele>
        <time>2021-02-16T12:43:44Z</time>
      </trkpt>
      <trkpt lat="48.59415" lon="1.74039">
        <ele>293.20001220703</ele>
        <time>2021-02-16T12:43:50Z</time>
      </trkpt>
      <trkpt lat="48.5942" lon="1.7405">
        <ele>293</ele>
        <time>2021-02-16T12:43:58Z</time>
      </trkpt>
      <trkpt lat="48.59423" lon="1.74074">
        <ele>292.79998779297</ele>
        <time>2021-02-16T12:44:12Z</time>
      </trkpt>
      <trkpt lat="48.59424" lon="1.74093">
        <ele>292.60000610352</ele>
        <time>2021-02-16T12:44:22Z</time>
      </trkpt>
      <trkpt lat="48.59431" lon="1.74116">
        <ele>292.60000610352</ele>
        <time>2021-02-16T12:44:38Z</time>
      </trkpt>
      <trkpt lat="48.59434" lon="1.7413">
        <ele>292.39999389648</ele>
        <time>2021-02-16T12:44:47Z</time>
      </trkpt>
      <trkpt lat="48.59435" lon="1.74142">
        <ele>292.39999389648</ele>
        <time>2021-02-16T12:44:52Z</time>
      </trkpt>
      <trkpt lat="48.5944" lon="1.74172">
        <ele>292.20001220703</ele>
        <time>2021-02-16T12:45:09Z</time>
      </trkpt>
      <trkpt lat="48.5944" lon="1.74173">
        <ele>292.20001220703</ele>
        <time>2021-02-16T12:45:10Z</time>
      </trkpt>
      <trkpt lat="48.59444" lon="1.74186">
        <ele>292.20001220703</ele>
        <time>2021-02-16T12:45:19Z</time>
      </trkpt>
      <trkpt lat="48.59451" lon="1.74217">
        <ele>292.20001220703</ele>
        <time>2021-02-16T12:45:35Z</time>
      </trkpt>
      <trkpt lat="48.59457" lon="1.7423">
        <ele>292.20001220703</ele>
        <time>2021-02-16T12:45:47Z</time>
      </trkpt>
      <trkpt lat="48.59459" lon="1.74232">
        <ele>292.20001220703</ele>
        <time>2021-02-16T12:45:49Z</time>
      </trkpt>
      <trkpt lat="48.59461" lon="1.74238">
        <ele>292.20001220703</ele>
        <time>2021-02-16T12:45:54Z</time>
      </trkpt>
      <trkpt lat="48.59465" lon="1.74245">
        <ele>292.20001220703</ele>
        <time>2021-02-16T12:45:58Z</time>
      </trkpt>
      <trkpt lat="48.59474" lon="1.74262">
        <ele>292.39999389648</ele>
        <time>2021-02-16T12:46:11Z</time>
      </trkpt>
      <trkpt lat="48.59479" lon="1.74268">
        <ele>292.20001220703</ele>
        <time>2021-02-16T12:46:17Z</time>
      </trkpt>
      <trkpt lat="48.59486" lon="1.7428">
        <ele>292.20001220703</ele>
        <time>2021-02-16T12:46:27Z</time>
      </trkpt>
      <trkpt lat="48.59497" lon="1.74297">
        <ele>292.20001220703</ele>
        <time>2021-02-16T12:46:41Z</time>
      </trkpt>
      <trkpt lat="48.59502" lon="1.74303">
        <ele>292.20001220703</ele>
        <time>2021-02-16T12:46:46Z</time>
      </trkpt>
      <trkpt lat="48.59504" lon="1.74309">
        <ele>292.20001220703</ele>
        <time>2021-02-16T12:46:50Z</time>
      </trkpt>
      <trkpt lat="48.59505" lon="1.74311">
        <ele>292.20001220703</ele>
        <time>2021-02-16T12:46:52Z</time>
      </trkpt>
      <trkpt lat="48.59517" lon="1.74327">
        <ele>292</ele>
        <time>2021-02-16T12:47:05Z</time>
      </trkpt>
      <trkpt lat="48.59518" lon="1.74328">
        <ele>292</ele>
        <time>2021-02-16T12:47:06Z</time>
      </trkpt>
      <trkpt lat="48.59525" lon="1.74347">
        <ele>291.79998779297</ele>
        <time>2021-02-16T12:47:18Z</time>
      </trkpt>
      <trkpt lat="48.59526" lon="1.74353">
        <ele>291.60000610352</ele>
        <time>2021-02-16T12:47:21Z</time>
      </trkpt>
      <trkpt lat="48.59527" lon="1.74358">
        <ele>291.60000610352</ele>
        <time>2021-02-16T12:47:24Z</time>
      </trkpt>
      <trkpt lat="48.5953" lon="1.74363">
        <ele>291.79998779297</ele>
        <time>2021-02-16T12:47:28Z</time>
      </trkpt>
      <trkpt lat="48.59534" lon="1.74377">
        <ele>291.79998779297</ele>
        <time>2021-02-16T12:47:35Z</time>
      </trkpt>
      <trkpt lat="48.59534" lon="1.74378">
        <ele>291.79998779297</ele>
        <time>2021-02-16T12:47:36Z</time>
      </trkpt>
      <trkpt lat="48.59535" lon="1.74379">
        <ele>291.79998779297</ele>
        <time>2021-02-16T12:47:37Z</time>
      </trkpt>
      <trkpt lat="48.59536" lon="1.7438">
        <ele>292</ele>
        <time>2021-02-16T12:47:38Z</time>
      </trkpt>
      <trkpt lat="48.59537" lon="1.74381">
        <ele>292</ele>
        <time>2021-02-16T12:47:39Z</time>
      </trkpt>
      <trkpt lat="48.5954" lon="1.74385">
        <ele>292</ele>
        <time>2021-02-16T12:47:42Z</time>
      </trkpt>
      <trkpt lat="48.59541" lon="1.74388">
        <ele>292</ele>
        <time>2021-02-16T12:47:44Z</time>
      </trkpt>
      <trkpt lat="48.59543" lon="1.74396">
        <ele>292</ele>
        <time>2021-02-16T12:47:49Z</time>
      </trkpt>
      <trkpt lat="48.59547" lon="1.74409">
        <ele>292.39999389648</ele>
        <time>2021-02-16T12:47:58Z</time>
      </trkpt>
      <trkpt lat="48.59553" lon="1.74425">
        <ele>292.60000610352</ele>
        <time>2021-02-16T12:48:09Z</time>
      </trkpt>
      <trkpt lat="48.59557" lon="1.74441">
        <ele>292.60000610352</ele>
        <time>2021-02-16T12:48:19Z</time>
      </trkpt>
      <trkpt lat="48.59558" lon="1.74446">
        <ele>292.60000610352</ele>
        <time>2021-02-16T12:48:22Z</time>
      </trkpt>
      <trkpt lat="48.59559" lon="1.74448">
        <ele>292.60000610352</ele>
        <time>2021-02-16T12:48:23Z</time>
      </trkpt>
      <trkpt lat="48.59561" lon="1.74454">
        <ele>292.60000610352</ele>
        <time>2021-02-16T12:48:27Z</time>
      </trkpt>
      <trkpt lat="48.59564" lon="1.74459">
        <ele>292.79998779297</ele>
        <time>2021-02-16T12:48:30Z</time>
      </trkpt>
      <trkpt lat="48.59564" lon="1.7446">
        <ele>292.79998779297</ele>
        <time>2021-02-16T12:48:31Z</time>
      </trkpt>
      <trkpt lat="48.59565" lon="1.74463">
        <ele>292.79998779297</ele>
        <time>2021-02-16T12:48:33Z</time>
      </trkpt>
      <trkpt lat="48.5957" lon="1.7447">
        <ele>293</ele>
        <time>2021-02-16T12:48:40Z</time>
      </trkpt>
      <trkpt lat="48.59583" lon="1.7448">
        <ele>292.79998779297</ele>
        <time>2021-02-16T12:48:53Z</time>
      </trkpt>
      <trkpt lat="48.59597" lon="1.74478">
        <ele>292.79998779297</ele>
        <time>2021-02-16T12:49:02Z</time>
      </trkpt>
      <trkpt lat="48.59605" lon="1.74471">
        <ele>292.60000610352</ele>
        <time>2021-02-16T12:49:07Z</time>
      </trkpt>
      <trkpt lat="48.59617" lon="1.74468">
        <ele>292.39999389648</ele>
        <time>2021-02-16T12:49:14Z</time>
      </trkpt>
      <trkpt lat="48.59632" lon="1.74458">
        <ele>292.79998779297</ele>
        <time>2021-02-16T12:49:26Z</time>
      </trkpt>
      <trkpt lat="48.59633" lon="1.74456">
        <ele>293</ele>
        <time>2021-02-16T12:49:27Z</time>
      </trkpt>
      <trkpt lat="48.59634" lon="1.74455">
        <ele>293</ele>
        <time>2021-02-16T12:49:28Z</time>
      </trkpt>
      <trkpt lat="48.59635" lon="1.74453">
        <ele>293</ele>
        <time>2021-02-16T12:49:29Z</time>
      </trkpt>
      <trkpt lat="48.59636" lon="1.74452">
        <ele>293</ele>
        <time>2021-02-16T12:49:30Z</time>
      </trkpt>
      <trkpt lat="48.59638" lon="1.74451">
        <ele>293</ele>
        <time>2021-02-16T12:49:31Z</time>
      </trkpt>
      <trkpt lat="48.5964" lon="1.7445">
        <ele>293</ele>
        <time>2021-02-16T12:49:33Z</time>
      </trkpt>
      <trkpt lat="48.59642" lon="1.74448">
        <ele>292.79998779297</ele>
        <time>2021-02-16T12:49:35Z</time>
      </trkpt>
      <trkpt lat="48.59645" lon="1.74444">
        <ele>292.79998779297</ele>
        <time>2021-02-16T12:49:38Z</time>
      </trkpt>
      <trkpt lat="48.59647" lon="1.74442">
        <ele>292.79998779297</ele>
        <time>2021-02-16T12:49:40Z</time>
      </trkpt>
      <trkpt lat="48.59651" lon="1.7444">
        <ele>292.60000610352</ele>
        <time>2021-02-16T12:49:44Z</time>
      </trkpt>
      <trkpt lat="48.59652" lon="1.74439">
        <ele>292.60000610352</ele>
        <time>2021-02-16T12:49:45Z</time>
      </trkpt>
      <trkpt lat="48.59653" lon="1.74439">
        <ele>292.60000610352</ele>
        <time>2021-02-16T12:49:46Z</time>
      </trkpt>
      <trkpt lat="48.59666" lon="1.74432">
        <ele>292.60000610352</ele>
        <time>2021-02-16T12:49:57Z</time>
      </trkpt>
      <trkpt lat="48.59667" lon="1.74431">
        <ele>292.39999389648</ele>
        <time>2021-02-16T12:49:58Z</time>
      </trkpt>
      <trkpt lat="48.59668" lon="1.7443">
        <ele>292.39999389648</ele>
        <time>2021-02-16T12:49:59Z</time>
      </trkpt>
      <trkpt lat="48.59669" lon="1.74429">
        <ele>292.60000610352</ele>
        <time>2021-02-16T12:50:00Z</time>
      </trkpt>
      <trkpt lat="48.59679" lon="1.74423">
        <ele>292.60000610352</ele>
        <time>2021-02-16T12:50:11Z</time>
      </trkpt>
      <trkpt lat="48.5968" lon="1.74423">
        <ele>292.60000610352</ele>
        <time>2021-02-16T12:50:12Z</time>
      </trkpt>
      <trkpt lat="48.59684" lon="1.74421">
        <ele>292.60000610352</ele>
        <time>2021-02-16T12:50:15Z</time>
      </trkpt>
      <trkpt lat="48.59701" lon="1.74405">
        <ele>292.79998779297</ele>
        <time>2021-02-16T12:50:29Z</time>
      </trkpt>
      <trkpt lat="48.59703" lon="1.74404">
        <ele>292.79998779297</ele>
        <time>2021-02-16T12:50:30Z</time>
      </trkpt>
      <trkpt lat="48.59704" lon="1.74404">
        <ele>293</ele>
        <time>2021-02-16T12:50:31Z</time>
      </trkpt>
      <trkpt lat="48.59705" lon="1.74403">
        <ele>293</ele>
        <time>2021-02-16T12:50:32Z</time>
      </trkpt>
      <trkpt lat="48.59706" lon="1.74402">
        <ele>293</ele>
        <time>2021-02-16T12:50:33Z</time>
      </trkpt>
      <trkpt lat="48.59707" lon="1.74401">
        <ele>293</ele>
        <time>2021-02-16T12:50:34Z</time>
      </trkpt>
      <trkpt lat="48.59708" lon="1.744">
        <ele>293</ele>
        <time>2021-02-16T12:50:35Z</time>
      </trkpt>
      <trkpt lat="48.5971" lon="1.74398">
        <ele>293</ele>
        <time>2021-02-16T12:50:37Z</time>
      </trkpt>
      <trkpt lat="48.59711" lon="1.74397">
        <ele>293</ele>
        <time>2021-02-16T12:50:38Z</time>
      </trkpt>
      <trkpt lat="48.59719" lon="1.74393">
        <ele>292.79998779297</ele>
        <time>2021-02-16T12:50:45Z</time>
      </trkpt>
      <trkpt lat="48.59731" lon="1.74385">
        <ele>293</ele>
        <time>2021-02-16T12:50:58Z</time>
      </trkpt>
      <trkpt lat="48.5974" lon="1.74377">
        <ele>293</ele>
        <time>2021-02-16T12:51:08Z</time>
      </trkpt>
      <trkpt lat="48.59757" lon="1.74366">
        <ele>293</ele>
        <time>2021-02-16T12:51:22Z</time>
      </trkpt>
      <trkpt lat="48.59759" lon="1.74364">
        <ele>293</ele>
        <time>2021-02-16T12:51:24Z</time>
      </trkpt>
      <trkpt lat="48.59767" lon="1.74357">
        <ele>293</ele>
        <time>2021-02-16T12:51:35Z</time>
      </trkpt>
      <trkpt lat="48.59776" lon="1.74353">
        <ele>293.20001220703</ele>
        <time>2021-02-16T12:51:45Z</time>
      </trkpt>
      <trkpt lat="48.59788" lon="1.74345">
        <ele>293.20001220703</ele>
        <time>2021-02-16T12:51:57Z</time>
      </trkpt>
      <trkpt lat="48.598" lon="1.74332">
        <ele>293.39999389648</ele>
        <time>2021-02-16T12:52:12Z</time>
      </trkpt>
      <trkpt lat="48.59813" lon="1.74323">
        <ele>293.60000610352</ele>
        <time>2021-02-16T12:52:26Z</time>
      </trkpt>
      <trkpt lat="48.59828" lon="1.74316">
        <ele>293.79998779297</ele>
        <time>2021-02-16T12:52:40Z</time>
      </trkpt>
      <trkpt lat="48.59844" lon="1.74303">
        <ele>293.60000610352</ele>
        <time>2021-02-16T12:52:57Z</time>
      </trkpt>
      <trkpt lat="48.59852" lon="1.74298">
        <ele>293.60000610352</ele>
        <time>2021-02-16T12:53:06Z</time>
      </trkpt>
      <trkpt lat="48.59864" lon="1.7429">
        <ele>293.60000610352</ele>
        <time>2021-02-16T12:53:18Z</time>
      </trkpt>
      <trkpt lat="48.59873" lon="1.7428">
        <ele>293.39999389648</ele>
        <time>2021-02-16T12:53:29Z</time>
      </trkpt>
      <trkpt lat="48.59883" lon="1.74274">
        <ele>293.39999389648</ele>
        <time>2021-02-16T12:53:39Z</time>
      </trkpt>
      <trkpt lat="48.59894" lon="1.74265">
        <ele>293.20001220703</ele>
        <time>2021-02-16T12:53:51Z</time>
      </trkpt>
      <trkpt lat="48.59909" lon="1.74256">
        <ele>293.39999389648</ele>
        <time>2021-02-16T12:54:05Z</time>
      </trkpt>
      <trkpt lat="48.59919" lon="1.74247">
        <ele>293.39999389648</ele>
        <time>2021-02-16T12:54:16Z</time>
      </trkpt>
      <trkpt lat="48.59932" lon="1.74238">
        <ele>293.60000610352</ele>
        <time>2021-02-16T12:54:27Z</time>
      </trkpt>
      <trkpt lat="48.59933" lon="1.74237">
        <ele>293.60000610352</ele>
        <time>2021-02-16T12:54:28Z</time>
      </trkpt>
      <trkpt lat="48.59937" lon="1.74236">
        <ele>293.60000610352</ele>
        <time>2021-02-16T12:54:32Z</time>
      </trkpt>
      <trkpt lat="48.59938" lon="1.74235">
        <ele>293.60000610352</ele>
        <time>2021-02-16T12:54:33Z</time>
      </trkpt>
      <trkpt lat="48.59942" lon="1.74232">
        <ele>293.60000610352</ele>
        <time>2021-02-16T12:54:36Z</time>
      </trkpt>
      <trkpt lat="48.59952" lon="1.74225">
        <ele>293.60000610352</ele>
        <time>2021-02-16T12:54:47Z</time>
      </trkpt>
      <trkpt lat="48.59964" lon="1.74216">
        <ele>293.39999389648</ele>
        <time>2021-02-16T12:55:00Z</time>
      </trkpt>
      <trkpt lat="48.59965" lon="1.74215">
        <ele>293.39999389648</ele>
        <time>2021-02-16T12:55:01Z</time>
      </trkpt>
      <trkpt lat="48.59977" lon="1.74207">
        <ele>293.60000610352</ele>
        <time>2021-02-16T12:55:13Z</time>
      </trkpt>
      <trkpt lat="48.59993" lon="1.74196">
        <ele>293.79998779297</ele>
        <time>2021-02-16T12:55:30Z</time>
      </trkpt>
      <trkpt lat="48.60004" lon="1.74188">
        <ele>293.79998779297</ele>
        <time>2021-02-16T12:55:42Z</time>
      </trkpt>
      <trkpt lat="48.60014" lon="1.74179">
        <ele>293.79998779297</ele>
        <time>2021-02-16T12:55:54Z</time>
      </trkpt>
      <trkpt lat="48.6003" lon="1.74169">
        <ele>294</ele>
        <time>2021-02-16T12:56:09Z</time>
      </trkpt>
      <trkpt lat="48.60038" lon="1.74162">
        <ele>294</ele>
        <time>2021-02-16T12:56:19Z</time>
      </trkpt>
      <trkpt lat="48.60043" lon="1.74159">
        <ele>294</ele>
        <time>2021-02-16T12:56:24Z</time>
      </trkpt>
      <trkpt lat="48.60057" lon="1.74147">
        <ele>294</ele>
        <time>2021-02-16T12:56:37Z</time>
      </trkpt>
      <trkpt lat="48.60061" lon="1.74144">
        <ele>294</ele>
        <time>2021-02-16T12:56:41Z</time>
      </trkpt>
      <trkpt lat="48.60065" lon="1.7414">
        <ele>293.79998779297</ele>
        <time>2021-02-16T12:56:46Z</time>
      </trkpt>
      <trkpt lat="48.60074" lon="1.74134">
        <ele>294</ele>
        <time>2021-02-16T12:56:56Z</time>
      </trkpt>
      <trkpt lat="48.60082" lon="1.74128">
        <ele>294.20001220703</ele>
        <time>2021-02-16T12:57:03Z</time>
      </trkpt>
      <trkpt lat="48.60086" lon="1.74123">
        <ele>294.20001220703</ele>
        <time>2021-02-16T12:57:08Z</time>
      </trkpt>
      <trkpt lat="48.60097" lon="1.74116">
        <ele>294.20001220703</ele>
        <time>2021-02-16T12:57:18Z</time>
      </trkpt>
      <trkpt lat="48.60106" lon="1.74111">
        <ele>294.39999389648</ele>
        <time>2021-02-16T12:57:26Z</time>
      </trkpt>
      <trkpt lat="48.60107" lon="1.7411">
        <ele>294.39999389648</ele>
        <time>2021-02-16T12:57:27Z</time>
      </trkpt>
      <trkpt lat="48.60108" lon="1.74109">
        <ele>294.60000610352</ele>
        <time>2021-02-16T12:57:28Z</time>
      </trkpt>
      <trkpt lat="48.60109" lon="1.74108">
        <ele>294.60000610352</ele>
        <time>2021-02-16T12:57:29Z</time>
      </trkpt>
      <trkpt lat="48.6011" lon="1.74107">
        <ele>294.60000610352</ele>
        <time>2021-02-16T12:57:30Z</time>
      </trkpt>
      <trkpt lat="48.60122" lon="1.74099">
        <ele>294.79998779297</ele>
        <time>2021-02-16T12:57:43Z</time>
      </trkpt>
      <trkpt lat="48.60125" lon="1.74095">
        <ele>295</ele>
        <time>2021-02-16T12:57:46Z</time>
      </trkpt>
      <trkpt lat="48.60127" lon="1.74094">
        <ele>295</ele>
        <time>2021-02-16T12:57:48Z</time>
      </trkpt>
      <trkpt lat="48.6013" lon="1.74093">
        <ele>295.20001220703</ele>
        <time>2021-02-16T12:57:51Z</time>
      </trkpt>
      <trkpt lat="48.6014" lon="1.74086">
        <ele>295.39999389648</ele>
        <time>2021-02-16T12:58:01Z</time>
      </trkpt>
      <trkpt lat="48.60151" lon="1.7408">
        <ele>295.60000610352</ele>
        <time>2021-02-16T12:58:12Z</time>
      </trkpt>
      <trkpt lat="48.60165" lon="1.74071">
        <ele>296</ele>
        <time>2021-02-16T12:58:25Z</time>
      </trkpt>
      <trkpt lat="48.60181" lon="1.74057">
        <ele>296.39999389648</ele>
        <time>2021-02-16T12:58:42Z</time>
      </trkpt>
      <trkpt lat="48.60192" lon="1.7405">
        <ele>296.60000610352</ele>
        <time>2021-02-16T12:58:53Z</time>
      </trkpt>
      <trkpt lat="48.60204" lon="1.74042">
        <ele>296.79998779297</ele>
        <time>2021-02-16T12:59:05Z</time>
      </trkpt>
      <trkpt lat="48.60216" lon="1.74031">
        <ele>297</ele>
        <time>2021-02-16T12:59:19Z</time>
      </trkpt>
      <trkpt lat="48.6023" lon="1.74024">
        <ele>297.20001220703</ele>
        <time>2021-02-16T12:59:33Z</time>
      </trkpt>
      <trkpt lat="48.60244" lon="1.74012">
        <ele>297</ele>
        <time>2021-02-16T12:59:49Z</time>
      </trkpt>
      <trkpt lat="48.60259" lon="1.73997">
        <ele>297</ele>
        <time>2021-02-16T13:00:07Z</time>
      </trkpt>
      <trkpt lat="48.60268" lon="1.73988">
        <ele>297.20001220703</ele>
        <time>2021-02-16T13:00:20Z</time>
      </trkpt>
      <trkpt lat="48.60272" lon="1.73987">
        <ele>297.39999389648</ele>
        <time>2021-02-16T13:00:25Z</time>
      </trkpt>
      <trkpt lat="48.60283" lon="1.73979">
        <ele>297.20001220703</ele>
        <time>2021-02-16T13:00:37Z</time>
      </trkpt>
      <trkpt lat="48.60293" lon="1.73972">
        <ele>297.20001220703</ele>
        <time>2021-02-16T13:00:49Z</time>
      </trkpt>
      <trkpt lat="48.60295" lon="1.7397">
        <ele>297.20001220703</ele>
        <time>2021-02-16T13:00:51Z</time>
      </trkpt>
      <trkpt lat="48.60299" lon="1.73968">
        <ele>297</ele>
        <time>2021-02-16T13:00:55Z</time>
      </trkpt>
      <trkpt lat="48.603" lon="1.73967">
        <ele>297</ele>
        <time>2021-02-16T13:00:56Z</time>
      </trkpt>
      <trkpt lat="48.60313" lon="1.73958">
        <ele>296.79998779297</ele>
        <time>2021-02-16T13:01:11Z</time>
      </trkpt>
      <trkpt lat="48.60324" lon="1.73953">
        <ele>296.79998779297</ele>
        <time>2021-02-16T13:01:20Z</time>
      </trkpt>
      <trkpt lat="48.60336" lon="1.73941">
        <ele>296.60000610352</ele>
        <time>2021-02-16T13:02:14Z</time>
      </trkpt>
      <trkpt lat="48.60326" lon="1.73939">
        <ele>296.60000610352</ele>
        <time>2021-02-16T13:02:46Z</time>
      </trkpt>
      <trkpt lat="48.60301" lon="1.7395">
        <ele>297.20001220703</ele>
        <time>2021-02-16T13:03:23Z</time>
      </trkpt>
      <trkpt lat="48.60305" lon="1.73951">
        <ele>297.20001220703</ele>
        <time>2021-02-16T13:03:43Z</time>
      </trkpt>
      <trkpt lat="48.60321" lon="1.73957">
        <ele>297.20001220703</ele>
        <time>2021-02-16T13:03:49Z</time>
      </trkpt>
      <trkpt lat="48.60323" lon="1.73956">
        <ele>297.20001220703</ele>
        <time>2021-02-16T13:03:50Z</time>
      </trkpt>
      <trkpt lat="48.60342" lon="1.73945">
        <ele>297.20001220703</ele>
        <time>2021-02-16T13:04:03Z</time>
      </trkpt>
      <trkpt lat="48.60353" lon="1.73934">
        <ele>297.20001220703</ele>
        <time>2021-02-16T13:04:15Z</time>
      </trkpt>
      <trkpt lat="48.60371" lon="1.73915">
        <ele>297.20001220703</ele>
        <time>2021-02-16T13:04:29Z</time>
      </trkpt>
      <trkpt lat="48.60385" lon="1.73901">
        <ele>297.20001220703</ele>
        <time>2021-02-16T13:04:43Z</time>
      </trkpt>
      <trkpt lat="48.60394" lon="1.73889">
        <ele>297</ele>
        <time>2021-02-16T13:04:55Z</time>
      </trkpt>
      <trkpt lat="48.60402" lon="1.73865">
        <ele>297.20001220703</ele>
        <time>2021-02-16T13:05:13Z</time>
      </trkpt>
      <trkpt lat="48.6042" lon="1.7384">
        <ele>297.20001220703</ele>
        <time>2021-02-16T13:05:37Z</time>
      </trkpt>
      <trkpt lat="48.6043" lon="1.73821">
        <ele>297.39999389648</ele>
        <time>2021-02-16T13:05:53Z</time>
      </trkpt>
      <trkpt lat="48.6044" lon="1.7381">
        <ele>297.39999389648</ele>
        <time>2021-02-16T13:06:05Z</time>
      </trkpt>
      <trkpt lat="48.60447" lon="1.73803">
        <ele>297.39999389648</ele>
        <time>2021-02-16T13:06:13Z</time>
      </trkpt>
      <trkpt lat="48.60459" lon="1.73791">
        <ele>297.39999389648</ele>
        <time>2021-02-16T13:06:25Z</time>
      </trkpt>
      <trkpt lat="48.60472" lon="1.73775">
        <ele>297.39999389648</ele>
        <time>2021-02-16T13:06:42Z</time>
      </trkpt>
      <trkpt lat="48.60479" lon="1.7375">
        <ele>297.39999389648</ele>
        <time>2021-02-16T13:06:59Z</time>
      </trkpt>
      <trkpt lat="48.60488" lon="1.73721">
        <ele>297.39999389648</ele>
        <time>2021-02-16T13:07:18Z</time>
      </trkpt>
      <trkpt lat="48.60495" lon="1.73703">
        <ele>297.39999389648</ele>
        <time>2021-02-16T13:07:32Z</time>
      </trkpt>
      <trkpt lat="48.605" lon="1.73681">
        <ele>297.39999389648</ele>
        <time>2021-02-16T13:07:46Z</time>
      </trkpt>
      <trkpt lat="48.60505" lon="1.73674">
        <ele>297.60000610352</ele>
        <time>2021-02-16T13:07:51Z</time>
      </trkpt>
      <trkpt lat="48.60505" lon="1.73673">
        <ele>297.60000610352</ele>
        <time>2021-02-16T13:07:52Z</time>
      </trkpt>
      <trkpt lat="48.60513" lon="1.73652">
        <ele>298</ele>
        <time>2021-02-16T13:08:08Z</time>
      </trkpt>
      <trkpt lat="48.60522" lon="1.7363">
        <ele>298</ele>
        <time>2021-02-16T13:08:25Z</time>
      </trkpt>
      <trkpt lat="48.60533" lon="1.73606">
        <ele>298.60000610352</ele>
        <time>2021-02-16T13:08:42Z</time>
      </trkpt>
      <trkpt lat="48.6054" lon="1.73589">
        <ele>298.79998779297</ele>
        <time>2021-02-16T13:08:56Z</time>
      </trkpt>
      <trkpt lat="48.60549" lon="1.73571">
        <ele>299.20001220703</ele>
        <time>2021-02-16T13:09:11Z</time>
      </trkpt>
      <trkpt lat="48.60552" lon="1.73558">
        <ele>299.39999389648</ele>
        <time>2021-02-16T13:09:24Z</time>
      </trkpt>
      <trkpt lat="48.60557" lon="1.73543">
        <ele>299.39999389648</ele>
        <time>2021-02-16T13:09:39Z</time>
      </trkpt>
      <trkpt lat="48.60559" lon="1.73532">
        <ele>299.39999389648</ele>
        <time>2021-02-16T13:09:58Z</time>
      </trkpt>
      <trkpt lat="48.60563" lon="1.73527">
        <ele>299.39999389648</ele>
        <time>2021-02-16T13:10:17Z</time>
      </trkpt>
      <trkpt lat="48.60564" lon="1.73515">
        <ele>299.39999389648</ele>
        <time>2021-02-16T13:10:30Z</time>
      </trkpt>
      <trkpt lat="48.60568" lon="1.73494">
        <ele>299.39999389648</ele>
        <time>2021-02-16T13:10:46Z</time>
      </trkpt>
      <trkpt lat="48.60569" lon="1.73488">
        <ele>299.39999389648</ele>
        <time>2021-02-16T13:10:50Z</time>
      </trkpt>
      <trkpt lat="48.60569" lon="1.73486">
        <ele>299.39999389648</ele>
        <time>2021-02-16T13:10:51Z</time>
      </trkpt>
      <trkpt lat="48.60569" lon="1.73485">
        <ele>299.39999389648</ele>
        <time>2021-02-16T13:10:52Z</time>
      </trkpt>
      <trkpt lat="48.60569" lon="1.73483">
        <ele>299.39999389648</ele>
        <time>2021-02-16T13:10:53Z</time>
      </trkpt>
      <trkpt lat="48.60573" lon="1.73468">
        <ele>299.39999389648</ele>
        <time>2021-02-16T13:11:04Z</time>
      </trkpt>
      <trkpt lat="48.60578" lon="1.73451">
        <ele>299.79998779297</ele>
        <time>2021-02-16T13:11:17Z</time>
      </trkpt>
      <trkpt lat="48.60579" lon="1.73445">
        <ele>299.79998779297</ele>
        <time>2021-02-16T13:11:21Z</time>
      </trkpt>
      <trkpt lat="48.60582" lon="1.73428">
        <ele>299.39999389648</ele>
        <time>2021-02-16T13:11:34Z</time>
      </trkpt>
      <trkpt lat="48.60586" lon="1.73411">
        <ele>299.60000610352</ele>
        <time>2021-02-16T13:11:47Z</time>
      </trkpt>
      <trkpt lat="48.60587" lon="1.73393">
        <ele>299.39999389648</ele>
        <time>2021-02-16T13:12:03Z</time>
      </trkpt>
      <trkpt lat="48.60593" lon="1.73378">
        <ele>299.60000610352</ele>
        <time>2021-02-16T13:12:16Z</time>
      </trkpt>
      <trkpt lat="48.60595" lon="1.73372">
        <ele>299.20001220703</ele>
        <time>2021-02-16T13:12:22Z</time>
      </trkpt>
      <trkpt lat="48.60599" lon="1.73355">
        <ele>299</ele>
        <time>2021-02-16T13:12:34Z</time>
      </trkpt>
      <trkpt lat="48.60603" lon="1.73343">
        <ele>298.79998779297</ele>
        <time>2021-02-16T13:12:46Z</time>
      </trkpt>
      <trkpt lat="48.60616" lon="1.73351">
        <ele>299</ele>
        <time>2021-02-16T13:13:03Z</time>
      </trkpt>
      <trkpt lat="48.60619" lon="1.73351">
        <ele>299</ele>
        <time>2021-02-16T13:13:06Z</time>
      </trkpt>
      <trkpt lat="48.60627" lon="1.73357">
        <ele>299</ele>
        <time>2021-02-16T13:13:15Z</time>
      </trkpt>
      <trkpt lat="48.60637" lon="1.73362">
        <ele>299</ele>
        <time>2021-02-16T13:13:27Z</time>
      </trkpt>
      <trkpt lat="48.60654" lon="1.7337">
        <ele>299</ele>
        <time>2021-02-16T13:13:44Z</time>
      </trkpt>
      <trkpt lat="48.60667" lon="1.73376">
        <ele>299.20001220703</ele>
        <time>2021-02-16T13:14:00Z</time>
      </trkpt>
      <trkpt lat="48.60674" lon="1.73379">
        <ele>299</ele>
        <time>2021-02-16T13:14:05Z</time>
      </trkpt>
      <trkpt lat="48.60687" lon="1.73387">
        <ele>299</ele>
        <time>2021-02-16T13:14:19Z</time>
      </trkpt>
      <trkpt lat="48.60692" lon="1.73389">
        <ele>299.20001220703</ele>
        <time>2021-02-16T13:14:24Z</time>
      </trkpt>
      <trkpt lat="48.60702" lon="1.73391">
        <ele>299.39999389648</ele>
        <time>2021-02-16T13:14:34Z</time>
      </trkpt>
      <trkpt lat="48.6072" lon="1.73398">
        <ele>299.20001220703</ele>
        <time>2021-02-16T13:14:50Z</time>
      </trkpt>
      <trkpt lat="48.60739" lon="1.73403">
        <ele>299</ele>
        <time>2021-02-16T13:15:05Z</time>
      </trkpt>
      <trkpt lat="48.60749" lon="1.73408">
        <ele>299.20001220703</ele>
        <time>2021-02-16T13:15:16Z</time>
      </trkpt>
      <trkpt lat="48.60752" lon="1.73411">
        <ele>299.39999389648</ele>
        <time>2021-02-16T13:15:20Z</time>
      </trkpt>
      <trkpt lat="48.60769" lon="1.73419">
        <ele>299.60000610352</ele>
        <time>2021-02-16T13:15:36Z</time>
      </trkpt>
      <trkpt lat="48.60776" lon="1.7342">
        <ele>299.79998779297</ele>
        <time>2021-02-16T13:15:42Z</time>
      </trkpt>
      <trkpt lat="48.60791" lon="1.73429">
        <ele>299.79998779297</ele>
        <time>2021-02-16T13:15:58Z</time>
      </trkpt>
      <trkpt lat="48.60811" lon="1.73439">
        <ele>299.79998779297</ele>
        <time>2021-02-16T13:16:20Z</time>
      </trkpt>
      <trkpt lat="48.60835" lon="1.73449">
        <ele>299.60000610352</ele>
        <time>2021-02-16T13:16:43Z</time>
      </trkpt>
      <trkpt lat="48.60847" lon="1.7345">
        <ele>299.60000610352</ele>
        <time>2021-02-16T13:16:53Z</time>
      </trkpt>
      <trkpt lat="48.60848" lon="1.7345">
        <ele>299.60000610352</ele>
        <time>2021-02-16T13:16:54Z</time>
      </trkpt>
      <trkpt lat="48.60864" lon="1.73456">
        <ele>299.60000610352</ele>
        <time>2021-02-16T13:17:08Z</time>
      </trkpt>
      <trkpt lat="48.60865" lon="1.73456">
        <ele>299.60000610352</ele>
        <time>2021-02-16T13:17:09Z</time>
      </trkpt>
      <trkpt lat="48.6088" lon="1.73467">
        <ele>299.60000610352</ele>
        <time>2021-02-16T13:17:22Z</time>
      </trkpt>
      <trkpt lat="48.60881" lon="1.73468">
        <ele>299.60000610352</ele>
        <time>2021-02-16T13:17:23Z</time>
      </trkpt>
      <trkpt lat="48.60886" lon="1.7347">
        <ele>299.60000610352</ele>
        <time>2021-02-16T13:17:28Z</time>
      </trkpt>
      <trkpt lat="48.60903" lon="1.73479">
        <ele>299.60000610352</ele>
        <time>2021-02-16T13:17:44Z</time>
      </trkpt>
      <trkpt lat="48.60906" lon="1.7348">
        <ele>299.60000610352</ele>
        <time>2021-02-16T13:17:47Z</time>
      </trkpt>
      <trkpt lat="48.60925" lon="1.73489">
        <ele>299.60000610352</ele>
        <time>2021-02-16T13:18:04Z</time>
      </trkpt>
      <trkpt lat="48.60938" lon="1.73497">
        <ele>299.39999389648</ele>
        <time>2021-02-16T13:18:17Z</time>
      </trkpt>
      <trkpt lat="48.60939" lon="1.73498">
        <ele>299.39999389648</ele>
        <time>2021-02-16T13:18:18Z</time>
      </trkpt>
      <trkpt lat="48.6094" lon="1.73499">
        <ele>299.39999389648</ele>
        <time>2021-02-16T13:18:19Z</time>
      </trkpt>
      <trkpt lat="48.60941" lon="1.735">
        <ele>299.39999389648</ele>
        <time>2021-02-16T13:18:20Z</time>
      </trkpt>
      <trkpt lat="48.60942" lon="1.73501">
        <ele>299.39999389648</ele>
        <time>2021-02-16T13:18:21Z</time>
      </trkpt>
      <trkpt lat="48.60943" lon="1.73501">
        <ele>299.39999389648</ele>
        <time>2021-02-16T13:18:22Z</time>
      </trkpt>
      <trkpt lat="48.60962" lon="1.73509">
        <ele>299</ele>
        <time>2021-02-16T13:18:41Z</time>
      </trkpt>
      <trkpt lat="48.60983" lon="1.7352">
        <ele>299.20001220703</ele>
        <time>2021-02-16T13:19:01Z</time>
      </trkpt>
      <trkpt lat="48.61004" lon="1.73538">
        <ele>298.79998779297</ele>
        <time>2021-02-16T13:19:21Z</time>
      </trkpt>
      <trkpt lat="48.61016" lon="1.7356">
        <ele>298.79998779297</ele>
        <time>2021-02-16T13:19:37Z</time>
      </trkpt>
      <trkpt lat="48.61027" lon="1.73583">
        <ele>298.20001220703</ele>
        <time>2021-02-16T13:19:55Z</time>
      </trkpt>
      <trkpt lat="48.61041" lon="1.7361">
        <ele>297.79998779297</ele>
        <time>2021-02-16T13:20:13Z</time>
      </trkpt>
      <trkpt lat="48.61045" lon="1.73624">
        <ele>297.79998779297</ele>
        <time>2021-02-16T13:20:27Z</time>
      </trkpt>
      <trkpt lat="48.61047" lon="1.73628">
        <ele>297.39999389648</ele>
        <time>2021-02-16T13:20:32Z</time>
      </trkpt>
      <trkpt lat="48.61048" lon="1.73629">
        <ele>297.39999389648</ele>
        <time>2021-02-16T13:20:33Z</time>
      </trkpt>
      <trkpt lat="48.61063" lon="1.73649">
        <ele>297.20001220703</ele>
        <time>2021-02-16T13:20:51Z</time>
      </trkpt>
      <trkpt lat="48.61065" lon="1.73651">
        <ele>297</ele>
        <time>2021-02-16T13:20:53Z</time>
      </trkpt>
      <trkpt lat="48.61067" lon="1.73654">
        <ele>296.79998779297</ele>
        <time>2021-02-16T13:20:56Z</time>
      </trkpt>
      <trkpt lat="48.61081" lon="1.73663">
        <ele>296.60000610352</ele>
        <time>2021-02-16T13:21:12Z</time>
      </trkpt>
      <trkpt lat="48.61085" lon="1.73666">
        <ele>296.39999389648</ele>
        <time>2021-02-16T13:21:16Z</time>
      </trkpt>
      <trkpt lat="48.611" lon="1.73701">
        <ele>295.79998779297</ele>
        <time>2021-02-16T13:21:35Z</time>
      </trkpt>
      <trkpt lat="48.61101" lon="1.73702">
        <ele>295.79998779297</ele>
        <time>2021-02-16T13:21:36Z</time>
      </trkpt>
      <trkpt lat="48.61112" lon="1.73724">
        <ele>295.20001220703</ele>
        <time>2021-02-16T13:21:49Z</time>
      </trkpt>
      <trkpt lat="48.61128" lon="1.7375">
        <ele>295</ele>
        <time>2021-02-16T13:22:05Z</time>
      </trkpt>
      <trkpt lat="48.61138" lon="1.73772">
        <ele>294.79998779297</ele>
        <time>2021-02-16T13:22:17Z</time>
      </trkpt>
      <trkpt lat="48.61144" lon="1.73781">
        <ele>294.79998779297</ele>
        <time>2021-02-16T13:22:23Z</time>
      </trkpt>
      <trkpt lat="48.61149" lon="1.73786">
        <ele>294.79998779297</ele>
        <time>2021-02-16T13:22:27Z</time>
      </trkpt>
      <trkpt lat="48.6115" lon="1.7379">
        <ele>294.79998779297</ele>
        <time>2021-02-16T13:22:29Z</time>
      </trkpt>
      <trkpt lat="48.61158" lon="1.73806">
        <ele>294.79998779297</ele>
        <time>2021-02-16T13:22:41Z</time>
      </trkpt>
      <trkpt lat="48.6116" lon="1.73809">
        <ele>294.79998779297</ele>
        <time>2021-02-16T13:22:43Z</time>
      </trkpt>
      <trkpt lat="48.61161" lon="1.7381">
        <ele>294.79998779297</ele>
        <time>2021-02-16T13:22:44Z</time>
      </trkpt>
      <trkpt lat="48.61163" lon="1.73812">
        <ele>294.79998779297</ele>
        <time>2021-02-16T13:22:45Z</time>
      </trkpt>
      <trkpt lat="48.61164" lon="1.73812">
        <ele>294.79998779297</ele>
        <time>2021-02-16T13:22:46Z</time>
      </trkpt>
      <trkpt lat="48.61165" lon="1.73813">
        <ele>294.79998779297</ele>
        <time>2021-02-16T13:22:47Z</time>
      </trkpt>
      <trkpt lat="48.61166" lon="1.73814">
        <ele>294.79998779297</ele>
        <time>2021-02-16T13:22:48Z</time>
      </trkpt>
      <trkpt lat="48.61167" lon="1.73815">
        <ele>294.60000610352</ele>
        <time>2021-02-16T13:22:49Z</time>
      </trkpt>
      <trkpt lat="48.61181" lon="1.73838">
        <ele>294.60000610352</ele>
        <time>2021-02-16T13:23:06Z</time>
      </trkpt>
      <trkpt lat="48.61201" lon="1.73864">
        <ele>294.79998779297</ele>
        <time>2021-02-16T13:23:27Z</time>
      </trkpt>
      <trkpt lat="48.61217" lon="1.73882">
        <ele>294.39999389648</ele>
        <time>2021-02-16T13:23:43Z</time>
      </trkpt>
      <trkpt lat="48.61235" lon="1.73907">
        <ele>294.39999389648</ele>
        <time>2021-02-16T13:24:01Z</time>
      </trkpt>
      <trkpt lat="48.61246" lon="1.73934">
        <ele>294.79998779297</ele>
        <time>2021-02-16T13:24:18Z</time>
      </trkpt>
      <trkpt lat="48.61251" lon="1.73963">
        <ele>294.79998779297</ele>
        <time>2021-02-16T13:24:36Z</time>
      </trkpt>
      <trkpt lat="48.61254" lon="1.73973">
        <ele>295.20001220703</ele>
        <time>2021-02-16T13:24:43Z</time>
      </trkpt>
      <trkpt lat="48.61255" lon="1.73975">
        <ele>295.20001220703</ele>
        <time>2021-02-16T13:24:44Z</time>
      </trkpt>
      <trkpt lat="48.61255" lon="1.73977">
        <ele>295.39999389648</ele>
        <time>2021-02-16T13:24:45Z</time>
      </trkpt>
      <trkpt lat="48.61255" lon="1.73979">
        <ele>295.39999389648</ele>
        <time>2021-02-16T13:24:46Z</time>
      </trkpt>
      <trkpt lat="48.61256" lon="1.7398">
        <ele>295.39999389648</ele>
        <time>2021-02-16T13:24:47Z</time>
      </trkpt>
      <trkpt lat="48.61261" lon="1.74008">
        <ele>295.39999389648</ele>
        <time>2021-02-16T13:25:03Z</time>
      </trkpt>
      <trkpt lat="48.61274" lon="1.7404">
        <ele>296</ele>
        <time>2021-02-16T13:25:22Z</time>
      </trkpt>
      <trkpt lat="48.61278" lon="1.74069">
        <ele>296.60000610352</ele>
        <time>2021-02-16T13:25:39Z</time>
      </trkpt>
      <trkpt lat="48.61282" lon="1.74097">
        <ele>296.60000610352</ele>
        <time>2021-02-16T13:25:56Z</time>
      </trkpt>
      <trkpt lat="48.61289" lon="1.74114">
        <ele>297</ele>
        <time>2021-02-16T13:26:07Z</time>
      </trkpt>
      <trkpt lat="48.61305" lon="1.74132">
        <ele>297.20001220703</ele>
        <time>2021-02-16T13:26:22Z</time>
      </trkpt>
      <trkpt lat="48.61317" lon="1.74154">
        <ele>297.60000610352</ele>
        <time>2021-02-16T13:26:38Z</time>
      </trkpt>
      <trkpt lat="48.61318" lon="1.74158">
        <ele>297.60000610352</ele>
        <time>2021-02-16T13:26:40Z</time>
      </trkpt>
      <trkpt lat="48.61318" lon="1.74168">
        <ele>297.60000610352</ele>
        <time>2021-02-16T13:26:46Z</time>
      </trkpt>
      <trkpt lat="48.61317" lon="1.74203">
        <ele>297.60000610352</ele>
        <time>2021-02-16T13:27:03Z</time>
      </trkpt>
      <trkpt lat="48.61317" lon="1.74227">
        <ele>299.20001220703</ele>
        <time>2021-02-16T13:27:16Z</time>
      </trkpt>
      <trkpt lat="48.61318" lon="1.74228">
        <ele>299.20001220703</ele>
        <time>2021-02-16T13:27:17Z</time>
      </trkpt>
      <trkpt lat="48.61319" lon="1.74229">
        <ele>299.20001220703</ele>
        <time>2021-02-16T13:27:18Z</time>
      </trkpt>
      <trkpt lat="48.61332" lon="1.74236">
        <ele>298.20001220703</ele>
        <time>2021-02-16T13:27:39Z</time>
      </trkpt>
      <trkpt lat="48.61342" lon="1.74237">
        <ele>298.20001220703</ele>
        <time>2021-02-16T13:27:48Z</time>
      </trkpt>
      <trkpt lat="48.61357" lon="1.74245">
        <ele>298.39999389648</ele>
        <time>2021-02-16T13:28:01Z</time>
      </trkpt>
      <trkpt lat="48.61368" lon="1.74256">
        <ele>298.79998779297</ele>
        <time>2021-02-16T13:28:14Z</time>
      </trkpt>
      <trkpt lat="48.6138" lon="1.74267">
        <ele>298.79998779297</ele>
        <time>2021-02-16T13:28:28Z</time>
      </trkpt>
      <trkpt lat="48.61393" lon="1.74274">
        <ele>299</ele>
        <time>2021-02-16T13:28:39Z</time>
      </trkpt>
      <trkpt lat="48.61394" lon="1.74274">
        <ele>299</ele>
        <time>2021-02-16T13:28:40Z</time>
      </trkpt>
      <trkpt lat="48.61408" lon="1.74279">
        <ele>299.39999389648</ele>
        <time>2021-02-16T13:28:53Z</time>
      </trkpt>
      <trkpt lat="48.61409" lon="1.7428">
        <ele>299.39999389648</ele>
        <time>2021-02-16T13:28:54Z</time>
      </trkpt>
      <trkpt lat="48.6141" lon="1.7428">
        <ele>299.39999389648</ele>
        <time>2021-02-16T13:28:55Z</time>
      </trkpt>
      <trkpt lat="48.61419" lon="1.74286">
        <ele>299.20001220703</ele>
        <time>2021-02-16T13:29:05Z</time>
      </trkpt>
      <trkpt lat="48.6142" lon="1.74288">
        <ele>299.60000610352</ele>
        <time>2021-02-16T13:29:07Z</time>
      </trkpt>
      <trkpt lat="48.61429" lon="1.74299">
        <ele>300</ele>
        <time>2021-02-16T13:29:20Z</time>
      </trkpt>
      <trkpt lat="48.61449" lon="1.74311">
        <ele>300</ele>
        <time>2021-02-16T13:29:34Z</time>
      </trkpt>
      <trkpt lat="48.61462" lon="1.74315">
        <ele>300.20001220703</ele>
        <time>2021-02-16T13:29:44Z</time>
      </trkpt>
      <trkpt lat="48.61476" lon="1.74322">
        <ele>300.79998779297</ele>
        <time>2021-02-16T13:29:58Z</time>
      </trkpt>
      <trkpt lat="48.61478" lon="1.74324">
        <ele>301</ele>
        <time>2021-02-16T13:30:01Z</time>
      </trkpt>
      <trkpt lat="48.6149" lon="1.74333">
        <ele>301.20001220703</ele>
        <time>2021-02-16T13:30:11Z</time>
      </trkpt>
      <trkpt lat="48.61492" lon="1.74335">
        <ele>301</ele>
        <time>2021-02-16T13:30:14Z</time>
      </trkpt>
      <trkpt lat="48.61506" lon="1.74345">
        <ele>301.20001220703</ele>
        <time>2021-02-16T13:30:23Z</time>
      </trkpt>
      <trkpt lat="48.61508" lon="1.74346">
        <ele>301.20001220703</ele>
        <time>2021-02-16T13:30:24Z</time>
      </trkpt>
      <trkpt lat="48.61515" lon="1.7435">
        <ele>301.20001220703</ele>
        <time>2021-02-16T13:30:29Z</time>
      </trkpt>
      <trkpt lat="48.61518" lon="1.74353">
        <ele>301.20001220703</ele>
        <time>2021-02-16T13:30:32Z</time>
      </trkpt>
      <trkpt lat="48.61519" lon="1.74354">
        <ele>301.20001220703</ele>
        <time>2021-02-16T13:30:33Z</time>
      </trkpt>
      <trkpt lat="48.61523" lon="1.74355">
        <ele>301.39999389648</ele>
        <time>2021-02-16T13:30:36Z</time>
      </trkpt>
      <trkpt lat="48.6153" lon="1.74357">
        <ele>301.39999389648</ele>
        <time>2021-02-16T13:30:41Z</time>
      </trkpt>
      <trkpt lat="48.61531" lon="1.74358">
        <ele>301.39999389648</ele>
        <time>2021-02-16T13:30:42Z</time>
      </trkpt>
      <trkpt lat="48.61532" lon="1.74359">
        <ele>301.39999389648</ele>
        <time>2021-02-16T13:30:43Z</time>
      </trkpt>
      <trkpt lat="48.61534" lon="1.74359">
        <ele>301.39999389648</ele>
        <time>2021-02-16T13:30:44Z</time>
      </trkpt>
      <trkpt lat="48.61535" lon="1.74359">
        <ele>301.39999389648</ele>
        <time>2021-02-16T13:30:45Z</time>
      </trkpt>
      <trkpt lat="48.61546" lon="1.74365">
        <ele>301.79998779297</ele>
        <time>2021-02-16T13:30:54Z</time>
      </trkpt>
      <trkpt lat="48.6155" lon="1.7437">
        <ele>302</ele>
        <time>2021-02-16T13:31:00Z</time>
      </trkpt>
      <trkpt lat="48.61561" lon="1.74383">
        <ele>302.39999389648</ele>
        <time>2021-02-16T13:31:12Z</time>
      </trkpt>
      <trkpt lat="48.61576" lon="1.7439">
        <ele>302.79998779297</ele>
        <time>2021-02-16T13:31:22Z</time>
      </trkpt>
      <trkpt lat="48.61593" lon="1.744">
        <ele>302.79998779297</ele>
        <time>2021-02-16T13:31:33Z</time>
      </trkpt>
      <trkpt lat="48.61612" lon="1.74413">
        <ele>303</ele>
        <time>2021-02-16T13:31:47Z</time>
      </trkpt>
      <trkpt lat="48.61618" lon="1.74417">
        <ele>303.20001220703</ele>
        <time>2021-02-16T13:31:51Z</time>
      </trkpt>
      <trkpt lat="48.6162" lon="1.74418">
        <ele>303.20001220703</ele>
        <time>2021-02-16T13:31:52Z</time>
      </trkpt>
      <trkpt lat="48.61632" lon="1.74425">
        <ele>303.60000610352</ele>
        <time>2021-02-16T13:32:04Z</time>
      </trkpt>
      <trkpt lat="48.61646" lon="1.74432">
        <ele>303.79998779297</ele>
        <time>2021-02-16T13:32:17Z</time>
      </trkpt>
      <trkpt lat="48.61654" lon="1.74434">
        <ele>303.79998779297</ele>
        <time>2021-02-16T13:32:24Z</time>
      </trkpt>
      <trkpt lat="48.61657" lon="1.74435">
        <ele>304</ele>
        <time>2021-02-16T13:32:27Z</time>
      </trkpt>
      <trkpt lat="48.61667" lon="1.74431">
        <ele>303.79998779297</ele>
        <time>2021-02-16T13:32:34Z</time>
      </trkpt>
      <trkpt lat="48.61675" lon="1.74431">
        <ele>303.60000610352</ele>
        <time>2021-02-16T13:32:41Z</time>
      </trkpt>
      <trkpt lat="48.6169" lon="1.74425">
        <ele>304</ele>
        <time>2021-02-16T13:32:56Z</time>
      </trkpt>
      <trkpt lat="48.617" lon="1.7441">
        <ele>304</ele>
        <time>2021-02-16T13:33:08Z</time>
      </trkpt>
      <trkpt lat="48.61702" lon="1.74407">
        <ele>304</ele>
        <time>2021-02-16T13:33:10Z</time>
      </trkpt>
      <trkpt lat="48.61703" lon="1.74406">
        <ele>304</ele>
        <time>2021-02-16T13:33:11Z</time>
      </trkpt>
      <trkpt lat="48.61704" lon="1.74405">
        <ele>304</ele>
        <time>2021-02-16T13:33:12Z</time>
      </trkpt>
      <trkpt lat="48.61711" lon="1.74397">
        <ele>303.79998779297</ele>
        <time>2021-02-16T13:33:18Z</time>
      </trkpt>
      <trkpt lat="48.61714" lon="1.74397">
        <ele>303.60000610352</ele>
        <time>2021-02-16T13:33:21Z</time>
      </trkpt>
      <trkpt lat="48.61715" lon="1.74396">
        <ele>303.60000610352</ele>
        <time>2021-02-16T13:33:22Z</time>
      </trkpt>
      <trkpt lat="48.61716" lon="1.74396">
        <ele>303.60000610352</ele>
        <time>2021-02-16T13:33:23Z</time>
      </trkpt>
      <trkpt lat="48.61717" lon="1.74395">
        <ele>303.60000610352</ele>
        <time>2021-02-16T13:33:24Z</time>
      </trkpt>
      <trkpt lat="48.61718" lon="1.74394">
        <ele>303.60000610352</ele>
        <time>2021-02-16T13:33:25Z</time>
      </trkpt>
      <trkpt lat="48.6172" lon="1.74392">
        <ele>303.60000610352</ele>
        <time>2021-02-16T13:33:26Z</time>
      </trkpt>
      <trkpt lat="48.61728" lon="1.74384">
        <ele>303.79998779297</ele>
        <time>2021-02-16T13:33:34Z</time>
      </trkpt>
      <trkpt lat="48.61729" lon="1.74383">
        <ele>303.79998779297</ele>
        <time>2021-02-16T13:33:35Z</time>
      </trkpt>
      <trkpt lat="48.61735" lon="1.74377">
        <ele>303.60000610352</ele>
        <time>2021-02-16T13:33:40Z</time>
      </trkpt>
      <trkpt lat="48.61736" lon="1.74376">
        <ele>303.60000610352</ele>
        <time>2021-02-16T13:33:41Z</time>
      </trkpt>
      <trkpt lat="48.61737" lon="1.74374">
        <ele>303.60000610352</ele>
        <time>2021-02-16T13:33:42Z</time>
      </trkpt>
      <trkpt lat="48.61745" lon="1.74367">
        <ele>303.60000610352</ele>
        <time>2021-02-16T13:33:50Z</time>
      </trkpt>
      <trkpt lat="48.61748" lon="1.74363">
        <ele>303.60000610352</ele>
        <time>2021-02-16T13:33:53Z</time>
      </trkpt>
      <trkpt lat="48.61749" lon="1.74361">
        <ele>303.39999389648</ele>
        <time>2021-02-16T13:33:54Z</time>
      </trkpt>
      <trkpt lat="48.61751" lon="1.74359">
        <ele>303.39999389648</ele>
        <time>2021-02-16T13:33:55Z</time>
      </trkpt>
      <trkpt lat="48.61752" lon="1.74357">
        <ele>303.39999389648</ele>
        <time>2021-02-16T13:33:56Z</time>
      </trkpt>
      <trkpt lat="48.61754" lon="1.74356">
        <ele>303.39999389648</ele>
        <time>2021-02-16T13:33:57Z</time>
      </trkpt>
      <trkpt lat="48.61762" lon="1.74347">
        <ele>303.60000610352</ele>
        <time>2021-02-16T13:34:05Z</time>
      </trkpt>
      <trkpt lat="48.61763" lon="1.74346">
        <ele>303.60000610352</ele>
        <time>2021-02-16T13:34:06Z</time>
      </trkpt>
      <trkpt lat="48.61764" lon="1.74345">
        <ele>303.60000610352</ele>
        <time>2021-02-16T13:34:08Z</time>
      </trkpt>
      <trkpt lat="48.61765" lon="1.74344">
        <ele>303.60000610352</ele>
        <time>2021-02-16T13:34:09Z</time>
      </trkpt>
      <trkpt lat="48.61766" lon="1.74343">
        <ele>303.60000610352</ele>
        <time>2021-02-16T13:34:10Z</time>
      </trkpt>
      <trkpt lat="48.61776" lon="1.74332">
        <ele>303.39999389648</ele>
        <time>2021-02-16T13:34:26Z</time>
      </trkpt>
      <trkpt lat="48.61791" lon="1.74319">
        <ele>303.20001220703</ele>
        <time>2021-02-16T13:34:40Z</time>
      </trkpt>
      <trkpt lat="48.61809" lon="1.74304">
        <ele>302.39999389648</ele>
        <time>2021-02-16T13:34:54Z</time>
      </trkpt>
      <trkpt lat="48.61818" lon="1.74294">
        <ele>302</ele>
        <time>2021-02-16T13:35:06Z</time>
      </trkpt>
      <trkpt lat="48.61819" lon="1.74293">
        <ele>302</ele>
        <time>2021-02-16T13:35:07Z</time>
      </trkpt>
      <trkpt lat="48.6182" lon="1.74292">
        <ele>302</ele>
        <time>2021-02-16T13:35:08Z</time>
      </trkpt>
      <trkpt lat="48.6182" lon="1.74291">
        <ele>302</ele>
        <time>2021-02-16T13:35:09Z</time>
      </trkpt>
      <trkpt lat="48.61821" lon="1.74291">
        <ele>301.79998779297</ele>
        <time>2021-02-16T13:35:10Z</time>
      </trkpt>
      <trkpt lat="48.61822" lon="1.74291">
        <ele>301.79998779297</ele>
        <time>2021-02-16T13:35:11Z</time>
      </trkpt>
      <trkpt lat="48.6184" lon="1.74292">
        <ele>301</ele>
        <time>2021-02-16T13:35:25Z</time>
      </trkpt>
      <trkpt lat="48.61845" lon="1.74311">
        <ele>300.60000610352</ele>
        <time>2021-02-16T13:35:42Z</time>
      </trkpt>
      <trkpt lat="48.61853" lon="1.74344">
        <ele>300.79998779297</ele>
        <time>2021-02-16T13:36:04Z</time>
      </trkpt>
      <trkpt lat="48.61861" lon="1.74374">
        <ele>301</ele>
        <time>2021-02-16T13:36:24Z</time>
      </trkpt>
      <trkpt lat="48.61865" lon="1.74384">
        <ele>301.39999389648</ele>
        <time>2021-02-16T13:36:31Z</time>
      </trkpt>
      <trkpt lat="48.61866" lon="1.7439">
        <ele>301.39999389648</ele>
        <time>2021-02-16T13:36:35Z</time>
      </trkpt>
      <trkpt lat="48.6187" lon="1.74398">
        <ele>301.20001220703</ele>
        <time>2021-02-16T13:36:41Z</time>
      </trkpt>
      <trkpt lat="48.6187" lon="1.744">
        <ele>301.20001220703</ele>
        <time>2021-02-16T13:36:42Z</time>
      </trkpt>
      <trkpt lat="48.61871" lon="1.74401">
        <ele>301.20001220703</ele>
        <time>2021-02-16T13:36:43Z</time>
      </trkpt>
      <trkpt lat="48.61872" lon="1.74411">
        <ele>301.39999389648</ele>
        <time>2021-02-16T13:36:48Z</time>
      </trkpt>
      <trkpt lat="48.61875" lon="1.74435">
        <ele>301.79998779297</ele>
        <time>2021-02-16T13:37:03Z</time>
      </trkpt>
      <trkpt lat="48.61878" lon="1.74465">
        <ele>302.39999389648</ele>
        <time>2021-02-16T13:37:20Z</time>
      </trkpt>
      <trkpt lat="48.61887" lon="1.74488">
        <ele>302.79998779297</ele>
        <time>2021-02-16T13:37:35Z</time>
      </trkpt>
      <trkpt lat="48.61888" lon="1.74487">
        <ele>302.79998779297</ele>
        <time>2021-02-16T13:37:36Z</time>
      </trkpt>
      <trkpt lat="48.61904" lon="1.74489">
        <ele>302.60000610352</ele>
        <time>2021-02-16T13:37:48Z</time>
      </trkpt>
      <trkpt lat="48.61905" lon="1.74489">
        <ele>302.60000610352</ele>
        <time>2021-02-16T13:37:49Z</time>
      </trkpt>
      <trkpt lat="48.61907" lon="1.7449">
        <ele>302.60000610352</ele>
        <time>2021-02-16T13:37:50Z</time>
      </trkpt>
      <trkpt lat="48.61908" lon="1.74489">
        <ele>302.60000610352</ele>
        <time>2021-02-16T13:37:51Z</time>
      </trkpt>
      <trkpt lat="48.61909" lon="1.74489">
        <ele>302.60000610352</ele>
        <time>2021-02-16T13:37:52Z</time>
      </trkpt>
      <trkpt lat="48.6191" lon="1.74489">
        <ele>302.60000610352</ele>
        <time>2021-02-16T13:37:53Z</time>
      </trkpt>
      <trkpt lat="48.61912" lon="1.7449">
        <ele>302.60000610352</ele>
        <time>2021-02-16T13:37:54Z</time>
      </trkpt>
      <trkpt lat="48.61914" lon="1.74491">
        <ele>302.60000610352</ele>
        <time>2021-02-16T13:37:55Z</time>
      </trkpt>
      <trkpt lat="48.61915" lon="1.74492">
        <ele>302.60000610352</ele>
        <time>2021-02-16T13:37:56Z</time>
      </trkpt>
      <trkpt lat="48.61933" lon="1.74504">
        <ele>302.39999389648</ele>
        <time>2021-02-16T13:38:10Z</time>
      </trkpt>
      <trkpt lat="48.6195" lon="1.74507">
        <ele>302.39999389648</ele>
        <time>2021-02-16T13:38:24Z</time>
      </trkpt>
      <trkpt lat="48.61968" lon="1.74513">
        <ele>302</ele>
        <time>2021-02-16T13:38:41Z</time>
      </trkpt>
      <trkpt lat="48.61989" lon="1.74517">
        <ele>301.39999389648</ele>
        <time>2021-02-16T13:38:58Z</time>
      </trkpt>
      <trkpt lat="48.6201" lon="1.74518">
        <ele>301.39999389648</ele>
        <time>2021-02-16T13:39:15Z</time>
      </trkpt>
      <trkpt lat="48.62032" lon="1.74517">
        <ele>300.79998779297</ele>
        <time>2021-02-16T13:39:33Z</time>
      </trkpt>
      <trkpt lat="48.62044" lon="1.74522">
        <ele>300.39999389648</ele>
        <time>2021-02-16T13:39:42Z</time>
      </trkpt>
      <trkpt lat="48.62053" lon="1.74526">
        <ele>300.20001220703</ele>
        <time>2021-02-16T13:39:50Z</time>
      </trkpt>
      <trkpt lat="48.62057" lon="1.74527">
        <ele>300.20001220703</ele>
        <time>2021-02-16T13:39:53Z</time>
      </trkpt>
      <trkpt lat="48.62058" lon="1.74527">
        <ele>300.20001220703</ele>
        <time>2021-02-16T13:39:54Z</time>
      </trkpt>
      <trkpt lat="48.62077" lon="1.74532">
        <ele>299.20001220703</ele>
        <time>2021-02-16T13:40:10Z</time>
      </trkpt>
      <trkpt lat="48.62096" lon="1.74547">
        <ele>298</ele>
        <time>2021-02-16T13:40:28Z</time>
      </trkpt>
      <trkpt lat="48.62108" lon="1.74562">
        <ele>297</ele>
        <time>2021-02-16T13:40:42Z</time>
      </trkpt>
      <trkpt lat="48.62108" lon="1.74575">
        <ele>296.39999389648</ele>
        <time>2021-02-16T13:40:51Z</time>
      </trkpt>
      <trkpt lat="48.62107" lon="1.74596">
        <ele>296.60000610352</ele>
        <time>2021-02-16T13:41:03Z</time>
      </trkpt>
      <trkpt lat="48.62107" lon="1.74598">
        <ele>296.60000610352</ele>
        <time>2021-02-16T13:41:04Z</time>
      </trkpt>
      <trkpt lat="48.62108" lon="1.74602">
        <ele>296.60000610352</ele>
        <time>2021-02-16T13:41:06Z</time>
      </trkpt>
      <trkpt lat="48.62108" lon="1.74605">
        <ele>296.60000610352</ele>
        <time>2021-02-16T13:41:08Z</time>
      </trkpt>
      <trkpt lat="48.62112" lon="1.74627">
        <ele>296.79998779297</ele>
        <time>2021-02-16T13:41:20Z</time>
      </trkpt>
      <trkpt lat="48.62116" lon="1.74634">
        <ele>297.39999389648</ele>
        <time>2021-02-16T13:41:25Z</time>
      </trkpt>
      <trkpt lat="48.62116" lon="1.74648">
        <ele>297.79998779297</ele>
        <time>2021-02-16T13:41:35Z</time>
      </trkpt>
      <trkpt lat="48.62116" lon="1.74651">
        <ele>298</ele>
        <time>2021-02-16T13:41:37Z</time>
      </trkpt>
      <trkpt lat="48.62114" lon="1.7467">
        <ele>298</ele>
        <time>2021-02-16T13:41:50Z</time>
      </trkpt>
      <trkpt lat="48.62113" lon="1.74685">
        <ele>298.39999389648</ele>
        <time>2021-02-16T13:42:02Z</time>
      </trkpt>
      <trkpt lat="48.62115" lon="1.74706">
        <ele>298.79998779297</ele>
        <time>2021-02-16T13:42:18Z</time>
      </trkpt>
      <trkpt lat="48.6212" lon="1.74723">
        <ele>299.39999389648</ele>
        <time>2021-02-16T13:42:31Z</time>
      </trkpt>
      <trkpt lat="48.62126" lon="1.7473">
        <ele>299.39999389648</ele>
        <time>2021-02-16T13:42:43Z</time>
      </trkpt>
      <trkpt lat="48.62135" lon="1.74738">
        <ele>298.79998779297</ele>
        <time>2021-02-16T13:42:52Z</time>
      </trkpt>
      <trkpt lat="48.62147" lon="1.74745">
        <ele>298.39999389648</ele>
        <time>2021-02-16T13:43:01Z</time>
      </trkpt>
      <trkpt lat="48.62166" lon="1.74761">
        <ele>298</ele>
        <time>2021-02-16T13:43:17Z</time>
      </trkpt>
      <trkpt lat="48.62169" lon="1.74763">
        <ele>298</ele>
        <time>2021-02-16T13:43:20Z</time>
      </trkpt>
      <trkpt lat="48.62177" lon="1.7477">
        <ele>298</ele>
        <time>2021-02-16T13:43:31Z</time>
      </trkpt>
      <trkpt lat="48.62178" lon="1.74771">
        <ele>298</ele>
        <time>2021-02-16T13:43:32Z</time>
      </trkpt>
      <trkpt lat="48.62186" lon="1.74776">
        <ele>296.60000610352</ele>
        <time>2021-02-16T13:43:37Z</time>
      </trkpt>
      <trkpt lat="48.62187" lon="1.74777">
        <ele>296.20001220703</ele>
        <time>2021-02-16T13:43:38Z</time>
      </trkpt>
      <trkpt lat="48.62189" lon="1.74778">
        <ele>296</ele>
        <time>2021-02-16T13:43:39Z</time>
      </trkpt>
      <trkpt lat="48.62201" lon="1.74787">
        <ele>295.20001220703</ele>
        <time>2021-02-16T13:43:50Z</time>
      </trkpt>
      <trkpt lat="48.62206" lon="1.74791">
        <ele>294.79998779297</ele>
        <time>2021-02-16T13:43:55Z</time>
      </trkpt>
      <trkpt lat="48.62218" lon="1.74788">
        <ele>294.20001220703</ele>
        <time>2021-02-16T13:44:07Z</time>
      </trkpt>
      <trkpt lat="48.62218" lon="1.74787">
        <ele>294</ele>
        <time>2021-02-16T13:44:08Z</time>
      </trkpt>
      <trkpt lat="48.62221" lon="1.74778">
        <ele>293.20001220703</ele>
        <time>2021-02-16T13:44:15Z</time>
      </trkpt>
      <trkpt lat="48.62217" lon="1.74761">
        <ele>291.60000610352</ele>
        <time>2021-02-16T13:44:31Z</time>
      </trkpt>
      <trkpt lat="48.62207" lon="1.74736">
        <ele>289.20001220703</ele>
        <time>2021-02-16T13:44:52Z</time>
      </trkpt>
      <trkpt lat="48.62208" lon="1.7472">
        <ele>288.39999389648</ele>
        <time>2021-02-16T13:45:00Z</time>
      </trkpt>
      <trkpt lat="48.62208" lon="1.7469">
        <ele>285.39999389648</ele>
        <time>2021-02-16T13:45:27Z</time>
      </trkpt>
      <trkpt lat="48.62204" lon="1.74639">
        <ele>282.79998779297</ele>
        <time>2021-02-16T13:45:51Z</time>
      </trkpt>
      <trkpt lat="48.62207" lon="1.74628">
        <ele>282.39999389648</ele>
        <time>2021-02-16T13:45:58Z</time>
      </trkpt>
      <trkpt lat="48.62208" lon="1.74626">
        <ele>282.20001220703</ele>
        <time>2021-02-16T13:46:00Z</time>
      </trkpt>
      <trkpt lat="48.62218" lon="1.74608">
        <ele>282</ele>
        <time>2021-02-16T13:46:10Z</time>
      </trkpt>
      <trkpt lat="48.62238" lon="1.74602">
        <ele>280.60000610352</ele>
        <time>2021-02-16T13:46:25Z</time>
      </trkpt>
      <trkpt lat="48.62253" lon="1.74599">
        <ele>279</ele>
        <time>2021-02-16T13:46:41Z</time>
      </trkpt>
      <trkpt lat="48.62255" lon="1.74599">
        <ele>278.79998779297</ele>
        <time>2021-02-16T13:46:43Z</time>
      </trkpt>
      <trkpt lat="48.62267" lon="1.74596">
        <ele>277.60000610352</ele>
        <time>2021-02-16T13:46:54Z</time>
      </trkpt>
      <trkpt lat="48.62285" lon="1.74591">
        <ele>276.20001220703</ele>
        <time>2021-02-16T13:47:10Z</time>
      </trkpt>
      <trkpt lat="48.62303" lon="1.74582">
        <ele>274.39999389648</ele>
        <time>2021-02-16T13:47:28Z</time>
      </trkpt>
      <trkpt lat="48.62307" lon="1.74581">
        <ele>274</ele>
        <time>2021-02-16T13:47:31Z</time>
      </trkpt>
      <trkpt lat="48.62317" lon="1.74572">
        <ele>272.60000610352</ele>
        <time>2021-02-16T13:47:44Z</time>
      </trkpt>
      <trkpt lat="48.62331" lon="1.74557">
        <ele>271.60000610352</ele>
        <time>2021-02-16T13:47:57Z</time>
      </trkpt>
      <trkpt lat="48.62341" lon="1.74546">
        <ele>270.39999389648</ele>
        <time>2021-02-16T13:48:08Z</time>
      </trkpt>
      <trkpt lat="48.62356" lon="1.7453">
        <ele>269</ele>
        <time>2021-02-16T13:48:22Z</time>
      </trkpt>
      <trkpt lat="48.62364" lon="1.74521">
        <ele>268.39999389648</ele>
        <time>2021-02-16T13:48:29Z</time>
      </trkpt>
      <trkpt lat="48.62365" lon="1.74521">
        <ele>268.20001220703</ele>
        <time>2021-02-16T13:48:30Z</time>
      </trkpt>
      <trkpt lat="48.6237" lon="1.74502">
        <ele>266.79998779297</ele>
        <time>2021-02-16T13:48:44Z</time>
      </trkpt>
      <trkpt lat="48.62376" lon="1.74494">
        <ele>266.60000610352</ele>
        <time>2021-02-16T13:48:50Z</time>
      </trkpt>
      <trkpt lat="48.62383" lon="1.7449">
        <ele>266.20001220703</ele>
        <time>2021-02-16T13:48:58Z</time>
      </trkpt>
      <trkpt lat="48.62403" lon="1.74489">
        <ele>266.20001220703</ele>
        <time>2021-02-16T13:49:12Z</time>
      </trkpt>
      <trkpt lat="48.6241" lon="1.74497">
        <ele>266.39999389648</ele>
        <time>2021-02-16T13:49:19Z</time>
      </trkpt>
      <trkpt lat="48.62417" lon="1.74511">
        <ele>266.39999389648</ele>
        <time>2021-02-16T13:49:28Z</time>
      </trkpt>
      <trkpt lat="48.62423" lon="1.74518">
        <ele>266.39999389648</ele>
        <time>2021-02-16T13:49:34Z</time>
      </trkpt>
      <trkpt lat="48.62426" lon="1.74522">
        <ele>266.39999389648</ele>
        <time>2021-02-16T13:49:37Z</time>
      </trkpt>
      <trkpt lat="48.62427" lon="1.74524">
        <ele>266.39999389648</ele>
        <time>2021-02-16T13:49:38Z</time>
      </trkpt>
      <trkpt lat="48.62434" lon="1.74537">
        <ele>266.39999389648</ele>
        <time>2021-02-16T13:49:45Z</time>
      </trkpt>
      <trkpt lat="48.62434" lon="1.74538">
        <ele>266.20001220703</ele>
        <time>2021-02-16T13:49:46Z</time>
      </trkpt>
      <trkpt lat="48.62436" lon="1.74542">
        <ele>266.20001220703</ele>
        <time>2021-02-16T13:49:48Z</time>
      </trkpt>
      <trkpt lat="48.62439" lon="1.74551">
        <ele>266.20001220703</ele>
        <time>2021-02-16T13:49:54Z</time>
      </trkpt>
      <trkpt lat="48.62447" lon="1.74576">
        <ele>266.39999389648</ele>
        <time>2021-02-16T13:50:09Z</time>
      </trkpt>
      <trkpt lat="48.62453" lon="1.74591">
        <ele>266.39999389648</ele>
        <time>2021-02-16T13:50:20Z</time>
      </trkpt>
      <trkpt lat="48.62464" lon="1.74613">
        <ele>266.39999389648</ele>
        <time>2021-02-16T13:50:35Z</time>
      </trkpt>
      <trkpt lat="48.62468" lon="1.74617">
        <ele>266.39999389648</ele>
        <time>2021-02-16T13:50:39Z</time>
      </trkpt>
      <trkpt lat="48.62472" lon="1.74623">
        <ele>266.39999389648</ele>
        <time>2021-02-16T13:50:43Z</time>
      </trkpt>
      <trkpt lat="48.62477" lon="1.74642">
        <ele>266.39999389648</ele>
        <time>2021-02-16T13:50:55Z</time>
      </trkpt>
      <trkpt lat="48.6248" lon="1.7465">
        <ele>266.39999389648</ele>
        <time>2021-02-16T13:51:01Z</time>
      </trkpt>
      <trkpt lat="48.62486" lon="1.74663">
        <ele>266.79998779297</ele>
        <time>2021-02-16T13:51:19Z</time>
      </trkpt>
      <trkpt lat="48.62492" lon="1.74679">
        <ele>266.79998779297</ele>
        <time>2021-02-16T13:51:37Z</time>
      </trkpt>
      <trkpt lat="48.62492" lon="1.7468">
        <ele>266.79998779297</ele>
        <time>2021-02-16T13:51:38Z</time>
      </trkpt>
      <trkpt lat="48.62492" lon="1.74682">
        <ele>266.79998779297</ele>
        <time>2021-02-16T13:51:39Z</time>
      </trkpt>
      <trkpt lat="48.62493" lon="1.74684">
        <ele>266.79998779297</ele>
        <time>2021-02-16T13:51:40Z</time>
      </trkpt>
      <trkpt lat="48.62496" lon="1.74689">
        <ele>266.79998779297</ele>
        <time>2021-02-16T13:51:44Z</time>
      </trkpt>
      <trkpt lat="48.62505" lon="1.747">
        <ele>266.60000610352</ele>
        <time>2021-02-16T13:51:53Z</time>
      </trkpt>
      <trkpt lat="48.62505" lon="1.74701">
        <ele>266.60000610352</ele>
        <time>2021-02-16T13:51:54Z</time>
      </trkpt>
      <trkpt lat="48.62507" lon="1.74703">
        <ele>266.60000610352</ele>
        <time>2021-02-16T13:51:56Z</time>
      </trkpt>
      <trkpt lat="48.62511" lon="1.74711">
        <ele>266.60000610352</ele>
        <time>2021-02-16T13:52:02Z</time>
      </trkpt>
      <trkpt lat="48.62515" lon="1.74718">
        <ele>266.60000610352</ele>
        <time>2021-02-16T13:52:05Z</time>
      </trkpt>
      <trkpt lat="48.62516" lon="1.7472">
        <ele>266.60000610352</ele>
        <time>2021-02-16T13:52:06Z</time>
      </trkpt>
      <trkpt lat="48.62518" lon="1.74722">
        <ele>266.79998779297</ele>
        <time>2021-02-16T13:52:07Z</time>
      </trkpt>
      <trkpt lat="48.6252" lon="1.74723">
        <ele>266.79998779297</ele>
        <time>2021-02-16T13:52:08Z</time>
      </trkpt>
      <trkpt lat="48.62522" lon="1.74725">
        <ele>266.79998779297</ele>
        <time>2021-02-16T13:52:10Z</time>
      </trkpt>
      <trkpt lat="48.62529" lon="1.74735">
        <ele>267</ele>
        <time>2021-02-16T13:52:19Z</time>
      </trkpt>
      <trkpt lat="48.6253" lon="1.74736">
        <ele>267.39999389648</ele>
        <time>2021-02-16T13:52:20Z</time>
      </trkpt>
      <trkpt lat="48.62532" lon="1.74756">
        <ele>267.20001220703</ele>
        <time>2021-02-16T13:52:31Z</time>
      </trkpt>
      <trkpt lat="48.62537" lon="1.74776">
        <ele>267.20001220703</ele>
        <time>2021-02-16T13:52:43Z</time>
      </trkpt>
      <trkpt lat="48.62536" lon="1.74791">
        <ele>267.39999389648</ele>
        <time>2021-02-16T13:52:52Z</time>
      </trkpt>
      <trkpt lat="48.62535" lon="1.748">
        <ele>267.39999389648</ele>
        <time>2021-02-16T13:52:58Z</time>
      </trkpt>
      <trkpt lat="48.62533" lon="1.74812">
        <ele>267.79998779297</ele>
        <time>2021-02-16T13:53:08Z</time>
      </trkpt>
      <trkpt lat="48.62533" lon="1.74813">
        <ele>267.79998779297</ele>
        <time>2021-02-16T13:53:09Z</time>
      </trkpt>
      <trkpt lat="48.62533" lon="1.74841">
        <ele>267.60000610352</ele>
        <time>2021-02-16T13:53:27Z</time>
      </trkpt>
      <trkpt lat="48.62534" lon="1.74843">
        <ele>267.60000610352</ele>
        <time>2021-02-16T13:53:28Z</time>
      </trkpt>
      <trkpt lat="48.62535" lon="1.74867">
        <ele>267.60000610352</ele>
        <time>2021-02-16T13:53:40Z</time>
      </trkpt>
      <trkpt lat="48.62541" lon="1.74885">
        <ele>267.60000610352</ele>
        <time>2021-02-16T13:53:50Z</time>
      </trkpt>
      <trkpt lat="48.62545" lon="1.74902">
        <ele>267.39999389648</ele>
        <time>2021-02-16T13:54:02Z</time>
      </trkpt>
      <trkpt lat="48.62553" lon="1.74915">
        <ele>267.39999389648</ele>
        <time>2021-02-16T13:54:10Z</time>
      </trkpt>
      <trkpt lat="48.62559" lon="1.74924">
        <ele>267.39999389648</ele>
        <time>2021-02-16T13:54:16Z</time>
      </trkpt>
      <trkpt lat="48.62566" lon="1.74929">
        <ele>267.79998779297</ele>
        <time>2021-02-16T13:54:22Z</time>
      </trkpt>
      <trkpt lat="48.62571" lon="1.74933">
        <ele>267.79998779297</ele>
        <time>2021-02-16T13:54:26Z</time>
      </trkpt>
      <trkpt lat="48.62572" lon="1.74934">
        <ele>267.79998779297</ele>
        <time>2021-02-16T13:54:27Z</time>
      </trkpt>
      <trkpt lat="48.62573" lon="1.74936">
        <ele>267.79998779297</ele>
        <time>2021-02-16T13:54:28Z</time>
      </trkpt>
      <trkpt lat="48.62581" lon="1.74947">
        <ele>268</ele>
        <time>2021-02-16T13:54:36Z</time>
      </trkpt>
      <trkpt lat="48.62582" lon="1.74948">
        <ele>268.20001220703</ele>
        <time>2021-02-16T13:54:37Z</time>
      </trkpt>
      <trkpt lat="48.62588" lon="1.74956">
        <ele>268.20001220703</ele>
        <time>2021-02-16T13:54:42Z</time>
      </trkpt>
      <trkpt lat="48.62595" lon="1.74968">
        <ele>268.20001220703</ele>
        <time>2021-02-16T13:54:51Z</time>
      </trkpt>
      <trkpt lat="48.626" lon="1.74976">
        <ele>268.60000610352</ele>
        <time>2021-02-16T13:54:59Z</time>
      </trkpt>
      <trkpt lat="48.62609" lon="1.74991">
        <ele>269</ele>
        <time>2021-02-16T13:55:13Z</time>
      </trkpt>
      <trkpt lat="48.62618" lon="1.74998">
        <ele>268.79998779297</ele>
        <time>2021-02-16T13:55:20Z</time>
      </trkpt>
      <trkpt lat="48.62626" lon="1.75017">
        <ele>268.39999389648</ele>
        <time>2021-02-16T13:55:32Z</time>
      </trkpt>
      <trkpt lat="48.62639" lon="1.75042">
        <ele>268.39999389648</ele>
        <time>2021-02-16T13:55:47Z</time>
      </trkpt>
      <trkpt lat="48.62638" lon="1.75055">
        <ele>268.39999389648</ele>
        <time>2021-02-16T13:55:55Z</time>
      </trkpt>
      <trkpt lat="48.62634" lon="1.75084">
        <ele>268.20001220703</ele>
        <time>2021-02-16T13:56:06Z</time>
      </trkpt>
      <trkpt lat="48.62628" lon="1.75095">
        <ele>268.20001220703</ele>
        <time>2021-02-16T13:56:14Z</time>
      </trkpt>
      <trkpt lat="48.62628" lon="1.75097">
        <ele>268.20001220703</ele>
        <time>2021-02-16T13:56:15Z</time>
      </trkpt>
      <trkpt lat="48.62626" lon="1.75105">
        <ele>268</ele>
        <time>2021-02-16T13:56:19Z</time>
      </trkpt>
      <trkpt lat="48.62622" lon="1.75119">
        <ele>268.20001220703</ele>
        <time>2021-02-16T13:56:29Z</time>
      </trkpt>
      <trkpt lat="48.62618" lon="1.75128">
        <ele>268.60000610352</ele>
        <time>2021-02-16T13:56:37Z</time>
      </trkpt>
      <trkpt lat="48.62612" lon="1.75128">
        <ele>270.39999389648</ele>
        <time>2021-02-16T13:56:54Z</time>
      </trkpt>
      <trkpt lat="48.62606" lon="1.75128">
        <ele>270</ele>
        <time>2021-02-16T13:57:36Z</time>
      </trkpt>
      <trkpt lat="48.62624" lon="1.75121">
        <ele>269.60000610352</ele>
        <time>2021-02-16T13:57:47Z</time>
      </trkpt>
      <trkpt lat="48.62626" lon="1.75124">
        <ele>269.39999389648</ele>
        <time>2021-02-16T13:57:49Z</time>
      </trkpt>
      <trkpt lat="48.62624" lon="1.75145">
        <ele>268.39999389648</ele>
        <time>2021-02-16T13:58:00Z</time>
      </trkpt>
      <trkpt lat="48.62623" lon="1.75148">
        <ele>268.39999389648</ele>
        <time>2021-02-16T13:58:02Z</time>
      </trkpt>
      <trkpt lat="48.62617" lon="1.7517">
        <ele>268.60000610352</ele>
        <time>2021-02-16T13:58:14Z</time>
      </trkpt>
      <trkpt lat="48.62616" lon="1.75173">
        <ele>268.60000610352</ele>
        <time>2021-02-16T13:58:15Z</time>
      </trkpt>
      <trkpt lat="48.62615" lon="1.75175">
        <ele>268.60000610352</ele>
        <time>2021-02-16T13:58:16Z</time>
      </trkpt>
      <trkpt lat="48.62614" lon="1.75181">
        <ele>268.60000610352</ele>
        <time>2021-02-16T13:58:18Z</time>
      </trkpt>
      <trkpt lat="48.62612" lon="1.75192">
        <ele>268.60000610352</ele>
        <time>2021-02-16T13:58:23Z</time>
      </trkpt>
      <trkpt lat="48.62615" lon="1.75211">
        <ele>269</ele>
        <time>2021-02-16T13:58:35Z</time>
      </trkpt>
      <trkpt lat="48.62616" lon="1.75214">
        <ele>268.79998779297</ele>
        <time>2021-02-16T13:58:37Z</time>
      </trkpt>
      <trkpt lat="48.62618" lon="1.75228">
        <ele>269.20001220703</ele>
        <time>2021-02-16T13:58:46Z</time>
      </trkpt>
      <trkpt lat="48.62622" lon="1.7525">
        <ele>269</ele>
        <time>2021-02-16T13:58:59Z</time>
      </trkpt>
      <trkpt lat="48.62624" lon="1.75262">
        <ele>268.79998779297</ele>
        <time>2021-02-16T13:59:10Z</time>
      </trkpt>
      <trkpt lat="48.62626" lon="1.75266">
        <ele>268.79998779297</ele>
        <time>2021-02-16T13:59:13Z</time>
      </trkpt>
      <trkpt lat="48.62634" lon="1.75289">
        <ele>269</ele>
        <time>2021-02-16T13:59:27Z</time>
      </trkpt>
      <trkpt lat="48.62638" lon="1.75317">
        <ele>269.20001220703</ele>
        <time>2021-02-16T13:59:43Z</time>
      </trkpt>
      <trkpt lat="48.62643" lon="1.75341">
        <ele>269.60000610352</ele>
        <time>2021-02-16T13:59:55Z</time>
      </trkpt>
      <trkpt lat="48.62647" lon="1.7535">
        <ele>269.20001220703</ele>
        <time>2021-02-16T14:00:01Z</time>
      </trkpt>
      <trkpt lat="48.62648" lon="1.75357">
        <ele>269.20001220703</ele>
        <time>2021-02-16T14:00:06Z</time>
      </trkpt>
      <trkpt lat="48.62657" lon="1.75381">
        <ele>270.39999389648</ele>
        <time>2021-02-16T14:00:18Z</time>
      </trkpt>
      <trkpt lat="48.62668" lon="1.75404">
        <ele>271</ele>
        <time>2021-02-16T14:00:32Z</time>
      </trkpt>
      <trkpt lat="48.62674" lon="1.75417">
        <ele>271.20001220703</ele>
        <time>2021-02-16T14:00:44Z</time>
      </trkpt>
      <trkpt lat="48.62675" lon="1.75423">
        <ele>271.39999389648</ele>
        <time>2021-02-16T14:00:47Z</time>
      </trkpt>
      <trkpt lat="48.62675" lon="1.75424">
        <ele>271.60000610352</ele>
        <time>2021-02-16T14:00:48Z</time>
      </trkpt>
      <trkpt lat="48.62681" lon="1.75443">
        <ele>272.39999389648</ele>
        <time>2021-02-16T14:01:00Z</time>
      </trkpt>
      <trkpt lat="48.62686" lon="1.7546">
        <ele>273.20001220703</ele>
        <time>2021-02-16T14:01:12Z</time>
      </trkpt>
      <trkpt lat="48.62688" lon="1.75467">
        <ele>273.39999389648</ele>
        <time>2021-02-16T14:01:17Z</time>
      </trkpt>
      <trkpt lat="48.62691" lon="1.75481">
        <ele>274.60000610352</ele>
        <time>2021-02-16T14:01:27Z</time>
      </trkpt>
      <trkpt lat="48.62692" lon="1.75502">
        <ele>275.39999389648</ele>
        <time>2021-02-16T14:01:39Z</time>
      </trkpt>
      <trkpt lat="48.62695" lon="1.75516">
        <ele>276</ele>
        <time>2021-02-16T14:01:47Z</time>
      </trkpt>
      <trkpt lat="48.62694" lon="1.75525">
        <ele>276.39999389648</ele>
        <time>2021-02-16T14:01:51Z</time>
      </trkpt>
      <trkpt lat="48.62693" lon="1.75527">
        <ele>276.60000610352</ele>
        <time>2021-02-16T14:01:52Z</time>
      </trkpt>
      <trkpt lat="48.62692" lon="1.75529">
        <ele>276.60000610352</ele>
        <time>2021-02-16T14:01:53Z</time>
      </trkpt>
      <trkpt lat="48.62692" lon="1.75545">
        <ele>277.20001220703</ele>
        <time>2021-02-16T14:02:06Z</time>
      </trkpt>
      <trkpt lat="48.62693" lon="1.7555">
        <ele>277.39999389648</ele>
        <time>2021-02-16T14:02:13Z</time>
      </trkpt>
      <trkpt lat="48.62693" lon="1.75557">
        <ele>277.39999389648</ele>
        <time>2021-02-16T14:02:20Z</time>
      </trkpt>
      <trkpt lat="48.62694" lon="1.75576">
        <ele>278.60000610352</ele>
        <time>2021-02-16T14:02:45Z</time>
      </trkpt>
      <trkpt lat="48.62693" lon="1.75584">
        <ele>279.39999389648</ele>
        <time>2021-02-16T14:02:51Z</time>
      </trkpt>
      <trkpt lat="48.62694" lon="1.7561">
        <ele>280.60000610352</ele>
        <time>2021-02-16T14:03:07Z</time>
      </trkpt>
      <trkpt lat="48.62694" lon="1.75617">
        <ele>281</ele>
        <time>2021-02-16T14:03:11Z</time>
      </trkpt>
      <trkpt lat="48.62695" lon="1.75639">
        <ele>282</ele>
        <time>2021-02-16T14:03:23Z</time>
      </trkpt>
      <trkpt lat="48.62695" lon="1.75649">
        <ele>282.60000610352</ele>
        <time>2021-02-16T14:03:29Z</time>
      </trkpt>
      <trkpt lat="48.62695" lon="1.75653">
        <ele>282.79998779297</ele>
        <time>2021-02-16T14:03:31Z</time>
      </trkpt>
      <trkpt lat="48.62695" lon="1.75668">
        <ele>284</ele>
        <time>2021-02-16T14:03:47Z</time>
      </trkpt>
      <trkpt lat="48.62697" lon="1.75675">
        <ele>284.39999389648</ele>
        <time>2021-02-16T14:03:51Z</time>
      </trkpt>
      <trkpt lat="48.62698" lon="1.75702">
        <ele>286</ele>
        <time>2021-02-16T14:04:06Z</time>
      </trkpt>
      <trkpt lat="48.62698" lon="1.75721">
        <ele>286.60000610352</ele>
        <time>2021-02-16T14:04:20Z</time>
      </trkpt>
      <trkpt lat="48.62698" lon="1.75725">
        <ele>286.79998779297</ele>
        <time>2021-02-16T14:04:22Z</time>
      </trkpt>
      <trkpt lat="48.62696" lon="1.75749">
        <ele>287.39999389648</ele>
        <time>2021-02-16T14:04:33Z</time>
      </trkpt>
      <trkpt lat="48.62694" lon="1.75768">
        <ele>288</ele>
        <time>2021-02-16T14:04:45Z</time>
      </trkpt>
      <trkpt lat="48.62692" lon="1.7579">
        <ele>288.39999389648</ele>
        <time>2021-02-16T14:04:55Z</time>
      </trkpt>
      <trkpt lat="48.6269" lon="1.758">
        <ele>289</ele>
        <time>2021-02-16T14:05:05Z</time>
      </trkpt>
      <trkpt lat="48.62685" lon="1.75824">
        <ele>289</ele>
        <time>2021-02-16T14:05:16Z</time>
      </trkpt>
      <trkpt lat="48.62679" lon="1.75845">
        <ele>288.79998779297</ele>
        <time>2021-02-16T14:05:24Z</time>
      </trkpt>
      <trkpt lat="48.62677" lon="1.75848">
        <ele>288.60000610352</ele>
        <time>2021-02-16T14:05:26Z</time>
      </trkpt>
      <trkpt lat="48.62671" lon="1.75859">
        <ele>288.20001220703</ele>
        <time>2021-02-16T14:05:33Z</time>
      </trkpt>
      <trkpt lat="48.62664" lon="1.75874">
        <ele>287.60000610352</ele>
        <time>2021-02-16T14:05:45Z</time>
      </trkpt>
      <trkpt lat="48.62657" lon="1.75886">
        <ele>287</ele>
        <time>2021-02-16T14:05:52Z</time>
      </trkpt>
      <trkpt lat="48.62656" lon="1.75889">
        <ele>286.60000610352</ele>
        <time>2021-02-16T14:05:53Z</time>
      </trkpt>
      <trkpt lat="48.62654" lon="1.75891">
        <ele>286.39999389648</ele>
        <time>2021-02-16T14:05:54Z</time>
      </trkpt>
      <trkpt lat="48.62654" lon="1.75893">
        <ele>286.39999389648</ele>
        <time>2021-02-16T14:05:55Z</time>
      </trkpt>
      <trkpt lat="48.62652" lon="1.75898">
        <ele>286.20001220703</ele>
        <time>2021-02-16T14:05:58Z</time>
      </trkpt>
      <trkpt lat="48.62648" lon="1.75913">
        <ele>285.60000610352</ele>
        <time>2021-02-16T14:06:07Z</time>
      </trkpt>
      <trkpt lat="48.62644" lon="1.75923">
        <ele>285.20001220703</ele>
        <time>2021-02-16T14:06:11Z</time>
      </trkpt>
      <trkpt lat="48.62643" lon="1.75926">
        <ele>285</ele>
        <time>2021-02-16T14:06:12Z</time>
      </trkpt>
      <trkpt lat="48.62642" lon="1.75928">
        <ele>285</ele>
        <time>2021-02-16T14:06:13Z</time>
      </trkpt>
      <trkpt lat="48.62639" lon="1.75943">
        <ele>284.79998779297</ele>
        <time>2021-02-16T14:06:20Z</time>
      </trkpt>
      <trkpt lat="48.6263" lon="1.75963">
        <ele>284.39999389648</ele>
        <time>2021-02-16T14:06:33Z</time>
      </trkpt>
      <trkpt lat="48.62628" lon="1.75967">
        <ele>284.39999389648</ele>
        <time>2021-02-16T14:06:35Z</time>
      </trkpt>
      <trkpt lat="48.6262" lon="1.75979">
        <ele>284.20001220703</ele>
        <time>2021-02-16T14:06:45Z</time>
      </trkpt>
      <trkpt lat="48.62612" lon="1.75998">
        <ele>284.20001220703</ele>
        <time>2021-02-16T14:06:56Z</time>
      </trkpt>
      <trkpt lat="48.62606" lon="1.76015">
        <ele>284</ele>
        <time>2021-02-16T14:07:05Z</time>
      </trkpt>
      <trkpt lat="48.62605" lon="1.76017">
        <ele>284</ele>
        <time>2021-02-16T14:07:07Z</time>
      </trkpt>
      <trkpt lat="48.62599" lon="1.76026">
        <ele>284</ele>
        <time>2021-02-16T14:07:14Z</time>
      </trkpt>
      <trkpt lat="48.6259" lon="1.76038">
        <ele>284.39999389648</ele>
        <time>2021-02-16T14:07:27Z</time>
      </trkpt>
      <trkpt lat="48.62567" lon="1.76036">
        <ele>285</ele>
        <time>2021-02-16T14:07:48Z</time>
      </trkpt>
      <trkpt lat="48.62566" lon="1.76037">
        <ele>285</ele>
        <time>2021-02-16T14:07:49Z</time>
      </trkpt>
      <trkpt lat="48.62547" lon="1.76047">
        <ele>284.20001220703</ele>
        <time>2021-02-16T14:08:03Z</time>
      </trkpt>
      <trkpt lat="48.62545" lon="1.7605">
        <ele>284.20001220703</ele>
        <time>2021-02-16T14:08:05Z</time>
      </trkpt>
      <trkpt lat="48.62543" lon="1.76052">
        <ele>284.20001220703</ele>
        <time>2021-02-16T14:08:06Z</time>
      </trkpt>
      <trkpt lat="48.62543" lon="1.76054">
        <ele>284.20001220703</ele>
        <time>2021-02-16T14:08:07Z</time>
      </trkpt>
      <trkpt lat="48.62542" lon="1.76055">
        <ele>284.39999389648</ele>
        <time>2021-02-16T14:08:08Z</time>
      </trkpt>
      <trkpt lat="48.62542" lon="1.76058">
        <ele>284.39999389648</ele>
        <time>2021-02-16T14:08:09Z</time>
      </trkpt>
      <trkpt lat="48.62542" lon="1.7606">
        <ele>284.60000610352</ele>
        <time>2021-02-16T14:08:10Z</time>
      </trkpt>
      <trkpt lat="48.6254" lon="1.76062">
        <ele>284.60000610352</ele>
        <time>2021-02-16T14:08:11Z</time>
      </trkpt>
      <trkpt lat="48.62539" lon="1.76064">
        <ele>284.60000610352</ele>
        <time>2021-02-16T14:08:12Z</time>
      </trkpt>
      <trkpt lat="48.62531" lon="1.76094">
        <ele>285.39999389648</ele>
        <time>2021-02-16T14:08:28Z</time>
      </trkpt>
      <trkpt lat="48.62526" lon="1.76116">
        <ele>286</ele>
        <time>2021-02-16T14:08:40Z</time>
      </trkpt>
      <trkpt lat="48.62525" lon="1.76132">
        <ele>286.39999389648</ele>
        <time>2021-02-16T14:08:49Z</time>
      </trkpt>
      <trkpt lat="48.62525" lon="1.76134">
        <ele>286.39999389648</ele>
        <time>2021-02-16T14:08:50Z</time>
      </trkpt>
      <trkpt lat="48.62522" lon="1.76141">
        <ele>286.79998779297</ele>
        <time>2021-02-16T14:08:54Z</time>
      </trkpt>
      <trkpt lat="48.6252" lon="1.76143">
        <ele>287</ele>
        <time>2021-02-16T14:08:56Z</time>
      </trkpt>
      <trkpt lat="48.6252" lon="1.76145">
        <ele>287</ele>
        <time>2021-02-16T14:08:57Z</time>
      </trkpt>
      <trkpt lat="48.6252" lon="1.76147">
        <ele>287.20001220703</ele>
        <time>2021-02-16T14:08:58Z</time>
      </trkpt>
      <trkpt lat="48.62519" lon="1.76149">
        <ele>287.20001220703</ele>
        <time>2021-02-16T14:08:59Z</time>
      </trkpt>
      <trkpt lat="48.62519" lon="1.76151">
        <ele>287.20001220703</ele>
        <time>2021-02-16T14:09:00Z</time>
      </trkpt>
      <trkpt lat="48.62518" lon="1.76153">
        <ele>287.20001220703</ele>
        <time>2021-02-16T14:09:01Z</time>
      </trkpt>
      <trkpt lat="48.62513" lon="1.76161">
        <ele>287.60000610352</ele>
        <time>2021-02-16T14:09:07Z</time>
      </trkpt>
      <trkpt lat="48.62506" lon="1.76183">
        <ele>288.60000610352</ele>
        <time>2021-02-16T14:09:21Z</time>
      </trkpt>
      <trkpt lat="48.62505" lon="1.76184">
        <ele>288.79998779297</ele>
        <time>2021-02-16T14:09:22Z</time>
      </trkpt>
      <trkpt lat="48.62505" lon="1.76186">
        <ele>288.79998779297</ele>
        <time>2021-02-16T14:09:23Z</time>
      </trkpt>
      <trkpt lat="48.62503" lon="1.76203">
        <ele>289.60000610352</ele>
        <time>2021-02-16T14:09:34Z</time>
      </trkpt>
      <trkpt lat="48.62503" lon="1.76213">
        <ele>290</ele>
        <time>2021-02-16T14:09:42Z</time>
      </trkpt>
      <trkpt lat="48.62498" lon="1.76225">
        <ele>290</ele>
        <time>2021-02-16T14:09:55Z</time>
      </trkpt>
      <trkpt lat="48.62504" lon="1.76231">
        <ele>290.20001220703</ele>
        <time>2021-02-16T14:10:10Z</time>
      </trkpt>
      <trkpt lat="48.6251" lon="1.76235">
        <ele>290.20001220703</ele>
        <time>2021-02-16T14:10:14Z</time>
      </trkpt>
      <trkpt lat="48.62521" lon="1.76245">
        <ele>290.39999389648</ele>
        <time>2021-02-16T14:10:24Z</time>
      </trkpt>
      <trkpt lat="48.62524" lon="1.76252">
        <ele>291.20001220703</ele>
        <time>2021-02-16T14:10:39Z</time>
      </trkpt>
      <trkpt lat="48.62527" lon="1.76249">
        <ele>290.79998779297</ele>
        <time>2021-02-16T14:10:57Z</time>
      </trkpt>
      <trkpt lat="48.62525" lon="1.76242">
        <ele>290.20001220703</ele>
        <time>2021-02-16T14:11:10Z</time>
      </trkpt>
      <trkpt lat="48.62504" lon="1.76242">
        <ele>290.39999389648</ele>
        <time>2021-02-16T14:11:22Z</time>
      </trkpt>
      <trkpt lat="48.62502" lon="1.76242">
        <ele>290.39999389648</ele>
        <time>2021-02-16T14:11:23Z</time>
      </trkpt>
      <trkpt lat="48.62499" lon="1.76244">
        <ele>290.60000610352</ele>
        <time>2021-02-16T14:11:25Z</time>
      </trkpt>
      <trkpt lat="48.62494" lon="1.76247">
        <ele>290.79998779297</ele>
        <time>2021-02-16T14:11:30Z</time>
      </trkpt>
      <trkpt lat="48.62493" lon="1.76248">
        <ele>290.79998779297</ele>
        <time>2021-02-16T14:11:31Z</time>
      </trkpt>
      <trkpt lat="48.62492" lon="1.76249">
        <ele>291</ele>
        <time>2021-02-16T14:11:33Z</time>
      </trkpt>
      <trkpt lat="48.62484" lon="1.76255">
        <ele>291.39999389648</ele>
        <time>2021-02-16T14:11:39Z</time>
      </trkpt>
      <trkpt lat="48.62483" lon="1.76256">
        <ele>291.39999389648</ele>
        <time>2021-02-16T14:11:40Z</time>
      </trkpt>
      <trkpt lat="48.62481" lon="1.76257">
        <ele>291.20001220703</ele>
        <time>2021-02-16T14:11:41Z</time>
      </trkpt>
      <trkpt lat="48.6248" lon="1.76258">
        <ele>291.20001220703</ele>
        <time>2021-02-16T14:11:42Z</time>
      </trkpt>
      <trkpt lat="48.6247" lon="1.76272">
        <ele>290.79998779297</ele>
        <time>2021-02-16T14:11:56Z</time>
      </trkpt>
      <trkpt lat="48.62458" lon="1.76284">
        <ele>290.79998779297</ele>
        <time>2021-02-16T14:12:07Z</time>
      </trkpt>
      <trkpt lat="48.62445" lon="1.76304">
        <ele>291</ele>
        <time>2021-02-16T14:12:22Z</time>
      </trkpt>
      <trkpt lat="48.62434" lon="1.76319">
        <ele>291.20001220703</ele>
        <time>2021-02-16T14:12:33Z</time>
      </trkpt>
      <trkpt lat="48.62433" lon="1.7632">
        <ele>291.20001220703</ele>
        <time>2021-02-16T14:12:34Z</time>
      </trkpt>
      <trkpt lat="48.62431" lon="1.76321">
        <ele>291</ele>
        <time>2021-02-16T14:12:35Z</time>
      </trkpt>
      <trkpt lat="48.6243" lon="1.76323">
        <ele>291</ele>
        <time>2021-02-16T14:12:36Z</time>
      </trkpt>
      <trkpt lat="48.62429" lon="1.76324">
        <ele>291.39999389648</ele>
        <time>2021-02-16T14:12:37Z</time>
      </trkpt>
      <trkpt lat="48.62411" lon="1.7635">
        <ele>291.79998779297</ele>
        <time>2021-02-16T14:12:55Z</time>
      </trkpt>
      <trkpt lat="48.62411" lon="1.76351">
        <ele>291.79998779297</ele>
        <time>2021-02-16T14:12:56Z</time>
      </trkpt>
      <trkpt lat="48.62408" lon="1.76355">
        <ele>292.60000610352</ele>
        <time>2021-02-16T14:12:59Z</time>
      </trkpt>
      <trkpt lat="48.62407" lon="1.76356">
        <ele>292.20001220703</ele>
        <time>2021-02-16T14:13:00Z</time>
      </trkpt>
      <trkpt lat="48.62406" lon="1.76357">
        <ele>292.20001220703</ele>
        <time>2021-02-16T14:13:01Z</time>
      </trkpt>
      <trkpt lat="48.62391" lon="1.76373">
        <ele>293.39999389648</ele>
        <time>2021-02-16T14:13:16Z</time>
      </trkpt>
      <trkpt lat="48.62377" lon="1.7639">
        <ele>293.60000610352</ele>
        <time>2021-02-16T14:13:29Z</time>
      </trkpt>
      <trkpt lat="48.62372" lon="1.76397">
        <ele>294</ele>
        <time>2021-02-16T14:13:35Z</time>
      </trkpt>
      <trkpt lat="48.62368" lon="1.76402">
        <ele>294.20001220703</ele>
        <time>2021-02-16T14:13:39Z</time>
      </trkpt>
      <trkpt lat="48.62356" lon="1.76412">
        <ele>294.20001220703</ele>
        <time>2021-02-16T14:13:50Z</time>
      </trkpt>
      <trkpt lat="48.62349" lon="1.76421">
        <ele>294.60000610352</ele>
        <time>2021-02-16T14:13:57Z</time>
      </trkpt>
      <trkpt lat="48.62347" lon="1.76422">
        <ele>294.79998779297</ele>
        <time>2021-02-16T14:13:59Z</time>
      </trkpt>
      <trkpt lat="48.62346" lon="1.76424">
        <ele>294.79998779297</ele>
        <time>2021-02-16T14:14:00Z</time>
      </trkpt>
      <trkpt lat="48.62334" lon="1.76438">
        <ele>294.79998779297</ele>
        <time>2021-02-16T14:14:13Z</time>
      </trkpt>
      <trkpt lat="48.62333" lon="1.76439">
        <ele>295</ele>
        <time>2021-02-16T14:14:14Z</time>
      </trkpt>
      <trkpt lat="48.62328" lon="1.76442">
        <ele>295.39999389648</ele>
        <time>2021-02-16T14:14:19Z</time>
      </trkpt>
      <trkpt lat="48.62327" lon="1.76443">
        <ele>295.39999389648</ele>
        <time>2021-02-16T14:14:20Z</time>
      </trkpt>
      <trkpt lat="48.62326" lon="1.76444">
        <ele>295.39999389648</ele>
        <time>2021-02-16T14:14:21Z</time>
      </trkpt>
      <trkpt lat="48.62324" lon="1.76445">
        <ele>295.39999389648</ele>
        <time>2021-02-16T14:14:22Z</time>
      </trkpt>
      <trkpt lat="48.62323" lon="1.76446">
        <ele>295.39999389648</ele>
        <time>2021-02-16T14:14:23Z</time>
      </trkpt>
      <trkpt lat="48.62322" lon="1.76447">
        <ele>295.39999389648</ele>
        <time>2021-02-16T14:14:24Z</time>
      </trkpt>
      <trkpt lat="48.62321" lon="1.76448">
        <ele>295.39999389648</ele>
        <time>2021-02-16T14:14:25Z</time>
      </trkpt>
      <trkpt lat="48.62318" lon="1.76451">
        <ele>295.39999389648</ele>
        <time>2021-02-16T14:14:28Z</time>
      </trkpt>
      <trkpt lat="48.62315" lon="1.76453">
        <ele>295.39999389648</ele>
        <time>2021-02-16T14:14:30Z</time>
      </trkpt>
      <trkpt lat="48.62299" lon="1.76472">
        <ele>296</ele>
        <time>2021-02-16T14:14:45Z</time>
      </trkpt>
      <trkpt lat="48.62296" lon="1.76477">
        <ele>296</ele>
        <time>2021-02-16T14:14:49Z</time>
      </trkpt>
      <trkpt lat="48.62295" lon="1.76478">
        <ele>296</ele>
        <time>2021-02-16T14:14:50Z</time>
      </trkpt>
      <trkpt lat="48.62294" lon="1.7648">
        <ele>296</ele>
        <time>2021-02-16T14:14:51Z</time>
      </trkpt>
      <trkpt lat="48.62293" lon="1.76481">
        <ele>296</ele>
        <time>2021-02-16T14:14:52Z</time>
      </trkpt>
      <trkpt lat="48.62292" lon="1.76483">
        <ele>296</ele>
        <time>2021-02-16T14:14:53Z</time>
      </trkpt>
      <trkpt lat="48.62291" lon="1.76484">
        <ele>296</ele>
        <time>2021-02-16T14:14:54Z</time>
      </trkpt>
      <trkpt lat="48.6229" lon="1.76486">
        <ele>296.20001220703</ele>
        <time>2021-02-16T14:14:55Z</time>
      </trkpt>
      <trkpt lat="48.62273" lon="1.7651">
        <ele>296.60000610352</ele>
        <time>2021-02-16T14:15:12Z</time>
      </trkpt>
      <trkpt lat="48.62264" lon="1.76536">
        <ele>297.20001220703</ele>
        <time>2021-02-16T14:15:27Z</time>
      </trkpt>
      <trkpt lat="48.62253" lon="1.76565">
        <ele>297.39999389648</ele>
        <time>2021-02-16T14:15:43Z</time>
      </trkpt>
      <trkpt lat="48.62246" lon="1.76595">
        <ele>297.60000610352</ele>
        <time>2021-02-16T14:16:00Z</time>
      </trkpt>
      <trkpt lat="48.62239" lon="1.76614">
        <ele>298.39999389648</ele>
        <time>2021-02-16T14:16:13Z</time>
      </trkpt>
      <trkpt lat="48.62234" lon="1.76631">
        <ele>298</ele>
        <time>2021-02-16T14:16:22Z</time>
      </trkpt>
      <trkpt lat="48.62228" lon="1.76656">
        <ele>298.39999389648</ele>
        <time>2021-02-16T14:16:37Z</time>
      </trkpt>
      <trkpt lat="48.62226" lon="1.76661">
        <ele>298.60000610352</ele>
        <time>2021-02-16T14:16:40Z</time>
      </trkpt>
      <trkpt lat="48.62225" lon="1.76663">
        <ele>298.60000610352</ele>
        <time>2021-02-16T14:16:42Z</time>
      </trkpt>
      <trkpt lat="48.62225" lon="1.76665">
        <ele>298.60000610352</ele>
        <time>2021-02-16T14:16:43Z</time>
      </trkpt>
      <trkpt lat="48.62224" lon="1.76667">
        <ele>298.60000610352</ele>
        <time>2021-02-16T14:16:44Z</time>
      </trkpt>
      <trkpt lat="48.62223" lon="1.7667">
        <ele>298.60000610352</ele>
        <time>2021-02-16T14:16:45Z</time>
      </trkpt>
      <trkpt lat="48.62223" lon="1.76672">
        <ele>298.79998779297</ele>
        <time>2021-02-16T14:16:46Z</time>
      </trkpt>
      <trkpt lat="48.62223" lon="1.76674">
        <ele>298.79998779297</ele>
        <time>2021-02-16T14:16:47Z</time>
      </trkpt>
      <trkpt lat="48.62223" lon="1.76676">
        <ele>298.79998779297</ele>
        <time>2021-02-16T14:16:48Z</time>
      </trkpt>
      <trkpt lat="48.62216" lon="1.76699">
        <ele>298.79998779297</ele>
        <time>2021-02-16T14:17:01Z</time>
      </trkpt>
      <trkpt lat="48.62207" lon="1.76729">
        <ele>299</ele>
        <time>2021-02-16T14:17:18Z</time>
      </trkpt>
      <trkpt lat="48.62204" lon="1.76747">
        <ele>299.20001220703</ele>
        <time>2021-02-16T14:17:28Z</time>
      </trkpt>
      <trkpt lat="48.62204" lon="1.76749">
        <ele>299.20001220703</ele>
        <time>2021-02-16T14:17:29Z</time>
      </trkpt>
      <trkpt lat="48.62204" lon="1.76751">
        <ele>299.39999389648</ele>
        <time>2021-02-16T14:17:30Z</time>
      </trkpt>
      <trkpt lat="48.62203" lon="1.76753">
        <ele>299.39999389648</ele>
        <time>2021-02-16T14:17:31Z</time>
      </trkpt>
      <trkpt lat="48.62203" lon="1.76755">
        <ele>299.39999389648</ele>
        <time>2021-02-16T14:17:32Z</time>
      </trkpt>
      <trkpt lat="48.62202" lon="1.76757">
        <ele>299.39999389648</ele>
        <time>2021-02-16T14:17:33Z</time>
      </trkpt>
      <trkpt lat="48.62202" lon="1.76759">
        <ele>299.39999389648</ele>
        <time>2021-02-16T14:17:34Z</time>
      </trkpt>
      <trkpt lat="48.62201" lon="1.7676">
        <ele>299.60000610352</ele>
        <time>2021-02-16T14:17:35Z</time>
      </trkpt>
      <trkpt lat="48.62201" lon="1.76762">
        <ele>299.60000610352</ele>
        <time>2021-02-16T14:17:36Z</time>
      </trkpt>
      <trkpt lat="48.62195" lon="1.76788">
        <ele>299.79998779297</ele>
        <time>2021-02-16T14:17:52Z</time>
      </trkpt>
      <trkpt lat="48.62188" lon="1.76818">
        <ele>300.20001220703</ele>
        <time>2021-02-16T14:18:09Z</time>
      </trkpt>
      <trkpt lat="48.62179" lon="1.76852">
        <ele>300.79998779297</ele>
        <time>2021-02-16T14:18:28Z</time>
      </trkpt>
      <trkpt lat="48.6217" lon="1.76881">
        <ele>301.39999389648</ele>
        <time>2021-02-16T14:18:44Z</time>
      </trkpt>
      <trkpt lat="48.62162" lon="1.76916">
        <ele>301.79998779297</ele>
        <time>2021-02-16T14:19:01Z</time>
      </trkpt>
      <trkpt lat="48.62157" lon="1.76938">
        <ele>301.60000610352</ele>
        <time>2021-02-16T14:19:14Z</time>
      </trkpt>
      <trkpt lat="48.6215" lon="1.7697">
        <ele>302.20001220703</ele>
        <time>2021-02-16T14:19:31Z</time>
      </trkpt>
      <trkpt lat="48.62144" lon="1.76994">
        <ele>302.60000610352</ele>
        <time>2021-02-16T14:19:46Z</time>
      </trkpt>
      <trkpt lat="48.62138" lon="1.7701">
        <ele>303.20001220703</ele>
        <time>2021-02-16T14:19:58Z</time>
      </trkpt>
      <trkpt lat="48.62144" lon="1.77016">
        <ele>303.60000610352</ele>
        <time>2021-02-16T14:20:06Z</time>
      </trkpt>
      <trkpt lat="48.62145" lon="1.77017">
        <ele>303.39999389648</ele>
        <time>2021-02-16T14:20:07Z</time>
      </trkpt>
      <trkpt lat="48.62146" lon="1.77019">
        <ele>303.39999389648</ele>
        <time>2021-02-16T14:20:08Z</time>
      </trkpt>
      <trkpt lat="48.62147" lon="1.77019">
        <ele>303.39999389648</ele>
        <time>2021-02-16T14:20:09Z</time>
      </trkpt>
      <trkpt lat="48.62148" lon="1.7702">
        <ele>303.39999389648</ele>
        <time>2021-02-16T14:20:10Z</time>
      </trkpt>
      <trkpt lat="48.62149" lon="1.77021">
        <ele>303.39999389648</ele>
        <time>2021-02-16T14:20:11Z</time>
      </trkpt>
      <trkpt lat="48.62171" lon="1.77031">
        <ele>303.20001220703</ele>
        <time>2021-02-16T14:20:29Z</time>
      </trkpt>
      <trkpt lat="48.62189" lon="1.7704">
        <ele>303.20001220703</ele>
        <time>2021-02-16T14:20:45Z</time>
      </trkpt>
      <trkpt lat="48.62205" lon="1.77048">
        <ele>302.79998779297</ele>
        <time>2021-02-16T14:21:01Z</time>
      </trkpt>
      <trkpt lat="48.62216" lon="1.77057">
        <ele>302.60000610352</ele>
        <time>2021-02-16T14:21:14Z</time>
      </trkpt>
      <trkpt lat="48.62218" lon="1.77058">
        <ele>302.60000610352</ele>
        <time>2021-02-16T14:21:15Z</time>
      </trkpt>
      <trkpt lat="48.62219" lon="1.77059">
        <ele>302.60000610352</ele>
        <time>2021-02-16T14:21:16Z</time>
      </trkpt>
      <trkpt lat="48.62221" lon="1.7706">
        <ele>302.60000610352</ele>
        <time>2021-02-16T14:21:17Z</time>
      </trkpt>
      <trkpt lat="48.62222" lon="1.77061">
        <ele>302.60000610352</ele>
        <time>2021-02-16T14:21:18Z</time>
      </trkpt>
      <trkpt lat="48.62224" lon="1.77061">
        <ele>302.60000610352</ele>
        <time>2021-02-16T14:21:19Z</time>
      </trkpt>
      <trkpt lat="48.62237" lon="1.77067">
        <ele>302.60000610352</ele>
        <time>2021-02-16T14:21:29Z</time>
      </trkpt>
      <trkpt lat="48.62239" lon="1.77069">
        <ele>302.60000610352</ele>
        <time>2021-02-16T14:21:31Z</time>
      </trkpt>
      <trkpt lat="48.62241" lon="1.7707">
        <ele>302.39999389648</ele>
        <time>2021-02-16T14:21:32Z</time>
      </trkpt>
      <trkpt lat="48.62242" lon="1.77071">
        <ele>302.39999389648</ele>
        <time>2021-02-16T14:21:33Z</time>
      </trkpt>
      <trkpt lat="48.62244" lon="1.77071">
        <ele>302.39999389648</ele>
        <time>2021-02-16T14:21:34Z</time>
      </trkpt>
      <trkpt lat="48.62245" lon="1.77071">
        <ele>302.39999389648</ele>
        <time>2021-02-16T14:21:35Z</time>
      </trkpt>
      <trkpt lat="48.62247" lon="1.77071">
        <ele>302.39999389648</ele>
        <time>2021-02-16T14:21:36Z</time>
      </trkpt>
      <trkpt lat="48.62248" lon="1.77071">
        <ele>302.39999389648</ele>
        <time>2021-02-16T14:21:37Z</time>
      </trkpt>
      <trkpt lat="48.62262" lon="1.77081">
        <ele>302.39999389648</ele>
        <time>2021-02-16T14:21:48Z</time>
      </trkpt>
      <trkpt lat="48.62276" lon="1.77087">
        <ele>302.79998779297</ele>
        <time>2021-02-16T14:21:59Z</time>
      </trkpt>
      <trkpt lat="48.62277" lon="1.77087">
        <ele>302.79998779297</ele>
        <time>2021-02-16T14:22:00Z</time>
      </trkpt>
      <trkpt lat="48.62278" lon="1.77088">
        <ele>302.79998779297</ele>
        <time>2021-02-16T14:22:01Z</time>
      </trkpt>
      <trkpt lat="48.6228" lon="1.77089">
        <ele>302.79998779297</ele>
        <time>2021-02-16T14:22:02Z</time>
      </trkpt>
      <trkpt lat="48.62281" lon="1.7709">
        <ele>302.79998779297</ele>
        <time>2021-02-16T14:22:03Z</time>
      </trkpt>
      <trkpt lat="48.62282" lon="1.7709">
        <ele>302.79998779297</ele>
        <time>2021-02-16T14:22:04Z</time>
      </trkpt>
      <trkpt lat="48.62284" lon="1.77091">
        <ele>302.79998779297</ele>
        <time>2021-02-16T14:22:05Z</time>
      </trkpt>
      <trkpt lat="48.62285" lon="1.77091">
        <ele>302.79998779297</ele>
        <time>2021-02-16T14:22:06Z</time>
      </trkpt>
      <trkpt lat="48.62291" lon="1.77096">
        <ele>302.79998779297</ele>
        <time>2021-02-16T14:22:12Z</time>
      </trkpt>
      <trkpt lat="48.62292" lon="1.77096">
        <ele>302.79998779297</ele>
        <time>2021-02-16T14:22:13Z</time>
      </trkpt>
      <trkpt lat="48.62293" lon="1.77096">
        <ele>302.79998779297</ele>
        <time>2021-02-16T14:22:14Z</time>
      </trkpt>
      <trkpt lat="48.62294" lon="1.77097">
        <ele>302.79998779297</ele>
        <time>2021-02-16T14:22:15Z</time>
      </trkpt>
      <trkpt lat="48.62295" lon="1.77097">
        <ele>302.60000610352</ele>
        <time>2021-02-16T14:22:16Z</time>
      </trkpt>
      <trkpt lat="48.62298" lon="1.77098">
        <ele>302.60000610352</ele>
        <time>2021-02-16T14:22:18Z</time>
      </trkpt>
      <trkpt lat="48.62299" lon="1.77099">
        <ele>302.60000610352</ele>
        <time>2021-02-16T14:22:19Z</time>
      </trkpt>
      <trkpt lat="48.62299" lon="1.771">
        <ele>302.60000610352</ele>
        <time>2021-02-16T14:22:20Z</time>
      </trkpt>
      <trkpt lat="48.623" lon="1.771">
        <ele>302.60000610352</ele>
        <time>2021-02-16T14:22:21Z</time>
      </trkpt>
      <trkpt lat="48.62301" lon="1.77101">
        <ele>302.60000610352</ele>
        <time>2021-02-16T14:22:22Z</time>
      </trkpt>
      <trkpt lat="48.62304" lon="1.77102">
        <ele>302.39999389648</ele>
        <time>2021-02-16T14:22:24Z</time>
      </trkpt>
      <trkpt lat="48.62305" lon="1.77102">
        <ele>302.39999389648</ele>
        <time>2021-02-16T14:22:25Z</time>
      </trkpt>
      <trkpt lat="48.62311" lon="1.77104">
        <ele>302.39999389648</ele>
        <time>2021-02-16T14:22:30Z</time>
      </trkpt>
      <trkpt lat="48.62315" lon="1.77104">
        <ele>302.39999389648</ele>
        <time>2021-02-16T14:22:33Z</time>
      </trkpt>
      <trkpt lat="48.62316" lon="1.77105">
        <ele>302.60000610352</ele>
        <time>2021-02-16T14:22:34Z</time>
      </trkpt>
      <trkpt lat="48.62325" lon="1.77108">
        <ele>302.20001220703</ele>
        <time>2021-02-16T14:22:40Z</time>
      </trkpt>
      <trkpt lat="48.62331" lon="1.7711">
        <ele>302.39999389648</ele>
        <time>2021-02-16T14:22:45Z</time>
      </trkpt>
      <trkpt lat="48.62333" lon="1.77111">
        <ele>302.39999389648</ele>
        <time>2021-02-16T14:22:46Z</time>
      </trkpt>
      <trkpt lat="48.62343" lon="1.77115">
        <ele>302.39999389648</ele>
        <time>2021-02-16T14:22:54Z</time>
      </trkpt>
      <trkpt lat="48.62351" lon="1.7712">
        <ele>302.60000610352</ele>
        <time>2021-02-16T14:23:00Z</time>
      </trkpt>
      <trkpt lat="48.62352" lon="1.77121">
        <ele>302.60000610352</ele>
        <time>2021-02-16T14:23:01Z</time>
      </trkpt>
      <trkpt lat="48.62353" lon="1.77121">
        <ele>302.60000610352</ele>
        <time>2021-02-16T14:23:02Z</time>
      </trkpt>
      <trkpt lat="48.62354" lon="1.77122">
        <ele>302.60000610352</ele>
        <time>2021-02-16T14:23:03Z</time>
      </trkpt>
      <trkpt lat="48.62356" lon="1.77122">
        <ele>302.60000610352</ele>
        <time>2021-02-16T14:23:04Z</time>
      </trkpt>
      <trkpt lat="48.62357" lon="1.77122">
        <ele>302.60000610352</ele>
        <time>2021-02-16T14:23:05Z</time>
      </trkpt>
      <trkpt lat="48.6237" lon="1.77127">
        <ele>302.20001220703</ele>
        <time>2021-02-16T14:23:15Z</time>
      </trkpt>
      <trkpt lat="48.62372" lon="1.77127">
        <ele>302.20001220703</ele>
        <time>2021-02-16T14:23:16Z</time>
      </trkpt>
      <trkpt lat="48.62374" lon="1.77127">
        <ele>302.20001220703</ele>
        <time>2021-02-16T14:23:17Z</time>
      </trkpt>
      <trkpt lat="48.62375" lon="1.77127">
        <ele>302.20001220703</ele>
        <time>2021-02-16T14:23:18Z</time>
      </trkpt>
      <trkpt lat="48.62384" lon="1.77133">
        <ele>302.39999389648</ele>
        <time>2021-02-16T14:23:28Z</time>
      </trkpt>
      <trkpt lat="48.62397" lon="1.77142">
        <ele>302.20001220703</ele>
        <time>2021-02-16T14:23:38Z</time>
      </trkpt>
      <trkpt lat="48.62401" lon="1.77149">
        <ele>302.20001220703</ele>
        <time>2021-02-16T14:23:43Z</time>
      </trkpt>
      <trkpt lat="48.62403" lon="1.77149">
        <ele>302.20001220703</ele>
        <time>2021-02-16T14:23:44Z</time>
      </trkpt>
      <trkpt lat="48.62404" lon="1.7715">
        <ele>302.20001220703</ele>
        <time>2021-02-16T14:23:45Z</time>
      </trkpt>
      <trkpt lat="48.62405" lon="1.7715">
        <ele>302.20001220703</ele>
        <time>2021-02-16T14:23:46Z</time>
      </trkpt>
      <trkpt lat="48.62409" lon="1.77148">
        <ele>302.20001220703</ele>
        <time>2021-02-16T14:23:50Z</time>
      </trkpt>
      <trkpt lat="48.62433" lon="1.77151">
        <ele>301.79998779297</ele>
        <time>2021-02-16T14:24:07Z</time>
      </trkpt>
      <trkpt lat="48.62436" lon="1.77152">
        <ele>301.79998779297</ele>
        <time>2021-02-16T14:24:09Z</time>
      </trkpt>
      <trkpt lat="48.6244" lon="1.77154">
        <ele>301.79998779297</ele>
        <time>2021-02-16T14:24:12Z</time>
      </trkpt>
      <trkpt lat="48.62459" lon="1.7716">
        <ele>301.79998779297</ele>
        <time>2021-02-16T14:24:28Z</time>
      </trkpt>
      <trkpt lat="48.62477" lon="1.77166">
        <ele>301.79998779297</ele>
        <time>2021-02-16T14:24:42Z</time>
      </trkpt>
      <trkpt lat="48.625" lon="1.77175">
        <ele>301.60000610352</ele>
        <time>2021-02-16T14:24:59Z</time>
      </trkpt>
      <trkpt lat="48.62508" lon="1.77179">
        <ele>301.60000610352</ele>
        <time>2021-02-16T14:25:05Z</time>
      </trkpt>
      <trkpt lat="48.62509" lon="1.7718">
        <ele>301.60000610352</ele>
        <time>2021-02-16T14:25:06Z</time>
      </trkpt>
      <trkpt lat="48.6251" lon="1.7718">
        <ele>301.60000610352</ele>
        <time>2021-02-16T14:25:07Z</time>
      </trkpt>
      <trkpt lat="48.62511" lon="1.7718">
        <ele>301.60000610352</ele>
        <time>2021-02-16T14:25:08Z</time>
      </trkpt>
      <trkpt lat="48.62512" lon="1.7718">
        <ele>301.60000610352</ele>
        <time>2021-02-16T14:25:09Z</time>
      </trkpt>
      <trkpt lat="48.62514" lon="1.7718">
        <ele>301.60000610352</ele>
        <time>2021-02-16T14:25:10Z</time>
      </trkpt>
      <trkpt lat="48.62535" lon="1.77189">
        <ele>301.39999389648</ele>
        <time>2021-02-16T14:25:27Z</time>
      </trkpt>
      <trkpt lat="48.62543" lon="1.7719">
        <ele>301.60000610352</ele>
        <time>2021-02-16T14:25:43Z</time>
      </trkpt>
      <trkpt lat="48.62539" lon="1.77185">
        <ele>302</ele>
        <time>2021-02-16T14:26:02Z</time>
      </trkpt>
      <trkpt lat="48.6254" lon="1.77187">
        <ele>301.60000610352</ele>
        <time>2021-02-16T14:26:04Z</time>
      </trkpt>
      <trkpt lat="48.62541" lon="1.77188">
        <ele>301.39999389648</ele>
        <time>2021-02-16T14:26:05Z</time>
      </trkpt>
      <trkpt lat="48.62542" lon="1.77188">
        <ele>301.39999389648</ele>
        <time>2021-02-16T14:26:06Z</time>
      </trkpt>
      <trkpt lat="48.62544" lon="1.77188">
        <ele>301.20001220703</ele>
        <time>2021-02-16T14:26:07Z</time>
      </trkpt>
      <trkpt lat="48.62545" lon="1.77189">
        <ele>301.20001220703</ele>
        <time>2021-02-16T14:26:08Z</time>
      </trkpt>
      <trkpt lat="48.62545" lon="1.77191">
        <ele>301.20001220703</ele>
        <time>2021-02-16T14:26:09Z</time>
      </trkpt>
    </trkseg>
  </trk>
</gpx>